<?xml version="1.0" encoding="UTF-8" standalone="no" ?><gpx xmlns="http://www.topografix.com/GPX/1/1" xmlns:gpxx="http://www.garmin.com/xmlschemas/GpxExtensions/v3" xmlns:wptx1="http://www.garmin.com/xmlschemas/WaypointExtension/v1" xmlns:gpxtpx="http://www.garmin.com/xmlschemas/TrackPointExtension/v1" creator="Oregon 450 China" version="1.1" xmlns:xsi="http://www.w3.org/2001/XMLSchema-instance" xsi:schemaLocation="http://www.topografix.com/GPX/1/1 http://www.topografix.com/GPX/1/1/gpx.xsd http://www.garmin.com/xmlschemas/GpxExtensions/v3 http://www8.garmin.com/xmlschemas/GpxExtensionsv3.xsd http://www.garmin.com/xmlschemas/WaypointExtension/v1 http://www8.garmin.com/xmlschemas/WaypointExtensionv1.xsd http://www.garmin.com/xmlschemas/TrackPointExtension/v1 http://www.garmin.com/xmlschemas/TrackPointExtensionv1.xsd"><metadata><link href="http://www.garmin.com"><text>Garmin International</text></link><time>2013-02-16T09:29:10Z</time></metadata><trk><name>七星墩登顶</name><extensions><gpxx:TrackExtension><gpxx:DisplayColor>Red</gpxx:DisplayColor></gpxx:TrackExtension></extensions><trkseg><trkpt lat="23.6916502286" lon="113.1995544769"><ele>15.52</ele><time>2013-02-15T23:48:18Z</time></trkpt><trkpt lat="23.6920729280" lon="113.1998781860"><ele>15.52</ele><time>2013-02-15T23:48:21Z</time></trkpt><trkpt lat="23.6936580297" lon="113.2009831723"><ele>14.56</ele><time>2013-02-15T23:48:30Z</time></trkpt><trkpt lat="23.6966071185" lon="113.2028152887"><ele>17.92</ele><time>2013-02-15T23:48:47Z</time></trkpt><trkpt lat="23.6967903469" lon="113.2029183861"><ele>17.92</ele><time>2013-02-15T23:48:48Z</time></trkpt><trkpt lat="23.6981638055" lon="113.2037113979"><ele>21.29</ele><time>2013-02-15T23:48:56Z</time></trkpt><trkpt lat="23.7006847467" lon="113.2049581222"><ele>23.21</ele><time>2013-02-15T23:49:10Z</time></trkpt><trkpt lat="23.7026639655" lon="113.2058088854"><ele>19.84</ele><time>2013-02-15T23:49:21Z</time></trkpt><trkpt lat="23.7032091245" lon="113.2060388010"><ele>17.92</ele><time>2013-02-15T23:49:24Z</time></trkpt><trkpt lat="23.7039359193" lon="113.2063454110"><ele>16.96</ele><time>2013-02-15T23:49:28Z</time></trkpt><trkpt lat="23.7075694744" lon="113.2076998428"><ele>20.32</ele><time>2013-02-15T23:49:49Z</time></trkpt><trkpt lat="23.7084579561" lon="113.2080700714"><ele>20.81</ele><time>2013-02-15T23:49:54Z</time></trkpt><trkpt lat="23.7091948092" lon="113.2083745021"><ele>22.25</ele><time>2013-02-15T23:49:58Z</time></trkpt><trkpt lat="23.7103110272" lon="113.2088023145"><ele>25.13</ele><time>2013-02-15T23:50:04Z</time></trkpt><trkpt lat="23.7119977176" lon="113.2093662489"><ele>28.98</ele><time>2013-02-15T23:50:13Z</time></trkpt><trkpt lat="23.7123652641" lon="113.2094854396"><ele>29.94</ele><time>2013-02-15T23:50:15Z</time></trkpt><trkpt lat="23.7154229823" lon="113.2104317565"><ele>33.78</ele><time>2013-02-15T23:50:32Z</time></trkpt><trkpt lat="23.7161174230" lon="113.2106873207"><ele>30.42</ele><time>2013-02-15T23:50:36Z</time></trkpt><trkpt lat="23.7162908446" lon="113.2107537054"><ele>30.42</ele><time>2013-02-15T23:50:37Z</time></trkpt><trkpt lat="23.7164640147" lon="113.2108231913"><ele>28.98</ele><time>2013-02-15T23:50:38Z</time></trkpt><trkpt lat="23.7169852853" lon="113.2110435516"><ele>25.61</ele><time>2013-02-15T23:50:41Z</time></trkpt><trkpt lat="23.7171575334" lon="113.2111209165"><ele>25.61</ele><time>2013-02-15T23:50:42Z</time></trkpt><trkpt lat="23.7176689133" lon="113.2113566156"><ele>23.69</ele><time>2013-02-15T23:50:45Z</time></trkpt><trkpt lat="23.7183478475" lon="113.2116746251"><ele>20.32</ele><time>2013-02-15T23:50:49Z</time></trkpt><trkpt lat="23.7188571319" lon="113.2119105756"><ele>19.36</ele><time>2013-02-15T23:50:52Z</time></trkpt><trkpt lat="23.7191991974" lon="113.2120697480"><ele>17.92</ele><time>2013-02-15T23:50:54Z</time></trkpt><trkpt lat="23.7197191268" lon="113.2123226300"><ele>14.08</ele><time>2013-02-15T23:50:57Z</time></trkpt><trkpt lat="23.7220126670" lon="113.2132117823"><ele>13.60</ele><time>2013-02-15T23:51:10Z</time></trkpt><trkpt lat="23.7254539412" lon="113.2145347819"><ele>11.67</ele><time>2013-02-15T23:51:29Z</time></trkpt><trkpt lat="23.7256342359" lon="113.2146030944"><ele>16.00</ele><time>2013-02-15T23:51:30Z</time></trkpt><trkpt lat="23.7276269495" lon="113.2152775861"><ele>12.63</ele><time>2013-02-15T23:51:41Z</time></trkpt><trkpt lat="23.7277943362" lon="113.2153201662"><ele>12.63</ele><time>2013-02-15T23:51:42Z</time></trkpt><trkpt lat="23.7293100357" lon="113.2156168856"><ele>16.00</ele><time>2013-02-15T23:51:51Z</time></trkpt><trkpt lat="23.7296763249" lon="113.2156799175"><ele>16.96</ele><time>2013-02-15T23:51:53Z</time></trkpt><trkpt lat="23.7309965584" lon="113.2158635650"><ele>19.84</ele><time>2013-02-15T23:52:00Z</time></trkpt><trkpt lat="23.7334413081" lon="113.2162183709"><ele>20.81</ele><time>2013-02-15T23:52:13Z</time></trkpt><trkpt lat="23.7349955644" lon="113.2164420001"><ele>17.44</ele><time>2013-02-15T23:52:21Z</time></trkpt><trkpt lat="23.7384113576" lon="113.2170482632"><ele>17.44</ele><time>2013-02-15T23:52:38Z</time></trkpt><trkpt lat="23.7391640525" lon="113.2172334194"><ele>22.25</ele><time>2013-02-15T23:52:42Z</time></trkpt><trkpt lat="23.7395406514" lon="113.2173251174"><ele>26.09</ele><time>2013-02-15T23:52:44Z</time></trkpt><trkpt lat="23.7401064299" lon="113.2174745668"><ele>29.94</ele><time>2013-02-15T23:52:47Z</time></trkpt><trkpt lat="23.7404799275" lon="113.2175830286"><ele>30.90</ele><time>2013-02-15T23:52:49Z</time></trkpt><trkpt lat="23.7433524895" lon="113.2186585106"><ele>30.42</ele><time>2013-02-15T23:53:05Z</time></trkpt><trkpt lat="23.7460369617" lon="113.2198641635"><ele>29.94</ele><time>2013-02-15T23:53:20Z</time></trkpt><trkpt lat="23.7487951107" lon="113.2211703993"><ele>30.90</ele><time>2013-02-15T23:53:36Z</time></trkpt><trkpt lat="23.7489569653" lon="113.2212494407"><ele>30.42</ele><time>2013-02-15T23:53:37Z</time></trkpt><trkpt lat="23.7499296851" lon="113.2216918375"><ele>32.82</ele><time>2013-02-15T23:53:43Z</time></trkpt><trkpt lat="23.7510604877" lon="113.2221989427"><ele>36.67</ele><time>2013-02-15T23:53:50Z</time></trkpt><trkpt lat="23.7512217555" lon="113.2222746313"><ele>36.67</ele><time>2013-02-15T23:53:51Z</time></trkpt><trkpt lat="23.7520355545" lon="113.2226609532"><ele>40.51</ele><time>2013-02-15T23:53:56Z</time></trkpt><trkpt lat="23.7523620296" lon="113.2228150126"><ele>41.47</ele><time>2013-02-15T23:53:58Z</time></trkpt><trkpt lat="23.7531921733" lon="113.2232015021"><ele>44.36</ele><time>2013-02-15T23:54:03Z</time></trkpt><trkpt lat="23.7540374883" lon="113.2236013189"><ele>46.28</ele><time>2013-02-15T23:54:08Z</time></trkpt><trkpt lat="23.7547387183" lon="113.2239200827"><ele>46.28</ele><time>2013-02-15T23:54:12Z</time></trkpt><trkpt lat="23.7562134303" lon="113.2246225700"><ele>42.92</ele><time>2013-02-15T23:54:20Z</time></trkpt><trkpt lat="23.7573065143" lon="113.2251668070"><ele>40.03</ele><time>2013-02-15T23:54:26Z</time></trkpt><trkpt lat="23.7585301045" lon="113.2259759959"><ele>36.67</ele><time>2013-02-15T23:54:33Z</time></trkpt><trkpt lat="23.7593871541" lon="113.2265593763"><ele>33.78</ele><time>2013-02-15T23:54:38Z</time></trkpt><trkpt lat="23.7598957680" lon="113.2269120030"><ele>32.34</ele><time>2013-02-15T23:54:41Z</time></trkpt><trkpt lat="23.7637025770" lon="113.2294188626"><ele>31.86</ele><time>2013-02-15T23:55:03Z</time></trkpt><trkpt lat="23.7661519367" lon="113.2303303108"><ele>29.46</ele><time>2013-02-15T23:55:16Z</time></trkpt><trkpt lat="23.7691358943" lon="113.2312394120"><ele>28.98</ele><time>2013-02-15T23:55:31Z</time></trkpt><trkpt lat="23.7720703986" lon="113.2322215196"><ele>28.02</ele><time>2013-02-15T23:55:46Z</time></trkpt><trkpt lat="23.7732227426" lon="113.2326577976"><ele>31.38</ele><time>2013-02-15T23:55:52Z</time></trkpt><trkpt lat="23.7737860903" lon="113.2328750566"><ele>28.98</ele><time>2013-02-15T23:55:55Z</time></trkpt><trkpt lat="23.7741603423" lon="113.2330193929"><ele>28.02</ele><time>2013-02-15T23:55:57Z</time></trkpt><trkpt lat="23.7760476116" lon="113.2337441761"><ele>27.53</ele><time>2013-02-15T23:56:07Z</time></trkpt><trkpt lat="23.7766078580" lon="113.2339643687"><ele>24.65</ele><time>2013-02-15T23:56:10Z</time></trkpt><trkpt lat="23.7775601260" lon="113.2343467511"><ele>26.09</ele><time>2013-02-15T23:56:15Z</time></trkpt><trkpt lat="23.7789469119" lon="113.2353075687"><ele>27.53</ele><time>2013-02-15T23:56:23Z</time></trkpt><trkpt lat="23.7795601320" lon="113.2358870935"><ele>25.61</ele><time>2013-02-15T23:56:27Z</time></trkpt><trkpt lat="23.7814259436" lon="113.2376419287"><ele>29.46</ele><time>2013-02-15T23:56:40Z</time></trkpt><trkpt lat="23.7815672625" lon="113.2377767097"><ele>26.09</ele><time>2013-02-15T23:56:41Z</time></trkpt><trkpt lat="23.7817081623" lon="113.2379117422"><ele>22.73</ele><time>2013-02-15T23:56:42Z</time></trkpt><trkpt lat="23.7818472181" lon="113.2380464394"><ele>28.98</ele><time>2013-02-15T23:56:43Z</time></trkpt><trkpt lat="23.7819822505" lon="113.2381835673"><ele>27.53</ele><time>2013-02-15T23:56:44Z</time></trkpt><trkpt lat="23.7827011663" lon="113.2391137071"><ele>28.02</ele><time>2013-02-15T23:56:50Z</time></trkpt><trkpt lat="23.7828939501" lon="113.2394618914"><ele>29.46</ele><time>2013-02-15T23:56:52Z</time></trkpt><trkpt lat="23.7833796814" lon="113.2410047483"><ele>28.98</ele><time>2013-02-15T23:57:00Z</time></trkpt><trkpt lat="23.7838329747" lon="113.2434924971"><ele>28.50</ele><time>2013-02-15T23:57:12Z</time></trkpt><trkpt lat="23.7840966694" lon="113.2449271437"><ele>30.90</ele><time>2013-02-15T23:57:19Z</time></trkpt><trkpt lat="23.7842221465" lon="113.2455325685"><ele>28.98</ele><time>2013-02-15T23:57:22Z</time></trkpt><trkpt lat="23.7849315070" lon="113.2477418706"><ele>27.05</ele><time>2013-02-15T23:57:33Z</time></trkpt><trkpt lat="23.7851848081" lon="113.2485151850"><ele>26.09</ele><time>2013-02-15T23:57:37Z</time></trkpt><trkpt lat="23.7859978527" lon="113.2508427557"><ele>25.13</ele><time>2013-02-15T23:57:49Z</time></trkpt><trkpt lat="23.7867596000" lon="113.2531485334"><ele>28.50</ele><time>2013-02-15T23:58:01Z</time></trkpt><trkpt lat="23.7871515378" lon="113.2543134503"><ele>26.57</ele><time>2013-02-15T23:58:07Z</time></trkpt><trkpt lat="23.7880094256" lon="113.2568165381"><ele>26.09</ele><time>2013-02-15T23:58:20Z</time></trkpt><trkpt lat="23.7886518147" lon="113.2587079983"><ele>29.46</ele><time>2013-02-15T23:58:30Z</time></trkpt><trkpt lat="23.7891450059" lon="113.2603061758"><ele>28.50</ele><time>2013-02-15T23:58:38Z</time></trkpt><trkpt lat="23.7898414582" lon="113.2624031603"><ele>28.98</ele><time>2013-02-15T23:58:48Z</time></trkpt><trkpt lat="23.7900700327" lon="113.2630246785"><ele>27.53</ele><time>2013-02-15T23:58:51Z</time></trkpt><trkpt lat="23.7906762958" lon="113.2643736620"><ele>28.02</ele><time>2013-02-15T23:58:58Z</time></trkpt><trkpt lat="23.7908057123" lon="113.2645398751"><ele>30.90</ele><time>2013-02-15T23:58:59Z</time></trkpt><trkpt lat="23.7913024239" lon="113.2652271912"><ele>28.02</ele><time>2013-02-15T23:59:03Z</time></trkpt><trkpt lat="23.7925014552" lon="113.2663830556"><ele>29.46</ele><time>2013-02-15T23:59:11Z</time></trkpt><trkpt lat="23.7940660212" lon="113.2673161291"><ele>30.90</ele><time>2013-02-15T23:59:20Z</time></trkpt><trkpt lat="23.7956376281" lon="113.2678810693"><ele>39.07</ele><time>2013-02-15T23:59:29Z</time></trkpt><trkpt lat="23.7958026677" lon="113.2679397427"><ele>36.19</ele><time>2013-02-15T23:59:30Z</time></trkpt><trkpt lat="23.7963039894" lon="113.2681146730"><ele>40.03</ele><time>2013-02-15T23:59:33Z</time></trkpt><trkpt lat="23.7973313592" lon="113.2684591692"><ele>41.95</ele><time>2013-02-15T23:59:39Z</time></trkpt><trkpt lat="23.7975036073" lon="113.2685171720"><ele>35.71</ele><time>2013-02-15T23:59:40Z</time></trkpt><trkpt lat="23.7976757716" lon="113.2685755938"><ele>45.80</ele><time>2013-02-15T23:59:41Z</time></trkpt><trkpt lat="23.7978501990" lon="113.2686343510"><ele>41.47</ele><time>2013-02-15T23:59:42Z</time></trkpt><trkpt lat="23.7982034963" lon="113.2687627617"><ele>38.59</ele><time>2013-02-15T23:59:44Z</time></trkpt><trkpt lat="23.7983883172" lon="113.2688206807"><ele>44.84</ele><time>2013-02-15T23:59:45Z</time></trkpt><trkpt lat="23.7985761557" lon="113.2688785996"><ele>40.99</ele><time>2013-02-15T23:59:46Z</time></trkpt><trkpt lat="23.7989592087" lon="113.2689902466"><ele>35.23</ele><time>2013-02-15T23:59:48Z</time></trkpt><trkpt lat="23.7991505675" lon="113.2690470759"><ele>44.84</ele><time>2013-02-15T23:59:49Z</time></trkpt><trkpt lat="23.7993421778" lon="113.2691072579"><ele>39.55</ele><time>2013-02-15T23:59:50Z</time></trkpt><trkpt lat="23.7997260690" lon="113.2692309748"><ele>35.23</ele><time>2013-02-15T23:59:52Z</time></trkpt><trkpt lat="23.7999173440" lon="113.2692920789"><ele>38.11</ele><time>2013-02-15T23:59:53Z</time></trkpt><trkpt lat="23.8003066834" lon="113.2694051508"><ele>35.23</ele><time>2013-02-15T23:59:55Z</time></trkpt><trkpt lat="23.8005057536" lon="113.2694540173"><ele>36.67</ele><time>2013-02-15T23:59:56Z</time></trkpt><trkpt lat="23.8013182953" lon="113.2696092501"><ele>32.82</ele><time>2013-02-16T00:00:00Z</time></trkpt><trkpt lat="23.8015228976" lon="113.2696307078"><ele>32.82</ele><time>2013-02-16T00:00:01Z</time></trkpt><trkpt lat="23.8031279482" lon="113.2696384192"><ele>33.30</ele><time>2013-02-16T00:00:09Z</time></trkpt><trkpt lat="23.8054980990" lon="113.2696329709"><ele>33.78</ele><time>2013-02-16T00:00:21Z</time></trkpt><trkpt lat="23.8060830720" lon="113.2696389221"><ele>31.38</ele><time>2013-02-16T00:00:24Z</time></trkpt><trkpt lat="23.8068544585" lon="113.2696483936"><ele>29.94</ele><time>2013-02-16T00:00:28Z</time></trkpt><trkpt lat="23.8092145510" lon="113.2696283609"><ele>30.90</ele><time>2013-02-16T00:00:40Z</time></trkpt><trkpt lat="23.8116168045" lon="113.2693080045"><ele>31.38</ele><time>2013-02-16T00:00:52Z</time></trkpt><trkpt lat="23.8137379289" lon="113.2686715666"><ele>30.42</ele><time>2013-02-16T00:01:03Z</time></trkpt><trkpt lat="23.8156270422" lon="113.2681379747"><ele>30.90</ele><time>2013-02-16T00:01:13Z</time></trkpt><trkpt lat="23.8175546285" lon="113.2680570893"><ele>34.74</ele><time>2013-02-16T00:01:23Z</time></trkpt><trkpt lat="23.8177432213" lon="113.2680715062"><ele>34.74</ele><time>2013-02-16T00:01:24Z</time></trkpt><trkpt lat="23.8194128964" lon="113.2681960613"><ele>32.34</ele><time>2013-02-16T00:01:34Z</time></trkpt><trkpt lat="23.8209731039" lon="113.2682010904"><ele>34.74</ele><time>2013-02-16T00:01:45Z</time></trkpt><trkpt lat="23.8226374146" lon="113.2682199497"><ele>31.38</ele><time>2013-02-16T00:01:55Z</time></trkpt><trkpt lat="23.8239336759" lon="113.2680783793"><ele>29.94</ele><time>2013-02-16T00:02:02Z</time></trkpt><trkpt lat="23.8246638235" lon="113.2677955739"><ele>31.38</ele><time>2013-02-16T00:02:06Z</time></trkpt><trkpt lat="23.8260092027" lon="113.2668112870"><ele>29.46</ele><time>2013-02-16T00:02:14Z</time></trkpt><trkpt lat="23.8269143645" lon="113.2655122597"><ele>28.98</ele><time>2013-02-16T00:02:22Z</time></trkpt><trkpt lat="23.8276751898" lon="113.2640763558"><ele>30.42</ele><time>2013-02-16T00:02:30Z</time></trkpt><trkpt lat="23.8288567867" lon="113.2619926985"><ele>31.38</ele><time>2013-02-16T00:02:42Z</time></trkpt><trkpt lat="23.8298225496" lon="113.2608128618"><ele>32.34</ele><time>2013-02-16T00:02:50Z</time></trkpt><trkpt lat="23.8302830514" lon="113.2604215946"><ele>35.71</ele><time>2013-02-16T00:02:53Z</time></trkpt><trkpt lat="23.8306103647" lon="113.2601891644"><ele>36.67</ele><time>2013-02-16T00:02:55Z</time></trkpt><trkpt lat="23.8309491612" lon="113.2599696424"><ele>38.11</ele><time>2013-02-16T00:02:57Z</time></trkpt><trkpt lat="23.8325594924" lon="113.2591019478"><ele>40.51</ele><time>2013-02-16T00:03:06Z</time></trkpt><trkpt lat="23.8337721862" lon="113.2588143647"><ele>40.03</ele><time>2013-02-16T00:03:12Z</time></trkpt><trkpt lat="23.8348219357" lon="113.2587884646"><ele>36.67</ele><time>2013-02-16T00:03:17Z</time></trkpt><trkpt lat="23.8354573678" lon="113.2588256802"><ele>35.23</ele><time>2013-02-16T00:03:20Z</time></trkpt><trkpt lat="23.8385644555" lon="113.2589369081"><ele>34.74</ele><time>2013-02-16T00:03:35Z</time></trkpt><trkpt lat="23.8403685763" lon="113.2590008620"><ele>31.86</ele><time>2013-02-16T00:03:44Z</time></trkpt><trkpt lat="23.8408386335" lon="113.2590167876"><ele>28.02</ele><time>2013-02-16T00:03:47Z</time></trkpt><trkpt lat="23.8411166612" lon="113.2590245828"><ele>27.05</ele><time>2013-02-16T00:03:49Z</time></trkpt><trkpt lat="23.8426962309" lon="113.2590404246"><ele>30.42</ele><time>2013-02-16T00:03:59Z</time></trkpt><trkpt lat="23.8445114158" lon="113.2592587732"><ele>32.34</ele><time>2013-02-16T00:04:09Z</time></trkpt><trkpt lat="23.8458074257" lon="113.2598792855"><ele>32.34</ele><time>2013-02-16T00:04:17Z</time></trkpt><trkpt lat="23.8464636449" lon="113.2605016418"><ele>30.90</ele><time>2013-02-16T00:04:22Z</time></trkpt><trkpt lat="23.8477154821" lon="113.2617455162"><ele>33.78</ele><time>2013-02-16T00:04:31Z</time></trkpt><trkpt lat="23.8478668593" lon="113.2618757710"><ele>34.26</ele><time>2013-02-16T00:04:32Z</time></trkpt><trkpt lat="23.8481665961" lon="113.2621319219"><ele>30.42</ele><time>2013-02-16T00:04:34Z</time></trkpt><trkpt lat="23.8496013265" lon="113.2633847650"><ele>29.46</ele><time>2013-02-16T00:04:44Z</time></trkpt><trkpt lat="23.8500716351" lon="113.2639371324"><ele>30.42</ele><time>2013-02-16T00:04:48Z</time></trkpt><trkpt lat="23.8501660153" lon="113.2640895154"><ele>30.42</ele><time>2013-02-16T00:04:49Z</time></trkpt><trkpt lat="23.8502484094" lon="113.2642423175"><ele>29.46</ele><time>2013-02-16T00:04:50Z</time></trkpt><trkpt lat="23.8503165543" lon="113.2643949520"><ele>29.94</ele><time>2013-02-16T00:04:51Z</time></trkpt><trkpt lat="23.8503730483" lon="113.2645474188"><ele>28.02</ele><time>2013-02-16T00:04:52Z</time></trkpt><trkpt lat="23.8504941668" lon="113.2649945933"><ele>24.65</ele><time>2013-02-16T00:04:55Z</time></trkpt><trkpt lat="23.8505240064" lon="113.2651416957"><ele>24.17</ele><time>2013-02-16T00:04:56Z</time></trkpt><trkpt lat="23.8508971687" lon="113.2664138172"><ele>27.05</ele><time>2013-02-16T00:05:05Z</time></trkpt><trkpt lat="23.8509632181" lon="113.2665641047"><ele>27.05</ele><time>2013-02-16T00:05:06Z</time></trkpt><trkpt lat="23.8517196849" lon="113.2676976733"><ele>29.46</ele><time>2013-02-16T00:05:14Z</time></trkpt><trkpt lat="23.8529298641" lon="113.2685363665"><ele>29.94</ele><time>2013-02-16T00:05:22Z</time></trkpt><trkpt lat="23.8551686704" lon="113.2694145385"><ele>31.38</ele><time>2013-02-16T00:05:34Z</time></trkpt><trkpt lat="23.8569580391" lon="113.2697536703"><ele>32.34</ele><time>2013-02-16T00:05:43Z</time></trkpt><trkpt lat="23.8594207261" lon="113.2696654927"><ele>31.86</ele><time>2013-02-16T00:05:55Z</time></trkpt><trkpt lat="23.8604395464" lon="113.2696216553"><ele>33.30</ele><time>2013-02-16T00:06:00Z</time></trkpt><trkpt lat="23.8635285292" lon="113.2693878002"><ele>34.74</ele><time>2013-02-16T00:06:15Z</time></trkpt><trkpt lat="23.8663197868" lon="113.2685698103"><ele>34.26</ele><time>2013-02-16T00:06:29Z</time></trkpt><trkpt lat="23.8699261006" lon="113.2675160374"><ele>32.34</ele><time>2013-02-16T00:06:47Z</time></trkpt><trkpt lat="23.8727029413" lon="113.2667157333"><ele>31.86</ele><time>2013-02-16T00:07:01Z</time></trkpt><trkpt lat="23.8731257245" lon="113.2665951177"><ele>33.30</ele><time>2013-02-16T00:07:03Z</time></trkpt><trkpt lat="23.8752015866" lon="113.2660180237"><ele>31.86</ele><time>2013-02-16T00:07:13Z</time></trkpt><trkpt lat="23.8757122122" lon="113.2658863440"><ele>28.98</ele><time>2013-02-16T00:07:16Z</time></trkpt><trkpt lat="23.8760179840" lon="113.2658115774"><ele>27.53</ele><time>2013-02-16T00:07:18Z</time></trkpt><trkpt lat="23.8781866338" lon="113.2653521653"><ele>27.53</ele><time>2013-02-16T00:07:33Z</time></trkpt><trkpt lat="23.8795061130" lon="113.2654796541"><ele>28.02</ele><time>2013-02-16T00:07:42Z</time></trkpt><trkpt lat="23.8804131187" lon="113.2658627909"><ele>29.46</ele><time>2013-02-16T00:07:48Z</time></trkpt><trkpt lat="23.8808866963" lon="113.2660900243"><ele>30.90</ele><time>2013-02-16T00:07:51Z</time></trkpt><trkpt lat="23.8832850941" lon="113.2672133669"><ele>28.50</ele><time>2013-02-16T00:08:06Z</time></trkpt><trkpt lat="23.8836818933" lon="113.2674443722"><ele>27.05</ele><time>2013-02-16T00:08:09Z</time></trkpt><trkpt lat="23.8839895092" lon="113.2676548418"><ele>24.17</ele><time>2013-02-16T00:08:12Z</time></trkpt><trkpt lat="23.8851885404" lon="113.2686683815"><ele>26.09</ele><time>2013-02-16T00:08:24Z</time></trkpt><trkpt lat="23.8858913630" lon="113.2692997903"><ele>28.50</ele><time>2013-02-16T00:08:30Z</time></trkpt><trkpt lat="23.8863824587" lon="113.2697378285"><ele>26.09</ele><time>2013-02-16T00:08:34Z</time></trkpt><trkpt lat="23.8866392802" lon="113.2699651457"><ele>28.02</ele><time>2013-02-16T00:08:36Z</time></trkpt><trkpt lat="23.8873055577" lon="113.2705625240"><ele>30.42</ele><time>2013-02-16T00:08:41Z</time></trkpt><trkpt lat="23.8894145284" lon="113.2722488791"><ele>32.34</ele><time>2013-02-16T00:08:55Z</time></trkpt><trkpt lat="23.8909074292" lon="113.2727676351"><ele>33.30</ele><time>2013-02-16T00:09:03Z</time></trkpt><trkpt lat="23.8925317582" lon="113.2727719937"><ele>32.82</ele><time>2013-02-16T00:09:11Z</time></trkpt><trkpt lat="23.8948283996" lon="113.2723929640"><ele>34.26</ele><time>2013-02-16T00:09:22Z</time></trkpt><trkpt lat="23.8975401968" lon="113.2719452865"><ele>33.78</ele><time>2013-02-16T00:09:35Z</time></trkpt><trkpt lat="23.8995169848" lon="113.2713876385"><ele>34.26</ele><time>2013-02-16T00:09:45Z</time></trkpt><trkpt lat="23.8997008838" lon="113.2712940965"><ele>34.26</ele><time>2013-02-16T00:09:46Z</time></trkpt><trkpt lat="23.9015478361" lon="113.2704707421"><ele>34.74</ele><time>2013-02-16T00:09:56Z</time></trkpt><trkpt lat="23.9025164489" lon="113.2703165151"><ele>34.74</ele><time>2013-02-16T00:10:01Z</time></trkpt><trkpt lat="23.9031163417" lon="113.2703096420"><ele>31.86</ele><time>2013-02-16T00:10:04Z</time></trkpt><trkpt lat="23.9039350860" lon="113.2703925390"><ele>36.19</ele><time>2013-02-16T00:10:08Z</time></trkpt><trkpt lat="23.9041465614" lon="113.2704267371"><ele>36.19</ele><time>2013-02-16T00:10:09Z</time></trkpt><trkpt lat="23.9047604520" lon="113.2705311757"><ele>40.51</ele><time>2013-02-16T00:10:12Z</time></trkpt><trkpt lat="23.9051612746" lon="113.2705994882"><ele>41.47</ele><time>2013-02-16T00:10:14Z</time></trkpt><trkpt lat="23.9053673856" lon="113.2706346083"><ele>35.71</ele><time>2013-02-16T00:10:15Z</time></trkpt><trkpt lat="23.9057807811" lon="113.2707051001"><ele>31.86</ele><time>2013-02-16T00:10:17Z</time></trkpt><trkpt lat="23.9065946639" lon="113.2708972972"><ele>35.71</ele><time>2013-02-16T00:10:21Z</time></trkpt><trkpt lat="23.9076118078" lon="113.2711005583"><ele>34.74</ele><time>2013-02-16T00:10:26Z</time></trkpt><trkpt lat="23.9092736039" lon="113.2710475009"><ele>34.74</ele><time>2013-02-16T00:10:34Z</time></trkpt><trkpt lat="23.9110726956" lon="113.2703023497"><ele>32.82</ele><time>2013-02-16T00:10:43Z</time></trkpt><trkpt lat="23.9130839333" lon="113.2687745802"><ele>33.78</ele><time>2013-02-16T00:10:55Z</time></trkpt><trkpt lat="23.9152899664" lon="113.2671320625"><ele>33.30</ele><time>2013-02-16T00:11:08Z</time></trkpt><trkpt lat="23.9158042800" lon="113.2667511888"><ele>35.23</ele><time>2013-02-16T00:11:11Z</time></trkpt><trkpt lat="23.9185694698" lon="113.2651654165"><ele>33.78</ele><time>2013-02-16T00:11:26Z</time></trkpt><trkpt lat="23.9206225332" lon="113.2648635004"><ele>32.34</ele><time>2013-02-16T00:11:36Z</time></trkpt><trkpt lat="23.9231961127" lon="113.2646979578"><ele>28.02</ele><time>2013-02-16T00:11:48Z</time></trkpt><trkpt lat="23.9238118473" lon="113.2646706328"><ele>24.17</ele><time>2013-02-16T00:11:51Z</time></trkpt><trkpt lat="23.9240182098" lon="113.2646595687"><ele>24.17</ele><time>2013-02-16T00:11:52Z</time></trkpt><trkpt lat="23.9250353537" lon="113.2646049187"><ele>20.81</ele><time>2013-02-16T00:11:57Z</time></trkpt><trkpt lat="23.9254583046" lon="113.2645822037"><ele>19.84</ele><time>2013-02-16T00:11:59Z</time></trkpt><trkpt lat="23.9277325664" lon="113.2644600794"><ele>20.81</ele><time>2013-02-16T00:12:10Z</time></trkpt><trkpt lat="23.9250099566" lon="113.2659994997"><ele>20.81</ele><time>2013-02-16T00:12:24Z</time></trkpt><trkpt lat="23.9242011867" lon="113.2671195734"><ele>19.36</ele><time>2013-02-16T00:12:40Z</time></trkpt><trkpt lat="23.9240809064" lon="113.2677781396"><ele>22.25</ele><time>2013-02-16T00:12:54Z</time></trkpt><trkpt lat="23.9239215665" lon="113.2692138758"><ele>25.13</ele><time>2013-02-16T00:13:03Z</time></trkpt><trkpt lat="23.9236723725" lon="113.2703407388"><ele>25.13</ele><time>2013-02-16T00:13:13Z</time></trkpt><trkpt lat="23.9232832845" lon="113.2707975525"><ele>21.77</ele><time>2013-02-16T00:13:20Z</time></trkpt><trkpt lat="23.9232649282" lon="113.2710214332"><ele>22.25</ele><time>2013-02-16T00:13:24Z</time></trkpt><trkpt lat="23.9233656786" lon="113.2713665999"><ele>21.29</ele><time>2013-02-16T00:13:29Z</time></trkpt><trkpt lat="23.9234220888" lon="113.2726300042"><ele>22.73</ele><time>2013-02-16T00:13:40Z</time></trkpt><trkpt lat="23.9234493300" lon="113.2730705570"><ele>21.29</ele><time>2013-02-16T00:13:44Z</time></trkpt><trkpt lat="23.9238324668" lon="113.2741154451"><ele>21.29</ele><time>2013-02-16T00:13:56Z</time></trkpt><trkpt lat="23.9238576964" lon="113.2744358853"><ele>21.29</ele><time>2013-02-16T00:14:00Z</time></trkpt><trkpt lat="23.9237162936" lon="113.2750420645"><ele>19.84</ele><time>2013-02-16T00:14:08Z</time></trkpt><trkpt lat="23.9234753978" lon="113.2756396104"><ele>21.29</ele><time>2013-02-16T00:14:16Z</time></trkpt><trkpt lat="23.9233099390" lon="113.2760623097"><ele>21.77</ele><time>2013-02-16T00:14:21Z</time></trkpt><trkpt lat="23.9226411469" lon="113.2768390607"><ele>22.73</ele><time>2013-02-16T00:14:33Z</time></trkpt><trkpt lat="23.9221849199" lon="113.2772846427"><ele>23.21</ele><time>2013-02-16T00:14:40Z</time></trkpt><trkpt lat="23.9221091475" lon="113.2773897517"><ele>22.73</ele><time>2013-02-16T00:14:42Z</time></trkpt><trkpt lat="23.9220762905" lon="113.2774565555"><ele>22.73</ele><time>2013-02-16T00:14:43Z</time></trkpt><trkpt lat="23.9220524020" lon="113.2775270473"><ele>21.29</ele><time>2013-02-16T00:14:44Z</time></trkpt><trkpt lat="23.9220172819" lon="113.2776971161"><ele>19.84</ele><time>2013-02-16T00:14:46Z</time></trkpt><trkpt lat="23.9220325369" lon="113.2779810112"><ele>19.84</ele><time>2013-02-16T00:14:50Z</time></trkpt><trkpt lat="23.9221282583" lon="113.2782160398"><ele>22.25</ele><time>2013-02-16T00:14:53Z</time></trkpt><trkpt lat="23.9228166640" lon="113.2791217044"><ele>21.77</ele><time>2013-02-16T00:15:02Z</time></trkpt><trkpt lat="23.9229156543" lon="113.2792443316"><ele>20.81</ele><time>2013-02-16T00:15:04Z</time></trkpt><trkpt lat="23.9230034128" lon="113.2794397976"><ele>20.81</ele><time>2013-02-16T00:15:07Z</time></trkpt><trkpt lat="23.9229951985" lon="113.2798268739"><ele>20.81</ele><time>2013-02-16T00:15:12Z</time></trkpt><trkpt lat="23.9227062743" lon="113.2810277492"><ele>21.29</ele><time>2013-02-16T00:15:28Z</time></trkpt><trkpt lat="23.9233173989" lon="113.2816871535"><ele>19.36</ele><time>2013-02-16T00:15:35Z</time></trkpt><trkpt lat="23.9235279523" lon="113.2822044846"><ele>21.29</ele><time>2013-02-16T00:15:41Z</time></trkpt><trkpt lat="23.9236764796" lon="113.2827280182"><ele>23.69</ele><time>2013-02-16T00:15:47Z</time></trkpt><trkpt lat="23.9239207283" lon="113.2844232582"><ele>22.25</ele><time>2013-02-16T00:16:05Z</time></trkpt><trkpt lat="23.9244714193" lon="113.2858171687"><ele>24.17</ele><time>2013-02-16T00:16:18Z</time></trkpt><trkpt lat="23.9246115647" lon="113.2862001378"><ele>21.77</ele><time>2013-02-16T00:16:21Z</time></trkpt><trkpt lat="23.9249085356" lon="113.2866834383"><ele>19.36</ele><time>2013-02-16T00:16:28Z</time></trkpt><trkpt lat="23.9250154048" lon="113.2868647389"><ele>19.36</ele><time>2013-02-16T00:16:31Z</time></trkpt><trkpt lat="23.9251532871" lon="113.2873315271"><ele>22.73</ele><time>2013-02-16T00:16:38Z</time></trkpt><trkpt lat="23.9256900642" lon="113.2888734620"><ele>22.25</ele><time>2013-02-16T00:16:54Z</time></trkpt><trkpt lat="23.9261409268" lon="113.2901773509"><ele>25.13</ele><time>2013-02-16T00:17:08Z</time></trkpt><trkpt lat="23.9229322504" lon="113.2985426579"><ele>31.86</ele><time>2013-02-16T00:19:14Z</time></trkpt><trkpt lat="23.9229729027" lon="113.2986753434"><ele>31.86</ele><time>2013-02-16T00:19:15Z</time></trkpt><trkpt lat="23.9230557159" lon="113.2988735754"><ele>32.34</ele><time>2013-02-16T00:19:17Z</time></trkpt><trkpt lat="23.9234572928" lon="113.2994097658"><ele>30.90</ele><time>2013-02-16T00:19:23Z</time></trkpt><trkpt lat="23.9237890486" lon="113.3004425000"><ele>27.05</ele><time>2013-02-16T00:19:34Z</time></trkpt><trkpt lat="23.9238252584" lon="113.3005295880"><ele>26.57</ele><time>2013-02-16T00:19:35Z</time></trkpt><trkpt lat="23.9238857757" lon="113.3007942047"><ele>26.57</ele><time>2013-02-16T00:19:38Z</time></trkpt><trkpt lat="23.9238114282" lon="113.3018835168"><ele>26.57</ele><time>2013-02-16T00:19:49Z</time></trkpt><trkpt lat="23.9238520805" lon="113.3022078127"><ele>23.69</ele><time>2013-02-16T00:19:53Z</time></trkpt><trkpt lat="23.9237215742" lon="113.3023820724"><ele>20.81</ele><time>2013-02-16T00:19:59Z</time></trkpt><trkpt lat="23.9230326656" lon="113.3026442584"><ele>19.36</ele><time>2013-02-16T00:20:10Z</time></trkpt><trkpt lat="23.9226101339" lon="113.3025517222"><ele>18.88</ele><time>2013-02-16T00:20:17Z</time></trkpt><trkpt lat="23.9218279347" lon="113.3020648174"><ele>18.40</ele><time>2013-02-16T00:20:29Z</time></trkpt><trkpt lat="23.9215325564" lon="113.3020666614"><ele>19.84</ele><time>2013-02-16T00:20:34Z</time></trkpt><trkpt lat="23.9209356811" lon="113.3024466131"><ele>20.81</ele><time>2013-02-16T00:20:49Z</time></trkpt><trkpt lat="23.9205009956" lon="113.3030227851"><ele>20.32</ele><time>2013-02-16T00:21:00Z</time></trkpt><trkpt lat="23.9197842591" lon="113.3038617298"><ele>23.69</ele><time>2013-02-16T00:21:12Z</time></trkpt><trkpt lat="23.9187916741" lon="113.3042958286"><ele>25.61</ele><time>2013-02-16T00:21:26Z</time></trkpt><trkpt lat="23.9181347005" lon="113.3046921249"><ele>26.09</ele><time>2013-02-16T00:21:41Z</time></trkpt><trkpt lat="23.9177130908" lon="113.3051703125"><ele>25.61</ele><time>2013-02-16T00:22:00Z</time></trkpt><trkpt lat="23.9174436126" lon="113.3054573089"><ele>28.50</ele><time>2013-02-16T00:22:11Z</time></trkpt><trkpt lat="23.9173032157" lon="113.3055432234"><ele>29.46</ele><time>2013-02-16T00:22:15Z</time></trkpt><trkpt lat="23.9169796742" lon="113.3055439778"><ele>31.38</ele><time>2013-02-16T00:22:24Z</time></trkpt><trkpt lat="23.9167950209" lon="113.3055200893"><ele>31.86</ele><time>2013-02-16T00:22:28Z</time></trkpt><trkpt lat="23.9160998259" lon="113.3055387810"><ele>32.82</ele><time>2013-02-16T00:22:45Z</time></trkpt><trkpt lat="23.9153973386" lon="113.3058774937"><ele>36.19</ele><time>2013-02-16T00:23:11Z</time></trkpt><trkpt lat="23.9152072370" lon="113.3059630729"><ele>39.55</ele><time>2013-02-16T00:23:18Z</time></trkpt><trkpt lat="23.9153550100" lon="113.3070638683"><ele>50.61</ele><time>2013-02-16T00:24:51Z</time></trkpt><trkpt lat="23.9153411798" lon="113.3071036823"><ele>51.09</ele><time>2013-02-16T00:25:03Z</time></trkpt><trkpt lat="23.9153452870" lon="113.3070937078"><ele>50.61</ele><time>2013-02-16T00:25:13Z</time></trkpt><trkpt lat="23.9153628051" lon="113.3070991561"><ele>50.13</ele><time>2013-02-16T00:25:28Z</time></trkpt><trkpt lat="23.9153825864" lon="113.3070983179"><ele>50.13</ele><time>2013-02-16T00:25:57Z</time></trkpt><trkpt lat="23.9153804071" lon="113.3071008325"><ele>50.61</ele><time>2013-02-16T00:26:24Z</time></trkpt><trkpt lat="23.9153803233" lon="113.3071061131"><ele>52.05</ele><time>2013-02-16T00:26:36Z</time></trkpt><trkpt lat="23.9153803233" lon="113.3071061131"><ele>52.05</ele><time>2013-02-16T00:26:45Z</time></trkpt><trkpt lat="23.9153767191" lon="113.3071064483"><ele>49.65</ele><time>2013-02-16T00:26:54Z</time></trkpt><trkpt lat="23.9153791498" lon="113.3071072865"><ele>52.05</ele><time>2013-02-16T00:27:21Z</time></trkpt><trkpt lat="23.9153915551" lon="113.3071076218"><ele>52.05</ele><time>2013-02-16T00:27:24Z</time></trkpt><trkpt lat="23.9154020324" lon="113.3071139921"><ele>52.05</ele><time>2013-02-16T00:27:36Z</time></trkpt><trkpt lat="23.9154020324" lon="113.3071139921"><ele>52.53</ele><time>2013-02-16T00:27:58Z</time></trkpt><trkpt lat="23.9154027030" lon="113.3071148302"><ele>48.20</ele><time>2013-02-16T00:28:22Z</time></trkpt><trkpt lat="23.9154027030" lon="113.3071148302"><ele>56.86</ele><time>2013-02-16T00:28:23Z</time></trkpt><trkpt lat="23.9154027030" lon="113.3071148302"><ele>53.49</ele><time>2013-02-16T00:28:24Z</time></trkpt><trkpt lat="23.9153866936" lon="113.3071200270"><ele>52.53</ele><time>2013-02-16T00:28:26Z</time></trkpt><trkpt lat="23.9153642301" lon="113.3070925344"><ele>53.49</ele><time>2013-02-16T00:28:40Z</time></trkpt><trkpt lat="23.9153642301" lon="113.3070925344"><ele>50.61</ele><time>2013-02-16T00:28:52Z</time></trkpt><trkpt lat="23.9153642301" lon="113.3070925344"><ele>29.94</ele><time>2013-02-16T00:28:53Z</time></trkpt><trkpt lat="23.9153642301" lon="113.3070925344"><ele>72.24</ele><time>2013-02-16T00:28:54Z</time></trkpt><trkpt lat="23.9153657388" lon="113.3071281575"><ele>52.53</ele><time>2013-02-16T00:28:57Z</time></trkpt><trkpt lat="23.9153574407" lon="113.3071491122"><ele>52.05</ele><time>2013-02-16T00:28:59Z</time></trkpt><trkpt lat="23.9152313769" lon="113.3073631860"><ele>53.49</ele><time>2013-02-16T00:29:18Z</time></trkpt><trkpt lat="23.9152236655" lon="113.3074180037"><ele>53.49</ele><time>2013-02-16T00:29:23Z</time></trkpt><trkpt lat="23.9152641501" lon="113.3074667864"><ele>53.49</ele><time>2013-02-16T00:29:36Z</time></trkpt><trkpt lat="23.9152493142" lon="113.3074699715"><ele>51.09</ele><time>2013-02-16T00:29:38Z</time></trkpt><trkpt lat="23.9152339753" lon="113.3074814547"><ele>55.89</ele><time>2013-02-16T00:29:39Z</time></trkpt><trkpt lat="23.9152239170" lon="113.3074941114"><ele>54.45</ele><time>2013-02-16T00:29:40Z</time></trkpt><trkpt lat="23.9151202329" lon="113.3075891621"><ele>55.41</ele><time>2013-02-16T00:29:52Z</time></trkpt><trkpt lat="23.9150532614" lon="113.3076475002"><ele>55.41</ele><time>2013-02-16T00:29:59Z</time></trkpt><trkpt lat="23.9150116872" lon="113.3077214286"><ele>56.37</ele><time>2013-02-16T00:30:06Z</time></trkpt><trkpt lat="23.9149696939" lon="113.3077647630"><ele>55.41</ele><time>2013-02-16T00:30:11Z</time></trkpt><trkpt lat="23.9148603939" lon="113.3078810200"><ele>57.82</ele><time>2013-02-16T00:30:25Z</time></trkpt><trkpt lat="23.9147575479" lon="113.3079195768"><ele>58.78</ele><time>2013-02-16T00:30:36Z</time></trkpt><trkpt lat="23.9147157222" lon="113.3079479914"><ele>59.74</ele><time>2013-02-16T00:30:52Z</time></trkpt><trkpt lat="23.9146816917" lon="113.3079724666"><ele>60.70</ele><time>2013-02-16T00:31:07Z</time></trkpt><trkpt lat="23.9146957733" lon="113.3079666831"><ele>59.74</ele><time>2013-02-16T00:31:18Z</time></trkpt><trkpt lat="23.9147004671" lon="113.3079580497"><ele>59.74</ele><time>2013-02-16T00:31:34Z</time></trkpt><trkpt lat="23.9147004671" lon="113.3079580497"><ele>60.22</ele><time>2013-02-16T00:31:36Z</time></trkpt><trkpt lat="23.9146997128" lon="113.3079525176"><ele>59.74</ele><time>2013-02-16T00:31:56Z</time></trkpt><trkpt lat="23.9146979526" lon="113.3079565410"><ele>60.22</ele><time>2013-02-16T00:32:22Z</time></trkpt><trkpt lat="23.9146979526" lon="113.3079565410"><ele>60.22</ele><time>2013-02-16T00:32:46Z</time></trkpt><trkpt lat="23.9146985393" lon="113.3079572115"><ele>60.22</ele><time>2013-02-16T00:33:11Z</time></trkpt><trkpt lat="23.9146977011" lon="113.3079614863"><ele>59.74</ele><time>2013-02-16T00:33:30Z</time></trkpt><trkpt lat="23.9147166442" lon="113.3079856262"><ele>59.74</ele><time>2013-02-16T00:33:41Z</time></trkpt><trkpt lat="23.9147097711" lon="113.3079728018"><ele>60.70</ele><time>2013-02-16T00:33:55Z</time></trkpt><trkpt lat="23.9147097711" lon="113.3079728018"><ele>56.86</ele><time>2013-02-16T00:34:11Z</time></trkpt><trkpt lat="23.9147097711" lon="113.3079728018"><ele>63.10</ele><time>2013-02-16T00:34:12Z</time></trkpt><trkpt lat="23.9147097711" lon="113.3079728018"><ele>59.74</ele><time>2013-02-16T00:34:15Z</time></trkpt><trkpt lat="23.9147058316" lon="113.3079724666"><ele>60.22</ele><time>2013-02-16T00:34:42Z</time></trkpt><trkpt lat="23.9147054963" lon="113.3079817705"><ele>59.26</ele><time>2013-02-16T00:34:57Z</time></trkpt><trkpt lat="23.9147054963" lon="113.3079817705"><ele>55.89</ele><time>2013-02-16T00:35:02Z</time></trkpt><trkpt lat="23.9147054963" lon="113.3079817705"><ele>65.51</ele><time>2013-02-16T00:35:03Z</time></trkpt><trkpt lat="23.9147054963" lon="113.3079817705"><ele>60.22</ele><time>2013-02-16T00:35:04Z</time></trkpt><trkpt lat="23.9147073403" lon="113.3079927508"><ele>60.22</ele><time>2013-02-16T00:35:21Z</time></trkpt><trkpt lat="23.9147073403" lon="113.3079927508"><ele>57.34</ele><time>2013-02-16T00:35:34Z</time></trkpt><trkpt lat="23.9147073403" lon="113.3079927508"><ele>61.66</ele><time>2013-02-16T00:35:35Z</time></trkpt><trkpt lat="23.9147093520" lon="113.3079878055"><ele>60.22</ele><time>2013-02-16T00:36:06Z</time></trkpt><trkpt lat="23.9147093520" lon="113.3079878055"><ele>59.74</ele><time>2013-02-16T00:36:20Z</time></trkpt><trkpt lat="23.9146865532" lon="113.3079974446"><ele>63.10</ele><time>2013-02-16T00:36:22Z</time></trkpt><trkpt lat="23.9146433026" lon="113.3080010489"><ele>61.18</ele><time>2013-02-16T00:36:27Z</time></trkpt><trkpt lat="23.9146042429" lon="113.3080287930"><ele>60.70</ele><time>2013-02-16T00:36:32Z</time></trkpt><trkpt lat="23.9145816956" lon="113.3080574591"><ele>56.86</ele><time>2013-02-16T00:36:36Z</time></trkpt><trkpt lat="23.9145762473" lon="113.3080582134"><ele>56.86</ele><time>2013-02-16T00:36:37Z</time></trkpt><trkpt lat="23.9145724755" lon="113.3080591355"><ele>66.47</ele><time>2013-02-16T00:36:38Z</time></trkpt><trkpt lat="23.9145673625" lon="113.3080621529"><ele>62.14</ele><time>2013-02-16T00:36:39Z</time></trkpt><trkpt lat="23.9144526981" lon="113.3081207424"><ele>65.51</ele><time>2013-02-16T00:36:55Z</time></trkpt><trkpt lat="23.9143927675" lon="113.3081663400"><ele>65.99</ele><time>2013-02-16T00:37:10Z</time></trkpt><trkpt lat="23.9143786021" lon="113.3081778232"><ele>65.51</ele><time>2013-02-16T00:37:12Z</time></trkpt><trkpt lat="23.9143003151" lon="113.3082164638"><ele>61.66</ele><time>2013-02-16T00:37:25Z</time></trkpt><trkpt lat="23.9142978005" lon="113.3082230017"><ele>68.87</ele><time>2013-02-16T00:37:26Z</time></trkpt><trkpt lat="23.9142947830" lon="113.3082266059"><ele>68.87</ele><time>2013-02-16T00:37:27Z</time></trkpt><trkpt lat="23.9142719004" lon="113.3082304616"><ele>64.07</ele><time>2013-02-16T00:37:30Z</time></trkpt><trkpt lat="23.9142653625" lon="113.3082355745"><ele>67.43</ele><time>2013-02-16T00:37:31Z</time></trkpt><trkpt lat="23.9142393786" lon="113.3082375024"><ele>65.99</ele><time>2013-02-16T00:37:35Z</time></trkpt><trkpt lat="23.9141127281" lon="113.3081503306"><ele>67.43</ele><time>2013-02-16T00:37:48Z</time></trkpt><trkpt lat="23.9141098782" lon="113.3081438765"><ele>65.51</ele><time>2013-02-16T00:37:49Z</time></trkpt><trkpt lat="23.9140937012" lon="113.3081121091"><ele>66.47</ele><time>2013-02-16T00:37:54Z</time></trkpt><trkpt lat="23.9140711538" lon="113.3081044815"><ele>67.91</ele><time>2013-02-16T00:37:56Z</time></trkpt><trkpt lat="23.9140185155" lon="113.3080955967"><ele>71.27</ele><time>2013-02-16T00:38:02Z</time></trkpt><trkpt lat="23.9140104689" lon="113.3080962673"><ele>71.27</ele><time>2013-02-16T00:38:03Z</time></trkpt><trkpt lat="23.9139792044" lon="113.3080995362"><ele>71.76</ele><time>2013-02-16T00:38:06Z</time></trkpt><trkpt lat="23.9138957206" lon="113.3080691099"><ele>75.12</ele><time>2013-02-16T00:38:18Z</time></trkpt><trkpt lat="23.9137887675" lon="113.3080404438"><ele>76.56</ele><time>2013-02-16T00:38:32Z</time></trkpt><trkpt lat="23.9136871789" lon="113.3080003783"><ele>79.93</ele><time>2013-02-16T00:38:42Z</time></trkpt><trkpt lat="23.9136346243" lon="113.3079603966"><ele>82.33</ele><time>2013-02-16T00:38:55Z</time></trkpt><trkpt lat="23.9136217162" lon="113.3079250250"><ele>82.81</ele><time>2013-02-16T00:38:58Z</time></trkpt><trkpt lat="23.9135867637" lon="113.3079056628"><ele>81.85</ele><time>2013-02-16T00:39:02Z</time></trkpt><trkpt lat="23.9135579299" lon="113.3078870550"><ele>84.25</ele><time>2013-02-16T00:39:05Z</time></trkpt><trkpt lat="23.9134777989" lon="113.3078379370"><ele>87.14</ele><time>2013-02-16T00:39:17Z</time></trkpt><trkpt lat="23.9134664834" lon="113.3078299742"><ele>84.25</ele><time>2013-02-16T00:39:19Z</time></trkpt><trkpt lat="23.9134638850" lon="113.3078267891"><ele>89.06</ele><time>2013-02-16T00:39:20Z</time></trkpt><trkpt lat="23.9134598617" lon="113.3078246936"><ele>87.62</ele><time>2013-02-16T00:39:21Z</time></trkpt><trkpt lat="23.9134471212" lon="113.3078146353"><ele>86.66</ele><time>2013-02-16T00:39:23Z</time></trkpt><trkpt lat="23.9134116657" lon="113.3077915013"><ele>90.02</ele><time>2013-02-16T00:39:28Z</time></trkpt><trkpt lat="23.9133908786" lon="113.3077882323"><ele>88.10</ele><time>2013-02-16T00:39:31Z</time></trkpt><trkpt lat="23.9133806527" lon="113.3077860530"><ele>92.90</ele><time>2013-02-16T00:39:33Z</time></trkpt><trkpt lat="23.9133778028" lon="113.3077823650"><ele>90.02</ele><time>2013-02-16T00:39:34Z</time></trkpt><trkpt lat="23.9133586921" lon="113.3077711333"><ele>91.46</ele><time>2013-02-16T00:39:37Z</time></trkpt><trkpt lat="23.9133372344" lon="113.3077661879"><ele>91.94</ele><time>2013-02-16T00:39:40Z</time></trkpt><trkpt lat="23.9132811595" lon="113.3077759109"><ele>94.83</ele><time>2013-02-16T00:39:49Z</time></trkpt><trkpt lat="23.9132737834" lon="113.3077727258"><ele>91.46</ele><time>2013-02-16T00:39:50Z</time></trkpt><trkpt lat="23.9132668264" lon="113.3077702951"><ele>96.75</ele><time>2013-02-16T00:39:51Z</time></trkpt><trkpt lat="23.9132243302" lon="113.3077653497"><ele>92.90</ele><time>2013-02-16T00:39:59Z</time></trkpt><trkpt lat="23.9132163674" lon="113.3077630028"><ele>96.75</ele><time>2013-02-16T00:40:00Z</time></trkpt><trkpt lat="23.9132075664" lon="113.3077622484"><ele>95.31</ele><time>2013-02-16T00:40:01Z</time></trkpt><trkpt lat="23.9131421875" lon="113.3077518549"><ele>97.23</ele><time>2013-02-16T00:40:14Z</time></trkpt><trkpt lat="23.9130803291" lon="113.3077060059"><ele>98.67</ele><time>2013-02-16T00:40:26Z</time></trkpt><trkpt lat="23.9130596258" lon="113.3076862246"><ele>99.63</ele><time>2013-02-16T00:40:33Z</time></trkpt><trkpt lat="23.9130467176" lon="113.3076647669"><ele>99.63</ele><time>2013-02-16T00:40:36Z</time></trkpt><trkpt lat="23.9130352344" lon="113.3076480031"><ele>98.19</ele><time>2013-02-16T00:40:38Z</time></trkpt><trkpt lat="23.9130280260" lon="113.3076441474"><ele>101.08</ele><time>2013-02-16T00:40:39Z</time></trkpt><trkpt lat="23.9130105916" lon="113.3076351788"><ele>98.19</ele><time>2013-02-16T00:40:43Z</time></trkpt><trkpt lat="23.9130113460" lon="113.3076392859"><ele>101.56</ele><time>2013-02-16T00:40:44Z</time></trkpt><trkpt lat="23.9130113460" lon="113.3076392859"><ele>101.56</ele><time>2013-02-16T00:40:45Z</time></trkpt><trkpt lat="23.9130113460" lon="113.3076392859"><ele>100.11</ele><time>2013-02-16T00:40:46Z</time></trkpt><trkpt lat="23.9130113460" lon="113.3076392859"><ele>99.15</ele><time>2013-02-16T00:40:54Z</time></trkpt><trkpt lat="23.9130113460" lon="113.3076392859"><ele>101.56</ele><time>2013-02-16T00:40:55Z</time></trkpt><trkpt lat="23.9130021259" lon="113.3076221868"><ele>98.19</ele><time>2013-02-16T00:40:57Z</time></trkpt><trkpt lat="23.9129998628" lon="113.3076192532"><ele>102.52</ele><time>2013-02-16T00:40:58Z</time></trkpt><trkpt lat="23.9129876252" lon="113.3076106198"><ele>97.71</ele><time>2013-02-16T00:40:59Z</time></trkpt><trkpt lat="23.9129815064" lon="113.3075979631"><ele>103.48</ele><time>2013-02-16T00:41:00Z</time></trkpt><trkpt lat="23.9129736274" lon="113.3075892460"><ele>101.08</ele><time>2013-02-16T00:41:01Z</time></trkpt><trkpt lat="23.9129704423" lon="113.3075775113"><ele>97.71</ele><time>2013-02-16T00:41:03Z</time></trkpt><trkpt lat="23.9129696880" lon="113.3075663634"><ele>99.63</ele><time>2013-02-16T00:41:04Z</time></trkpt><trkpt lat="23.9129688498" lon="113.3075582329"><ele>105.88</ele><time>2013-02-16T00:41:05Z</time></trkpt><trkpt lat="23.9129671734" lon="113.3075482585"><ele>102.52</ele><time>2013-02-16T00:41:06Z</time></trkpt><trkpt lat="23.9129522536" lon="113.3075346798"><ele>102.04</ele><time>2013-02-16T00:41:11Z</time></trkpt><trkpt lat="23.9129466377" lon="113.3075304050"><ele>104.44</ele><time>2013-02-16T00:41:13Z</time></trkpt><trkpt lat="23.9129438717" lon="113.3075268008"><ele>102.52</ele><time>2013-02-16T00:41:14Z</time></trkpt><trkpt lat="23.9129436202" lon="113.3075218555"><ele>101.56</ele><time>2013-02-16T00:41:16Z</time></trkpt><trkpt lat="23.9129436202" lon="113.3075218555"><ele>104.44</ele><time>2013-02-16T00:41:17Z</time></trkpt><trkpt lat="23.9129300416" lon="113.3074977156"><ele>104.44</ele><time>2013-02-16T00:41:20Z</time></trkpt><trkpt lat="23.9128411096" lon="113.3074596617"><ele>105.88</ele><time>2013-02-16T00:41:31Z</time></trkpt><trkpt lat="23.9127918240" lon="113.3074097894"><ele>109.25</ele><time>2013-02-16T00:41:41Z</time></trkpt><trkpt lat="23.9127835259" lon="113.3073924389"><ele>107.81</ele><time>2013-02-16T00:41:43Z</time></trkpt><trkpt lat="23.9127506688" lon="113.3073602524"><ele>109.25</ele><time>2013-02-16T00:41:49Z</time></trkpt><trkpt lat="23.9127010480" lon="113.3073164988"><ele>111.65</ele><time>2013-02-16T00:41:57Z</time></trkpt><trkpt lat="23.9126873855" lon="113.3073022496"><ele>110.69</ele><time>2013-02-16T00:41:59Z</time></trkpt><trkpt lat="23.9126570430" lon="113.3072673809"><ele>113.09</ele><time>2013-02-16T00:42:03Z</time></trkpt><trkpt lat="23.9125546161" lon="113.3072631899"><ele>115.01</ele><time>2013-02-16T00:42:17Z</time></trkpt><trkpt lat="23.9124988765" lon="113.3072534669"><ele>116.94</ele><time>2013-02-16T00:42:25Z</time></trkpt><trkpt lat="23.9124930091" lon="113.3072562329"><ele>115.98</ele><time>2013-02-16T00:42:26Z</time></trkpt><trkpt lat="23.9124847110" lon="113.3072585799"><ele>117.42</ele><time>2013-02-16T00:42:28Z</time></trkpt><trkpt lat="23.9123943541" lon="113.3074019942"><ele>119.82</ele><time>2013-02-16T00:42:46Z</time></trkpt><trkpt lat="23.9123951923" lon="113.3074309956"><ele>116.94</ele><time>2013-02-16T00:42:49Z</time></trkpt><trkpt lat="23.9124215115" lon="113.3074691333"><ele>116.94</ele><time>2013-02-16T00:42:56Z</time></trkpt><trkpt lat="23.9124215115" lon="113.3074691333"><ele>118.86</ele><time>2013-02-16T00:42:57Z</time></trkpt><trkpt lat="23.9124190807" lon="113.3075434808"><ele>121.26</ele><time>2013-02-16T00:43:09Z</time></trkpt><trkpt lat="23.9124198351" lon="113.3075480070"><ele>119.82</ele><time>2013-02-16T00:43:10Z</time></trkpt><trkpt lat="23.9124138840" lon="113.3075648546"><ele>121.74</ele><time>2013-02-16T00:43:15Z</time></trkpt><trkpt lat="23.9124138840" lon="113.3075648546"><ele>119.34</ele><time>2013-02-16T00:43:17Z</time></trkpt><trkpt lat="23.9124138840" lon="113.3075648546"><ele>121.26</ele><time>2013-02-16T00:43:18Z</time></trkpt><trkpt lat="23.9124138840" lon="113.3075648546"><ele>123.67</ele><time>2013-02-16T00:43:20Z</time></trkpt><trkpt lat="23.9124329109" lon="113.3075669501"><ele>123.19</ele><time>2013-02-16T00:43:25Z</time></trkpt><trkpt lat="23.9124599006" lon="113.3075669501"><ele>124.15</ele><time>2013-02-16T00:43:30Z</time></trkpt><trkpt lat="23.9124666061" lon="113.3075654414"><ele>122.71</ele><time>2013-02-16T00:43:31Z</time></trkpt><trkpt lat="23.9124791790" lon="113.3075591549"><ele>126.07</ele><time>2013-02-16T00:43:33Z</time></trkpt><trkpt lat="23.9124871418" lon="113.3075540420"><ele>124.63</ele><time>2013-02-16T00:43:34Z</time></trkpt><trkpt lat="23.9125492517" lon="113.3076242823"><ele>123.19</ele><time>2013-02-16T00:43:41Z</time></trkpt><trkpt lat="23.9125511795" lon="113.3076363523"><ele>127.99</ele><time>2013-02-16T00:43:42Z</time></trkpt><trkpt lat="23.9125507604" lon="113.3076368552"><ele>126.07</ele><time>2013-02-16T00:43:43Z</time></trkpt><trkpt lat="23.9125425462" lon="113.3077166509"><ele>129.92</ele><time>2013-02-16T00:43:48Z</time></trkpt><trkpt lat="23.9125425462" lon="113.3077166509"><ele>125.11</ele><time>2013-02-16T00:43:49Z</time></trkpt><trkpt lat="23.9125425462" lon="113.3077166509"><ele>128.95</ele><time>2013-02-16T00:43:50Z</time></trkpt><trkpt lat="23.9124718867" lon="113.3078427147"><ele>134.24</ele><time>2013-02-16T00:44:03Z</time></trkpt><trkpt lat="23.9124699589" lon="113.3078475762"><ele>130.40</ele><time>2013-02-16T00:44:04Z</time></trkpt><trkpt lat="23.9124576375" lon="113.3078739792"><ele>134.72</ele><time>2013-02-16T00:44:09Z</time></trkpt><trkpt lat="23.9124527760" lon="113.3078805171"><ele>130.40</ele><time>2013-02-16T00:44:10Z</time></trkpt><trkpt lat="23.9124506805" lon="113.3078855462"><ele>133.28</ele><time>2013-02-16T00:44:11Z</time></trkpt><trkpt lat="23.9125331584" lon="113.3079825249"><ele>136.64</ele><time>2013-02-16T00:44:23Z</time></trkpt><trkpt lat="23.9125451446" lon="113.3080904838"><ele>138.09</ele><time>2013-02-16T00:44:41Z</time></trkpt><trkpt lat="23.9125758223" lon="113.3081200719"><ele>142.89</ele><time>2013-02-16T00:44:54Z</time></trkpt><trkpt lat="23.9125802647" lon="113.3081292082"><ele>138.57</ele><time>2013-02-16T00:44:55Z</time></trkpt><trkpt lat="23.9125611540" lon="113.3081398532"><ele>140.49</ele><time>2013-02-16T00:45:07Z</time></trkpt><trkpt lat="23.9125599805" lon="113.3081376739"><ele>141.93</ele><time>2013-02-16T00:45:27Z</time></trkpt><trkpt lat="23.9125599805" lon="113.3081376739"><ele>136.16</ele><time>2013-02-16T00:45:53Z</time></trkpt><trkpt lat="23.9125614893" lon="113.3081432898"><ele>145.78</ele><time>2013-02-16T00:45:54Z</time></trkpt><trkpt lat="23.9125644229" lon="113.3081515878"><ele>141.93</ele><time>2013-02-16T00:45:55Z</time></trkpt><trkpt lat="23.9125708770" lon="113.3081682678"><ele>144.82</ele><time>2013-02-16T00:45:57Z</time></trkpt><trkpt lat="23.9126063325" lon="113.3082571160"><ele>146.26</ele><time>2013-02-16T00:46:06Z</time></trkpt><trkpt lat="23.9126147144" lon="113.3083392587"><ele>147.70</ele><time>2013-02-16T00:46:18Z</time></trkpt><trkpt lat="23.9126116131" lon="113.3083452936"><ele>146.74</ele><time>2013-02-16T00:46:30Z</time></trkpt><trkpt lat="23.9126057457" lon="113.3083544299"><ele>147.22</ele><time>2013-02-16T00:46:54Z</time></trkpt><trkpt lat="23.9125827793" lon="113.3084078226"><ele>151.54</ele><time>2013-02-16T00:47:07Z</time></trkpt><trkpt lat="23.9125819411" lon="113.3084369078"><ele>151.54</ele><time>2013-02-16T00:47:11Z</time></trkpt><trkpt lat="23.9125714637" lon="113.3084476367"><ele>148.18</ele><time>2013-02-16T00:47:13Z</time></trkpt><trkpt lat="23.9125708770" lon="113.3084556833"><ele>152.99</ele><time>2013-02-16T00:47:14Z</time></trkpt><trkpt lat="23.9125721343" lon="113.3084653225"><ele>152.99</ele><time>2013-02-16T00:47:15Z</time></trkpt><trkpt lat="23.9125525206" lon="113.3085516561"><ele>156.83</ele><time>2013-02-16T00:47:24Z</time></trkpt><trkpt lat="23.9125011396" lon="113.3086843416"><ele>159.24</ele><time>2013-02-16T00:47:42Z</time></trkpt><trkpt lat="23.9124795143" lon="113.3087060507"><ele>158.27</ele><time>2013-02-16T00:47:47Z</time></trkpt><trkpt lat="23.9124488365" lon="113.3087453619"><ele>162.12</ele><time>2013-02-16T00:47:56Z</time></trkpt><trkpt lat="23.9124459866" lon="113.3088784665"><ele>162.12</ele><time>2013-02-16T00:48:15Z</time></trkpt><trkpt lat="23.9124540333" lon="113.3089622017"><ele>164.04</ele><time>2013-02-16T00:48:26Z</time></trkpt><trkpt lat="23.9123489242" lon="113.3090830687"><ele>167.89</ele><time>2013-02-16T00:48:50Z</time></trkpt><trkpt lat="23.9123384468" lon="113.3092113119"><ele>168.85</ele><time>2013-02-16T00:49:07Z</time></trkpt><trkpt lat="23.9122876525" lon="113.3093434107"><ele>172.21</ele><time>2013-02-16T00:49:28Z</time></trkpt><trkpt lat="23.9122480899" lon="113.3094181772"><ele>167.41</ele><time>2013-02-16T00:49:34Z</time></trkpt><trkpt lat="23.9122455753" lon="113.3094249666"><ele>177.50</ele><time>2013-02-16T00:49:35Z</time></trkpt><trkpt lat="23.9122424740" lon="113.3094319236"><ele>174.14</ele><time>2013-02-16T00:49:36Z</time></trkpt><trkpt lat="23.9121356886" lon="113.3095219452"><ele>174.62</ele><time>2013-02-16T00:49:50Z</time></trkpt><trkpt lat="23.9120939467" lon="113.3095642738"><ele>177.98</ele><time>2013-02-16T00:49:58Z</time></trkpt><trkpt lat="23.9120714832" lon="113.3095838036"><ele>174.14</ele><time>2013-02-16T00:50:06Z</time></trkpt><trkpt lat="23.9120714832" lon="113.3095838036"><ele>178.46</ele><time>2013-02-16T00:50:07Z</time></trkpt><trkpt lat="23.9120714832" lon="113.3095838036"><ele>174.62</ele><time>2013-02-16T00:50:08Z</time></trkpt><trkpt lat="23.9120714832" lon="113.3095838036"><ele>177.50</ele><time>2013-02-16T00:50:09Z</time></trkpt><trkpt lat="23.9120827988" lon="113.3096206002"><ele>180.87</ele><time>2013-02-16T00:50:20Z</time></trkpt><trkpt lat="23.9120827988" lon="113.3096206002"><ele>179.42</ele><time>2013-02-16T00:50:21Z</time></trkpt><trkpt lat="23.9121177513" lon="113.3096326701"><ele>180.87</ele><time>2013-02-16T00:50:29Z</time></trkpt><trkpt lat="23.9121295698" lon="113.3096319158"><ele>180.38</ele><time>2013-02-16T00:50:30Z</time></trkpt><trkpt lat="23.9122199267" lon="113.3096253779"><ele>183.75</ele><time>2013-02-16T00:50:37Z</time></trkpt><trkpt lat="23.9122314099" lon="113.3096252102"><ele>183.75</ele><time>2013-02-16T00:50:38Z</time></trkpt><trkpt lat="23.9124583080" lon="113.3095404692"><ele>187.11</ele><time>2013-02-16T00:50:52Z</time></trkpt><trkpt lat="23.9124389458" lon="113.3096036687"><ele>182.79</ele><time>2013-02-16T00:51:01Z</time></trkpt><trkpt lat="23.9124389458" lon="113.3096036687"><ele>182.79</ele><time>2013-02-16T00:51:02Z</time></trkpt><trkpt lat="23.9124385267" lon="113.3096154872"><ele>190.96</ele><time>2013-02-16T00:51:03Z</time></trkpt><trkpt lat="23.9124393649" lon="113.3096252941"><ele>187.59</ele><time>2013-02-16T00:51:04Z</time></trkpt><trkpt lat="23.9124550391" lon="113.3096565586"><ele>192.88</ele><time>2013-02-16T00:51:12Z</time></trkpt><trkpt lat="23.9124550391" lon="113.3096565586"><ele>188.08</ele><time>2013-02-16T00:51:13Z</time></trkpt><trkpt lat="23.9124550391" lon="113.3096565586"><ele>191.92</ele><time>2013-02-16T00:51:14Z</time></trkpt><trkpt lat="23.9124550391" lon="113.3096565586"><ele>190.00</ele><time>2013-02-16T00:51:39Z</time></trkpt><trkpt lat="23.9124607388" lon="113.3096589055"><ele>190.00</ele><time>2013-02-16T00:52:07Z</time></trkpt><trkpt lat="23.9124254510" lon="113.3096939418"><ele>190.96</ele><time>2013-02-16T00:52:28Z</time></trkpt><trkpt lat="23.9124070108" lon="113.3097051736"><ele>191.92</ele><time>2013-02-16T00:52:31Z</time></trkpt><trkpt lat="23.9123877324" lon="113.3097527828"><ele>188.56</ele><time>2013-02-16T00:52:39Z</time></trkpt><trkpt lat="23.9123885706" lon="113.3097563032"><ele>188.56</ele><time>2013-02-16T00:52:40Z</time></trkpt><trkpt lat="23.9123885706" lon="113.3097585663"><ele>198.17</ele><time>2013-02-16T00:52:41Z</time></trkpt><trkpt lat="23.9123896603" lon="113.3097640146"><ele>194.32</ele><time>2013-02-16T00:52:42Z</time></trkpt><trkpt lat="23.9123627543" lon="113.3097818680"><ele>195.28</ele><time>2013-02-16T00:52:46Z</time></trkpt><trkpt lat="23.9123216830" lon="113.3098339196"><ele>198.17</ele><time>2013-02-16T00:52:57Z</time></trkpt><trkpt lat="23.9123186655" lon="113.3098392840"><ele>195.28</ele><time>2013-02-16T00:52:58Z</time></trkpt><trkpt lat="23.9123181626" lon="113.3098462410"><ele>200.09</ele><time>2013-02-16T00:52:59Z</time></trkpt><trkpt lat="23.9123145584" lon="113.3098592330"><ele>194.32</ele><time>2013-02-16T00:53:01Z</time></trkpt><trkpt lat="23.9123122115" lon="113.3098675311"><ele>200.57</ele><time>2013-02-16T00:53:02Z</time></trkpt><trkpt lat="23.9123022370" lon="113.3098845463"><ele>197.69</ele><time>2013-02-16T00:53:04Z</time></trkpt><trkpt lat="23.9122895803" lon="113.3098896593"><ele>200.09</ele><time>2013-02-16T00:53:06Z</time></trkpt><trkpt lat="23.9122557174" lon="113.3099110331"><ele>200.57</ele><time>2013-02-16T00:53:13Z</time></trkpt><trkpt lat="23.9122547116" lon="113.3099469077"><ele>206.34</ele><time>2013-02-16T00:53:27Z</time></trkpt><trkpt lat="23.9122547954" lon="113.3099548705"><ele>204.90</ele><time>2013-02-16T00:53:28Z</time></trkpt><trkpt lat="23.9122563880" lon="113.3099630848"><ele>203.46</ele><time>2013-02-16T00:53:30Z</time></trkpt><trkpt lat="23.9122459106" lon="113.3099821117"><ele>204.42</ele><time>2013-02-16T00:53:53Z</time></trkpt><trkpt lat="23.9122430608" lon="113.3099951036"><ele>200.57</ele><time>2013-02-16T00:54:12Z</time></trkpt><trkpt lat="23.9122400433" lon="113.3100015577"><ele>208.74</ele><time>2013-02-16T00:54:13Z</time></trkpt><trkpt lat="23.9122386184" lon="113.3100070897"><ele>204.90</ele><time>2013-02-16T00:54:14Z</time></trkpt><trkpt lat="23.9122380316" lon="113.3100101911"><ele>205.38</ele><time>2013-02-16T00:54:35Z</time></trkpt><trkpt lat="23.9122380316" lon="113.3100101911"><ele>206.34</ele><time>2013-02-16T00:54:41Z</time></trkpt><trkpt lat="23.9122381154" lon="113.3100028988"><ele>205.38</ele><time>2013-02-16T00:55:03Z</time></trkpt><trkpt lat="23.9122315776" lon="113.3100157231"><ele>206.34</ele><time>2013-02-16T00:55:34Z</time></trkpt><trkpt lat="23.9122258779" lon="113.3100258652"><ele>205.38</ele><time>2013-02-16T00:55:36Z</time></trkpt><trkpt lat="23.9122113772" lon="113.3100807667"><ele>212.11</ele><time>2013-02-16T00:55:42Z</time></trkpt><trkpt lat="23.9121980499" lon="113.3101199940"><ele>207.30</ele><time>2013-02-16T00:55:49Z</time></trkpt><trkpt lat="23.9121980499" lon="113.3101199940"><ele>208.74</ele><time>2013-02-16T00:55:51Z</time></trkpt><trkpt lat="23.9121980499" lon="113.3101199940"><ele>208.26</ele><time>2013-02-16T00:55:53Z</time></trkpt><trkpt lat="23.9121882431" lon="113.3101337403"><ele>212.11</ele><time>2013-02-16T00:55:59Z</time></trkpt><trkpt lat="23.9121836331" lon="113.3101641666"><ele>210.19</ele><time>2013-02-16T00:56:03Z</time></trkpt><trkpt lat="23.9121703897" lon="113.3102186490"><ele>214.99</ele><time>2013-02-16T00:56:18Z</time></trkpt><trkpt lat="23.9121703897" lon="113.3102186490"><ele>213.55</ele><time>2013-02-16T00:56:19Z</time></trkpt><trkpt lat="23.9121227805" lon="113.3102020528"><ele>212.59</ele><time>2013-02-16T00:56:36Z</time></trkpt><trkpt lat="23.9121105429" lon="113.3101961855"><ele>207.78</ele><time>2013-02-16T00:56:39Z</time></trkpt><trkpt lat="23.9121105429" lon="113.3101961855"><ele>216.91</ele><time>2013-02-16T00:56:40Z</time></trkpt><trkpt lat="23.9121195953" lon="113.3102030586"><ele>214.03</ele><time>2013-02-16T00:56:41Z</time></trkpt><trkpt lat="23.9121213555" lon="113.3102975227"><ele>216.43</ele><time>2013-02-16T00:56:51Z</time></trkpt><trkpt lat="23.9121222775" lon="113.3103113528"><ele>212.59</ele><time>2013-02-16T00:56:53Z</time></trkpt><trkpt lat="23.9121226128" lon="113.3103185613"><ele>221.72</ele><time>2013-02-16T00:56:54Z</time></trkpt><trkpt lat="23.9121229481" lon="113.3103245962"><ele>217.88</ele><time>2013-02-16T00:56:55Z</time></trkpt><trkpt lat="23.9121185057" lon="113.3103986923"><ele>221.24</ele><time>2013-02-16T00:57:08Z</time></trkpt><trkpt lat="23.9121185057" lon="113.3103986923"><ele>217.88</ele><time>2013-02-16T00:57:09Z</time></trkpt><trkpt lat="23.9121185057" lon="113.3103986923"><ele>223.16</ele><time>2013-02-16T00:57:10Z</time></trkpt><trkpt lat="23.9120629337" lon="113.3104200661"><ele>223.16</ele><time>2013-02-16T00:57:28Z</time></trkpt><trkpt lat="23.9120504446" lon="113.3104254305"><ele>226.53</ele><time>2013-02-16T00:57:30Z</time></trkpt><trkpt lat="23.9120452479" lon="113.3104303759"><ele>223.16</ele><time>2013-02-16T00:57:31Z</time></trkpt><trkpt lat="23.9120382909" lon="113.3104354888"><ele>228.45</ele><time>2013-02-16T00:57:32Z</time></trkpt><trkpt lat="23.9120191801" lon="113.3104530908"><ele>230.37</ele><time>2013-02-16T00:57:34Z</time></trkpt><trkpt lat="23.9120158274" lon="113.3104633167"><ele>226.05</ele><time>2013-02-16T00:57:35Z</time></trkpt><trkpt lat="23.9119987283" lon="113.3105029631"><ele>226.53</ele><time>2013-02-16T00:57:52Z</time></trkpt><trkpt lat="23.9119987283" lon="113.3105029631"><ele>229.89</ele><time>2013-02-16T00:57:54Z</time></trkpt><trkpt lat="23.9119987283" lon="113.3105029631"><ele>228.45</ele><time>2013-02-16T00:57:55Z</time></trkpt><trkpt lat="23.9119910169" lon="113.3104976825"><ele>231.33</ele><time>2013-02-16T00:58:04Z</time></trkpt><trkpt lat="23.9119771868" lon="113.3104804996"><ele>228.45</ele><time>2013-02-16T00:58:08Z</time></trkpt><trkpt lat="23.9119749237" lon="113.3104785718"><ele>231.81</ele><time>2013-02-16T00:58:12Z</time></trkpt><trkpt lat="23.9119749237" lon="113.3104785718"><ele>227.01</ele><time>2013-02-16T00:58:13Z</time></trkpt><trkpt lat="23.9119749237" lon="113.3104785718"><ele>234.70</ele><time>2013-02-16T00:58:14Z</time></trkpt><trkpt lat="23.9119719900" lon="113.3104809187"><ele>231.33</ele><time>2013-02-16T00:58:15Z</time></trkpt><trkpt lat="23.9119619317" lon="113.3105216548"><ele>233.74</ele><time>2013-02-16T00:58:24Z</time></trkpt><trkpt lat="23.9120259695" lon="113.3105929010"><ele>231.81</ele><time>2013-02-16T00:58:39Z</time></trkpt><trkpt lat="23.9120462537" lon="113.3105933201"><ele>235.18</ele><time>2013-02-16T00:58:40Z</time></trkpt><trkpt lat="23.9120577369" lon="113.3105964214"><ele>233.74</ele><time>2013-02-16T00:58:41Z</time></trkpt><trkpt lat="23.9120651968" lon="113.3106282726"><ele>235.66</ele><time>2013-02-16T00:58:44Z</time></trkpt><trkpt lat="23.9120713994" lon="113.3106502332"><ele>231.33</ele><time>2013-02-16T00:58:47Z</time></trkpt><trkpt lat="23.9120770991" lon="113.3106550109"><ele>237.10</ele><time>2013-02-16T00:58:48Z</time></trkpt><trkpt lat="23.9121250436" lon="113.3107396681"><ele>238.06</ele><time>2013-02-16T00:59:03Z</time></trkpt><trkpt lat="23.9122190885" lon="113.3108151052"><ele>232.78</ele><time>2013-02-16T00:59:19Z</time></trkpt><trkpt lat="23.9122235309" lon="113.3108188771"><ele>244.79</ele><time>2013-02-16T00:59:20Z</time></trkpt><trkpt lat="23.9122276381" lon="113.3108268399"><ele>238.54</ele><time>2013-02-16T00:59:21Z</time></trkpt><trkpt lat="23.9122220222" lon="113.3108734433"><ele>240.47</ele><time>2013-02-16T00:59:24Z</time></trkpt><trkpt lat="23.9122120477" lon="113.3109373972"><ele>241.91</ele><time>2013-02-16T00:59:32Z</time></trkpt><trkpt lat="23.9122030791" lon="113.3109922148"><ele>245.27</ele><time>2013-02-16T00:59:43Z</time></trkpt><trkpt lat="23.9121353533" lon="113.3109307755"><ele>246.23</ele><time>2013-02-16T01:00:00Z</time></trkpt><trkpt lat="23.9121107105" lon="113.3109647222"><ele>250.08</ele><time>2013-02-16T01:00:07Z</time></trkpt><trkpt lat="23.9121050946" lon="113.3109751157"><ele>249.12</ele><time>2013-02-16T01:00:08Z</time></trkpt><trkpt lat="23.9120915998" lon="113.3109891135"><ele>252.96</ele><time>2013-02-16T01:00:21Z</time></trkpt><trkpt lat="23.9120820444" lon="113.3109893650"><ele>248.64</ele><time>2013-02-16T01:00:27Z</time></trkpt><trkpt lat="23.9120725729" lon="113.3109916281"><ele>252.00</ele><time>2013-02-16T01:00:29Z</time></trkpt><trkpt lat="23.9120717347" lon="113.3109934721"><ele>251.04</ele><time>2013-02-16T01:00:30Z</time></trkpt><trkpt lat="23.9120670408" lon="113.3110109065"><ele>254.41</ele><time>2013-02-16T01:00:37Z</time></trkpt><trkpt lat="23.9120672923" lon="113.3110370580"><ele>253.93</ele><time>2013-02-16T01:00:41Z</time></trkpt><trkpt lat="23.9120728243" lon="113.3110454399"><ele>252.00</ele><time>2013-02-16T01:00:43Z</time></trkpt><trkpt lat="23.9120749198" lon="113.3110472839"><ele>255.85</ele><time>2013-02-16T01:00:44Z</time></trkpt><trkpt lat="23.9120725729" lon="113.3110544086"><ele>252.48</ele><time>2013-02-16T01:00:45Z</time></trkpt><trkpt lat="23.9120708127" lon="113.3110612817"><ele>255.85</ele><time>2013-02-16T01:00:46Z</time></trkpt><trkpt lat="23.9120118879" lon="113.3111122437"><ele>258.73</ele><time>2013-02-16T01:00:54Z</time></trkpt><trkpt lat="23.9120040927" lon="113.3111174405"><ele>256.81</ele><time>2013-02-16T01:00:55Z</time></trkpt><trkpt lat="23.9120160788" lon="113.3111494593"><ele>251.52</ele><time>2013-02-16T01:01:12Z</time></trkpt><trkpt lat="23.9120172523" lon="113.3111522254"><ele>262.58</ele><time>2013-02-16T01:01:13Z</time></trkpt><trkpt lat="23.9120161626" lon="113.3111542370"><ele>259.21</ele><time>2013-02-16T01:01:14Z</time></trkpt><trkpt lat="23.9120036736" lon="113.3111427538"><ele>264.02</ele><time>2013-02-16T01:01:22Z</time></trkpt><trkpt lat="23.9120031707" lon="113.3111448493"><ele>260.65</ele><time>2013-02-16T01:01:23Z</time></trkpt><trkpt lat="23.9120031707" lon="113.3111550752"><ele>264.50</ele><time>2013-02-16T01:01:25Z</time></trkpt><trkpt lat="23.9119975548" lon="113.3111647982"><ele>262.10</ele><time>2013-02-16T01:01:26Z</time></trkpt><trkpt lat="23.9120040927" lon="113.3111948892"><ele>263.06</ele><time>2013-02-16T01:01:43Z</time></trkpt><trkpt lat="23.9120040927" lon="113.3111948892"><ele>256.81</ele><time>2013-02-16T01:01:46Z</time></trkpt><trkpt lat="23.9120040927" lon="113.3111948892"><ele>265.94</ele><time>2013-02-16T01:01:47Z</time></trkpt><trkpt lat="23.9120040927" lon="113.3111948892"><ele>265.94</ele><time>2013-02-16T01:01:48Z</time></trkpt><trkpt lat="23.9120040927" lon="113.3111948892"><ele>261.62</ele><time>2013-02-16T01:01:50Z</time></trkpt><trkpt lat="23.9120040927" lon="113.3111948892"><ele>262.58</ele><time>2013-02-16T01:01:51Z</time></trkpt><trkpt lat="23.9120040927" lon="113.3111948892"><ele>258.25</ele><time>2013-02-16T01:01:57Z</time></trkpt><trkpt lat="23.9120040927" lon="113.3111948892"><ele>263.06</ele><time>2013-02-16T01:01:58Z</time></trkpt><trkpt lat="23.9120040927" lon="113.3111948892"><ele>260.17</ele><time>2013-02-16T01:02:04Z</time></trkpt><trkpt lat="23.9120048471" lon="113.3111937158"><ele>263.06</ele><time>2013-02-16T01:02:15Z</time></trkpt><trkpt lat="23.9120064396" lon="113.3111921232"><ele>264.02</ele><time>2013-02-16T01:02:53Z</time></trkpt><trkpt lat="23.9120064396" lon="113.3111921232"><ele>263.06</ele><time>2013-02-16T01:02:55Z</time></trkpt><trkpt lat="23.9120064396" lon="113.3111921232"><ele>263.06</ele><time>2013-02-16T01:03:18Z</time></trkpt><trkpt lat="23.9120066911" lon="113.3111901954"><ele>246.72</ele><time>2013-02-16T01:03:33Z</time></trkpt><trkpt lat="23.9120066911" lon="113.3111901954"><ele>272.67</ele><time>2013-02-16T01:03:34Z</time></trkpt><trkpt lat="23.9120092895" lon="113.3111845795"><ele>264.02</ele><time>2013-02-16T01:03:35Z</time></trkpt><trkpt lat="23.9120083675" lon="113.3111846633"><ele>261.14</ele><time>2013-02-16T01:03:37Z</time></trkpt><trkpt lat="23.9120083675" lon="113.3111846633"><ele>262.10</ele><time>2013-02-16T01:03:38Z</time></trkpt><trkpt lat="23.9120083675" lon="113.3111846633"><ele>263.06</ele><time>2013-02-16T01:03:40Z</time></trkpt><trkpt lat="23.9119935315" lon="113.3112009242"><ele>252.00</ele><time>2013-02-16T01:03:53Z</time></trkpt><trkpt lat="23.9119935315" lon="113.3112009242"><ele>276.04</ele><time>2013-02-16T01:03:54Z</time></trkpt><trkpt lat="23.9119935315" lon="113.3112009242"><ele>263.06</ele><time>2013-02-16T01:03:55Z</time></trkpt><trkpt lat="23.9119935315" lon="113.3112009242"><ele>262.58</ele><time>2013-02-16T01:04:09Z</time></trkpt><trkpt lat="23.9119942021" lon="113.3112010080"><ele>262.10</ele><time>2013-02-16T01:04:42Z</time></trkpt><trkpt lat="23.9119942021" lon="113.3112010080"><ele>261.62</ele><time>2013-02-16T01:04:49Z</time></trkpt><trkpt lat="23.9119942021" lon="113.3112010080"><ele>264.50</ele><time>2013-02-16T01:04:52Z</time></trkpt><trkpt lat="23.9119942021" lon="113.3112010080"><ele>260.65</ele><time>2013-02-16T01:04:57Z</time></trkpt><trkpt lat="23.9119942021" lon="113.3112010080"><ele>263.06</ele><time>2013-02-16T01:05:00Z</time></trkpt><trkpt lat="23.9119942021" lon="113.3112010080"><ele>260.17</ele><time>2013-02-16T01:05:03Z</time></trkpt><trkpt lat="23.9119942021" lon="113.3112010080"><ele>265.94</ele><time>2013-02-16T01:05:04Z</time></trkpt><trkpt lat="23.9119942021" lon="113.3112010080"><ele>260.65</ele><time>2013-02-16T01:05:05Z</time></trkpt><trkpt lat="23.9119948726" lon="113.3112003375"><ele>263.54</ele><time>2013-02-16T01:05:10Z</time></trkpt><trkpt lat="23.9119948726" lon="113.3112003375"><ele>260.65</ele><time>2013-02-16T01:05:18Z</time></trkpt><trkpt lat="23.9119948726" lon="113.3112003375"><ele>260.65</ele><time>2013-02-16T01:05:19Z</time></trkpt><trkpt lat="23.9119948726" lon="113.3112003375"><ele>263.54</ele><time>2013-02-16T01:05:20Z</time></trkpt><trkpt lat="23.9119948726" lon="113.3112003375"><ele>263.06</ele><time>2013-02-16T01:05:21Z</time></trkpt><trkpt lat="23.9119948726" lon="113.3112003375"><ele>266.90</ele><time>2013-02-16T01:05:44Z</time></trkpt><trkpt lat="23.9119948726" lon="113.3112003375"><ele>264.98</ele><time>2013-02-16T01:05:45Z</time></trkpt><trkpt lat="23.9119948726" lon="113.3112003375"><ele>260.65</ele><time>2013-02-16T01:05:47Z</time></trkpt><trkpt lat="23.9119948726" lon="113.3112003375"><ele>261.14</ele><time>2013-02-16T01:05:48Z</time></trkpt><trkpt lat="23.9119944535" lon="113.3111999184"><ele>268.35</ele><time>2013-02-16T01:05:50Z</time></trkpt><trkpt lat="23.9119944535" lon="113.3111999184"><ele>263.54</ele><time>2013-02-16T01:05:51Z</time></trkpt><trkpt lat="23.9119944535" lon="113.3111999184"><ele>263.06</ele><time>2013-02-16T01:05:53Z</time></trkpt><trkpt lat="23.9119944535" lon="113.3111999184"><ele>259.69</ele><time>2013-02-16T01:05:55Z</time></trkpt><trkpt lat="23.9119944535" lon="113.3111999184"><ele>265.46</ele><time>2013-02-16T01:05:57Z</time></trkpt><trkpt lat="23.9119944535" lon="113.3111999184"><ele>264.50</ele><time>2013-02-16T01:05:58Z</time></trkpt><trkpt lat="23.9119944535" lon="113.3111999184"><ele>262.58</ele><time>2013-02-16T01:06:01Z</time></trkpt><trkpt lat="23.9119944535" lon="113.3111999184"><ele>263.54</ele><time>2013-02-16T01:06:03Z</time></trkpt><trkpt lat="23.9119944535" lon="113.3111999184"><ele>260.65</ele><time>2013-02-16T01:06:11Z</time></trkpt><trkpt lat="23.9119944535" lon="113.3111999184"><ele>261.62</ele><time>2013-02-16T01:06:12Z</time></trkpt><trkpt lat="23.9119944535" lon="113.3111999184"><ele>265.94</ele><time>2013-02-16T01:06:14Z</time></trkpt><trkpt lat="23.9119944535" lon="113.3111999184"><ele>263.06</ele><time>2013-02-16T01:06:15Z</time></trkpt><trkpt lat="23.9119944535" lon="113.3111999184"><ele>266.42</ele><time>2013-02-16T01:06:18Z</time></trkpt><trkpt lat="23.9119944535" lon="113.3111999184"><ele>263.06</ele><time>2013-02-16T01:06:24Z</time></trkpt><trkpt lat="23.9119944535" lon="113.3111999184"><ele>257.77</ele><time>2013-02-16T01:06:27Z</time></trkpt><trkpt lat="23.9119944535" lon="113.3111999184"><ele>262.58</ele><time>2013-02-16T01:06:28Z</time></trkpt><trkpt lat="23.9119941182" lon="113.3111996669"><ele>256.81</ele><time>2013-02-16T01:06:34Z</time></trkpt><trkpt lat="23.9119941182" lon="113.3111996669"><ele>264.02</ele><time>2013-02-16T01:06:35Z</time></trkpt><trkpt lat="23.9119941182" lon="113.3111996669"><ele>268.83</ele><time>2013-02-16T01:06:36Z</time></trkpt><trkpt lat="23.9119941182" lon="113.3111996669"><ele>266.90</ele><time>2013-02-16T01:06:37Z</time></trkpt><trkpt lat="23.9119941182" lon="113.3111996669"><ele>260.65</ele><time>2013-02-16T01:06:38Z</time></trkpt><trkpt lat="23.9119941182" lon="113.3111996669"><ele>263.06</ele><time>2013-02-16T01:06:39Z</time></trkpt><trkpt lat="23.9119941182" lon="113.3111996669"><ele>256.81</ele><time>2013-02-16T01:06:43Z</time></trkpt><trkpt lat="23.9119941182" lon="113.3111996669"><ele>259.69</ele><time>2013-02-16T01:06:44Z</time></trkpt><trkpt lat="23.9119941182" lon="113.3111996669"><ele>271.71</ele><time>2013-02-16T01:06:45Z</time></trkpt><trkpt lat="23.9119941182" lon="113.3111996669"><ele>264.02</ele><time>2013-02-16T01:06:46Z</time></trkpt><trkpt lat="23.9119942021" lon="113.3111992478"><ele>259.69</ele><time>2013-02-16T01:07:13Z</time></trkpt><trkpt lat="23.9119942021" lon="113.3111992478"><ele>267.38</ele><time>2013-02-16T01:07:15Z</time></trkpt><trkpt lat="23.9119942021" lon="113.3111992478"><ele>265.94</ele><time>2013-02-16T01:07:16Z</time></trkpt><trkpt lat="23.9119942021" lon="113.3111992478"><ele>263.06</ele><time>2013-02-16T01:07:18Z</time></trkpt><trkpt lat="23.9119942021" lon="113.3111992478"><ele>266.42</ele><time>2013-02-16T01:07:25Z</time></trkpt><trkpt lat="23.9119942021" lon="113.3111992478"><ele>263.54</ele><time>2013-02-16T01:07:27Z</time></trkpt><trkpt lat="23.9119942021" lon="113.3111992478"><ele>263.54</ele><time>2013-02-16T01:07:28Z</time></trkpt><trkpt lat="23.9119936153" lon="113.3112046961"><ele>263.54</ele><time>2013-02-16T01:07:49Z</time></trkpt><trkpt lat="23.9119980577" lon="113.3111932129"><ele>263.54</ele><time>2013-02-16T01:08:13Z</time></trkpt><trkpt lat="23.9119834732" lon="113.3112098929"><ele>264.50</ele><time>2013-02-16T01:08:32Z</time></trkpt><trkpt lat="23.9119769353" lon="113.3112070430"><ele>263.06</ele><time>2013-02-16T01:08:34Z</time></trkpt><trkpt lat="23.9119237103" lon="113.3111775387"><ele>266.42</ele><time>2013-02-16T01:08:41Z</time></trkpt><trkpt lat="23.9118149970" lon="113.3111916203"><ele>268.35</ele><time>2013-02-16T01:08:59Z</time></trkpt><trkpt lat="23.9117885102" lon="113.3111891896"><ele>267.86</ele><time>2013-02-16T01:09:02Z</time></trkpt><trkpt lat="23.9116670564" lon="113.3112526406"><ele>271.23</ele><time>2013-02-16T01:09:20Z</time></trkpt><trkpt lat="23.9116530586" lon="113.3112717513"><ele>270.75</ele><time>2013-02-16T01:09:24Z</time></trkpt><trkpt lat="23.9116228838" lon="113.3113177679"><ele>274.59</ele><time>2013-02-16T01:09:35Z</time></trkpt><trkpt lat="23.9116199501" lon="113.3113228809"><ele>271.71</ele><time>2013-02-16T01:09:36Z</time></trkpt><trkpt lat="23.9116156753" lon="113.3113336097"><ele>277.00</ele><time>2013-02-16T01:09:38Z</time></trkpt><trkpt lat="23.9116138313" lon="113.3113382198"><ele>272.67</ele><time>2013-02-16T01:09:39Z</time></trkpt><trkpt lat="23.9116014261" lon="113.3113510441"><ele>277.00</ele><time>2013-02-16T01:09:42Z</time></trkpt><trkpt lat="23.9115776215" lon="113.3113571629"><ele>273.15</ele><time>2013-02-16T01:09:46Z</time></trkpt><trkpt lat="23.9115776215" lon="113.3113571629"><ele>278.44</ele><time>2013-02-16T01:09:47Z</time></trkpt><trkpt lat="23.9115776215" lon="113.3113571629"><ele>274.59</ele><time>2013-02-16T01:09:48Z</time></trkpt><trkpt lat="23.9115776215" lon="113.3113571629"><ele>278.44</ele><time>2013-02-16T01:09:49Z</time></trkpt><trkpt lat="23.9115718380" lon="113.3113470208"><ele>278.44</ele><time>2013-02-16T01:09:56Z</time></trkpt><trkpt lat="23.9115718380" lon="113.3113470208"><ele>281.80</ele><time>2013-02-16T01:09:58Z</time></trkpt><trkpt lat="23.9114741888" lon="113.3113897685"><ele>284.21</ele><time>2013-02-16T01:10:17Z</time></trkpt><trkpt lat="23.9114450198" lon="113.3114123158"><ele>284.69</ele><time>2013-02-16T01:10:22Z</time></trkpt><trkpt lat="23.9113388211" lon="113.3114365395"><ele>286.13</ele><time>2013-02-16T01:10:30Z</time></trkpt><trkpt lat="23.9112428483" lon="113.3114904352"><ele>286.13</ele><time>2013-02-16T01:10:44Z</time></trkpt><trkpt lat="23.9110863581" lon="113.3115678001"><ele>286.13</ele><time>2013-02-16T01:11:02Z</time></trkpt><trkpt lat="23.9110941533" lon="113.3117383718"><ele>287.09</ele><time>2013-02-16T01:11:22Z</time></trkpt><trkpt lat="23.9111255016" lon="113.3119681198"><ele>285.65</ele><time>2013-02-16T01:11:41Z</time></trkpt><trkpt lat="23.9112112485" lon="113.3121647593"><ele>286.61</ele><time>2013-02-16T01:11:57Z</time></trkpt><trkpt lat="23.9112519007" lon="113.3122252766"><ele>285.17</ele><time>2013-02-16T01:12:12Z</time></trkpt><trkpt lat="23.9112311974" lon="113.3122801781"><ele>282.77</ele><time>2013-02-16T01:12:31Z</time></trkpt><trkpt lat="23.9112575166" lon="113.3123217523"><ele>280.36</ele><time>2013-02-16T01:12:45Z</time></trkpt><trkpt lat="23.9112743642" lon="113.3123602252"><ele>278.44</ele><time>2013-02-16T01:13:01Z</time></trkpt><trkpt lat="23.9112814888" lon="113.3124411944"><ele>277.48</ele><time>2013-02-16T01:13:19Z</time></trkpt><trkpt lat="23.9112814888" lon="113.3124411944"><ele>276.52</ele><time>2013-02-16T01:13:24Z</time></trkpt><trkpt lat="23.9112770464" lon="113.3124434575"><ele>275.07</ele><time>2013-02-16T01:13:26Z</time></trkpt><trkpt lat="23.9112770464" lon="113.3124434575"><ele>277.48</ele><time>2013-02-16T01:13:27Z</time></trkpt><trkpt lat="23.9112562593" lon="113.3124394342"><ele>276.52</ele><time>2013-02-16T01:13:42Z</time></trkpt><trkpt lat="23.9112562593" lon="113.3124394342"><ele>276.52</ele><time>2013-02-16T01:14:08Z</time></trkpt><trkpt lat="23.9112503920" lon="113.3124436252"><ele>276.52</ele><time>2013-02-16T01:14:26Z</time></trkpt><trkpt lat="23.9112503920" lon="113.3124436252"><ele>273.63</ele><time>2013-02-16T01:14:30Z</time></trkpt><trkpt lat="23.9112480450" lon="113.3124354947"><ele>278.44</ele><time>2013-02-16T01:14:31Z</time></trkpt><trkpt lat="23.9112410042" lon="113.3124304656"><ele>274.11</ele><time>2013-02-16T01:14:32Z</time></trkpt><trkpt lat="23.9112350531" lon="113.3124278672"><ele>279.40</ele><time>2013-02-16T01:14:33Z</time></trkpt><trkpt lat="23.9112306107" lon="113.3124272805"><ele>277.48</ele><time>2013-02-16T01:14:34Z</time></trkpt><trkpt lat="23.9112216420" lon="113.3124304656"><ele>276.52</ele><time>2013-02-16T01:14:51Z</time></trkpt><trkpt lat="23.9112298563" lon="113.3124351595"><ele>274.59</ele><time>2013-02-16T01:15:04Z</time></trkpt><trkpt lat="23.9112307783" lon="113.3124359138"><ele>278.44</ele><time>2013-02-16T01:15:05Z</time></trkpt><trkpt lat="23.9112298563" lon="113.3124351595"><ele>276.04</ele><time>2013-02-16T01:15:06Z</time></trkpt><trkpt lat="23.9112298563" lon="113.3124351595"><ele>277.96</ele><time>2013-02-16T01:15:10Z</time></trkpt><trkpt lat="23.9112298563" lon="113.3124351595"><ele>276.52</ele><time>2013-02-16T01:15:11Z</time></trkpt><trkpt lat="23.9112313651" lon="113.3124349080"><ele>269.79</ele><time>2013-02-16T01:15:13Z</time></trkpt><trkpt lat="23.9112298563" lon="113.3124351595"><ele>266.90</ele><time>2013-02-16T01:15:15Z</time></trkpt><trkpt lat="23.9112298563" lon="113.3124351595"><ele>270.27</ele><time>2013-02-16T01:15:16Z</time></trkpt><trkpt lat="23.9112298563" lon="113.3124351595"><ele>275.56</ele><time>2013-02-16T01:15:17Z</time></trkpt><trkpt lat="23.9112298563" lon="113.3124351595"><ele>277.00</ele><time>2013-02-16T01:15:19Z</time></trkpt><trkpt lat="23.9112324547" lon="113.3124336507"><ele>291.90</ele><time>2013-02-16T01:15:20Z</time></trkpt><trkpt lat="23.9112324547" lon="113.3124336507"><ele>282.77</ele><time>2013-02-16T01:15:21Z</time></trkpt><trkpt lat="23.9112433512" lon="113.3124302141"><ele>277.00</ele><time>2013-02-16T01:15:22Z</time></trkpt><trkpt lat="23.9112233184" lon="113.3124210779"><ele>277.00</ele><time>2013-02-16T01:15:38Z</time></trkpt><trkpt lat="23.9112261683" lon="113.3124222513"><ele>277.00</ele><time>2013-02-16T01:15:47Z</time></trkpt><trkpt lat="23.9112486318" lon="113.3124333154"><ele>275.56</ele><time>2013-02-16T01:15:56Z</time></trkpt><trkpt lat="23.9112576842" lon="113.3124313038"><ele>278.92</ele><time>2013-02-16T01:15:58Z</time></trkpt><trkpt lat="23.9112504758" lon="113.3124455530"><ele>277.48</ele><time>2013-02-16T01:16:07Z</time></trkpt><trkpt lat="23.9112412557" lon="113.3125018794"><ele>272.19</ele><time>2013-02-16T01:16:22Z</time></trkpt><trkpt lat="23.9112399146" lon="113.3124976046"><ele>275.56</ele><time>2013-02-16T01:16:23Z</time></trkpt><trkpt lat="23.9112364780" lon="113.3124887198"><ele>281.80</ele><time>2013-02-16T01:16:25Z</time></trkpt><trkpt lat="23.9112359751" lon="113.3124865405"><ele>277.00</ele><time>2013-02-16T01:16:26Z</time></trkpt><trkpt lat="23.9112323709" lon="113.3124848641"><ele>274.59</ele><time>2013-02-16T01:16:27Z</time></trkpt><trkpt lat="23.9112266712" lon="113.3124848641"><ele>276.04</ele><time>2013-02-16T01:16:28Z</time></trkpt><trkpt lat="23.9112178702" lon="113.3124898095"><ele>278.44</ele><time>2013-02-16T01:16:31Z</time></trkpt><trkpt lat="23.9112175349" lon="113.3124905638"><ele>277.00</ele><time>2013-02-16T01:16:32Z</time></trkpt><trkpt lat="23.9112162776" lon="113.3124904800"><ele>275.07</ele><time>2013-02-16T01:16:33Z</time></trkpt><trkpt lat="23.9112161100" lon="113.3124903124"><ele>278.92</ele><time>2013-02-16T01:16:34Z</time></trkpt><trkpt lat="23.9112178702" lon="113.3124908991"><ele>277.00</ele><time>2013-02-16T01:16:35Z</time></trkpt><trkpt lat="23.9112243243" lon="113.3124950062"><ele>278.92</ele><time>2013-02-16T01:16:36Z</time></trkpt><trkpt lat="23.9112571813" lon="113.3125069924"><ele>277.96</ele><time>2013-02-16T01:16:41Z</time></trkpt><trkpt lat="23.9112593606" lon="113.3125065733"><ele>281.80</ele><time>2013-02-16T01:16:42Z</time></trkpt><trkpt lat="23.9113036171" lon="113.3125784062"><ele>281.32</ele><time>2013-02-16T01:16:50Z</time></trkpt><trkpt lat="23.9113080595" lon="113.3126271050"><ele>284.69</ele><time>2013-02-16T01:17:00Z</time></trkpt><trkpt lat="23.9112966601" lon="113.3126638178"><ele>288.53</ele><time>2013-02-16T01:17:12Z</time></trkpt><trkpt lat="23.9112491347" lon="113.3127307054"><ele>290.46</ele><time>2013-02-16T01:17:30Z</time></trkpt><trkpt lat="23.9112303592" lon="113.3127431944"><ele>291.90</ele><time>2013-02-16T01:17:34Z</time></trkpt><trkpt lat="23.9111941494" lon="113.3128027897"><ele>295.74</ele><time>2013-02-16T01:17:43Z</time></trkpt><trkpt lat="23.9111876953" lon="113.3128095791"><ele>295.74</ele><time>2013-02-16T01:17:44Z</time></trkpt><trkpt lat="23.9110911358" lon="113.3128079027"><ele>296.22</ele><time>2013-02-16T01:17:56Z</time></trkpt><trkpt lat="23.9110829215" lon="113.3128052205"><ele>295.26</ele><time>2013-02-16T01:17:58Z</time></trkpt><trkpt lat="23.9110773895" lon="113.3128082380"><ele>298.63</ele><time>2013-02-16T01:17:59Z</time></trkpt><trkpt lat="23.9110732824" lon="113.3128093276"><ele>297.18</ele><time>2013-02-16T01:18:00Z</time></trkpt><trkpt lat="23.9110323787" lon="113.3128144406"><ele>292.38</ele><time>2013-02-16T01:18:08Z</time></trkpt><trkpt lat="23.9110285230" lon="113.3128166199"><ele>292.38</ele><time>2013-02-16T01:18:09Z</time></trkpt><trkpt lat="23.9110238291" lon="113.3128190506"><ele>305.84</ele><time>2013-02-16T01:18:10Z</time></trkpt><trkpt lat="23.9110212307" lon="113.3128217328"><ele>291.90</ele><time>2013-02-16T01:18:11Z</time></trkpt><trkpt lat="23.9110168722" lon="113.3128234092"><ele>301.03</ele><time>2013-02-16T01:18:12Z</time></trkpt><trkpt lat="23.9110047184" lon="113.3128528297"><ele>297.18</ele><time>2013-02-16T01:18:19Z</time></trkpt><trkpt lat="23.9110047184" lon="113.3128528297"><ele>304.39</ele><time>2013-02-16T01:18:20Z</time></trkpt><trkpt lat="23.9110018685" lon="113.3128566016"><ele>300.07</ele><time>2013-02-16T01:18:21Z</time></trkpt><trkpt lat="23.9109833445" lon="113.3128882013"><ele>306.32</ele><time>2013-02-16T01:18:27Z</time></trkpt><trkpt lat="23.9109779801" lon="113.3128963318"><ele>301.99</ele><time>2013-02-16T01:18:28Z</time></trkpt><trkpt lat="23.9109606296" lon="113.3129093237"><ele>305.84</ele><time>2013-02-16T01:18:34Z</time></trkpt><trkpt lat="23.9109606296" lon="113.3129093237"><ele>302.47</ele><time>2013-02-16T01:18:35Z</time></trkpt><trkpt lat="23.9109878708" lon="113.3129440248"><ele>307.76</ele><time>2013-02-16T01:18:42Z</time></trkpt><trkpt lat="23.9109903853" lon="113.3129543345"><ele>304.39</ele><time>2013-02-16T01:18:44Z</time></trkpt><trkpt lat="23.9109831769" lon="113.3129691705"><ele>307.76</ele><time>2013-02-16T01:18:48Z</time></trkpt><trkpt lat="23.9109777287" lon="113.3129783068"><ele>303.43</ele><time>2013-02-16T01:18:50Z</time></trkpt><trkpt lat="23.9109777287" lon="113.3129783068"><ele>308.24</ele><time>2013-02-16T01:18:51Z</time></trkpt><trkpt lat="23.9109717775" lon="113.3129768819"><ele>304.88</ele><time>2013-02-16T01:18:52Z</time></trkpt><trkpt lat="23.9109613001" lon="113.3129884489"><ele>310.16</ele><time>2013-02-16T01:18:56Z</time></trkpt><trkpt lat="23.9109631442" lon="113.3129946515"><ele>306.32</ele><time>2013-02-16T01:18:57Z</time></trkpt><trkpt lat="23.9109839313" lon="113.3130191267"><ele>308.24</ele><time>2013-02-16T01:19:00Z</time></trkpt><trkpt lat="23.9110314567" lon="113.3130498882"><ele>310.64</ele><time>2013-02-16T01:19:11Z</time></trkpt><trkpt lat="23.9110206440" lon="113.3130752854"><ele>311.60</ele><time>2013-02-16T01:19:18Z</time></trkpt><trkpt lat="23.9109926485" lon="113.3131024428"><ele>315.45</ele><time>2013-02-16T01:19:26Z</time></trkpt><trkpt lat="23.9110178780" lon="113.3131841663"><ele>315.45</ele><time>2013-02-16T01:19:37Z</time></trkpt><trkpt lat="23.9110220689" lon="113.3133627009"><ele>315.45</ele><time>2013-02-16T01:19:53Z</time></trkpt><trkpt lat="23.9110191353" lon="113.3133752737"><ele>315.93</ele><time>2013-02-16T01:19:55Z</time></trkpt><trkpt lat="23.9109591208" lon="113.3134639543"><ele>317.37</ele><time>2013-02-16T01:20:10Z</time></trkpt><trkpt lat="23.9109520800" lon="113.3134994935"><ele>316.89</ele><time>2013-02-16T01:20:15Z</time></trkpt><trkpt lat="23.9109398425" lon="113.3135838993"><ele>316.41</ele><time>2013-02-16T01:20:25Z</time></trkpt><trkpt lat="23.9109467156" lon="113.3136077877"><ele>316.41</ele><time>2013-02-16T01:20:27Z</time></trkpt><trkpt lat="23.9109951630" lon="113.3137113880"><ele>314.01</ele><time>2013-02-16T01:20:41Z</time></trkpt><trkpt lat="23.9109941572" lon="113.3137458377"><ele>314.01</ele><time>2013-02-16T01:20:45Z</time></trkpt><trkpt lat="23.9109506551" lon="113.3138243761"><ele>315.93</ele><time>2013-02-16T01:20:56Z</time></trkpt><trkpt lat="23.9109022915" lon="113.3138048463"><ele>315.45</ele><time>2013-02-16T01:21:04Z</time></trkpt><trkpt lat="23.9108442049" lon="113.3138003200"><ele>317.37</ele><time>2013-02-16T01:21:10Z</time></trkpt><trkpt lat="23.9107814245" lon="113.3138256334"><ele>316.41</ele><time>2013-02-16T01:21:14Z</time></trkpt><trkpt lat="23.9105941728" lon="113.3137946203"><ele>318.33</ele><time>2013-02-16T01:21:31Z</time></trkpt><trkpt lat="23.9104861300" lon="113.3137904294"><ele>319.30</ele><time>2013-02-16T01:21:47Z</time></trkpt><trkpt lat="23.9103971142" lon="113.3137398865"><ele>318.33</ele><time>2013-02-16T01:22:05Z</time></trkpt><trkpt lat="23.9103809372" lon="113.3137314208"><ele>315.45</ele><time>2013-02-16T01:22:25Z</time></trkpt><trkpt lat="23.9103512652" lon="113.3137980569"><ele>314.01</ele><time>2013-02-16T01:22:39Z</time></trkpt><trkpt lat="23.9102628361" lon="113.3138722368"><ele>311.12</ele><time>2013-02-16T01:22:57Z</time></trkpt><trkpt lat="23.9102331642" lon="113.3138978016"><ele>311.60</ele><time>2013-02-16T01:23:13Z</time></trkpt><trkpt lat="23.9102331642" lon="113.3138978016"><ele>311.60</ele><time>2013-02-16T01:23:38Z</time></trkpt><trkpt lat="23.9102231059" lon="113.3138984721"><ele>311.60</ele><time>2013-02-16T01:24:02Z</time></trkpt><trkpt lat="23.9102405403" lon="113.3139171638"><ele>312.09</ele><time>2013-02-16T01:24:26Z</time></trkpt><trkpt lat="23.9102454856" lon="113.3139371127"><ele>312.57</ele><time>2013-02-16T01:24:44Z</time></trkpt><trkpt lat="23.9102440607" lon="113.3139644377"><ele>311.12</ele><time>2013-02-16T01:25:01Z</time></trkpt><trkpt lat="23.9102768339" lon="113.3139531221"><ele>311.60</ele><time>2013-02-16T01:25:19Z</time></trkpt><trkpt lat="23.9102848805" lon="113.3139484283"><ele>311.60</ele><time>2013-02-16T01:25:41Z</time></trkpt><trkpt lat="23.9102848805" lon="113.3139484283"><ele>311.60</ele><time>2013-02-16T01:25:58Z</time></trkpt><trkpt lat="23.9102848805" lon="113.3139484283"><ele>304.39</ele><time>2013-02-16T01:26:02Z</time></trkpt><trkpt lat="23.9102848805" lon="113.3139484283"><ele>313.53</ele><time>2013-02-16T01:26:03Z</time></trkpt><trkpt lat="23.9102844615" lon="113.3139490150"><ele>308.24</ele><time>2013-02-16T01:26:09Z</time></trkpt><trkpt lat="23.9102844615" lon="113.3139490150"><ele>316.89</ele><time>2013-02-16T01:26:10Z</time></trkpt><trkpt lat="23.9102844615" lon="113.3139490150"><ele>312.57</ele><time>2013-02-16T01:26:11Z</time></trkpt><trkpt lat="23.9102844615" lon="113.3139490150"><ele>311.60</ele><time>2013-02-16T01:26:13Z</time></trkpt><trkpt lat="23.9102690388" lon="113.3139236178"><ele>312.09</ele><time>2013-02-16T01:26:34Z</time></trkpt><trkpt lat="23.9102931786" lon="113.3138480969"><ele>313.05</ele><time>2013-02-16T01:26:49Z</time></trkpt><trkpt lat="23.9103148878" lon="113.3137812093"><ele>317.37</ele><time>2013-02-16T01:26:57Z</time></trkpt><trkpt lat="23.9103189949" lon="113.3137376234"><ele>317.85</ele><time>2013-02-16T01:27:06Z</time></trkpt><trkpt lat="23.9103443082" lon="113.3137408923"><ele>317.85</ele><time>2013-02-16T01:27:11Z</time></trkpt><trkpt lat="23.9103891514" lon="113.3137192670"><ele>321.70</ele><time>2013-02-16T01:27:17Z</time></trkpt><trkpt lat="23.9104569610" lon="113.3137531299"><ele>319.30</ele><time>2013-02-16T01:27:23Z</time></trkpt><trkpt lat="23.9105008822" lon="113.3138320036"><ele>319.78</ele><time>2013-02-16T01:27:31Z</time></trkpt><trkpt lat="23.9105218370" lon="113.3138976339"><ele>321.70</ele><time>2013-02-16T01:27:39Z</time></trkpt><trkpt lat="23.9105329849" lon="113.3139143977"><ele>323.62</ele><time>2013-02-16T01:27:41Z</time></trkpt><trkpt lat="23.9105493296" lon="113.3140094485"><ele>324.58</ele><time>2013-02-16T01:27:51Z</time></trkpt><trkpt lat="23.9105593879" lon="113.3140870649"><ele>325.06</ele><time>2013-02-16T01:27:58Z</time></trkpt><trkpt lat="23.9106214140" lon="113.3141034935"><ele>326.50</ele><time>2013-02-16T01:28:11Z</time></trkpt><trkpt lat="23.9106271975" lon="113.3141120430"><ele>326.99</ele><time>2013-02-16T01:28:14Z</time></trkpt><trkpt lat="23.9106610604" lon="113.3141832054"><ele>326.02</ele><time>2013-02-16T01:28:21Z</time></trkpt><trkpt lat="23.9106748905" lon="113.3141957782"><ele>326.50</ele><time>2013-02-16T01:28:23Z</time></trkpt><trkpt lat="23.9107192308" lon="113.3142334968"><ele>325.06</ele><time>2013-02-16T01:28:38Z</time></trkpt><trkpt lat="23.9107192308" lon="113.3142334968"><ele>325.06</ele><time>2013-02-16T01:29:06Z</time></trkpt><trkpt lat="23.9107318036" lon="113.3142421301"><ele>325.06</ele><time>2013-02-16T01:29:24Z</time></trkpt><trkpt lat="23.9107939973" lon="113.3142591454"><ele>324.58</ele><time>2013-02-16T01:29:36Z</time></trkpt><trkpt lat="23.9108104259" lon="113.3142710477"><ele>323.62</ele><time>2013-02-16T01:29:39Z</time></trkpt><trkpt lat="23.9108316321" lon="113.3142890688"><ele>322.66</ele><time>2013-02-16T01:29:48Z</time></trkpt><trkpt lat="23.9108925685" lon="113.3143197466"><ele>320.74</ele><time>2013-02-16T01:30:00Z</time></trkpt><trkpt lat="23.9109157864" lon="113.3143554535"><ele>320.26</ele><time>2013-02-16T01:30:04Z</time></trkpt><trkpt lat="23.9109116793" lon="113.3144456428"><ele>319.30</ele><time>2013-02-16T01:30:19Z</time></trkpt><trkpt lat="23.9108983520" lon="113.3144744765"><ele>320.26</ele><time>2013-02-16T01:30:22Z</time></trkpt><trkpt lat="23.9108984359" lon="113.3145516738"><ele>321.22</ele><time>2013-02-16T01:30:30Z</time></trkpt><trkpt lat="23.9109016210" lon="113.3145733830"><ele>322.66</ele><time>2013-02-16T01:30:32Z</time></trkpt><trkpt lat="23.9109073207" lon="113.3146088384"><ele>321.70</ele><time>2013-02-16T01:30:36Z</time></trkpt><trkpt lat="23.9109088294" lon="113.3146675117"><ele>322.18</ele><time>2013-02-16T01:30:43Z</time></trkpt><trkpt lat="23.9108763076" lon="113.3147983532"><ele>321.22</ele><time>2013-02-16T01:30:56Z</time></trkpt><trkpt lat="23.9108763076" lon="113.3148017060"><ele>321.22</ele><time>2013-02-16T01:30:59Z</time></trkpt><trkpt lat="23.9108732063" lon="113.3148435317"><ele>320.74</ele><time>2013-02-16T01:31:02Z</time></trkpt><trkpt lat="23.9108729549" lon="113.3148721140"><ele>319.78</ele><time>2013-02-16T01:31:04Z</time></trkpt><trkpt lat="23.9108908083" lon="113.3149720263"><ele>319.78</ele><time>2013-02-16T01:31:12Z</time></trkpt><trkpt lat="23.9109302033" lon="113.3150461223"><ele>319.30</ele><time>2013-02-16T01:31:20Z</time></trkpt><trkpt lat="23.9109520800" lon="113.3151317853"><ele>319.30</ele><time>2013-02-16T01:31:29Z</time></trkpt><trkpt lat="23.9109898824" lon="113.3151856810"><ele>319.30</ele><time>2013-02-16T01:31:35Z</time></trkpt><trkpt lat="23.9109949116" lon="113.3152234834"><ele>318.81</ele><time>2013-02-16T01:31:40Z</time></trkpt><trkpt lat="23.9109605458" lon="113.3152230643"><ele>318.81</ele><time>2013-02-16T01:31:43Z</time></trkpt><trkpt lat="23.9109395910" lon="113.3152203821"><ele>319.30</ele><time>2013-02-16T01:31:45Z</time></trkpt><trkpt lat="23.9108797442" lon="113.3152247407"><ele>319.78</ele><time>2013-02-16T01:31:49Z</time></trkpt><trkpt lat="23.9107584581" lon="113.3153122477"><ele>319.78</ele><time>2013-02-16T01:32:01Z</time></trkpt><trkpt lat="23.9107294567" lon="113.3153980784"><ele>320.26</ele><time>2013-02-16T01:32:08Z</time></trkpt><trkpt lat="23.9107107650" lon="113.3154311031"><ele>320.26</ele><time>2013-02-16T01:32:11Z</time></trkpt><trkpt lat="23.9106081706" lon="113.3156077098"><ele>321.22</ele><time>2013-02-16T01:32:26Z</time></trkpt><trkpt lat="23.9105930831" lon="113.3156586718"><ele>321.22</ele><time>2013-02-16T01:32:30Z</time></trkpt><trkpt lat="23.9105952624" lon="113.3157747611"><ele>320.74</ele><time>2013-02-16T01:32:39Z</time></trkpt><trkpt lat="23.9105920773" lon="113.3158237953"><ele>321.22</ele><time>2013-02-16T01:32:44Z</time></trkpt><trkpt lat="23.9105793368" lon="113.3158526290"><ele>321.22</ele><time>2013-02-16T01:32:46Z</time></trkpt><trkpt lat="23.9105624892" lon="113.3159207739"><ele>322.18</ele><time>2013-02-16T01:32:52Z</time></trkpt><trkpt lat="23.9105594717" lon="113.3159476798"><ele>321.22</ele><time>2013-02-16T01:32:54Z</time></trkpt><trkpt lat="23.9105400257" lon="113.3159900084"><ele>320.74</ele><time>2013-02-16T01:32:59Z</time></trkpt><trkpt lat="23.9105337393" lon="113.3160039224"><ele>320.26</ele><time>2013-02-16T01:33:01Z</time></trkpt><trkpt lat="23.9105403610" lon="113.3160285652"><ele>320.26</ele><time>2013-02-16T01:33:04Z</time></trkpt><trkpt lat="23.9105831925" lon="113.3160884958"><ele>318.33</ele><time>2013-02-16T01:33:12Z</time></trkpt><trkpt lat="23.9106482361" lon="113.3162421361"><ele>318.81</ele><time>2013-02-16T01:33:27Z</time></trkpt><trkpt lat="23.9106587972" lon="113.3162822016"><ele>319.30</ele><time>2013-02-16T01:33:31Z</time></trkpt><trkpt lat="23.9106613118" lon="113.3163342532"><ele>318.81</ele><time>2013-02-16T01:33:39Z</time></trkpt><trkpt lat="23.9106670115" lon="113.3163663559"><ele>318.81</ele><time>2013-02-16T01:33:42Z</time></trkpt><trkpt lat="23.9106869604" lon="113.3164231852"><ele>318.33</ele><time>2013-02-16T01:33:46Z</time></trkpt><trkpt lat="23.9107509144" lon="113.3165744785"><ele>318.33</ele><time>2013-02-16T01:33:58Z</time></trkpt><trkpt lat="23.9108349010" lon="113.3167258557"><ele>319.30</ele><time>2013-02-16T01:34:11Z</time></trkpt><trkpt lat="23.9108588733" lon="113.3168201521"><ele>319.78</ele><time>2013-02-16T01:34:21Z</time></trkpt><trkpt lat="23.9108576998" lon="113.3168737963"><ele>318.33</ele><time>2013-02-16T01:34:27Z</time></trkpt><trkpt lat="23.9108184725" lon="113.3169380017"><ele>316.89</ele><time>2013-02-16T01:34:33Z</time></trkpt><trkpt lat="23.9107683487" lon="113.3169537596"><ele>318.81</ele><time>2013-02-16T01:34:39Z</time></trkpt><trkpt lat="23.9107658342" lon="113.3169773128"><ele>318.81</ele><time>2013-02-16T01:34:41Z</time></trkpt><trkpt lat="23.9107854478" lon="113.3170341421"><ele>319.30</ele><time>2013-02-16T01:34:46Z</time></trkpt><trkpt lat="23.9108435344" lon="113.3171208110"><ele>319.30</ele><time>2013-02-16T01:35:00Z</time></trkpt><trkpt lat="23.9108533412" lon="113.3171711024"><ele>319.30</ele><time>2013-02-16T01:35:05Z</time></trkpt><trkpt lat="23.9109743759" lon="113.3172855154"><ele>319.78</ele><time>2013-02-16T01:35:20Z</time></trkpt><trkpt lat="23.9110434428" lon="113.3174394071"><ele>320.26</ele><time>2013-02-16T01:35:35Z</time></trkpt><trkpt lat="23.9111523237" lon="113.3175752778"><ele>320.74</ele><time>2013-02-16T01:35:50Z</time></trkpt><trkpt lat="23.9111691713" lon="113.3176535647"><ele>321.70</ele><time>2013-02-16T01:35:58Z</time></trkpt><trkpt lat="23.9112281799" lon="113.3176891878"><ele>321.22</ele><time>2013-02-16T01:36:11Z</time></trkpt><trkpt lat="23.9112357236" lon="113.3178772777"><ele>321.70</ele><time>2013-02-16T01:36:26Z</time></trkpt><trkpt lat="23.9112197980" lon="113.3179180138"><ele>321.70</ele><time>2013-02-16T01:36:29Z</time></trkpt><trkpt lat="23.9111975022" lon="113.3181163296"><ele>321.22</ele><time>2013-02-16T01:36:45Z</time></trkpt><trkpt lat="23.9111775532" lon="113.3181566466"><ele>321.22</ele><time>2013-02-16T01:36:50Z</time></trkpt><trkpt lat="23.9110430237" lon="113.3183625899"><ele>321.70</ele><time>2013-02-16T01:37:11Z</time></trkpt><trkpt lat="23.9110417664" lon="113.3185602352"><ele>322.66</ele><time>2013-02-16T01:37:27Z</time></trkpt><trkpt lat="23.9109991025" lon="113.3187453076"><ele>323.14</ele><time>2013-02-16T01:37:43Z</time></trkpt><trkpt lat="23.9109984320" lon="113.3188693598"><ele>322.66</ele><time>2013-02-16T01:37:51Z</time></trkpt><trkpt lat="23.9110722765" lon="113.3190330584"><ele>322.18</ele><time>2013-02-16T01:38:07Z</time></trkpt><trkpt lat="23.9111258369" lon="113.3191396762"><ele>326.50</ele><time>2013-02-16T01:38:22Z</time></trkpt><trkpt lat="23.9111305308" lon="113.3191407658"><ele>323.62</ele><time>2013-02-16T01:38:23Z</time></trkpt><trkpt lat="23.9111674111" lon="113.3192022890"><ele>324.10</ele><time>2013-02-16T01:38:33Z</time></trkpt><trkpt lat="23.9112633001" lon="113.3193174563"><ele>323.62</ele><time>2013-02-16T01:38:46Z</time></trkpt><trkpt lat="23.9112713467" lon="113.3193203900"><ele>324.10</ele><time>2013-02-16T01:38:47Z</time></trkpt><trkpt lat="23.9113045391" lon="113.3193338010"><ele>324.58</ele><time>2013-02-16T01:38:52Z</time></trkpt><trkpt lat="23.9113599434" lon="113.3193503972"><ele>324.10</ele><time>2013-02-16T01:38:56Z</time></trkpt><trkpt lat="23.9113896992" lon="113.3193628863"><ele>326.02</ele><time>2013-02-16T01:38:59Z</time></trkpt><trkpt lat="23.9114814810" lon="113.3194341324"><ele>325.06</ele><time>2013-02-16T01:39:11Z</time></trkpt><trkpt lat="23.9115015976" lon="113.3194668218"><ele>325.54</ele><time>2013-02-16T01:39:15Z</time></trkpt><trkpt lat="23.9115428366" lon="113.3194842562"><ele>326.50</ele><time>2013-02-16T01:39:20Z</time></trkpt><trkpt lat="23.9116363786" lon="113.3195882756"><ele>327.47</ele><time>2013-02-16T01:39:34Z</time></trkpt><trkpt lat="23.9116451796" lon="113.3196308557"><ele>326.99</ele><time>2013-02-16T01:39:38Z</time></trkpt><trkpt lat="23.9116745163" lon="113.3198380563"><ele>328.43</ele><time>2013-02-16T01:39:57Z</time></trkpt><trkpt lat="23.9117153361" lon="113.3199704904"><ele>332.75</ele><time>2013-02-16T01:40:11Z</time></trkpt><trkpt lat="23.9117911924" lon="113.3200437482"><ele>333.71</ele><time>2013-02-16T01:40:26Z</time></trkpt><trkpt lat="23.9118093811" lon="113.3200505376"><ele>332.27</ele><time>2013-02-16T01:40:28Z</time></trkpt><trkpt lat="23.9118172601" lon="113.3200507052"><ele>335.64</ele><time>2013-02-16T01:40:29Z</time></trkpt><trkpt lat="23.9118260611" lon="113.3200530522"><ele>334.20</ele><time>2013-02-16T01:40:30Z</time></trkpt><trkpt lat="23.9119342715" lon="113.3201465942"><ele>336.12</ele><time>2013-02-16T01:40:50Z</time></trkpt><trkpt lat="23.9119514544" lon="113.3202268928"><ele>339.96</ele><time>2013-02-16T01:40:59Z</time></trkpt><trkpt lat="23.9119631052" lon="113.3202495240"><ele>340.92</ele><time>2013-02-16T01:41:03Z</time></trkpt><trkpt lat="23.9119732473" lon="113.3202520385"><ele>339.48</ele><time>2013-02-16T01:41:05Z</time></trkpt><trkpt lat="23.9120035060" lon="113.3202949539"><ele>341.89</ele><time>2013-02-16T01:41:12Z</time></trkpt><trkpt lat="23.9120370336" lon="113.3203931060"><ele>342.37</ele><time>2013-02-16T01:41:21Z</time></trkpt><trkpt lat="23.9120770991" lon="113.3205376938"><ele>344.77</ele><time>2013-02-16T01:41:33Z</time></trkpt><trkpt lat="23.9120921027" lon="113.3205676172"><ele>345.73</ele><time>2013-02-16T01:41:37Z</time></trkpt><trkpt lat="23.9121818729" lon="113.3206948545"><ele>346.21</ele><time>2013-02-16T01:41:51Z</time></trkpt><trkpt lat="23.9122347627" lon="113.3207254484"><ele>346.21</ele><time>2013-02-16T01:41:55Z</time></trkpt><trkpt lat="23.9123819489" lon="113.3209051564"><ele>345.73</ele><time>2013-02-16T01:42:11Z</time></trkpt><trkpt lat="23.9123852178" lon="113.3209199924"><ele>345.73</ele><time>2013-02-16T01:42:12Z</time></trkpt><trkpt lat="23.9123891573" lon="113.3209281228"><ele>351.02</ele><time>2013-02-16T01:42:13Z</time></trkpt><trkpt lat="23.9123918395" lon="113.3209345769"><ele>348.62</ele><time>2013-02-16T01:42:14Z</time></trkpt><trkpt lat="23.9124059211" lon="113.3209827729"><ele>351.98</ele><time>2013-02-16T01:42:30Z</time></trkpt><trkpt lat="23.9123951085" lon="113.3210111875"><ele>351.02</ele><time>2013-02-16T01:42:31Z</time></trkpt><trkpt lat="23.9123823680" lon="113.3210634068"><ele>347.17</ele><time>2013-02-16T01:42:34Z</time></trkpt><trkpt lat="23.9123795182" lon="113.3210746385"><ele>355.83</ele><time>2013-02-16T01:42:35Z</time></trkpt><trkpt lat="23.9123772550" lon="113.3210872952"><ele>348.62</ele><time>2013-02-16T01:42:36Z</time></trkpt><trkpt lat="23.9123754948" lon="113.3210971858"><ele>353.90</ele><time>2013-02-16T01:42:37Z</time></trkpt><trkpt lat="23.9123752434" lon="113.3211555239"><ele>351.50</ele><time>2013-02-16T01:42:40Z</time></trkpt><trkpt lat="23.9124398679" lon="113.3214221522"><ele>353.42</ele><time>2013-02-16T01:43:00Z</time></trkpt><trkpt lat="23.9124439750" lon="113.3214281034"><ele>354.38</ele><time>2013-02-16T01:43:02Z</time></trkpt><trkpt lat="23.9124509320" lon="113.3214767184"><ele>355.83</ele><time>2013-02-16T01:43:06Z</time></trkpt><trkpt lat="23.9124561287" lon="113.3215615433"><ele>357.27</ele><time>2013-02-16T01:43:13Z</time></trkpt><trkpt lat="23.9124635048" lon="113.3216146845"><ele>358.71</ele><time>2013-02-16T01:43:21Z</time></trkpt><trkpt lat="23.9124614093" lon="113.3216351364"><ele>358.23</ele><time>2013-02-16T01:43:23Z</time></trkpt><trkpt lat="23.9124476630" lon="113.3218000922"><ele>354.86</ele><time>2013-02-16T01:43:41Z</time></trkpt><trkpt lat="23.9124858007" lon="113.3219243120"><ele>353.42</ele><time>2013-02-16T01:43:52Z</time></trkpt><trkpt lat="23.9126224257" lon="113.3219978213"><ele>351.50</ele><time>2013-02-16T01:44:06Z</time></trkpt><trkpt lat="23.9126428775" lon="113.3220263198"><ele>351.98</ele><time>2013-02-16T01:44:12Z</time></trkpt><trkpt lat="23.9126287121" lon="113.3221140783"><ele>351.02</ele><time>2013-02-16T01:44:30Z</time></trkpt><trkpt lat="23.9126304723" lon="113.3221065346"><ele>347.17</ele><time>2013-02-16T01:44:34Z</time></trkpt><trkpt lat="23.9126337413" lon="113.3221004996"><ele>352.94</ele><time>2013-02-16T01:44:35Z</time></trkpt><trkpt lat="23.9126401115" lon="113.3220900223"><ele>352.46</ele><time>2013-02-16T01:44:56Z</time></trkpt><trkpt lat="23.9126453921" lon="113.3221442532"><ele>351.98</ele><time>2013-02-16T01:45:06Z</time></trkpt><trkpt lat="23.9126397762" lon="113.3221689798"><ele>352.46</ele><time>2013-02-16T01:45:08Z</time></trkpt><trkpt lat="23.9126291312" lon="113.3222177625"><ele>352.94</ele><time>2013-02-16T01:45:12Z</time></trkpt><trkpt lat="23.9125373494" lon="113.3224347699"><ele>352.94</ele><time>2013-02-16T01:45:27Z</time></trkpt><trkpt lat="23.9124210086" lon="113.3226091135"><ele>353.90</ele><time>2013-02-16T01:45:43Z</time></trkpt><trkpt lat="23.9123933483" lon="113.3226798568"><ele>354.38</ele><time>2013-02-16T01:45:51Z</time></trkpt><trkpt lat="23.9122954477" lon="113.3228879794"><ele>354.38</ele><time>2013-02-16T01:46:09Z</time></trkpt><trkpt lat="23.9122741576" lon="113.3229302242"><ele>354.38</ele><time>2013-02-16T01:46:13Z</time></trkpt><trkpt lat="23.9122444857" lon="113.3229942620"><ele>354.38</ele><time>2013-02-16T01:46:17Z</time></trkpt><trkpt lat="23.9122313261" lon="113.3230421226"><ele>348.62</ele><time>2013-02-16T01:46:20Z</time></trkpt><trkpt lat="23.9122262970" lon="113.3230564557"><ele>358.23</ele><time>2013-02-16T01:46:21Z</time></trkpt><trkpt lat="23.9122133050" lon="113.3230782486"><ele>354.86</ele><time>2013-02-16T01:46:23Z</time></trkpt><trkpt lat="23.9120905939" lon="113.3230946772"><ele>350.54</ele><time>2013-02-16T01:46:37Z</time></trkpt><trkpt lat="23.9120579045" lon="113.3230981138"><ele>353.90</ele><time>2013-02-16T01:46:40Z</time></trkpt><trkpt lat="23.9119451679" lon="113.3232233394"><ele>355.83</ele><time>2013-02-16T01:46:57Z</time></trkpt><trkpt lat="23.9118080400" lon="113.3232940827"><ele>357.27</ele><time>2013-02-16T01:47:14Z</time></trkpt><trkpt lat="23.9117846545" lon="113.3232970163"><ele>357.27</ele><time>2013-02-16T01:47:16Z</time></trkpt><trkpt lat="23.9117548987" lon="113.3232970163"><ele>357.27</ele><time>2013-02-16T01:47:18Z</time></trkpt><trkpt lat="23.9115312696" lon="113.3233125228"><ele>359.19</ele><time>2013-02-16T01:47:38Z</time></trkpt><trkpt lat="23.9114400744" lon="113.3233385067"><ele>359.67</ele><time>2013-02-16T01:47:47Z</time></trkpt><trkpt lat="23.9113516454" lon="113.3233499900"><ele>359.67</ele><time>2013-02-16T01:47:55Z</time></trkpt><trkpt lat="23.9111475460" lon="113.3233167976"><ele>357.75</ele><time>2013-02-16T01:48:12Z</time></trkpt><trkpt lat="23.9111178741" lon="113.3233296219"><ele>358.71</ele><time>2013-02-16T01:48:14Z</time></trkpt><trkpt lat="23.9110483043" lon="113.3233468886"><ele>359.19</ele><time>2013-02-16T01:48:20Z</time></trkpt><trkpt lat="23.9108975139" lon="113.3234325517"><ele>360.63</ele><time>2013-02-16T01:48:34Z</time></trkpt><trkpt lat="23.9107162971" lon="113.3234838489"><ele>362.55</ele><time>2013-02-16T01:48:53Z</time></trkpt><trkpt lat="23.9105791692" lon="113.3235263452"><ele>362.07</ele><time>2013-02-16T01:49:07Z</time></trkpt><trkpt lat="23.9104515966" lon="113.3235688414"><ele>362.55</ele><time>2013-02-16T01:49:24Z</time></trkpt><trkpt lat="23.9103289694" lon="113.3236171212"><ele>363.52</ele><time>2013-02-16T01:49:40Z</time></trkpt><trkpt lat="23.9102881495" lon="113.3236416802"><ele>363.04</ele><time>2013-02-16T01:49:45Z</time></trkpt><trkpt lat="23.9101357665" lon="113.3237961587"><ele>364.48</ele><time>2013-02-16T01:50:03Z</time></trkpt><trkpt lat="23.9100382850" lon="113.3239168581"><ele>364.96</ele><time>2013-02-16T01:50:17Z</time></trkpt><trkpt lat="23.9100217726" lon="113.3239065483"><ele>366.88</ele><time>2013-02-16T01:50:19Z</time></trkpt><trkpt lat="23.9099841379" lon="113.3239071351"><ele>365.44</ele><time>2013-02-16T01:50:22Z</time></trkpt><trkpt lat="23.9099314995" lon="113.3238977473"><ele>364.96</ele><time>2013-02-16T01:50:28Z</time></trkpt><trkpt lat="23.9098350238" lon="113.3238535747"><ele>364.00</ele><time>2013-02-16T01:50:37Z</time></trkpt><trkpt lat="23.9097524621" lon="113.3238896169"><ele>364.00</ele><time>2013-02-16T01:50:46Z</time></trkpt><trkpt lat="23.9096662961" lon="113.3239384834"><ele>365.92</ele><time>2013-02-16T01:50:55Z</time></trkpt><trkpt lat="23.9095766935" lon="113.3239922952"><ele>365.44</ele><time>2013-02-16T01:51:04Z</time></trkpt><trkpt lat="23.9094036911" lon="113.3240430057"><ele>366.40</ele><time>2013-02-16T01:51:19Z</time></trkpt><trkpt lat="23.9093681518" lon="113.3240891900"><ele>365.92</ele><time>2013-02-16T01:51:23Z</time></trkpt><trkpt lat="23.9092196245" lon="113.3241734281"><ele>367.36</ele><time>2013-02-16T01:51:41Z</time></trkpt><trkpt lat="23.9091946464" lon="113.3241668902"><ele>367.36</ele><time>2013-02-16T01:51:45Z</time></trkpt><trkpt lat="23.9090148546" lon="113.3242140803"><ele>367.84</ele><time>2013-02-16T01:52:01Z</time></trkpt><trkpt lat="23.9089780580" lon="113.3242326882"><ele>367.36</ele><time>2013-02-16T01:52:04Z</time></trkpt><trkpt lat="23.9088646509" lon="113.3243005816"><ele>367.36</ele><time>2013-02-16T01:52:13Z</time></trkpt><trkpt lat="23.9087340608" lon="113.3244160004"><ele>368.32</ele><time>2013-02-16T01:52:29Z</time></trkpt><trkpt lat="23.9086467214" lon="113.3245636057"><ele>368.80</ele><time>2013-02-16T01:52:47Z</time></trkpt><trkpt lat="23.9085535984" lon="113.3246191777"><ele>370.24</ele><time>2013-02-16T01:53:03Z</time></trkpt><trkpt lat="23.9084273670" lon="113.3246582374"><ele>371.21</ele><time>2013-02-16T01:53:21Z</time></trkpt><trkpt lat="23.9083860442" lon="113.3247464150"><ele>372.65</ele><time>2013-02-16T01:53:41Z</time></trkpt><trkpt lat="23.9083625749" lon="113.3247962873"><ele>372.65</ele><time>2013-02-16T01:53:46Z</time></trkpt><trkpt lat="23.9083505888" lon="113.3248291444"><ele>372.17</ele><time>2013-02-16T01:53:53Z</time></trkpt><trkpt lat="23.9083331544" lon="113.3248906676"><ele>372.65</ele><time>2013-02-16T01:53:59Z</time></trkpt><trkpt lat="23.9083347470" lon="113.3249195851"><ele>372.65</ele><time>2013-02-16T01:54:01Z</time></trkpt><trkpt lat="23.9083428774" lon="113.3250272926"><ele>373.13</ele><time>2013-02-16T01:54:19Z</time></trkpt><trkpt lat="23.9083190728" lon="113.3251609001"><ele>373.13</ele><time>2013-02-16T01:54:38Z</time></trkpt><trkpt lat="23.9082277101" lon="113.3253758959"><ele>375.05</ele><time>2013-02-16T01:54:53Z</time></trkpt><trkpt lat="23.9081994630" lon="113.3254569490"><ele>375.05</ele><time>2013-02-16T01:55:01Z</time></trkpt><trkpt lat="23.9081517700" lon="113.3256172948"><ele>374.57</ele><time>2013-02-16T01:55:16Z</time></trkpt><trkpt lat="23.9080556296" lon="113.3256543428"><ele>374.57</ele><time>2013-02-16T01:55:32Z</time></trkpt><trkpt lat="23.9079467487" lon="113.3257068135"><ele>376.49</ele><time>2013-02-16T01:55:51Z</time></trkpt><trkpt lat="23.9078624267" lon="113.3258528262"><ele>377.94</ele><time>2013-02-16T01:56:05Z</time></trkpt><trkpt lat="23.9078101236" lon="113.3260415029"><ele>376.97</ele><time>2013-02-16T01:56:20Z</time></trkpt><trkpt lat="23.9078149013" lon="113.3261617832"><ele>378.42</ele><time>2013-02-16T01:56:33Z</time></trkpt><trkpt lat="23.9077572338" lon="113.3263516333"><ele>379.38</ele><time>2013-02-16T01:56:50Z</time></trkpt><trkpt lat="23.9076988120" lon="113.3265760168"><ele>378.90</ele><time>2013-02-16T01:57:10Z</time></trkpt><trkpt lat="23.9077079482" lon="113.3266135678"><ele>376.97</ele><time>2013-02-16T01:57:17Z</time></trkpt><trkpt lat="23.9076913521" lon="113.3266968001"><ele>381.30</ele><time>2013-02-16T01:57:33Z</time></trkpt><trkpt lat="23.9076085389" lon="113.3267923538"><ele>380.82</ele><time>2013-02-16T01:57:49Z</time></trkpt><trkpt lat="23.9075193554" lon="113.3268747479"><ele>380.34</ele><time>2013-02-16T01:58:05Z</time></trkpt><trkpt lat="23.9074357878" lon="113.3269534539"><ele>382.26</ele><time>2013-02-16T01:58:21Z</time></trkpt><trkpt lat="23.9074138273" lon="113.3270387817"><ele>382.74</ele><time>2013-02-16T01:58:36Z</time></trkpt><trkpt lat="23.9073833171" lon="113.3271495905"><ele>385.15</ele><time>2013-02-16T01:58:51Z</time></trkpt><trkpt lat="23.9073323552" lon="113.3272569627"><ele>384.66</ele><time>2013-02-16T01:59:13Z</time></trkpt><trkpt lat="23.9072562475" lon="113.3273812663"><ele>383.70</ele><time>2013-02-16T01:59:31Z</time></trkpt><trkpt lat="23.9072350413" lon="113.3274120279"><ele>383.22</ele><time>2013-02-16T01:59:33Z</time></trkpt><trkpt lat="23.9072023518" lon="113.3274936676"><ele>384.18</ele><time>2013-02-16T01:59:49Z</time></trkpt><trkpt lat="23.9072046988" lon="113.3275025524"><ele>383.22</ele><time>2013-02-16T02:00:09Z</time></trkpt><trkpt lat="23.9071939699" lon="113.3276450448"><ele>386.11</ele><time>2013-02-16T02:00:27Z</time></trkpt><trkpt lat="23.9071677346" lon="113.3276977669"><ele>387.55</ele><time>2013-02-16T02:00:46Z</time></trkpt><trkpt lat="23.9070524834" lon="113.3278606273"><ele>388.51</ele><time>2013-02-16T02:01:05Z</time></trkpt><trkpt lat="23.9069713466" lon="113.3279415965"><ele>388.03</ele><time>2013-02-16T02:01:23Z</time></trkpt><trkpt lat="23.9069282636" lon="113.3279674128"><ele>384.66</ele><time>2013-02-16T02:01:38Z</time></trkpt><trkpt lat="23.9069282636" lon="113.3279674128"><ele>391.39</ele><time>2013-02-16T02:01:39Z</time></trkpt><trkpt lat="23.9069185406" lon="113.3279666584"><ele>388.03</ele><time>2013-02-16T02:01:40Z</time></trkpt><trkpt lat="23.9069073088" lon="113.3279723581"><ele>387.07</ele><time>2013-02-16T02:01:42Z</time></trkpt><trkpt lat="23.9068928082" lon="113.3279741183"><ele>386.59</ele><time>2013-02-16T02:01:44Z</time></trkpt><trkpt lat="23.9068522397" lon="113.3280073106"><ele>390.91</ele><time>2013-02-16T02:01:49Z</time></trkpt><trkpt lat="23.9068522397" lon="113.3280073106"><ele>385.63</ele><time>2013-02-16T02:01:50Z</time></trkpt><trkpt lat="23.9068522397" lon="113.3280073106"><ele>390.91</ele><time>2013-02-16T02:01:52Z</time></trkpt><trkpt lat="23.9068522397" lon="113.3280073106"><ele>390.91</ele><time>2013-02-16T02:01:53Z</time></trkpt><trkpt lat="23.9068522397" lon="113.3280073106"><ele>388.03</ele><time>2013-02-16T02:01:55Z</time></trkpt><trkpt lat="23.9068289381" lon="113.3280963264"><ele>388.03</ele><time>2013-02-16T02:02:12Z</time></trkpt><trkpt lat="23.9068263397" lon="113.3281023614"><ele>388.51</ele><time>2013-02-16T02:02:13Z</time></trkpt><trkpt lat="23.9067393355" lon="113.3281858452"><ele>388.99</ele><time>2013-02-16T02:02:29Z</time></trkpt><trkpt lat="23.9066001121" lon="113.3282607794"><ele>392.84</ele><time>2013-02-16T02:02:46Z</time></trkpt><trkpt lat="23.9065308776" lon="113.3282743581"><ele>391.87</ele><time>2013-02-16T02:03:00Z</time></trkpt><trkpt lat="23.9063853677" lon="113.3282757830"><ele>394.76</ele><time>2013-02-16T02:03:17Z</time></trkpt><trkpt lat="23.9062352479" lon="113.3282590192"><ele>397.16</ele><time>2013-02-16T02:03:36Z</time></trkpt><trkpt lat="23.9060194138" lon="113.3283103164"><ele>398.12</ele><time>2013-02-16T02:03:59Z</time></trkpt><trkpt lat="23.9058642648" lon="113.3283080533"><ele>401.01</ele><time>2013-02-16T02:04:20Z</time></trkpt><trkpt lat="23.9058326650" lon="113.3283353783"><ele>402.45</ele><time>2013-02-16T02:04:25Z</time></trkpt><trkpt lat="23.9057226107" lon="113.3283920400"><ele>401.49</ele><time>2013-02-16T02:04:39Z</time></trkpt><trkpt lat="23.9057226107" lon="113.3283920400"><ele>404.85</ele><time>2013-02-16T02:04:40Z</time></trkpt><trkpt lat="23.9057226107" lon="113.3283920400"><ele>404.37</ele><time>2013-02-16T02:04:41Z</time></trkpt><trkpt lat="23.9057067689" lon="113.3283878490"><ele>403.41</ele><time>2013-02-16T02:05:00Z</time></trkpt><trkpt lat="23.9056866523" lon="113.3283992484"><ele>401.97</ele><time>2013-02-16T02:05:10Z</time></trkpt><trkpt lat="23.9056866523" lon="113.3283992484"><ele>407.26</ele><time>2013-02-16T02:05:11Z</time></trkpt><trkpt lat="23.9056866523" lon="113.3283992484"><ele>404.85</ele><time>2013-02-16T02:05:12Z</time></trkpt><trkpt lat="23.9056430664" lon="113.3284451813"><ele>407.26</ele><time>2013-02-16T02:05:25Z</time></trkpt><trkpt lat="23.9056239557" lon="113.3284735959"><ele>411.10</ele><time>2013-02-16T02:05:29Z</time></trkpt><trkpt lat="23.9056162443" lon="113.3284787927"><ele>408.70</ele><time>2013-02-16T02:05:30Z</time></trkpt><trkpt lat="23.9055442438" lon="113.3285531402"><ele>409.66</ele><time>2013-02-16T02:05:43Z</time></trkpt><trkpt lat="23.9054889232" lon="113.3286334388"><ele>410.14</ele><time>2013-02-16T02:05:54Z</time></trkpt><trkpt lat="23.9054753445" lon="113.3286637813"><ele>409.66</ele><time>2013-02-16T02:06:01Z</time></trkpt><trkpt lat="23.9054840617" lon="113.3287041821"><ele>412.54</ele><time>2013-02-16T02:06:07Z</time></trkpt><trkpt lat="23.9054544736" lon="113.3287854027"><ele>415.43</ele><time>2013-02-16T02:06:20Z</time></trkpt><trkpt lat="23.9054129831" lon="113.3289045095"><ele>418.31</ele><time>2013-02-16T02:06:37Z</time></trkpt><trkpt lat="23.9053818863" lon="113.3289953694"><ele>420.71</ele><time>2013-02-16T02:06:55Z</time></trkpt><trkpt lat="23.9053676371" lon="113.3290739078"><ele>422.16</ele><time>2013-02-16T02:07:09Z</time></trkpt><trkpt lat="23.9053714089" lon="113.3290853910"><ele>426.00</ele><time>2013-02-16T02:07:23Z</time></trkpt><trkpt lat="23.9053714089" lon="113.3290853910"><ele>422.64</ele><time>2013-02-16T02:07:24Z</time></trkpt><trkpt lat="23.9053714089" lon="113.3290925156"><ele>426.48</ele><time>2013-02-16T02:07:27Z</time></trkpt><trkpt lat="23.9053714089" lon="113.3290925156"><ele>420.71</ele><time>2013-02-16T02:07:28Z</time></trkpt><trkpt lat="23.9053714089" lon="113.3290925156"><ele>427.92</ele><time>2013-02-16T02:07:29Z</time></trkpt><trkpt lat="23.9053626079" lon="113.3291064296"><ele>424.56</ele><time>2013-02-16T02:07:30Z</time></trkpt><trkpt lat="23.9053522144" lon="113.3291642647"><ele>425.52</ele><time>2013-02-16T02:07:48Z</time></trkpt><trkpt lat="23.9053233806" lon="113.3292411268"><ele>426.96</ele><time>2013-02-16T02:07:53Z</time></trkpt><trkpt lat="23.9053145796" lon="113.3292577229"><ele>430.81</ele><time>2013-02-16T02:08:07Z</time></trkpt><trkpt lat="23.9053146634" lon="113.3293028176"><ele>435.13</ele><time>2013-02-16T02:08:20Z</time></trkpt><trkpt lat="23.9053151663" lon="113.3293074276"><ele>431.29</ele><time>2013-02-16T02:08:28Z</time></trkpt><trkpt lat="23.9053151663" lon="113.3293074276"><ele>436.58</ele><time>2013-02-16T02:08:29Z</time></trkpt><trkpt lat="23.9053152502" lon="113.3293069247"><ele>432.25</ele><time>2013-02-16T02:08:36Z</time></trkpt><trkpt lat="23.9053151663" lon="113.3293074276"><ele>432.25</ele><time>2013-02-16T02:08:37Z</time></trkpt><trkpt lat="23.9053151663" lon="113.3293074276"><ele>439.94</ele><time>2013-02-16T02:08:38Z</time></trkpt><trkpt lat="23.9053151663" lon="113.3293074276"><ele>436.10</ele><time>2013-02-16T02:08:39Z</time></trkpt><trkpt lat="23.9052899368" lon="113.3294811007"><ele>440.90</ele><time>2013-02-16T02:08:50Z</time></trkpt><trkpt lat="23.9052869193" lon="113.3295004629"><ele>440.90</ele><time>2013-02-16T02:08:51Z</time></trkpt><trkpt lat="23.9052843209" lon="113.3295106888"><ele>438.02</ele><time>2013-02-16T02:08:52Z</time></trkpt><trkpt lat="23.9052838180" lon="113.3295161370"><ele>438.02</ele><time>2013-02-16T02:08:53Z</time></trkpt><trkpt lat="23.9052979834" lon="113.3295583818"><ele>440.90</ele><time>2013-02-16T02:09:11Z</time></trkpt><trkpt lat="23.9052374661" lon="113.3296494931"><ele>442.82</ele><time>2013-02-16T02:09:26Z</time></trkpt><trkpt lat="23.9051777869" lon="113.3297333121"><ele>446.19</ele><time>2013-02-16T02:09:42Z</time></trkpt><trkpt lat="23.9051721711" lon="113.3297435381"><ele>446.19</ele><time>2013-02-16T02:09:43Z</time></trkpt><trkpt lat="23.9051157609" lon="113.3298039716"><ele>448.11</ele><time>2013-02-16T02:09:59Z</time></trkpt><trkpt lat="23.9050852507" lon="113.3298524190"><ele>449.07</ele><time>2013-02-16T02:10:14Z</time></trkpt><trkpt lat="23.9050550759" lon="113.3299198095"><ele>449.07</ele><time>2013-02-16T02:10:36Z</time></trkpt><trkpt lat="23.9050541539" lon="113.3299792372"><ele>451.00</ele><time>2013-02-16T02:10:46Z</time></trkpt><trkpt lat="23.9050448500" lon="113.3299989346"><ele>451.00</ele><time>2013-02-16T02:10:57Z</time></trkpt><trkpt lat="23.9050101489" lon="113.3300708514"><ele>452.44</ele><time>2013-02-16T02:11:13Z</time></trkpt><trkpt lat="23.9050041139" lon="113.3300867770"><ele>454.36</ele><time>2013-02-16T02:11:16Z</time></trkpt><trkpt lat="23.9049847517" lon="113.3301714342"><ele>455.80</ele><time>2013-02-16T02:11:33Z</time></trkpt><trkpt lat="23.9049839973" lon="113.3302083146"><ele>458.21</ele><time>2013-02-16T02:11:45Z</time></trkpt><trkpt lat="23.9049766213" lon="113.3301669080"><ele>456.76</ele><time>2013-02-16T02:11:58Z</time></trkpt><trkpt lat="23.9049039502" lon="113.3302519843"><ele>457.24</ele><time>2013-02-16T02:12:11Z</time></trkpt><trkpt lat="23.9048835821" lon="113.3302983362"><ele>457.24</ele><time>2013-02-16T02:12:29Z</time></trkpt><trkpt lat="23.9048803132" lon="113.3303005155"><ele>460.61</ele><time>2013-02-16T02:12:30Z</time></trkpt><trkpt lat="23.9048648067" lon="113.3303107414"><ele>461.09</ele><time>2013-02-16T02:12:37Z</time></trkpt><trkpt lat="23.9048321173" lon="113.3303462807"><ele>463.49</ele><time>2013-02-16T02:12:57Z</time></trkpt><trkpt lat="23.9048182871" lon="113.3303433470"><ele>466.86</ele><time>2013-02-16T02:13:15Z</time></trkpt><trkpt lat="23.9048051275" lon="113.3303539082"><ele>467.82</ele><time>2013-02-16T02:13:26Z</time></trkpt><trkpt lat="23.9047916327" lon="113.3303629607"><ele>471.66</ele><time>2013-02-16T02:13:35Z</time></trkpt><trkpt lat="23.9047513157" lon="113.3303801436"><ele>467.82</ele><time>2013-02-16T02:13:43Z</time></trkpt><trkpt lat="23.9047466218" lon="113.3303853404"><ele>473.59</ele><time>2013-02-16T02:13:44Z</time></trkpt><trkpt lat="23.9047335461" lon="113.3303901181"><ele>470.22</ele><time>2013-02-16T02:13:47Z</time></trkpt><trkpt lat="23.9047272597" lon="113.3303894475"><ele>474.07</ele><time>2013-02-16T02:13:49Z</time></trkpt><trkpt lat="23.9047272597" lon="113.3303894475"><ele>474.07</ele><time>2013-02-16T02:13:50Z</time></trkpt><trkpt lat="23.9046412613" lon="113.3304205444"><ele>475.03</ele><time>2013-02-16T02:14:09Z</time></trkpt><trkpt lat="23.9045725297" lon="113.3304358833"><ele>478.39</ele><time>2013-02-16T02:14:20Z</time></trkpt><trkpt lat="23.9044770598" lon="113.3304595202"><ele>479.35</ele><time>2013-02-16T02:14:32Z</time></trkpt><trkpt lat="23.9044661634" lon="113.3304612804"><ele>479.35</ele><time>2013-02-16T02:14:34Z</time></trkpt><trkpt lat="23.9043688495" lon="113.3305049501"><ele>475.03</ele><time>2013-02-16T02:14:47Z</time></trkpt><trkpt lat="23.9043100923" lon="113.3305869251"><ele>476.47</ele><time>2013-02-16T02:15:03Z</time></trkpt><trkpt lat="23.9042754751" lon="113.3306077961"><ele>476.47</ele><time>2013-02-16T02:15:20Z</time></trkpt><trkpt lat="23.9042678475" lon="113.3306292538"><ele>476.47</ele><time>2013-02-16T02:15:39Z</time></trkpt><trkpt lat="23.9042678475" lon="113.3306292538"><ele>479.35</ele><time>2013-02-16T02:15:43Z</time></trkpt><trkpt lat="23.9042582083" lon="113.3306406531"><ele>475.99</ele><time>2013-02-16T02:15:46Z</time></trkpt><trkpt lat="23.9042423666" lon="113.3306513820"><ele>476.47</ele><time>2013-02-16T02:16:05Z</time></trkpt><trkpt lat="23.9042423666" lon="113.3306513820"><ele>476.47</ele><time>2013-02-16T02:16:09Z</time></trkpt><trkpt lat="23.9042121079" lon="113.3306623623"><ele>476.47</ele><time>2013-02-16T02:16:27Z</time></trkpt><trkpt lat="23.9042053185" lon="113.3306760248"><ele>477.43</ele><time>2013-02-16T02:16:45Z</time></trkpt><trkpt lat="23.9042043965" lon="113.3306750190"><ele>476.95</ele><time>2013-02-16T02:17:02Z</time></trkpt><trkpt lat="23.9042043965" lon="113.3306750190"><ele>476.95</ele><time>2013-02-16T02:17:23Z</time></trkpt><trkpt lat="23.9042057376" lon="113.3306769468"><ele>477.91</ele><time>2013-02-16T02:17:45Z</time></trkpt><trkpt lat="23.9042055700" lon="113.3306781203"><ele>477.43</ele><time>2013-02-16T02:18:19Z</time></trkpt><trkpt lat="23.9042055700" lon="113.3306781203"><ele>477.91</ele><time>2013-02-16T02:18:37Z</time></trkpt><trkpt lat="23.9041747246" lon="113.3307341952"><ele>478.87</ele><time>2013-02-16T02:18:54Z</time></trkpt><trkpt lat="23.9041598886" lon="113.3307491988"><ele>475.99</ele><time>2013-02-16T02:19:00Z</time></trkpt><trkpt lat="23.9041534346" lon="113.3307743445"><ele>475.51</ele><time>2013-02-16T02:19:11Z</time></trkpt><trkpt lat="23.9040906541" lon="113.3309142385"><ele>473.59</ele><time>2013-02-16T02:19:26Z</time></trkpt><trkpt lat="23.9040597249" lon="113.3309328463"><ele>473.59</ele><time>2013-02-16T02:19:41Z</time></trkpt><trkpt lat="23.9040486608" lon="113.3309343550"><ele>478.87</ele><time>2013-02-16T02:19:50Z</time></trkpt><trkpt lat="23.9040437993" lon="113.3309414797"><ele>475.03</ele><time>2013-02-16T02:19:51Z</time></trkpt><trkpt lat="23.9040245209" lon="113.3309746720"><ele>478.87</ele><time>2013-02-16T02:20:05Z</time></trkpt><trkpt lat="23.9040245209" lon="113.3309746720"><ele>478.39</ele><time>2013-02-16T02:20:06Z</time></trkpt><trkpt lat="23.9039898198" lon="113.3310166653"><ele>481.76</ele><time>2013-02-16T02:20:20Z</time></trkpt><trkpt lat="23.9039728045" lon="113.3310291544"><ele>482.24</ele><time>2013-02-16T02:20:31Z</time></trkpt><trkpt lat="23.9039691165" lon="113.3310327586"><ele>483.20</ele><time>2013-02-16T02:20:35Z</time></trkpt><trkpt lat="23.9039616566" lon="113.3310498577"><ele>484.64</ele><time>2013-02-16T02:20:39Z</time></trkpt><trkpt lat="23.9039482456" lon="113.3310729917"><ele>487.05</ele><time>2013-02-16T02:21:01Z</time></trkpt><trkpt lat="23.9039362594" lon="113.3310879115"><ele>486.56</ele><time>2013-02-16T02:21:09Z</time></trkpt><trkpt lat="23.9038807712" lon="113.3311180025"><ele>491.37</ele><time>2013-02-16T02:21:21Z</time></trkpt><trkpt lat="23.9038578887" lon="113.3311451599"><ele>490.89</ele><time>2013-02-16T02:21:26Z</time></trkpt><trkpt lat="23.9038137998" lon="113.3311735746"><ele>491.85</ele><time>2013-02-16T02:21:30Z</time></trkpt><trkpt lat="23.9036347624" lon="113.3312254585"><ele>494.26</ele><time>2013-02-16T02:21:47Z</time></trkpt><trkpt lat="23.9035605825" lon="113.3312849700"><ele>491.37</ele><time>2013-02-16T02:21:53Z</time></trkpt><trkpt lat="23.9035605825" lon="113.3312849700"><ele>496.66</ele><time>2013-02-16T02:21:54Z</time></trkpt><trkpt lat="23.9035443217" lon="113.3313129656"><ele>494.74</ele><time>2013-02-16T02:22:17Z</time></trkpt><trkpt lat="23.9035443217" lon="113.3313129656"><ele>493.77</ele><time>2013-02-16T02:22:41Z</time></trkpt><trkpt lat="23.9035205171" lon="113.3313045837"><ele>495.22</ele><time>2013-02-16T02:23:06Z</time></trkpt><trkpt lat="23.9035205171" lon="113.3313045837"><ele>494.74</ele><time>2013-02-16T02:23:25Z</time></trkpt><trkpt lat="23.9035190921" lon="113.3313145582"><ele>494.26</ele><time>2013-02-16T02:23:39Z</time></trkpt><trkpt lat="23.9035135601" lon="113.3313214313"><ele>493.77</ele><time>2013-02-16T02:23:55Z</time></trkpt><trkpt lat="23.9035176672" lon="113.3313223533"><ele>496.18</ele><time>2013-02-16T02:24:01Z</time></trkpt><trkpt lat="23.9034765959" lon="113.3314374369"><ele>494.74</ele><time>2013-02-16T02:24:16Z</time></trkpt><trkpt lat="23.9034756739" lon="113.3314526081"><ele>494.74</ele><time>2013-02-16T02:24:17Z</time></trkpt><trkpt lat="23.9034696389" lon="113.3315300569"><ele>494.74</ele><time>2013-02-16T02:24:22Z</time></trkpt><trkpt lat="23.9034143183" lon="113.3316693641"><ele>494.74</ele><time>2013-02-16T02:24:30Z</time></trkpt><trkpt lat="23.9034105465" lon="113.3318025526"><ele>496.66</ele><time>2013-02-16T02:24:43Z</time></trkpt><trkpt lat="23.9033315890" lon="113.3319207374"><ele>499.06</ele><time>2013-02-16T02:24:58Z</time></trkpt><trkpt lat="23.9033517055" lon="113.3319913968"><ele>502.91</ele><time>2013-02-16T02:25:12Z</time></trkpt><trkpt lat="23.9033164177" lon="113.3320608828"><ele>502.43</ele><time>2013-02-16T02:25:28Z</time></trkpt><trkpt lat="23.9032860752" lon="113.3320776466"><ele>502.43</ele><time>2013-02-16T02:25:31Z</time></trkpt><trkpt lat="23.9032135718" lon="113.3321903832"><ele>502.91</ele><time>2013-02-16T02:25:45Z</time></trkpt><trkpt lat="23.9031831454" lon="113.3322326280"><ele>502.91</ele><time>2013-02-16T02:26:00Z</time></trkpt><trkpt lat="23.9031783678" lon="113.3322995994"><ele>502.91</ele><time>2013-02-16T02:26:05Z</time></trkpt><trkpt lat="23.9031657111" lon="113.3324024454"><ele>500.98</ele><time>2013-02-16T02:26:15Z</time></trkpt><trkpt lat="23.9031616040" lon="113.3324170299"><ele>505.79</ele><time>2013-02-16T02:26:16Z</time></trkpt><trkpt lat="23.9031533897" lon="113.3324257471"><ele>503.87</ele><time>2013-02-16T02:26:17Z</time></trkpt><trkpt lat="23.9031112287" lon="113.3324518986"><ele>503.39</ele><time>2013-02-16T02:26:29Z</time></trkpt><trkpt lat="23.9030762762" lon="113.3324550837"><ele>503.39</ele><time>2013-02-16T02:26:43Z</time></trkpt><trkpt lat="23.9030675590" lon="113.3324608672"><ele>500.02</ele><time>2013-02-16T02:26:58Z</time></trkpt><trkpt lat="23.9030675590" lon="113.3324608672"><ele>505.79</ele><time>2013-02-16T02:26:59Z</time></trkpt><trkpt lat="23.9030675590" lon="113.3324608672"><ele>502.43</ele><time>2013-02-16T02:27:00Z</time></trkpt><trkpt lat="23.9030659664" lon="113.3324629627"><ele>502.43</ele><time>2013-02-16T02:27:15Z</time></trkpt><trkpt lat="23.9030659664" lon="113.3324629627"><ele>501.46</ele><time>2013-02-16T02:27:35Z</time></trkpt><trkpt lat="23.9030524716" lon="113.3325500507"><ele>503.87</ele><time>2013-02-16T02:27:56Z</time></trkpt><trkpt lat="23.9030142501" lon="113.3326213807"><ele>504.83</ele><time>2013-02-16T02:28:14Z</time></trkpt><trkpt lat="23.9030205365" lon="113.3326264936"><ele>505.79</ele><time>2013-02-16T02:28:26Z</time></trkpt><trkpt lat="23.9029895235" lon="113.3326580934"><ele>502.91</ele><time>2013-02-16T02:28:39Z</time></trkpt><trkpt lat="23.9029895235" lon="113.3326580934"><ele>508.67</ele><time>2013-02-16T02:28:41Z</time></trkpt><trkpt lat="23.9029895235" lon="113.3326580934"><ele>502.91</ele><time>2013-02-16T02:28:42Z</time></trkpt><trkpt lat="23.9029895235" lon="113.3326580934"><ele>512.52</ele><time>2013-02-16T02:28:43Z</time></trkpt><trkpt lat="23.9029895235" lon="113.3326580934"><ele>507.71</ele><time>2013-02-16T02:28:44Z</time></trkpt><trkpt lat="23.9029925410" lon="113.3326676488"><ele>504.35</ele><time>2013-02-16T02:28:47Z</time></trkpt><trkpt lat="23.9029925410" lon="113.3326676488"><ele>509.16</ele><time>2013-02-16T02:28:48Z</time></trkpt><trkpt lat="23.9029958937" lon="113.3326824009"><ele>505.79</ele><time>2013-02-16T02:28:54Z</time></trkpt><trkpt lat="23.9029941335" lon="113.3326874301"><ele>508.67</ele><time>2013-02-16T02:28:55Z</time></trkpt><trkpt lat="23.9029657189" lon="113.3327119891"><ele>505.79</ele><time>2013-02-16T02:29:10Z</time></trkpt><trkpt lat="23.9029527269" lon="113.3327202033"><ele>512.52</ele><time>2013-02-16T02:29:12Z</time></trkpt><trkpt lat="23.9029447641" lon="113.3327248134"><ele>501.95</ele><time>2013-02-16T02:29:13Z</time></trkpt><trkpt lat="23.9029392321" lon="113.3327291720"><ele>513.96</ele><time>2013-02-16T02:29:14Z</time></trkpt><trkpt lat="23.9029392321" lon="113.3327291720"><ele>508.19</ele><time>2013-02-16T02:29:15Z</time></trkpt><trkpt lat="23.9029072132" lon="113.3327852469"><ele>509.64</ele><time>2013-02-16T02:29:34Z</time></trkpt><trkpt lat="23.9028754458" lon="113.3328815550"><ele>509.16</ele><time>2013-02-16T02:29:55Z</time></trkpt><trkpt lat="23.9028742723" lon="113.3328852430"><ele>509.16</ele><time>2013-02-16T02:29:56Z</time></trkpt><trkpt lat="23.9028742723" lon="113.3328884281"><ele>511.08</ele><time>2013-02-16T02:29:58Z</time></trkpt><trkpt lat="23.9028742723" lon="113.3328884281"><ele>497.62</ele><time>2013-02-16T02:30:03Z</time></trkpt><trkpt lat="23.9028742723" lon="113.3328884281"><ele>520.69</ele><time>2013-02-16T02:30:04Z</time></trkpt><trkpt lat="23.9028704166" lon="113.3328951336"><ele>512.04</ele><time>2013-02-16T02:30:05Z</time></trkpt><trkpt lat="23.9028433431" lon="113.3329531364"><ele>509.16</ele><time>2013-02-16T02:30:14Z</time></trkpt><trkpt lat="23.9028390683" lon="113.3329612669"><ele>515.40</ele><time>2013-02-16T02:30:15Z</time></trkpt><trkpt lat="23.9028311055" lon="113.3329740912"><ele>511.08</ele><time>2013-02-16T02:30:17Z</time></trkpt><trkpt lat="23.9028006792" lon="113.3330590837"><ele>511.56</ele><time>2013-02-16T02:30:37Z</time></trkpt><trkpt lat="23.9028026909" lon="113.3330891747"><ele>514.92</ele><time>2013-02-16T02:30:56Z</time></trkpt><trkpt lat="23.9028026909" lon="113.3330891747"><ele>513.00</ele><time>2013-02-16T02:30:57Z</time></trkpt><trkpt lat="23.9028296806" lon="113.3331365325"><ele>514.44</ele><time>2013-02-16T02:31:08Z</time></trkpt><trkpt lat="23.9028551616" lon="113.3331630193"><ele>510.60</ele><time>2013-02-16T02:31:14Z</time></trkpt><trkpt lat="23.9028589334" lon="113.3331654500"><ele>515.88</ele><time>2013-02-16T02:31:15Z</time></trkpt><trkpt lat="23.9028659742" lon="113.3331685513"><ele>508.19</ele><time>2013-02-16T02:31:16Z</time></trkpt><trkpt lat="23.9028659742" lon="113.3331685513"><ele>517.81</ele><time>2013-02-16T02:31:17Z</time></trkpt><trkpt lat="23.9028659742" lon="113.3331685513"><ele>514.44</ele><time>2013-02-16T02:31:18Z</time></trkpt><trkpt lat="23.9028562512" lon="113.3331645280"><ele>513.00</ele><time>2013-02-16T02:31:34Z</time></trkpt><trkpt lat="23.9028554969" lon="113.3331639413"><ele>517.81</ele><time>2013-02-16T02:31:35Z</time></trkpt><trkpt lat="23.9028554969" lon="113.3331639413"><ele>516.37</ele><time>2013-02-16T02:31:36Z</time></trkpt><trkpt lat="23.9028554969" lon="113.3331639413"><ele>514.92</ele><time>2013-02-16T02:31:38Z</time></trkpt><trkpt lat="23.9028323628" lon="113.3332026657"><ele>515.40</ele><time>2013-02-16T02:32:04Z</time></trkpt><trkpt lat="23.9028311055" lon="113.3332118858"><ele>508.19</ele><time>2013-02-16T02:32:20Z</time></trkpt><trkpt lat="23.9028311055" lon="113.3332118858"><ele>520.21</ele><time>2013-02-16T02:32:21Z</time></trkpt><trkpt lat="23.9028343745" lon="113.3332146518"><ele>515.88</ele><time>2013-02-16T02:32:22Z</time></trkpt><trkpt lat="23.9028343745" lon="113.3332146518"><ele>508.19</ele><time>2013-02-16T02:32:26Z</time></trkpt><trkpt lat="23.9028343745" lon="113.3332146518"><ele>516.85</ele><time>2013-02-16T02:32:27Z</time></trkpt><trkpt lat="23.9028343745" lon="113.3332146518"><ele>520.69</ele><time>2013-02-16T02:32:28Z</time></trkpt><trkpt lat="23.9028343745" lon="113.3332146518"><ele>518.77</ele><time>2013-02-16T02:32:29Z</time></trkpt><trkpt lat="23.9028446842" lon="113.3332134783"><ele>514.44</ele><time>2013-02-16T02:32:33Z</time></trkpt><trkpt lat="23.9029179420" lon="113.3331894223"><ele>516.37</ele><time>2013-02-16T02:32:52Z</time></trkpt><trkpt lat="23.9029255696" lon="113.3332320023"><ele>518.77</ele><time>2013-02-16T02:33:02Z</time></trkpt><trkpt lat="23.9029295091" lon="113.3332513645"><ele>519.25</ele><time>2013-02-16T02:33:04Z</time></trkpt><trkpt lat="23.9029426686" lon="113.3332827967"><ele>515.88</ele><time>2013-02-16T02:33:10Z</time></trkpt><trkpt lat="23.9029614441" lon="113.3332807850"><ele>520.21</ele><time>2013-02-16T02:33:14Z</time></trkpt><trkpt lat="23.9029663894" lon="113.3332801983"><ele>517.33</ele><time>2013-02-16T02:33:15Z</time></trkpt><trkpt lat="23.9029870089" lon="113.3333029971"><ele>518.77</ele><time>2013-02-16T02:33:34Z</time></trkpt><trkpt lat="23.9029932953" lon="113.3333129715"><ele>500.50</ele><time>2013-02-16T02:33:36Z</time></trkpt><trkpt lat="23.9029932953" lon="113.3333129715"><ele>522.61</ele><time>2013-02-16T02:33:37Z</time></trkpt><trkpt lat="23.9029932953" lon="113.3333129715"><ele>522.61</ele><time>2013-02-16T02:33:38Z</time></trkpt><trkpt lat="23.9029932953" lon="113.3333129715"><ele>509.64</ele><time>2013-02-16T02:33:39Z</time></trkpt><trkpt lat="23.9029982407" lon="113.3333170786"><ele>542.80</ele><time>2013-02-16T02:33:40Z</time></trkpt><trkpt lat="23.9030001685" lon="113.3333193418"><ele>516.85</ele><time>2013-02-16T02:33:41Z</time></trkpt><trkpt lat="23.9030001685" lon="113.3333193418"><ele>523.58</ele><time>2013-02-16T02:33:42Z</time></trkpt><trkpt lat="23.9030001685" lon="113.3333193418"><ele>519.25</ele><time>2013-02-16T02:33:43Z</time></trkpt><trkpt lat="23.9030160103" lon="113.3333429787"><ele>522.61</ele><time>2013-02-16T02:33:49Z</time></trkpt><trkpt lat="23.9030169323" lon="113.3333579823"><ele>519.25</ele><time>2013-02-16T02:33:51Z</time></trkpt><trkpt lat="23.9030382223" lon="113.3333930187"><ele>515.88</ele><time>2013-02-16T02:34:03Z</time></trkpt><trkpt lat="23.9030382223" lon="113.3333930187"><ele>515.88</ele><time>2013-02-16T02:34:04Z</time></trkpt><trkpt lat="23.9030382223" lon="113.3333930187"><ele>524.54</ele><time>2013-02-16T02:34:05Z</time></trkpt><trkpt lat="23.9030382223" lon="113.3333930187"><ele>521.17</ele><time>2013-02-16T02:34:06Z</time></trkpt><trkpt lat="23.9030610211" lon="113.3334490098"><ele>524.06</ele><time>2013-02-16T02:34:21Z</time></trkpt><trkpt lat="23.9030603506" lon="113.3334533684"><ele>522.61</ele><time>2013-02-16T02:34:22Z</time></trkpt><trkpt lat="23.9030428324" lon="113.3334869798"><ele>518.29</ele><time>2013-02-16T02:34:46Z</time></trkpt><trkpt lat="23.9030409046" lon="113.3334881533"><ele>520.21</ele><time>2013-02-16T02:34:47Z</time></trkpt><trkpt lat="23.9030417427" lon="113.3334823698"><ele>522.13</ele><time>2013-02-16T02:34:50Z</time></trkpt><trkpt lat="23.9030440059" lon="113.3334746584"><ele>521.65</ele><time>2013-02-16T02:34:51Z</time></trkpt><trkpt lat="23.9030548185" lon="113.3334401250"><ele>531.75</ele><time>2013-02-16T02:34:54Z</time></trkpt><trkpt lat="23.9030589256" lon="113.3334279712"><ele>530.30</ele><time>2013-02-16T02:34:55Z</time></trkpt><trkpt lat="23.9030635357" lon="113.3334183320"><ele>523.09</ele><time>2013-02-16T02:34:56Z</time></trkpt><trkpt lat="23.9030660503" lon="113.3334096987"><ele>523.09</ele><time>2013-02-16T02:34:57Z</time></trkpt><trkpt lat="23.9030917827" lon="113.3333755005"><ele>522.13</ele><time>2013-02-16T02:35:06Z</time></trkpt><trkpt lat="23.9030937944" lon="113.3333785180"><ele>525.50</ele><time>2013-02-16T02:35:07Z</time></trkpt><trkpt lat="23.9030804671" lon="113.3334300667"><ele>525.50</ele><time>2013-02-16T02:35:18Z</time></trkpt><trkpt lat="23.9030388929" lon="113.3335858863"><ele>525.50</ele><time>2013-02-16T02:35:34Z</time></trkpt><trkpt lat="23.9030284993" lon="113.3336324058"><ele>527.90</ele><time>2013-02-16T02:35:48Z</time></trkpt><trkpt lat="23.9030235540" lon="113.3336375188"><ele>527.90</ele><time>2013-02-16T02:35:58Z</time></trkpt><trkpt lat="23.9030108135" lon="113.3336565457"><ele>527.42</ele><time>2013-02-16T02:36:00Z</time></trkpt><trkpt lat="23.9030263200" lon="113.3336929232"><ele>527.42</ele><time>2013-02-16T02:36:15Z</time></trkpt><trkpt lat="23.9030263200" lon="113.3336929232"><ele>526.94</ele><time>2013-02-16T02:36:42Z</time></trkpt><trkpt lat="23.9030378032" lon="113.3336937614"><ele>527.90</ele><time>2013-02-16T02:36:53Z</time></trkpt><trkpt lat="23.9030439220" lon="113.3337432146"><ele>530.30</ele><time>2013-02-16T02:37:13Z</time></trkpt><trkpt lat="23.9030652959" lon="113.3337774128"><ele>532.23</ele><time>2013-02-16T02:37:23Z</time></trkpt><trkpt lat="23.9030758571" lon="113.3337922487"><ele>536.07</ele><time>2013-02-16T02:37:26Z</time></trkpt><trkpt lat="23.9030830655" lon="113.3337990381"><ele>533.67</ele><time>2013-02-16T02:37:27Z</time></trkpt><trkpt lat="23.9030876756" lon="113.3338119462"><ele>529.34</ele><time>2013-02-16T02:37:34Z</time></trkpt><trkpt lat="23.9030876756" lon="113.3338119462"><ele>534.63</ele><time>2013-02-16T02:37:35Z</time></trkpt><trkpt lat="23.9030876756" lon="113.3338119462"><ele>534.15</ele><time>2013-02-16T02:37:36Z</time></trkpt><trkpt lat="23.9030835684" lon="113.3338308055"><ele>537.51</ele><time>2013-02-16T02:37:54Z</time></trkpt><trkpt lat="23.9030649606" lon="113.3338612318"><ele>534.15</ele><time>2013-02-16T02:37:59Z</time></trkpt><trkpt lat="23.9030619431" lon="113.3338693622"><ele>538.96</ele><time>2013-02-16T02:38:00Z</time></trkpt><trkpt lat="23.9030729234" lon="113.3338862937"><ele>535.59</ele><time>2013-02-16T02:38:03Z</time></trkpt><trkpt lat="23.9030828979" lon="113.3338943403"><ele>539.92</ele><time>2013-02-16T02:38:06Z</time></trkpt><trkpt lat="23.9030828979" lon="113.3338943403"><ele>536.55</ele><time>2013-02-16T02:38:07Z</time></trkpt><trkpt lat="23.9030828979" lon="113.3338943403"><ele>536.55</ele><time>2013-02-16T02:38:12Z</time></trkpt><trkpt lat="23.9030868374" lon="113.3339068294"><ele>537.99</ele><time>2013-02-16T02:38:14Z</time></trkpt><trkpt lat="23.9031050261" lon="113.3339346573"><ele>536.55</ele><time>2013-02-16T02:38:36Z</time></trkpt><trkpt lat="23.9031050261" lon="113.3339346573"><ele>537.51</ele><time>2013-02-16T02:38:50Z</time></trkpt><trkpt lat="23.9031046908" lon="113.3339397702"><ele>537.99</ele><time>2013-02-16T02:38:55Z</time></trkpt><trkpt lat="23.9030889329" lon="113.3340204041"><ele>537.51</ele><time>2013-02-16T02:39:11Z</time></trkpt><trkpt lat="23.9030889329" lon="113.3340204041"><ele>536.07</ele><time>2013-02-16T02:39:17Z</time></trkpt><trkpt lat="23.9030967280" lon="113.3340214938"><ele>540.40</ele><time>2013-02-16T02:39:20Z</time></trkpt><trkpt lat="23.9031025954" lon="113.3340207394"><ele>531.27</ele><time>2013-02-16T02:39:21Z</time></trkpt><trkpt lat="23.9031080436" lon="113.3340204880"><ele>539.44</ele><time>2013-02-16T02:39:22Z</time></trkpt><trkpt lat="23.9031275734" lon="113.3340271097"><ele>533.67</ele><time>2013-02-16T02:39:30Z</time></trkpt><trkpt lat="23.9031270705" lon="113.3340266906"><ele>554.34</ele><time>2013-02-16T02:39:31Z</time></trkpt><trkpt lat="23.9031270705" lon="113.3340266906"><ele>541.36</ele><time>2013-02-16T02:39:32Z</time></trkpt><trkpt lat="23.9031315967" lon="113.3340438735"><ele>538.96</ele><time>2013-02-16T02:39:34Z</time></trkpt><trkpt lat="23.9031073730" lon="113.3341101743"><ele>540.40</ele><time>2013-02-16T02:39:44Z</time></trkpt><trkpt lat="23.9031276572" lon="113.3341785707"><ele>543.28</ele><time>2013-02-16T02:39:53Z</time></trkpt><trkpt lat="23.9031279925" lon="113.3341838513"><ele>543.28</ele><time>2013-02-16T02:39:54Z</time></trkpt><trkpt lat="23.9031253941" lon="113.3342114277"><ele>543.76</ele><time>2013-02-16T02:39:58Z</time></trkpt><trkpt lat="23.9031927008" lon="113.3342558518"><ele>547.13</ele><time>2013-02-16T02:40:12Z</time></trkpt><trkpt lat="23.9031980652" lon="113.3342584502"><ele>541.84</ele><time>2013-02-16T02:40:13Z</time></trkpt><trkpt lat="23.9031980652" lon="113.3342584502"><ele>549.05</ele><time>2013-02-16T02:40:14Z</time></trkpt><trkpt lat="23.9032134041" lon="113.3342738729"><ele>544.72</ele><time>2013-02-16T02:40:17Z</time></trkpt><trkpt lat="23.9032173436" lon="113.3342781477"><ele>547.61</ele><time>2013-02-16T02:40:18Z</time></trkpt><trkpt lat="23.9032220375" lon="113.3343031257"><ele>546.65</ele><time>2013-02-16T02:40:35Z</time></trkpt><trkpt lat="23.9032220375" lon="113.3343031257"><ele>547.61</ele><time>2013-02-16T02:40:42Z</time></trkpt><trkpt lat="23.9032160863" lon="113.3343090769"><ele>548.09</ele><time>2013-02-16T02:41:02Z</time></trkpt><trkpt lat="23.9032161701" lon="113.3343245834"><ele>542.32</ele><time>2013-02-16T02:41:11Z</time></trkpt><trkpt lat="23.9032123145" lon="113.3343260922"><ele>547.13</ele><time>2013-02-16T02:41:12Z</time></trkpt><trkpt lat="23.9032068662" lon="113.3343284391"><ele>555.78</ele><time>2013-02-16T02:41:13Z</time></trkpt><trkpt lat="23.9031986520" lon="113.3343320433"><ele>547.61</ele><time>2013-02-16T02:41:14Z</time></trkpt><trkpt lat="23.9031986520" lon="113.3343320433"><ele>555.78</ele><time>2013-02-16T02:41:15Z</time></trkpt><trkpt lat="23.9031986520" lon="113.3343320433"><ele>550.97</ele><time>2013-02-16T02:41:16Z</time></trkpt><trkpt lat="23.9031932876" lon="113.3343520761"><ele>545.69</ele><time>2013-02-16T02:41:20Z</time></trkpt><trkpt lat="23.9031975623" lon="113.3343582787"><ele>556.26</ele><time>2013-02-16T02:41:21Z</time></trkpt><trkpt lat="23.9032012504" lon="113.3343661577"><ele>551.93</ele><time>2013-02-16T02:41:22Z</time></trkpt><trkpt lat="23.9032091293" lon="113.3343659900"><ele>544.24</ele><time>2013-02-16T02:41:24Z</time></trkpt><trkpt lat="23.9032091293" lon="113.3343659900"><ele>550.49</ele><time>2013-02-16T02:41:25Z</time></trkpt><trkpt lat="23.9032091293" lon="113.3343659900"><ele>558.18</ele><time>2013-02-16T02:41:26Z</time></trkpt><trkpt lat="23.9032091293" lon="113.3343659900"><ele>552.90</ele><time>2013-02-16T02:41:27Z</time></trkpt><trkpt lat="23.9032068662" lon="113.3343778085"><ele>550.97</ele><time>2013-02-16T02:41:29Z</time></trkpt><trkpt lat="23.9032068662" lon="113.3343778085"><ele>553.86</ele><time>2013-02-16T02:41:32Z</time></trkpt><trkpt lat="23.9031781163" lon="113.3344576880"><ele>552.90</ele><time>2013-02-16T02:41:46Z</time></trkpt><trkpt lat="23.9031491149" lon="113.3345562592"><ele>548.57</ele><time>2013-02-16T02:42:00Z</time></trkpt><trkpt lat="23.9031479415" lon="113.3345679939"><ele>556.74</ele><time>2013-02-16T02:42:01Z</time></trkpt><trkpt lat="23.9031481929" lon="113.3345794771"><ele>553.38</ele><time>2013-02-16T02:42:02Z</time></trkpt><trkpt lat="23.9031706564" lon="113.3346597757"><ele>556.26</ele><time>2013-02-16T02:42:14Z</time></trkpt><trkpt lat="23.9031765237" lon="113.3346683253"><ele>553.38</ele><time>2013-02-16T02:42:15Z</time></trkpt><trkpt lat="23.9031836484" lon="113.3346738573"><ele>557.22</ele><time>2013-02-16T02:42:16Z</time></trkpt><trkpt lat="23.9032003284" lon="113.3347085584"><ele>558.18</ele><time>2013-02-16T02:42:28Z</time></trkpt><trkpt lat="23.9032003284" lon="113.3347085584"><ele>553.86</ele><time>2013-02-16T02:42:35Z</time></trkpt><trkpt lat="23.9032003284" lon="113.3347085584"><ele>557.70</ele><time>2013-02-16T02:42:36Z</time></trkpt><trkpt lat="23.9032004122" lon="113.3347128332"><ele>556.74</ele><time>2013-02-16T02:42:41Z</time></trkpt><trkpt lat="23.9032244682" lon="113.3347125817"><ele>559.62</ele><time>2013-02-16T02:42:44Z</time></trkpt><trkpt lat="23.9032340236" lon="113.3347140905"><ele>554.34</ele><time>2013-02-16T02:42:50Z</time></trkpt><trkpt lat="23.9032340236" lon="113.3347140905"><ele>562.51</ele><time>2013-02-16T02:42:51Z</time></trkpt><trkpt lat="23.9032375440" lon="113.3347173594"><ele>558.18</ele><time>2013-02-16T02:42:52Z</time></trkpt><trkpt lat="23.9032699820" lon="113.3347326983"><ele>562.03</ele><time>2013-02-16T02:42:59Z</time></trkpt><trkpt lat="23.9033582434" lon="113.3347932994"><ele>559.14</ele><time>2013-02-16T02:43:13Z</time></trkpt><trkpt lat="23.9033626858" lon="113.3347957302"><ele>564.91</ele><time>2013-02-16T02:43:14Z</time></trkpt><trkpt lat="23.9033659548" lon="113.3347967360"><ele>559.62</ele><time>2013-02-16T02:43:15Z</time></trkpt><trkpt lat="23.9033688884" lon="113.3347957302"><ele>564.91</ele><time>2013-02-16T02:43:16Z</time></trkpt><trkpt lat="23.9033791143" lon="113.3347928803"><ele>560.11</ele><time>2013-02-16T02:43:23Z</time></trkpt><trkpt lat="23.9033791143" lon="113.3347928803"><ele>566.83</ele><time>2013-02-16T02:43:24Z</time></trkpt><trkpt lat="23.9033857360" lon="113.3347964846"><ele>564.43</ele><time>2013-02-16T02:43:27Z</time></trkpt><trkpt lat="23.9033857360" lon="113.3347964846"><ele>566.35</ele><time>2013-02-16T02:43:37Z</time></trkpt><trkpt lat="23.9034144860" lon="113.3348456863"><ele>557.22</ele><time>2013-02-16T02:43:53Z</time></trkpt><trkpt lat="23.9034194313" lon="113.3348475304"><ele>571.64</ele><time>2013-02-16T02:43:54Z</time></trkpt><trkpt lat="23.9034232870" lon="113.3348474465"><ele>568.76</ele><time>2013-02-16T02:43:55Z</time></trkpt><trkpt lat="23.9034445770" lon="113.3348590136"><ele>566.35</ele><time>2013-02-16T02:43:59Z</time></trkpt><trkpt lat="23.9034687169" lon="113.3348554093"><ele>572.12</ele><time>2013-02-16T02:44:16Z</time></trkpt><trkpt lat="23.9034687169" lon="113.3348554093"><ele>568.28</ele><time>2013-02-16T02:44:17Z</time></trkpt><trkpt lat="23.9034759253" lon="113.3348141704"><ele>568.76</ele><time>2013-02-16T02:44:37Z</time></trkpt><trkpt lat="23.9034957904" lon="113.3349015936"><ele>571.64</ele><time>2013-02-16T02:44:58Z</time></trkpt><trkpt lat="23.9034957904" lon="113.3349015936"><ele>565.87</ele><time>2013-02-16T02:45:04Z</time></trkpt><trkpt lat="23.9034957904" lon="113.3349015936"><ele>576.45</ele><time>2013-02-16T02:45:05Z</time></trkpt><trkpt lat="23.9034957904" lon="113.3349015936"><ele>573.08</ele><time>2013-02-16T02:45:06Z</time></trkpt><trkpt lat="23.9035889972" lon="113.3349279128"><ele>575.97</ele><time>2013-02-16T02:45:23Z</time></trkpt><trkpt lat="23.9035988878" lon="113.3349361271"><ele>578.85</ele><time>2013-02-16T02:45:44Z</time></trkpt><trkpt lat="23.9035972115" lon="113.3350295015"><ele>580.77</ele><time>2013-02-16T02:46:02Z</time></trkpt><trkpt lat="23.9036090299" lon="113.3350563236"><ele>582.22</ele><time>2013-02-16T02:46:08Z</time></trkpt><trkpt lat="23.9036180824" lon="113.3350847382"><ele>583.66</ele><time>2013-02-16T02:46:24Z</time></trkpt><trkpt lat="23.9036200941" lon="113.3350989036"><ele>577.89</ele><time>2013-02-16T02:46:26Z</time></trkpt><trkpt lat="23.9036221057" lon="113.3351060282"><ele>590.87</ele><time>2013-02-16T02:46:27Z</time></trkpt><trkpt lat="23.9036228601" lon="113.3351118956"><ele>590.87</ele><time>2013-02-16T02:46:28Z</time></trkpt><trkpt lat="23.9036230277" lon="113.3351173438"><ele>584.62</ele><time>2013-02-16T02:46:29Z</time></trkpt><trkpt lat="23.9036402106" lon="113.3351237141"><ele>585.10</ele><time>2013-02-16T02:46:49Z</time></trkpt><trkpt lat="23.9036710560" lon="113.3351709880"><ele>589.43</ele><time>2013-02-16T02:47:09Z</time></trkpt><trkpt lat="23.9036794379" lon="113.3351707365"><ele>588.46</ele><time>2013-02-16T02:47:26Z</time></trkpt><trkpt lat="23.9036794379" lon="113.3351707365"><ele>584.14</ele><time>2013-02-16T02:47:47Z</time></trkpt><trkpt lat="23.9036794379" lon="113.3351707365"><ele>591.35</ele><time>2013-02-16T02:47:48Z</time></trkpt><trkpt lat="23.9036792703" lon="113.3351688087"><ele>587.98</ele><time>2013-02-16T02:47:49Z</time></trkpt><trkpt lat="23.9036789350" lon="113.3351661265"><ele>589.43</ele><time>2013-02-16T02:47:52Z</time></trkpt><trkpt lat="23.9037609939" lon="113.3351490274"><ele>589.91</ele><time>2013-02-16T02:48:12Z</time></trkpt><trkpt lat="23.9037913363" lon="113.3351397235"><ele>590.39</ele><time>2013-02-16T02:48:15Z</time></trkpt><trkpt lat="23.9038257860" lon="113.3351061121"><ele>590.39</ele><time>2013-02-16T02:48:35Z</time></trkpt><trkpt lat="23.9038091060" lon="113.3351123985"><ele>590.87</ele><time>2013-02-16T02:48:56Z</time></trkpt><trkpt lat="23.9038091060" lon="113.3351123985"><ele>593.75</ele><time>2013-02-16T02:49:14Z</time></trkpt><trkpt lat="23.9038039092" lon="113.3351292461"><ele>590.39</ele><time>2013-02-16T02:49:18Z</time></trkpt><trkpt lat="23.9038039092" lon="113.3351292461"><ele>597.12</ele><time>2013-02-16T02:49:19Z</time></trkpt><trkpt lat="23.9038039930" lon="113.3351527993"><ele>594.71</ele><time>2013-02-16T02:49:22Z</time></trkpt><trkpt lat="23.9037921745" lon="113.3352022525"><ele>597.60</ele><time>2013-02-16T02:49:36Z</time></trkpt><trkpt lat="23.9037886541" lon="113.3352082875"><ele>597.12</ele><time>2013-02-16T02:49:37Z</time></trkpt><trkpt lat="23.9037756622" lon="113.3352423180"><ele>598.08</ele><time>2013-02-16T02:49:56Z</time></trkpt><trkpt lat="23.9038100280" lon="113.3352348581"><ele>598.56</ele><time>2013-02-16T02:50:15Z</time></trkpt><trkpt lat="23.9038187452" lon="113.3352389652"><ele>598.56</ele><time>2013-02-16T02:50:30Z</time></trkpt><trkpt lat="23.9038325753" lon="113.3352465089"><ele>599.52</ele><time>2013-02-16T02:50:33Z</time></trkpt><trkpt lat="23.9038483333" lon="113.3352523763"><ele>605.29</ele><time>2013-02-16T02:50:36Z</time></trkpt><trkpt lat="23.9038501773" lon="113.3352553938"><ele>600.96</ele><time>2013-02-16T02:50:37Z</time></trkpt><trkpt lat="23.9038201701" lon="113.3352777734"><ele>601.92</ele><time>2013-02-16T02:50:45Z</time></trkpt><trkpt lat="23.9038201701" lon="113.3352777734"><ele>596.15</ele><time>2013-02-16T02:51:06Z</time></trkpt><trkpt lat="23.9038201701" lon="113.3352777734"><ele>596.15</ele><time>2013-02-16T02:51:07Z</time></trkpt><trkpt lat="23.9038060885" lon="113.3352891728"><ele>607.21</ele><time>2013-02-16T02:51:08Z</time></trkpt><trkpt lat="23.9037895761" lon="113.3352959622"><ele>601.44</ele><time>2013-02-16T02:51:09Z</time></trkpt><trkpt lat="23.9037895761" lon="113.3352959622"><ele>596.15</ele><time>2013-02-16T02:51:13Z</time></trkpt><trkpt lat="23.9037897438" lon="113.3353005722"><ele>605.29</ele><time>2013-02-16T02:51:14Z</time></trkpt><trkpt lat="23.9037908334" lon="113.3353054337"><ele>603.36</ele><time>2013-02-16T02:51:15Z</time></trkpt><trkpt lat="23.9038013946" lon="113.3353435714"><ele>604.81</ele><time>2013-02-16T02:51:37Z</time></trkpt><trkpt lat="23.9037705492" lon="113.3353224490"><ele>597.60</ele><time>2013-02-16T02:51:42Z</time></trkpt><trkpt lat="23.9037660230" lon="113.3353153244"><ele>611.54</ele><time>2013-02-16T02:51:43Z</time></trkpt><trkpt lat="23.9037619997" lon="113.3353081159"><ele>604.81</ele><time>2013-02-16T02:51:44Z</time></trkpt><trkpt lat="23.9037325792" lon="113.3352765162"><ele>610.09</ele><time>2013-02-16T02:51:55Z</time></trkpt><trkpt lat="23.9037325792" lon="113.3352765162"><ele>606.73</ele><time>2013-02-16T02:51:56Z</time></trkpt><trkpt lat="23.9036922622" lon="113.3352977224"><ele>610.57</ele><time>2013-02-16T02:52:07Z</time></trkpt><trkpt lat="23.9036371093" lon="113.3353114687"><ele>603.36</ele><time>2013-02-16T02:52:14Z</time></trkpt><trkpt lat="23.9036371093" lon="113.3353114687"><ele>612.98</ele><time>2013-02-16T02:52:15Z</time></trkpt><trkpt lat="23.9036371093" lon="113.3353114687"><ele>611.54</ele><time>2013-02-16T02:52:16Z</time></trkpt><trkpt lat="23.9036399592" lon="113.3353235386"><ele>612.98</ele><time>2013-02-16T02:52:24Z</time></trkpt><trkpt lat="23.9036431443" lon="113.3353384584"><ele>609.61</ele><time>2013-02-16T02:52:28Z</time></trkpt><trkpt lat="23.9036431443" lon="113.3353384584"><ele>614.42</ele><time>2013-02-16T02:52:29Z</time></trkpt><trkpt lat="23.9036064316" lon="113.3353985567"><ele>617.78</ele><time>2013-02-16T02:52:48Z</time></trkpt><trkpt lat="23.9036563877" lon="113.3354710601"><ele>617.78</ele><time>2013-02-16T02:53:00Z</time></trkpt><trkpt lat="23.9036409650" lon="113.3354993910"><ele>615.86</ele><time>2013-02-16T02:53:05Z</time></trkpt><trkpt lat="23.9036337566" lon="113.3354967926"><ele>619.23</ele><time>2013-02-16T02:53:06Z</time></trkpt><trkpt lat="23.9036283083" lon="113.3354945295"><ele>618.26</ele><time>2013-02-16T02:53:07Z</time></trkpt><trkpt lat="23.9036210999" lon="113.3354977146"><ele>616.82</ele><time>2013-02-16T02:53:09Z</time></trkpt><trkpt lat="23.9036207646" lon="113.3354920987"><ele>617.30</ele><time>2013-02-16T02:53:24Z</time></trkpt><trkpt lat="23.9036414679" lon="113.3354941942"><ele>616.34</ele><time>2013-02-16T02:53:38Z</time></trkpt><trkpt lat="23.9036361873" lon="113.3354936913"><ele>617.30</ele><time>2013-02-16T02:53:51Z</time></trkpt><trkpt lat="23.9036392048" lon="113.3354945295"><ele>617.78</ele><time>2013-02-16T02:54:23Z</time></trkpt><trkpt lat="23.9036589861" lon="113.3354803640"><ele>618.75</ele><time>2013-02-16T02:54:34Z</time></trkpt><trkpt lat="23.9036639314" lon="113.3354894165"><ele>618.26</ele><time>2013-02-16T02:54:47Z</time></trkpt><trkpt lat="23.9036639314" lon="113.3354894165"><ele>618.75</ele><time>2013-02-16T02:55:13Z</time></trkpt><trkpt lat="23.9036643505" lon="113.3354847226"><ele>618.26</ele><time>2013-02-16T02:55:27Z</time></trkpt><trkpt lat="23.9036695473" lon="113.3354983851"><ele>618.75</ele><time>2013-02-16T02:55:48Z</time></trkpt><trkpt lat="23.9036717266" lon="113.3354863152"><ele>619.23</ele><time>2013-02-16T02:56:04Z</time></trkpt><trkpt lat="23.9036661107" lon="113.3354998101"><ele>619.71</ele><time>2013-02-16T02:56:23Z</time></trkpt><trkpt lat="23.9036630094" lon="113.3354949486"><ele>619.23</ele><time>2013-02-16T02:56:38Z</time></trkpt><trkpt lat="23.9036464971" lon="113.3355152328"><ele>618.75</ele><time>2013-02-16T02:56:56Z</time></trkpt><trkpt lat="23.9036481734" lon="113.3355007321"><ele>619.23</ele><time>2013-02-16T02:57:11Z</time></trkpt><trkpt lat="23.9036519453" lon="113.3355055097"><ele>619.71</ele><time>2013-02-16T02:57:23Z</time></trkpt><trkpt lat="23.9036519453" lon="113.3355055097"><ele>619.71</ele><time>2013-02-16T02:57:52Z</time></trkpt><trkpt lat="23.9036542084" lon="113.3355024084"><ele>619.71</ele><time>2013-02-16T02:58:15Z</time></trkpt><trkpt lat="23.9036504366" lon="113.3354927693"><ele>619.71</ele><time>2013-02-16T02:58:37Z</time></trkpt><trkpt lat="23.9036382828" lon="113.3354872372"><ele>620.19</ele><time>2013-02-16T02:58:53Z</time></trkpt><trkpt lat="23.9036468323" lon="113.3354893327"><ele>620.67</ele><time>2013-02-16T02:59:21Z</time></trkpt><trkpt lat="23.9036710560" lon="113.3354933560"><ele>620.19</ele><time>2013-02-16T02:59:34Z</time></trkpt><trkpt lat="23.9036538731" lon="113.3354636002"><ele>620.19</ele><time>2013-02-16T02:59:55Z</time></trkpt><trkpt lat="23.9036544599" lon="113.3354660310"><ele>620.67</ele><time>2013-02-16T03:00:12Z</time></trkpt><trkpt lat="23.9036552142" lon="113.3354713954"><ele>606.25</ele><time>2013-02-16T03:00:34Z</time></trkpt><trkpt lat="23.9036552142" lon="113.3354713954"><ele>621.63</ele><time>2013-02-16T03:00:35Z</time></trkpt><trkpt lat="23.9036552142" lon="113.3354713954"><ele>620.67</ele><time>2013-02-16T03:00:40Z</time></trkpt><trkpt lat="23.9036552142" lon="113.3354713954"><ele>626.44</ele><time>2013-02-16T03:00:48Z</time></trkpt><trkpt lat="23.9036552142" lon="113.3354713954"><ele>620.19</ele><time>2013-02-16T03:00:52Z</time></trkpt><trkpt lat="23.9036632609" lon="113.3354681265"><ele>621.15</ele><time>2013-02-16T03:01:08Z</time></trkpt><trkpt lat="23.9036568068" lon="113.3354756702"><ele>621.15</ele><time>2013-02-16T03:01:26Z</time></trkpt><trkpt lat="23.9036575612" lon="113.3354808670"><ele>621.15</ele><time>2013-02-16T03:01:50Z</time></trkpt><trkpt lat="23.9036515262" lon="113.3354977984"><ele>621.15</ele><time>2013-02-16T03:02:06Z</time></trkpt><trkpt lat="23.9036394563" lon="113.3355067670"><ele>616.34</ele><time>2013-02-16T03:02:14Z</time></trkpt><trkpt lat="23.9036394563" lon="113.3355067670"><ele>621.63</ele><time>2013-02-16T03:02:15Z</time></trkpt><trkpt lat="23.9036394563" lon="113.3355067670"><ele>624.99</ele><time>2013-02-16T03:02:20Z</time></trkpt><trkpt lat="23.9036394563" lon="113.3355067670"><ele>623.55</ele><time>2013-02-16T03:02:21Z</time></trkpt><trkpt lat="23.9036447369" lon="113.3354996424"><ele>621.63</ele><time>2013-02-16T03:02:23Z</time></trkpt><trkpt lat="23.9036447369" lon="113.3354996424"><ele>621.63</ele><time>2013-02-16T03:02:48Z</time></trkpt><trkpt lat="23.9036612492" lon="113.3354896680"><ele>621.63</ele><time>2013-02-16T03:03:03Z</time></trkpt><trkpt lat="23.9036612492" lon="113.3354896680"><ele>616.82</ele><time>2013-02-16T03:03:11Z</time></trkpt><trkpt lat="23.9036575612" lon="113.3354889136"><ele>624.03</ele><time>2013-02-16T03:03:12Z</time></trkpt><trkpt lat="23.9036575612" lon="113.3354889136"><ele>617.78</ele><time>2013-02-16T03:03:14Z</time></trkpt><trkpt lat="23.9036575612" lon="113.3354889136"><ele>620.19</ele><time>2013-02-16T03:03:15Z</time></trkpt><trkpt lat="23.9036575612" lon="113.3354889136"><ele>621.15</ele><time>2013-02-16T03:03:17Z</time></trkpt><trkpt lat="23.9036575612" lon="113.3354889136"><ele>620.67</ele><time>2013-02-16T03:03:25Z</time></trkpt><trkpt lat="23.9036571421" lon="113.3354881592"><ele>621.63</ele><time>2013-02-16T03:03:59Z</time></trkpt><trkpt lat="23.9036571421" lon="113.3354881592"><ele>621.15</ele><time>2013-02-16T03:04:29Z</time></trkpt><trkpt lat="23.9036564715" lon="113.3354873210"><ele>621.63</ele><time>2013-02-16T03:05:02Z</time></trkpt><trkpt lat="23.9036560524" lon="113.3354871534"><ele>622.11</ele><time>2013-02-16T03:05:30Z</time></trkpt><trkpt lat="23.9036559686" lon="113.3354869019"><ele>623.07</ele><time>2013-02-16T03:06:00Z</time></trkpt><trkpt lat="23.9036559686" lon="113.3354869019"><ele>614.90</ele><time>2013-02-16T03:06:29Z</time></trkpt><trkpt lat="23.9036559686" lon="113.3354869019"><ele>622.11</ele><time>2013-02-16T03:06:30Z</time></trkpt><trkpt lat="23.9036557171" lon="113.3354867343"><ele>626.44</ele><time>2013-02-16T03:06:56Z</time></trkpt><trkpt lat="23.9036557171" lon="113.3354867343"><ele>619.23</ele><time>2013-02-16T03:06:57Z</time></trkpt><trkpt lat="23.9036557171" lon="113.3354867343"><ele>624.03</ele><time>2013-02-16T03:06:59Z</time></trkpt><trkpt lat="23.9036584832" lon="113.3354858123"><ele>623.55</ele><time>2013-02-16T03:07:00Z</time></trkpt><trkpt lat="23.9036604948" lon="113.3354893327"><ele>619.71</ele><time>2013-02-16T03:07:01Z</time></trkpt><trkpt lat="23.9036630094" lon="113.3354913443"><ele>626.44</ele><time>2013-02-16T03:07:02Z</time></trkpt><trkpt lat="23.9036630094" lon="113.3354913443"><ele>625.47</ele><time>2013-02-16T03:07:03Z</time></trkpt><trkpt lat="23.9036662783" lon="113.3354983851"><ele>622.11</ele><time>2013-02-16T03:07:04Z</time></trkpt><trkpt lat="23.9036655240" lon="113.3355050068"><ele>624.03</ele><time>2013-02-16T03:07:05Z</time></trkpt><trkpt lat="23.9036623389" lon="113.3355145622"><ele>623.07</ele><time>2013-02-16T03:07:20Z</time></trkpt><trkpt lat="23.9036626741" lon="113.3355147298"><ele>623.07</ele><time>2013-02-16T03:07:41Z</time></trkpt><trkpt lat="23.9036327507" lon="113.3354739938"><ele>622.59</ele><time>2013-02-16T03:08:05Z</time></trkpt><trkpt lat="23.9036490116" lon="113.3354895003"><ele>623.07</ele><time>2013-02-16T03:08:25Z</time></trkpt><trkpt lat="23.9036513586" lon="113.3354924340"><ele>611.54</ele><time>2013-02-16T03:08:46Z</time></trkpt><trkpt lat="23.9036563039" lon="113.3354905900"><ele>633.65</ele><time>2013-02-16T03:08:47Z</time></trkpt><trkpt lat="23.9036726486" lon="113.3354792744"><ele>622.59</ele><time>2013-02-16T03:08:50Z</time></trkpt><trkpt lat="23.9036653563" lon="113.3354869857"><ele>622.59</ele><time>2013-02-16T03:08:53Z</time></trkpt><trkpt lat="23.9036717266" lon="113.3355605789"><ele>623.07</ele><time>2013-02-16T03:09:01Z</time></trkpt><trkpt lat="23.9036630094" lon="113.3356889058"><ele>622.11</ele><time>2013-02-16T03:09:13Z</time></trkpt><trkpt lat="23.9036266319" lon="113.3357127104"><ele>621.63</ele><time>2013-02-16T03:09:26Z</time></trkpt><trkpt lat="23.9036525320" lon="113.3357645106"><ele>622.11</ele><time>2013-02-16T03:09:31Z</time></trkpt><trkpt lat="23.9036517777" lon="113.3358510956"><ele>621.63</ele><time>2013-02-16T03:09:40Z</time></trkpt><trkpt lat="23.9036680385" lon="113.3359520137"><ele>621.63</ele><time>2013-02-16T03:09:53Z</time></trkpt><trkpt lat="23.9036374446" lon="113.3360387664"><ele>622.59</ele><time>2013-02-16T03:10:07Z</time></trkpt><trkpt lat="23.9036374446" lon="113.3360387664"><ele>621.15</ele><time>2013-02-16T03:10:09Z</time></trkpt><trkpt lat="23.9036374446" lon="113.3360387664"><ele>617.78</ele><time>2013-02-16T03:10:10Z</time></trkpt><trkpt lat="23.9036334213" lon="113.3360396046"><ele>621.63</ele><time>2013-02-16T03:10:11Z</time></trkpt><trkpt lat="23.9036192559" lon="113.3360849507"><ele>621.63</ele><time>2013-02-16T03:10:28Z</time></trkpt><trkpt lat="23.9036145620" lon="113.3360986132"><ele>618.26</ele><time>2013-02-16T03:10:30Z</time></trkpt><trkpt lat="23.9036143944" lon="113.3361059055"><ele>623.55</ele><time>2013-02-16T03:10:31Z</time></trkpt><trkpt lat="23.9036107901" lon="113.3361333143"><ele>620.19</ele><time>2013-02-16T03:10:35Z</time></trkpt><trkpt lat="23.9035531227" lon="113.3362043090"><ele>620.67</ele><time>2013-02-16T03:10:50Z</time></trkpt><trkpt lat="23.9034144860" lon="113.3362302091"><ele>622.59</ele><time>2013-02-16T03:11:08Z</time></trkpt><trkpt lat="23.9034248795" lon="113.3362655807"><ele>619.71</ele><time>2013-02-16T03:11:17Z</time></trkpt><trkpt lat="23.9034248795" lon="113.3362655807"><ele>613.46</ele><time>2013-02-16T03:11:36Z</time></trkpt><trkpt lat="23.9034248795" lon="113.3362655807"><ele>624.03</ele><time>2013-02-16T03:11:37Z</time></trkpt><trkpt lat="23.9034248795" lon="113.3362655807"><ele>619.71</ele><time>2013-02-16T03:11:38Z</time></trkpt><trkpt lat="23.9034248795" lon="113.3362655807"><ele>617.30</ele><time>2013-02-16T03:11:46Z</time></trkpt><trkpt lat="23.9034248795" lon="113.3362655807"><ele>621.15</ele><time>2013-02-16T03:11:47Z</time></trkpt><trkpt lat="23.9034248795" lon="113.3362655807"><ele>620.67</ele><time>2013-02-16T03:11:48Z</time></trkpt><trkpt lat="23.9034248795" lon="113.3362655807"><ele>619.23</ele><time>2013-02-16T03:11:50Z</time></trkpt><trkpt lat="23.9034254663" lon="113.3362657484"><ele>619.23</ele><time>2013-02-16T03:12:19Z</time></trkpt><trkpt lat="23.9034254663" lon="113.3362657484"><ele>622.59</ele><time>2013-02-16T03:12:33Z</time></trkpt><trkpt lat="23.9034254663" lon="113.3362657484"><ele>619.23</ele><time>2013-02-16T03:12:35Z</time></trkpt><trkpt lat="23.9034180064" lon="113.3362925705"><ele>618.75</ele><time>2013-02-16T03:12:58Z</time></trkpt><trkpt lat="23.9034164976" lon="113.3363255952"><ele>618.75</ele><time>2013-02-16T03:13:01Z</time></trkpt><trkpt lat="23.9033909328" lon="113.3363987692"><ele>618.26</ele><time>2013-02-16T03:13:16Z</time></trkpt><trkpt lat="23.9033729117" lon="113.3364249207"><ele>618.26</ele><time>2013-02-16T03:13:33Z</time></trkpt><trkpt lat="23.9033202734" lon="113.3364584483"><ele>618.26</ele><time>2013-02-16T03:13:48Z</time></trkpt><trkpt lat="23.9033261407" lon="113.3364870306"><ele>617.78</ele><time>2013-02-16T03:14:04Z</time></trkpt><trkpt lat="23.9032456744" lon="113.3364592027"><ele>613.94</ele><time>2013-02-16T03:14:16Z</time></trkpt><trkpt lat="23.9032406453" lon="113.3364558499"><ele>613.94</ele><time>2013-02-16T03:14:17Z</time></trkpt><trkpt lat="23.9032354485" lon="113.3364557661"><ele>618.26</ele><time>2013-02-16T03:14:18Z</time></trkpt><trkpt lat="23.9032332692" lon="113.3364565205"><ele>614.90</ele><time>2013-02-16T03:14:19Z</time></trkpt><trkpt lat="23.9032332692" lon="113.3364565205"><ele>616.82</ele><time>2013-02-16T03:14:20Z</time></trkpt><trkpt lat="23.9032342751" lon="113.3364582807"><ele>614.90</ele><time>2013-02-16T03:14:22Z</time></trkpt><trkpt lat="23.9032353647" lon="113.3364602085"><ele>617.30</ele><time>2013-02-16T03:14:23Z</time></trkpt><trkpt lat="23.9032439981" lon="113.3364752959"><ele>615.86</ele><time>2013-02-16T03:14:31Z</time></trkpt><trkpt lat="23.9032461774" lon="113.3364790678"><ele>618.75</ele><time>2013-02-16T03:14:33Z</time></trkpt><trkpt lat="23.9032471832" lon="113.3364809118"><ele>617.30</ele><time>2013-02-16T03:14:34Z</time></trkpt><trkpt lat="23.9032481052" lon="113.3364824206"><ele>610.57</ele><time>2013-02-16T03:14:35Z</time></trkpt><trkpt lat="23.9032491110" lon="113.3364843484"><ele>618.75</ele><time>2013-02-16T03:14:36Z</time></trkpt><trkpt lat="23.9032503683" lon="113.3364863601"><ele>613.46</ele><time>2013-02-16T03:14:37Z</time></trkpt><trkpt lat="23.9032513741" lon="113.3364882879"><ele>626.92</ele><time>2013-02-16T03:14:38Z</time></trkpt><trkpt lat="23.9032526314" lon="113.3364903834"><ele>615.86</ele><time>2013-02-16T03:14:39Z</time></trkpt><trkpt lat="23.9032536373" lon="113.3364922274"><ele>622.59</ele><time>2013-02-16T03:14:40Z</time></trkpt><trkpt lat="23.9032547269" lon="113.3364940714"><ele>622.59</ele><time>2013-02-16T03:14:41Z</time></trkpt><trkpt lat="23.9032332692" lon="113.3364565205"><ele>617.78</ele><time>2013-02-16T03:14:42Z</time></trkpt><trkpt lat="23.9033315890" lon="113.3365067281"><ele>617.78</ele><time>2013-02-16T03:14:50Z</time></trkpt><trkpt lat="23.9033402223" lon="113.3365058061"><ele>621.63</ele><time>2013-02-16T03:14:51Z</time></trkpt><trkpt lat="23.9033430722" lon="113.3365081530"><ele>619.71</ele><time>2013-02-16T03:14:52Z</time></trkpt><trkpt lat="23.9033443294" lon="113.3365079854"><ele>615.38</ele><time>2013-02-16T03:14:53Z</time></trkpt><trkpt lat="23.9033380430" lon="113.3365034591"><ele>625.96</ele><time>2013-02-16T03:14:55Z</time></trkpt><trkpt lat="23.9033351094" lon="113.3364980109"><ele>619.23</ele><time>2013-02-16T03:14:56Z</time></trkpt><trkpt lat="23.9033271465" lon="113.3364907186"><ele>624.03</ele><time>2013-02-16T03:14:58Z</time></trkpt><trkpt lat="23.9033226203" lon="113.3364900481"><ele>621.63</ele><time>2013-02-16T03:14:59Z</time></trkpt><trkpt lat="23.9032736700" lon="113.3364574425"><ele>621.63</ele><time>2013-02-16T03:15:18Z</time></trkpt><trkpt lat="23.9032054413" lon="113.3365460392"><ele>618.26</ele><time>2013-02-16T03:15:29Z</time></trkpt><trkpt lat="23.9031994063" lon="113.3365572710"><ele>625.96</ele><time>2013-02-16T03:15:30Z</time></trkpt><trkpt lat="23.9031923655" lon="113.3365698438"><ele>620.67</ele><time>2013-02-16T03:15:31Z</time></trkpt><trkpt lat="23.9031766914" lon="113.3365980908"><ele>620.19</ele><time>2013-02-16T03:15:34Z</time></trkpt><trkpt lat="23.9031701535" lon="113.3366032876"><ele>623.55</ele><time>2013-02-16T03:15:35Z</time></trkpt><trkpt lat="23.9031579159" lon="113.3366389107"><ele>620.19</ele><time>2013-02-16T03:15:47Z</time></trkpt><trkpt lat="23.9031579159" lon="113.3366389107"><ele>625.96</ele><time>2013-02-16T03:15:48Z</time></trkpt><trkpt lat="23.9031579159" lon="113.3366389107"><ele>619.23</ele><time>2013-02-16T03:15:49Z</time></trkpt><trkpt lat="23.9031615201" lon="113.3366454486"><ele>628.84</ele><time>2013-02-16T03:15:50Z</time></trkpt><trkpt lat="23.9031757694" lon="113.3366511483"><ele>623.55</ele><time>2013-02-16T03:15:51Z</time></trkpt><trkpt lat="23.9031911921" lon="113.3366665710"><ele>618.26</ele><time>2013-02-16T03:15:54Z</time></trkpt><trkpt lat="23.9031952154" lon="113.3366710134"><ele>627.88</ele><time>2013-02-16T03:15:55Z</time></trkpt><trkpt lat="23.9032009989" lon="113.3366739471"><ele>621.15</ele><time>2013-02-16T03:15:56Z</time></trkpt><trkpt lat="23.9032074530" lon="113.3366757073"><ele>627.40</ele><time>2013-02-16T03:15:57Z</time></trkpt><trkpt lat="23.9032230433" lon="113.3366799820"><ele>623.55</ele><time>2013-02-16T03:15:59Z</time></trkpt><trkpt lat="23.9032069501" lon="113.3367260825"><ele>627.88</ele><time>2013-02-16T03:16:12Z</time></trkpt><trkpt lat="23.9031936228" lon="113.3367456961"><ele>623.07</ele><time>2013-02-16T03:16:16Z</time></trkpt><trkpt lat="23.9031935390" lon="113.3367505576"><ele>629.32</ele><time>2013-02-16T03:16:17Z</time></trkpt><trkpt lat="23.9031935390" lon="113.3367505576"><ele>629.32</ele><time>2013-02-16T03:16:18Z</time></trkpt><trkpt lat="23.9031935390" lon="113.3367505576"><ele>608.65</ele><time>2013-02-16T03:16:19Z</time></trkpt><trkpt lat="23.9031935390" lon="113.3367505576"><ele>632.20</ele><time>2013-02-16T03:16:20Z</time></trkpt><trkpt lat="23.9031958021" lon="113.3367812354"><ele>627.40</ele><time>2013-02-16T03:16:24Z</time></trkpt><trkpt lat="23.9031972270" lon="113.3367876057"><ele>627.40</ele><time>2013-02-16T03:16:25Z</time></trkpt><trkpt lat="23.9032048546" lon="113.3368049562"><ele>628.36</ele><time>2013-02-16T03:16:32Z</time></trkpt><trkpt lat="23.9032489434" lon="113.3368620370"><ele>630.28</ele><time>2013-02-16T03:16:44Z</time></trkpt><trkpt lat="23.9032455068" lon="113.3368742745"><ele>626.92</ele><time>2013-02-16T03:16:49Z</time></trkpt><trkpt lat="23.9032467641" lon="113.3368750289"><ele>627.40</ele><time>2013-02-16T03:16:50Z</time></trkpt><trkpt lat="23.9032503683" lon="113.3368754480"><ele>632.20</ele><time>2013-02-16T03:16:51Z</time></trkpt><trkpt lat="23.9032503683" lon="113.3368754480"><ele>629.32</ele><time>2013-02-16T03:16:52Z</time></trkpt><trkpt lat="23.9032503683" lon="113.3368754480"><ele>625.96</ele><time>2013-02-16T03:16:53Z</time></trkpt><trkpt lat="23.9032503683" lon="113.3368754480"><ele>630.76</ele><time>2013-02-16T03:16:54Z</time></trkpt><trkpt lat="23.9032503683" lon="113.3368754480"><ele>629.32</ele><time>2013-02-16T03:16:57Z</time></trkpt><trkpt lat="23.9032084588" lon="113.3368715085"><ele>630.76</ele><time>2013-02-16T03:17:18Z</time></trkpt><trkpt lat="23.9031893481" lon="113.3368832432"><ele>631.72</ele><time>2013-02-16T03:17:23Z</time></trkpt><trkpt lat="23.9031640347" lon="113.3368684072"><ele>634.61</ele><time>2013-02-16T03:17:29Z</time></trkpt><trkpt lat="23.9031620231" lon="113.3368668146"><ele>634.61</ele><time>2013-02-16T03:17:30Z</time></trkpt><trkpt lat="23.9031620231" lon="113.3368668146"><ele>630.76</ele><time>2013-02-16T03:17:32Z</time></trkpt><trkpt lat="23.9031609334" lon="113.3368638810"><ele>632.20</ele><time>2013-02-16T03:17:33Z</time></trkpt><trkpt lat="23.9031583350" lon="113.3368607797"><ele>628.84</ele><time>2013-02-16T03:17:38Z</time></trkpt><trkpt lat="23.9031620231" lon="113.3368644677"><ele>635.57</ele><time>2013-02-16T03:17:39Z</time></trkpt><trkpt lat="23.9031620231" lon="113.3368644677"><ele>635.09</ele><time>2013-02-16T03:17:40Z</time></trkpt><trkpt lat="23.9031613525" lon="113.3368786331"><ele>630.76</ele><time>2013-02-16T03:17:48Z</time></trkpt><trkpt lat="23.9031623583" lon="113.3368855901"><ele>637.49</ele><time>2013-02-16T03:17:49Z</time></trkpt><trkpt lat="23.9031637833" lon="113.3368927985"><ele>637.01</ele><time>2013-02-16T03:17:50Z</time></trkpt><trkpt lat="23.9032215346" lon="113.3369556628"><ele>637.97</ele><time>2013-02-16T03:18:09Z</time></trkpt><trkpt lat="23.9032327663" lon="113.3369596861"><ele>637.01</ele><time>2013-02-16T03:18:16Z</time></trkpt><trkpt lat="23.9032380469" lon="113.3369601890"><ele>638.93</ele><time>2013-02-16T03:18:17Z</time></trkpt><trkpt lat="23.9032397233" lon="113.3369699121"><ele>639.41</ele><time>2013-02-16T03:18:26Z</time></trkpt><trkpt lat="23.9032585826" lon="113.3369886875"><ele>637.49</ele><time>2013-02-16T03:18:30Z</time></trkpt><trkpt lat="23.9032664616" lon="113.3369952254"><ele>617.78</ele><time>2013-02-16T03:18:31Z</time></trkpt><trkpt lat="23.9032698143" lon="113.3369979914"><ele>617.78</ele><time>2013-02-16T03:18:32Z</time></trkpt><trkpt lat="23.9032724965" lon="113.3370119892"><ele>658.64</ele><time>2013-02-16T03:18:33Z</time></trkpt><trkpt lat="23.9032762684" lon="113.3370212093"><ele>640.86</ele><time>2013-02-16T03:18:34Z</time></trkpt><trkpt lat="23.9032709878" lon="113.3370761946"><ele>634.61</ele><time>2013-02-16T03:18:40Z</time></trkpt><trkpt lat="23.9032716583" lon="113.3370826486"><ele>645.66</ele><time>2013-02-16T03:18:41Z</time></trkpt><trkpt lat="23.9032724127" lon="113.3370897733"><ele>640.38</ele><time>2013-02-16T03:18:42Z</time></trkpt><trkpt lat="23.9032444172" lon="113.3371546492"><ele>642.30</ele><time>2013-02-16T03:18:50Z</time></trkpt><trkpt lat="23.9032372925" lon="113.3371635340"><ele>642.78</ele><time>2013-02-16T03:18:54Z</time></trkpt><trkpt lat="23.9032355323" lon="113.3371657133"><ele>640.38</ele><time>2013-02-16T03:18:55Z</time></trkpt><trkpt lat="23.9032337721" lon="113.3371678926"><ele>642.30</ele><time>2013-02-16T03:18:56Z</time></trkpt><trkpt lat="23.9032230433" lon="113.3371812198"><ele>644.22</ele><time>2013-02-16T03:19:02Z</time></trkpt><trkpt lat="23.9032195229" lon="113.3371856622"><ele>641.82</ele><time>2013-02-16T03:19:04Z</time></trkpt><trkpt lat="23.9032176789" lon="113.3371878415"><ele>643.26</ele><time>2013-02-16T03:19:05Z</time></trkpt><trkpt lat="23.9032141585" lon="113.3371922839"><ele>641.34</ele><time>2013-02-16T03:19:07Z</time></trkpt><trkpt lat="23.9032123983" lon="113.3371944632"><ele>643.74</ele><time>2013-02-16T03:19:08Z</time></trkpt><trkpt lat="23.9031994902" lon="113.3372104727"><ele>639.41</ele><time>2013-02-16T03:19:15Z</time></trkpt><trkpt lat="23.9031153359" lon="113.3375083655"><ele>649.99</ele><time>2013-02-16T03:20:38Z</time></trkpt><trkpt lat="23.9031181857" lon="113.3375127241"><ele>649.03</ele><time>2013-02-16T03:20:39Z</time></trkpt><trkpt lat="23.9031199459" lon="113.3375154901"><ele>650.47</ele><time>2013-02-16T03:20:40Z</time></trkpt><trkpt lat="23.9031186886" lon="113.3375128079"><ele>649.51</ele><time>2013-02-16T03:20:41Z</time></trkpt><trkpt lat="23.9031201135" lon="113.3375154901"><ele>651.91</ele><time>2013-02-16T03:20:45Z</time></trkpt><trkpt lat="23.9031196106" lon="113.3375068568"><ele>648.55</ele><time>2013-02-16T03:20:52Z</time></trkpt><trkpt lat="23.9031226281" lon="113.3375070244"><ele>648.55</ele><time>2013-02-16T03:20:53Z</time></trkpt><trkpt lat="23.9031254780" lon="113.3375061024"><ele>652.39</ele><time>2013-02-16T03:20:54Z</time></trkpt><trkpt lat="23.9031279087" lon="113.3375058509"><ele>650.95</ele><time>2013-02-16T03:20:55Z</time></trkpt><trkpt lat="23.9031370450" lon="113.3375017438"><ele>651.91</ele><time>2013-02-16T03:20:57Z</time></trkpt><trkpt lat="23.9031420741" lon="113.3375001512"><ele>648.07</ele><time>2013-02-16T03:20:58Z</time></trkpt><trkpt lat="23.9031442534" lon="113.3375020791"><ele>652.39</ele><time>2013-02-16T03:20:59Z</time></trkpt><trkpt lat="23.9031460974" lon="113.3375069406"><ele>654.31</ele><time>2013-02-16T03:21:00Z</time></trkpt><trkpt lat="23.9031463489" lon="113.3375119697"><ele>652.39</ele><time>2013-02-16T03:21:01Z</time></trkpt><trkpt lat="23.9031452592" lon="113.3375189267"><ele>648.55</ele><time>2013-02-16T03:21:02Z</time></trkpt><trkpt lat="23.9031440020" lon="113.3375215251"><ele>648.55</ele><time>2013-02-16T03:21:03Z</time></trkpt><trkpt lat="23.9031422418" lon="113.3375272248"><ele>656.24</ele><time>2013-02-16T03:21:04Z</time></trkpt><trkpt lat="23.9031414036" lon="113.3375343494"><ele>650.47</ele><time>2013-02-16T03:21:05Z</time></trkpt><trkpt lat="23.9031406492" lon="113.3375409711"><ele>653.35</ele><time>2013-02-16T03:21:06Z</time></trkpt><trkpt lat="23.9031376317" lon="113.3375486825"><ele>649.99</ele><time>2013-02-16T03:21:08Z</time></trkpt><trkpt lat="23.9031346142" lon="113.3375537116"><ele>657.68</ele><time>2013-02-16T03:21:09Z</time></trkpt><trkpt lat="23.9031328540" lon="113.3375580702"><ele>654.31</ele><time>2013-02-16T03:21:10Z</time></trkpt><trkpt lat="23.9031369612" lon="113.3375813719"><ele>655.28</ele><time>2013-02-16T03:21:18Z</time></trkpt><trkpt lat="23.9031636156" lon="113.3375836350"><ele>652.87</ele><time>2013-02-16T03:21:23Z</time></trkpt><trkpt lat="23.9031719975" lon="113.3375801146"><ele>655.28</ele><time>2013-02-16T03:21:24Z</time></trkpt><trkpt lat="23.9032454230" lon="113.3375558071"><ele>650.47</ele><time>2013-02-16T03:21:34Z</time></trkpt><trkpt lat="23.9032526314" lon="113.3375532087"><ele>655.76</ele><time>2013-02-16T03:21:35Z</time></trkpt><trkpt lat="23.9032202773" lon="113.3375538792"><ele>655.76</ele><time>2013-02-16T03:22:00Z</time></trkpt><trkpt lat="23.9032298326" lon="113.3375583217"><ele>656.24</ele><time>2013-02-16T03:22:07Z</time></trkpt><trkpt lat="23.9032377116" lon="113.3375544660"><ele>653.83</ele><time>2013-02-16T03:22:12Z</time></trkpt><trkpt lat="23.9032384660" lon="113.3375522029"><ele>658.16</ele><time>2013-02-16T03:22:13Z</time></trkpt><trkpt lat="23.9032355323" lon="113.3375521190"><ele>654.31</ele><time>2013-02-16T03:22:14Z</time></trkpt><trkpt lat="23.9032331016" lon="113.3375526220"><ele>659.12</ele><time>2013-02-16T03:22:15Z</time></trkpt><trkpt lat="23.9032296650" lon="113.3375537116"><ele>656.72</ele><time>2013-02-16T03:22:16Z</time></trkpt><trkpt lat="23.9031573292" lon="113.3375769295"><ele>647.59</ele><time>2013-02-16T03:22:30Z</time></trkpt><trkpt lat="23.9031521324" lon="113.3375785220"><ele>647.59</ele><time>2013-02-16T03:22:31Z</time></trkpt><trkpt lat="23.9031469356" lon="113.3375800308"><ele>665.37</ele><time>2013-02-16T03:22:32Z</time></trkpt><trkpt lat="23.9031831454" lon="113.3376117982"><ele>658.16</ele><time>2013-02-16T03:22:33Z</time></trkpt><trkpt lat="23.9031817205" lon="113.3376178332"><ele>656.72</ele><time>2013-02-16T03:22:34Z</time></trkpt><trkpt lat="23.9031817205" lon="113.3376178332"><ele>659.12</ele><time>2013-02-16T03:22:36Z</time></trkpt><trkpt lat="23.9031560719" lon="113.3376350161"><ele>656.24</ele><time>2013-02-16T03:22:40Z</time></trkpt><trkpt lat="23.9031517133" lon="113.3376392908"><ele>656.24</ele><time>2013-02-16T03:22:41Z</time></trkpt><trkpt lat="23.9031463489" lon="113.3376434818"><ele>659.60</ele><time>2013-02-16T03:22:42Z</time></trkpt><trkpt lat="23.9031442534" lon="113.3376473375"><ele>661.04</ele><time>2013-02-16T03:22:43Z</time></trkpt><trkpt lat="23.9031456783" lon="113.3376507740"><ele>658.64</ele><time>2013-02-16T03:22:44Z</time></trkpt><trkpt lat="23.9031471033" lon="113.3376515284"><ele>654.80</ele><time>2013-02-16T03:22:46Z</time></trkpt><trkpt lat="23.9031473547" lon="113.3376506902"><ele>664.41</ele><time>2013-02-16T03:22:47Z</time></trkpt><trkpt lat="23.9031473547" lon="113.3376490977"><ele>660.56</ele><time>2013-02-16T03:22:48Z</time></trkpt><trkpt lat="23.9031723328" lon="113.3376320824"><ele>660.08</ele><time>2013-02-16T03:22:52Z</time></trkpt><trkpt lat="23.9033545554" lon="113.3375588246"><ele>658.16</ele><time>2013-02-16T03:23:03Z</time></trkpt><trkpt lat="23.9033656195" lon="113.3375554718"><ele>660.56</ele><time>2013-02-16T03:23:04Z</time></trkpt><trkpt lat="23.9033781085" lon="113.3375503588"><ele>662.01</ele><time>2013-02-16T03:23:05Z</time></trkpt><trkpt lat="23.9033924416" lon="113.3375584055"><ele>660.08</ele><time>2013-02-16T03:23:07Z</time></trkpt><trkpt lat="23.9035487641" lon="113.3376345970"><ele>661.04</ele><time>2013-02-16T03:23:21Z</time></trkpt><trkpt lat="23.9035808668" lon="113.3376526181"><ele>654.31</ele><time>2013-02-16T03:23:23Z</time></trkpt><trkpt lat="23.9035892487" lon="113.3376590721"><ele>654.31</ele><time>2013-02-16T03:23:24Z</time></trkpt><trkpt lat="23.9036014024" lon="113.3376666158"><ele>666.33</ele><time>2013-02-16T03:23:25Z</time></trkpt><trkpt lat="23.9036136400" lon="113.3376708068"><ele>659.60</ele><time>2013-02-16T03:23:26Z</time></trkpt><trkpt lat="23.9036404621" lon="113.3376799431"><ele>662.01</ele><time>2013-02-16T03:23:28Z</time></trkpt><trkpt lat="23.9036538731" lon="113.3376845531"><ele>660.08</ele><time>2013-02-16T03:23:29Z</time></trkpt><trkpt lat="23.9036619198" lon="113.3376873191"><ele>662.97</ele><time>2013-02-16T03:23:30Z</time></trkpt><trkpt lat="23.9036806952" lon="113.3376937732"><ele>664.41</ele><time>2013-02-16T03:23:31Z</time></trkpt><trkpt lat="23.9036942739" lon="113.3376983833"><ele>661.52</ele><time>2013-02-16T03:23:32Z</time></trkpt><trkpt lat="23.9037210960" lon="113.3377075195"><ele>663.45</ele><time>2013-02-16T03:23:34Z</time></trkpt><trkpt lat="23.9037345070" lon="113.3377121296"><ele>662.01</ele><time>2013-02-16T03:23:35Z</time></trkpt><trkpt lat="23.9037587307" lon="113.3377204277"><ele>658.64</ele><time>2013-02-16T03:23:37Z</time></trkpt><trkpt lat="23.9037734829" lon="113.3377254568"><ele>664.41</ele><time>2013-02-16T03:23:38Z</time></trkpt><trkpt lat="23.9038149733" lon="113.3377396222"><ele>662.49</ele><time>2013-02-16T03:23:41Z</time></trkpt><trkpt lat="23.9038417954" lon="113.3377488423"><ele>659.60</ele><time>2013-02-16T03:23:43Z</time></trkpt><trkpt lat="23.9038552064" lon="113.3377533685"><ele>661.04</ele><time>2013-02-16T03:23:44Z</time></trkpt><trkpt lat="23.9038686175" lon="113.3377579786"><ele>664.89</ele><time>2013-02-16T03:23:45Z</time></trkpt><trkpt lat="23.9038820285" lon="113.3377625886"><ele>661.52</ele><time>2013-02-16T03:23:46Z</time></trkpt><trkpt lat="23.9038981218" lon="113.3377680369"><ele>668.25</ele><time>2013-02-16T03:23:47Z</time></trkpt><trkpt lat="23.9039088506" lon="113.3377717249"><ele>668.25</ele><time>2013-02-16T03:23:48Z</time></trkpt><trkpt lat="23.9039222617" lon="113.3377763350"><ele>665.85</ele><time>2013-02-16T03:23:49Z</time></trkpt><trkpt lat="23.9039356727" lon="113.3377808612"><ele>662.97</ele><time>2013-02-16T03:23:50Z</time></trkpt><trkpt lat="23.9039490838" lon="113.3377854712"><ele>664.41</ele><time>2013-02-16T03:23:51Z</time></trkpt><trkpt lat="23.9031958021" lon="113.3380682766"><ele>678.83</ele><time>2013-02-16T03:25:53Z</time></trkpt><trkpt lat="23.9031385537" lon="113.3381205797"><ele>678.83</ele><time>2013-02-16T03:25:55Z</time></trkpt><trkpt lat="23.9031042717" lon="113.3381491620"><ele>676.91</ele><time>2013-02-16T03:25:56Z</time></trkpt><trkpt lat="23.9030699898" lon="113.3381777443"><ele>679.31</ele><time>2013-02-16T03:25:57Z</time></trkpt><trkpt lat="23.9030357078" lon="113.3382064104"><ele>676.91</ele><time>2013-02-16T03:25:58Z</time></trkpt><trkpt lat="23.9030014258" lon="113.3382349927"><ele>680.75</ele><time>2013-02-16T03:25:59Z</time></trkpt><trkpt lat="23.9029671438" lon="113.3382635750"><ele>678.83</ele><time>2013-02-16T03:26:00Z</time></trkpt><trkpt lat="23.9028999209" lon="113.3382846136"><ele>678.35</ele><time>2013-02-16T03:26:02Z</time></trkpt><trkpt lat="23.9028699137" lon="113.3382988628"><ele>680.75</ele><time>2013-02-16T03:26:03Z</time></trkpt><trkpt lat="23.9028430078" lon="113.3383117709"><ele>679.31</ele><time>2013-02-16T03:26:04Z</time></trkpt><trkpt lat="23.9027228113" lon="113.3383833524"><ele>679.79</ele><time>2013-02-16T03:26:10Z</time></trkpt><trkpt lat="23.9027080592" lon="113.3383925725"><ele>681.71</ele><time>2013-02-16T03:26:11Z</time></trkpt><trkpt lat="23.9026845898" lon="113.3384042233"><ele>678.83</ele><time>2013-02-16T03:26:13Z</time></trkpt><trkpt lat="23.9026736096" lon="113.3384058997"><ele>682.67</ele><time>2013-02-16T03:26:14Z</time></trkpt><trkpt lat="23.9026636351" lon="113.3384067379"><ele>673.54</ele><time>2013-02-16T03:26:15Z</time></trkpt><trkpt lat="23.9026528224" lon="113.3384066541"><ele>678.83</ele><time>2013-02-16T03:26:16Z</time></trkpt><trkpt lat="23.9026430994" lon="113.3384054806"><ele>689.88</ele><time>2013-02-16T03:26:17Z</time></trkpt><trkpt lat="23.9026356395" lon="113.3384024631"><ele>681.71</ele><time>2013-02-16T03:26:18Z</time></trkpt><trkpt lat="23.9026788902" lon="113.3383817598"><ele>678.83</ele><time>2013-02-16T03:26:26Z</time></trkpt><trkpt lat="23.9026843384" lon="113.3383795805"><ele>684.60</ele><time>2013-02-16T03:26:27Z</time></trkpt><trkpt lat="23.9026970789" lon="113.3383745514"><ele>682.67</ele><time>2013-02-16T03:26:28Z</time></trkpt><trkpt lat="23.9027222246" lon="113.3383646607"><ele>682.67</ele><time>2013-02-16T03:26:31Z</time></trkpt><trkpt lat="23.9028224722" lon="113.3383675944"><ele>680.27</ele><time>2013-02-16T03:26:39Z</time></trkpt><trkpt lat="23.9028382301" lon="113.3383643255"><ele>682.67</ele><time>2013-02-16T03:26:41Z</time></trkpt><trkpt lat="23.9028540719" lon="113.3383610565"><ele>680.27</ele><time>2013-02-16T03:26:43Z</time></trkpt><trkpt lat="23.9028619509" lon="113.3383594640"><ele>684.60</ele><time>2013-02-16T03:26:44Z</time></trkpt><trkpt lat="23.9028699137" lon="113.3383577876"><ele>681.71</ele><time>2013-02-16T03:26:45Z</time></trkpt><trkpt lat="23.9028777927" lon="113.3383561950"><ele>684.12</ele><time>2013-02-16T03:26:46Z</time></trkpt><trkpt lat="23.9028856717" lon="113.3383545186"><ele>681.71</ele><time>2013-02-16T03:26:47Z</time></trkpt><trkpt lat="23.9028967358" lon="113.3383522555"><ele>687.48</ele><time>2013-02-16T03:26:48Z</time></trkpt><trkpt lat="23.9029014297" lon="113.3383513335"><ele>687.48</ele><time>2013-02-16T03:26:49Z</time></trkpt><trkpt lat="23.9029093925" lon="113.3383496571"><ele>684.12</ele><time>2013-02-16T03:26:50Z</time></trkpt><trkpt lat="23.9029251505" lon="113.3383463882"><ele>681.71</ele><time>2013-02-16T03:26:52Z</time></trkpt><trkpt lat="23.9029299282" lon="113.3383453824"><ele>685.08</ele><time>2013-02-16T03:26:53Z</time></trkpt><trkpt lat="23.9028908685" lon="113.3383576199"><ele>685.56</ele><time>2013-02-16T03:26:59Z</time></trkpt><trkpt lat="23.9029361308" lon="113.3383651637"><ele>682.67</ele><time>2013-02-16T03:27:08Z</time></trkpt><trkpt lat="23.9029424172" lon="113.3383671753"><ele>687.00</ele><time>2013-02-16T03:27:09Z</time></trkpt><trkpt lat="23.9029469434" lon="113.3383708633"><ele>688.44</ele><time>2013-02-16T03:27:10Z</time></trkpt><trkpt lat="23.9029678982" lon="113.3383658342"><ele>687.96</ele><time>2013-02-16T03:27:13Z</time></trkpt><trkpt lat="23.9031569101" lon="113.3383320551"><ele>683.63</ele><time>2013-02-16T03:27:34Z</time></trkpt><trkpt lat="23.9031599276" lon="113.3383304626"><ele>683.63</ele><time>2013-02-16T03:27:35Z</time></trkpt><trkpt lat="23.9031648729" lon="113.3383278642"><ele>693.25</ele><time>2013-02-16T03:27:36Z</time></trkpt><trkpt lat="23.9031699020" lon="113.3383251820"><ele>689.40</ele><time>2013-02-16T03:27:37Z</time></trkpt><trkpt lat="23.9031748474" lon="113.3383225836"><ele>686.52</ele><time>2013-02-16T03:27:38Z</time></trkpt><trkpt lat="23.9031798765" lon="113.3383199014"><ele>688.44</ele><time>2013-02-16T03:27:39Z</time></trkpt><trkpt lat="23.9032001607" lon="113.3383092564"><ele>687.48</ele><time>2013-02-16T03:27:43Z</time></trkpt><trkpt lat="23.9032035973" lon="113.3383074123"><ele>690.84</ele><time>2013-02-16T03:27:44Z</time></trkpt><trkpt lat="23.9032098837" lon="113.3383041434"><ele>688.44</ele><time>2013-02-16T03:27:45Z</time></trkpt><trkpt lat="23.9032149129" lon="113.3383015450"><ele>690.36</ele><time>2013-02-16T03:27:46Z</time></trkpt><trkpt lat="23.9031874202" lon="113.3383261878"><ele>691.81</ele><time>2013-02-16T03:27:52Z</time></trkpt><trkpt lat="23.9031839836" lon="113.3383360785"><ele>687.96</ele><time>2013-02-16T03:27:53Z</time></trkpt><trkpt lat="23.9031804632" lon="113.3383433707"><ele>692.77</ele><time>2013-02-16T03:27:54Z</time></trkpt><trkpt lat="23.9031807147" lon="113.3383460529"><ele>690.36</ele><time>2013-02-16T03:27:55Z</time></trkpt><trkpt lat="23.9031859115" lon="113.3383984398"><ele>690.84</ele><time>2013-02-16T03:28:14Z</time></trkpt><trkpt lat="23.9031861629" lon="113.3384012058"><ele>685.08</ele><time>2013-02-16T03:28:15Z</time></trkpt><trkpt lat="23.9031864144" lon="113.3384038880"><ele>699.98</ele><time>2013-02-16T03:28:16Z</time></trkpt><trkpt lat="23.9031866658" lon="113.3384066541"><ele>699.98</ele><time>2013-02-16T03:28:17Z</time></trkpt><trkpt lat="23.9031869173" lon="113.3384094201"><ele>694.21</ele><time>2013-02-16T03:28:18Z</time></trkpt><trkpt lat="23.9031883422" lon="113.3384231664"><ele>694.21</ele><time>2013-02-16T03:28:23Z</time></trkpt><trkpt lat="23.9022124372" lon="113.3392316010"><ele>699.98</ele><time>2013-02-16T03:29:34Z</time></trkpt><trkpt lat="23.9022631478" lon="113.3390035294"><ele>699.98</ele><time>2013-02-16T03:29:59Z</time></trkpt><trkpt lat="23.9024026226" lon="113.3389335405"><ele>699.98</ele><time>2013-02-16T03:30:25Z</time></trkpt><trkpt lat="23.9024371561" lon="113.3390046190"><ele>700.46</ele><time>2013-02-16T03:30:39Z</time></trkpt><trkpt lat="23.9024598710" lon="113.3391002566"><ele>702.38</ele><time>2013-02-16T03:30:55Z</time></trkpt><trkpt lat="23.9024627209" lon="113.3391122427"><ele>701.42</ele><time>2013-02-16T03:30:57Z</time></trkpt><trkpt lat="23.9024641458" lon="113.3391182777"><ele>703.82</ele><time>2013-02-16T03:30:58Z</time></trkpt><trkpt lat="23.9024664089" lon="113.3391279168"><ele>692.29</ele><time>2013-02-16T03:31:00Z</time></trkpt><trkpt lat="23.9032217860" lon="113.3406165428"><ele>783.13</ele><time>2013-02-16T03:44:02Z</time></trkpt><trkpt lat="23.9032622706" lon="113.3406386711"><ele>784.09</ele><time>2013-02-16T03:44:13Z</time></trkpt><trkpt lat="23.9032605942" lon="113.3405494038"><ele>777.84</ele><time>2013-02-16T03:44:19Z</time></trkpt><trkpt lat="23.9032595884" lon="113.3405495714"><ele>784.09</ele><time>2013-02-16T03:44:20Z</time></trkpt><trkpt lat="23.9032570738" lon="113.3405606356"><ele>784.09</ele><time>2013-02-16T03:44:25Z</time></trkpt><trkpt lat="23.9032134879" lon="113.3406088315"><ele>783.13</ele><time>2013-02-16T03:44:40Z</time></trkpt><trkpt lat="23.9030780364" lon="113.3406836819"><ele>783.61</ele><time>2013-02-16T03:45:00Z</time></trkpt><trkpt lat="23.9031860791" lon="113.3406083286"><ele>783.61</ele><time>2013-02-16T03:45:21Z</time></trkpt><trkpt lat="23.9031529706" lon="113.3405406866"><ele>783.13</ele><time>2013-02-16T03:45:45Z</time></trkpt><trkpt lat="23.9032787830" lon="113.3405479789"><ele>783.61</ele><time>2013-02-16T03:46:07Z</time></trkpt><trkpt lat="23.9032641985" lon="113.3405941632"><ele>781.69</ele><time>2013-02-16T03:46:19Z</time></trkpt><trkpt lat="23.9032556489" lon="113.3405973483"><ele>783.13</ele><time>2013-02-16T03:46:20Z</time></trkpt><trkpt lat="23.9032505360" lon="113.3406417724"><ele>783.61</ele><time>2013-02-16T03:46:40Z</time></trkpt><trkpt lat="23.9032928646" lon="113.3405965939"><ele>783.61</ele><time>2013-02-16T03:47:06Z</time></trkpt><trkpt lat="23.9032845665" lon="113.3406886272"><ele>790.34</ele><time>2013-02-16T03:52:10Z</time></trkpt><trkpt lat="23.9033158310" lon="113.3406881243"><ele>786.98</ele><time>2013-02-16T03:52:15Z</time></trkpt><trkpt lat="23.9033207763" lon="113.3406896330"><ele>786.98</ele><time>2013-02-16T03:52:16Z</time></trkpt><trkpt lat="23.9033240452" lon="113.3406901360"><ele>794.19</ele><time>2013-02-16T03:52:17Z</time></trkpt><trkpt lat="23.9033335168" lon="113.3406944107"><ele>791.78</ele><time>2013-02-16T03:52:18Z</time></trkpt><trkpt lat="23.9033358637" lon="113.3406967577"><ele>790.82</ele><time>2013-02-16T03:52:19Z</time></trkpt><trkpt lat="23.9033385459" lon="113.3406996913"><ele>792.26</ele><time>2013-02-16T03:52:20Z</time></trkpt><trkpt lat="23.9033396356" lon="113.3407042176"><ele>790.34</ele><time>2013-02-16T03:52:21Z</time></trkpt><trkpt lat="23.9033401385" lon="113.3407078218"><ele>793.71</ele><time>2013-02-16T03:52:22Z</time></trkpt><trkpt lat="23.9033421502" lon="113.3407220710"><ele>794.19</ele><time>2013-02-16T03:52:26Z</time></trkpt><trkpt lat="23.9033446647" lon="113.3407265134"><ele>791.30</ele><time>2013-02-16T03:52:27Z</time></trkpt><trkpt lat="23.9033468440" lon="113.3407301176"><ele>795.15</ele><time>2013-02-16T03:52:28Z</time></trkpt><trkpt lat="23.9033644460" lon="113.3407528326"><ele>792.74</ele><time>2013-02-16T03:52:33Z</time></trkpt><trkpt lat="23.9033686370" lon="113.3407602925"><ele>795.63</ele><time>2013-02-16T03:52:35Z</time></trkpt><trkpt lat="23.9033760969" lon="113.3407684229"><ele>795.15</ele><time>2013-02-16T03:52:37Z</time></trkpt><trkpt lat="23.9033800364" lon="113.3407737035"><ele>794.19</ele><time>2013-02-16T03:52:43Z</time></trkpt><trkpt lat="23.9033784438" lon="113.3407749608"><ele>797.07</ele><time>2013-02-16T03:52:44Z</time></trkpt><trkpt lat="23.9034095407" lon="113.3408073150"><ele>795.15</ele><time>2013-02-16T03:53:01Z</time></trkpt><trkpt lat="23.9034111332" lon="113.3408067282"><ele>800.44</ele><time>2013-02-16T03:53:02Z</time></trkpt><trkpt lat="23.9034120552" lon="113.3408062253"><ele>798.51</ele><time>2013-02-16T03:53:03Z</time></trkpt><trkpt lat="23.9034179226" lon="113.3408002742"><ele>800.44</ele><time>2013-02-16T03:53:05Z</time></trkpt><trkpt lat="23.9034243766" lon="113.3407902997"><ele>798.51</ele><time>2013-02-16T03:53:07Z</time></trkpt><trkpt lat="23.9034240413" lon="113.3407607116"><ele>800.44</ele><time>2013-02-16T03:53:14Z</time></trkpt><trkpt lat="23.9034219459" lon="113.3407638129"><ele>798.03</ele><time>2013-02-16T03:53:15Z</time></trkpt><trkpt lat="23.9034215268" lon="113.3407644834"><ele>801.40</ele><time>2013-02-16T03:53:16Z</time></trkpt><trkpt lat="23.9034170844" lon="113.3407724462"><ele>799.95</ele><time>2013-02-16T03:53:17Z</time></trkpt><trkpt lat="23.9034180064" lon="113.3407827560"><ele>798.51</ele><time>2013-02-16T03:53:19Z</time></trkpt><trkpt lat="23.9034192637" lon="113.3407875337"><ele>800.92</ele><time>2013-02-16T03:53:20Z</time></trkpt><trkpt lat="23.9034206048" lon="113.3407902997"><ele>798.51</ele><time>2013-02-16T03:53:22Z</time></trkpt><trkpt lat="23.9034221973" lon="113.3407880366"><ele>802.84</ele><time>2013-02-16T03:53:23Z</time></trkpt><trkpt lat="23.9034247957" lon="113.3407894615"><ele>799.47</ele><time>2013-02-16T03:53:24Z</time></trkpt><trkpt lat="23.9034260530" lon="113.3407951612"><ele>802.36</ele><time>2013-02-16T03:53:25Z</time></trkpt><trkpt lat="23.9034325071" lon="113.3408412617"><ele>800.92</ele><time>2013-02-16T03:53:35Z</time></trkpt><trkpt lat="23.9034310821" lon="113.3408459555"><ele>803.32</ele><time>2013-02-16T03:53:36Z</time></trkpt><trkpt lat="23.9034308307" lon="113.3408501465"><ele>800.92</ele><time>2013-02-16T03:53:37Z</time></trkpt><trkpt lat="23.9034329262" lon="113.3408558462"><ele>806.68</ele><time>2013-02-16T03:53:38Z</time></trkpt><trkpt lat="23.9034361951" lon="113.3408611268"><ele>803.32</ele><time>2013-02-16T03:53:39Z</time></trkpt><trkpt lat="23.9034615923" lon="113.3408990968"><ele>804.76</ele><time>2013-02-16T03:53:46Z</time></trkpt><trkpt lat="23.9034642745" lon="113.3409037907"><ele>803.32</ele><time>2013-02-16T03:53:47Z</time></trkpt><trkpt lat="23.9034665376" lon="113.3409076463"><ele>806.20</ele><time>2013-02-16T03:53:48Z</time></trkpt><trkpt lat="23.9034755901" lon="113.3409257513"><ele>802.36</ele><time>2013-02-16T03:53:55Z</time></trkpt><trkpt lat="23.9034719858" lon="113.3409319539"><ele>802.36</ele><time>2013-02-16T03:53:56Z</time></trkpt><trkpt lat="23.9034666214" lon="113.3409398329"><ele>808.13</ele><time>2013-02-16T03:53:57Z</time></trkpt><trkpt lat="23.9034613408" lon="113.3409477957"><ele>802.84</ele><time>2013-02-16T03:53:58Z</time></trkpt><trkpt lat="23.9034558088" lon="113.3409562614"><ele>809.57</ele><time>2013-02-16T03:53:59Z</time></trkpt><trkpt lat="23.9034501929" lon="113.3409647271"><ele>807.16</ele><time>2013-02-16T03:54:00Z</time></trkpt><trkpt lat="23.9034304954" lon="113.3409686666"><ele>801.88</ele><time>2013-02-16T03:54:01Z</time></trkpt><trkpt lat="23.9034188446" lon="113.3409757912"><ele>799.47</ele><time>2013-02-16T03:54:02Z</time></trkpt><trkpt lat="23.9034071937" lon="113.3409835864"><ele>814.85</ele><time>2013-02-16T03:54:03Z</time></trkpt><trkpt lat="23.9033940341" lon="113.3409912977"><ele>812.45</ele><time>2013-02-16T03:54:04Z</time></trkpt><trkpt lat="23.9033801202" lon="113.3409977518"><ele>796.59</ele><time>2013-02-16T03:54:05Z</time></trkpt><trkpt lat="23.9033662062" lon="113.3410037868"><ele>816.78</ele><time>2013-02-16T03:54:06Z</time></trkpt><trkpt lat="23.9033522923" lon="113.3410101570"><ele>809.57</ele><time>2013-02-16T03:54:07Z</time></trkpt><trkpt lat="23.9033391327" lon="113.3410173655"><ele>804.76</ele><time>2013-02-16T03:54:08Z</time></trkpt><trkpt lat="23.9033312537" lon="113.3410220593"><ele>810.53</ele><time>2013-02-16T03:54:09Z</time></trkpt><trkpt lat="23.9033167530" lon="113.3410317823"><ele>809.09</ele><time>2013-02-16T03:54:10Z</time></trkpt><trkpt lat="23.9033102989" lon="113.3410358056"><ele>804.76</ele><time>2013-02-16T03:54:11Z</time></trkpt><trkpt lat="23.9032975584" lon="113.3410421759"><ele>807.16</ele><time>2013-02-16T03:54:12Z</time></trkpt><trkpt lat="23.9032898471" lon="113.3410464507"><ele>814.37</ele><time>2013-02-16T03:54:13Z</time></trkpt><trkpt lat="23.9032802079" lon="113.3410517313"><ele>810.05</ele><time>2013-02-16T03:54:14Z</time></trkpt><trkpt lat="23.9034486003" lon="113.3404109348"><ele>806.68</ele><time>2013-02-16T03:54:24Z</time></trkpt><trkpt lat="23.9034469239" lon="113.3404130302"><ele>814.37</ele><time>2013-02-16T03:54:25Z</time></trkpt><trkpt lat="23.9034454990" lon="113.3404136170"><ele>810.53</ele><time>2013-02-16T03:54:26Z</time></trkpt><trkpt lat="23.9034478460" lon="113.3404126950"><ele>814.37</ele><time>2013-02-16T03:54:28Z</time></trkpt><trkpt lat="23.9034540486" lon="113.3404112700"><ele>810.53</ele><time>2013-02-16T03:54:29Z</time></trkpt><trkpt lat="23.9034540486" lon="113.3404112700"><ele>813.89</ele><time>2013-02-16T03:54:35Z</time></trkpt><trkpt lat="23.9036655240" lon="113.3400554582"><ele>814.85</ele><time>2013-02-16T03:54:52Z</time></trkpt><trkpt lat="23.9036655240" lon="113.3400554582"><ele>817.26</ele><time>2013-02-16T03:55:10Z</time></trkpt><trkpt lat="23.9036977105" lon="113.3399624191"><ele>820.14</ele><time>2013-02-16T03:55:23Z</time></trkpt><trkpt lat="23.9037402067" lon="113.3399433922"><ele>816.30</ele><time>2013-02-16T03:55:29Z</time></trkpt><trkpt lat="23.9037537854" lon="113.3399335016"><ele>816.30</ele><time>2013-02-16T03:55:30Z</time></trkpt><trkpt lat="23.9037708845" lon="113.3399233595"><ele>821.58</ele><time>2013-02-16T03:55:31Z</time></trkpt><trkpt lat="23.9037784282" lon="113.3399194200"><ele>816.78</ele><time>2013-02-16T03:55:32Z</time></trkpt><trkpt lat="23.9037848823" lon="113.3399153966"><ele>822.06</ele><time>2013-02-16T03:55:33Z</time></trkpt><trkpt lat="23.9037904143" lon="113.3399125468"><ele>816.78</ele><time>2013-02-16T03:55:34Z</time></trkpt><trkpt lat="23.9037948567" lon="113.3399100322"><ele>822.55</ele><time>2013-02-16T03:55:35Z</time></trkpt><trkpt lat="23.9038018975" lon="113.3399071824"><ele>817.74</ele><time>2013-02-16T03:55:38Z</time></trkpt><trkpt lat="23.9038018975" lon="113.3399071824"><ele>822.55</ele><time>2013-02-16T03:55:39Z</time></trkpt><trkpt lat="23.9038591459" lon="113.3399066795"><ele>819.18</ele><time>2013-02-16T03:55:47Z</time></trkpt><trkpt lat="23.9038568828" lon="113.3399089426"><ele>819.66</ele><time>2013-02-16T03:55:48Z</time></trkpt><trkpt lat="23.9038568828" lon="113.3399154805"><ele>827.35</ele><time>2013-02-16T03:55:49Z</time></trkpt><trkpt lat="23.9038568828" lon="113.3399154805"><ele>822.06</ele><time>2013-02-16T03:55:50Z</time></trkpt><trkpt lat="23.9038497582" lon="113.3399202581"><ele>824.95</ele><time>2013-02-16T03:55:54Z</time></trkpt><trkpt lat="23.9038470760" lon="113.3399456553"><ele>821.58</ele><time>2013-02-16T03:56:00Z</time></trkpt><trkpt lat="23.9038433880" lon="113.3399512712"><ele>824.95</ele><time>2013-02-16T03:56:01Z</time></trkpt><trkpt lat="23.9038429689" lon="113.3399563003"><ele>822.06</ele><time>2013-02-16T03:56:03Z</time></trkpt><trkpt lat="23.9038430527" lon="113.3399623353"><ele>827.83</ele><time>2013-02-16T03:56:04Z</time></trkpt><trkpt lat="23.9038456511" lon="113.3399687055"><ele>825.91</ele><time>2013-02-16T03:56:05Z</time></trkpt><trkpt lat="23.9038466569" lon="113.3400164824"><ele>819.18</ele><time>2013-02-16T03:56:17Z</time></trkpt><trkpt lat="23.9038466569" lon="113.3400164824"><ele>823.51</ele><time>2013-02-16T03:56:18Z</time></trkpt><trkpt lat="23.9038466569" lon="113.3400164824"><ele>828.31</ele><time>2013-02-16T03:56:19Z</time></trkpt><trkpt lat="23.9038466569" lon="113.3400164824"><ele>827.83</ele><time>2013-02-16T03:56:20Z</time></trkpt><trkpt lat="23.9038466569" lon="113.3400164824"><ele>826.87</ele><time>2013-02-16T03:56:22Z</time></trkpt><trkpt lat="23.9038520213" lon="113.3400079329"><ele>828.31</ele><time>2013-02-16T03:56:24Z</time></trkpt><trkpt lat="23.9038582239" lon="113.3399991319"><ele>820.14</ele><time>2013-02-16T03:56:26Z</time></trkpt><trkpt lat="23.9038609900" lon="113.3399952762"><ele>837.93</ele><time>2013-02-16T03:56:27Z</time></trkpt><trkpt lat="23.9038627502" lon="113.3399935160"><ele>829.27</ele><time>2013-02-16T03:56:28Z</time></trkpt><trkpt lat="23.9038627502" lon="113.3399935160"><ele>827.83</ele><time>2013-02-16T03:56:30Z</time></trkpt><trkpt lat="23.9038627502" lon="113.3399935160"><ele>832.16</ele><time>2013-02-16T03:56:40Z</time></trkpt><trkpt lat="23.9038627502" lon="113.3399935160"><ele>830.24</ele><time>2013-02-16T03:56:41Z</time></trkpt><trkpt lat="23.9038627502" lon="113.3399935160"><ele>833.12</ele><time>2013-02-16T03:56:52Z</time></trkpt><trkpt lat="23.9038080163" lon="113.3400779217"><ele>832.64</ele><time>2013-02-16T03:57:03Z</time></trkpt><trkpt lat="23.9037402906" lon="113.3401790913"><ele>835.04</ele><time>2013-02-16T03:57:15Z</time></trkpt><trkpt lat="23.9037444815" lon="113.3401838690"><ele>835.04</ele><time>2013-02-16T03:57:20Z</time></trkpt><trkpt lat="23.9037609939" lon="113.3402313106"><ele>838.41</ele><time>2013-02-16T03:57:30Z</time></trkpt><trkpt lat="23.9037835412" lon="113.3402522653"><ele>824.95</ele><time>2013-02-16T03:57:49Z</time></trkpt><trkpt lat="23.9037835412" lon="113.3402522653"><ele>848.98</ele><time>2013-02-16T03:57:50Z</time></trkpt><trkpt lat="23.9037835412" lon="113.3402522653"><ele>837.45</ele><time>2013-02-16T03:57:51Z</time></trkpt><trkpt lat="23.9037835412" lon="113.3402522653"><ele>840.33</ele><time>2013-02-16T03:57:52Z</time></trkpt><trkpt lat="23.9037510194" lon="113.3402772434"><ele>834.56</ele><time>2013-02-16T03:58:07Z</time></trkpt><trkpt lat="23.9037510194" lon="113.3402772434"><ele>845.62</ele><time>2013-02-16T03:58:08Z</time></trkpt><trkpt lat="23.9037510194" lon="113.3402772434"><ele>840.81</ele><time>2013-02-16T03:58:09Z</time></trkpt><trkpt lat="23.9037533663" lon="113.3402780816"><ele>836.00</ele><time>2013-02-16T03:58:26Z</time></trkpt><trkpt lat="23.9037538692" lon="113.3402783331"><ele>836.00</ele><time>2013-02-16T03:58:27Z</time></trkpt><trkpt lat="23.9037537016" lon="113.3402778301"><ele>845.62</ele><time>2013-02-16T03:58:28Z</time></trkpt><trkpt lat="23.9037535340" lon="113.3402771596"><ele>840.33</ele><time>2013-02-16T03:58:29Z</time></trkpt><trkpt lat="23.9037474990" lon="113.3402847033"><ele>845.14</ele><time>2013-02-16T03:58:34Z</time></trkpt><trkpt lat="23.9037474990" lon="113.3402847033"><ele>843.69</ele><time>2013-02-16T03:58:35Z</time></trkpt><trkpt lat="23.9036709722" lon="113.3403211646"><ele>845.62</ele><time>2013-02-16T03:58:54Z</time></trkpt><trkpt lat="23.9036709722" lon="113.3403211646"><ele>839.37</ele><time>2013-02-16T03:58:55Z</time></trkpt><trkpt lat="23.9036709722" lon="113.3403211646"><ele>844.66</ele><time>2013-02-16T03:58:56Z</time></trkpt><trkpt lat="23.9036709722" lon="113.3403211646"><ele>848.98</ele><time>2013-02-16T03:58:58Z</time></trkpt><trkpt lat="23.9036709722" lon="113.3403211646"><ele>846.10</ele><time>2013-02-16T03:59:03Z</time></trkpt><trkpt lat="23.9036511071" lon="113.3403479028"><ele>848.02</ele><time>2013-02-16T03:59:20Z</time></trkpt><trkpt lat="23.9036473352" lon="113.3403563686"><ele>844.66</ele><time>2013-02-16T03:59:49Z</time></trkpt><trkpt lat="23.9036418870" lon="113.3403599728"><ele>849.46</ele><time>2013-02-16T03:59:51Z</time></trkpt><trkpt lat="23.9036418870" lon="113.3403599728"><ele>849.46</ele><time>2013-02-16T03:59:52Z</time></trkpt><trkpt lat="23.9036115445" lon="113.3404093422"><ele>851.38</ele><time>2013-02-16T04:00:08Z</time></trkpt><trkpt lat="23.9036139753" lon="113.3404322248"><ele>853.31</ele><time>2013-02-16T04:00:18Z</time></trkpt><trkpt lat="23.9036132209" lon="113.3404740505"><ele>853.31</ele><time>2013-02-16T04:00:28Z</time></trkpt><trkpt lat="23.9036147296" lon="113.3405525889"><ele>851.38</ele><time>2013-02-16T04:00:41Z</time></trkpt><trkpt lat="23.9036250394" lon="113.3405859489"><ele>850.90</ele><time>2013-02-16T04:00:45Z</time></trkpt><trkpt lat="23.9036291465" lon="113.3406099211"><ele>850.90</ele><time>2013-02-16T04:00:47Z</time></trkpt><trkpt lat="23.9036495984" lon="113.3406987693"><ele>850.42</ele><time>2013-02-16T04:01:03Z</time></trkpt><trkpt lat="23.9036415517" lon="113.3407092467"><ele>850.42</ele><time>2013-02-16T04:01:12Z</time></trkpt><trkpt lat="23.9036358520" lon="113.3407159522"><ele>851.38</ele><time>2013-02-16T04:01:21Z</time></trkpt><trkpt lat="23.9036371931" lon="113.3407119289"><ele>851.38</ele><time>2013-02-16T04:01:32Z</time></trkpt><trkpt lat="23.9036344271" lon="113.3407080732"><ele>849.94</ele><time>2013-02-16T04:01:44Z</time></trkpt><trkpt lat="23.9036344271" lon="113.3407080732"><ele>850.90</ele><time>2013-02-16T04:01:50Z</time></trkpt><trkpt lat="23.9036306553" lon="113.3407288603"><ele>850.42</ele><time>2013-02-16T04:02:01Z</time></trkpt><trkpt lat="23.9036283083" lon="113.3407227416"><ele>850.90</ele><time>2013-02-16T04:02:17Z</time></trkpt><trkpt lat="23.9036432281" lon="113.3407059778"><ele>850.42</ele><time>2013-02-16T04:02:28Z</time></trkpt><trkpt lat="23.9036532864" lon="113.3407236636"><ele>850.90</ele><time>2013-02-16T04:02:38Z</time></trkpt><trkpt lat="23.9036500175" lon="113.3407333028"><ele>850.42</ele><time>2013-02-16T04:02:52Z</time></trkpt><trkpt lat="23.9036207646" lon="113.3407558501"><ele>850.42</ele><time>2013-02-16T04:02:56Z</time></trkpt><trkpt lat="23.9036071021" lon="113.3407697640"><ele>850.90</ele><time>2013-02-16T04:03:09Z</time></trkpt><trkpt lat="23.9036038332" lon="113.3407569397"><ele>850.42</ele><time>2013-02-16T04:03:20Z</time></trkpt><trkpt lat="23.9036268834" lon="113.3407302853"><ele>850.42</ele><time>2013-02-16T04:03:25Z</time></trkpt><trkpt lat="23.9036580641" lon="113.3407260943"><ele>848.02</ele><time>2013-02-16T04:03:33Z</time></trkpt><trkpt lat="23.9036580641" lon="113.3407260943"><ele>851.87</ele><time>2013-02-16T04:03:34Z</time></trkpt><trkpt lat="23.9036580641" lon="113.3407260943"><ele>848.50</ele><time>2013-02-16T04:03:40Z</time></trkpt><trkpt lat="23.9036619198" lon="113.3407286927"><ele>849.46</ele><time>2013-02-16T04:03:55Z</time></trkpt><trkpt lat="23.9036619198" lon="113.3407286927"><ele>849.46</ele><time>2013-02-16T04:04:30Z</time></trkpt><trkpt lat="23.9036633447" lon="113.3407263458"><ele>849.46</ele><time>2013-02-16T04:05:00Z</time></trkpt><trkpt lat="23.9036664460" lon="113.3407261781"><ele>849.46</ele><time>2013-02-16T04:05:35Z</time></trkpt><trkpt lat="23.9036659431" lon="113.3407240827"><ele>848.98</ele><time>2013-02-16T04:06:02Z</time></trkpt><trkpt lat="23.9036669489" lon="113.3407303691"><ele>850.42</ele><time>2013-02-16T04:06:17Z</time></trkpt><trkpt lat="23.9036768395" lon="113.3407279383"><ele>849.94</ele><time>2013-02-16T04:06:26Z</time></trkpt><trkpt lat="23.9036785997" lon="113.3407286089"><ele>849.46</ele><time>2013-02-16T04:06:42Z</time></trkpt><trkpt lat="23.9036785997" lon="113.3407283574"><ele>849.46</ele><time>2013-02-16T04:07:15Z</time></trkpt><trkpt lat="23.9036785997" lon="113.3407283574"><ele>849.46</ele><time>2013-02-16T04:07:47Z</time></trkpt><trkpt lat="23.9036785159" lon="113.3407291118"><ele>849.46</ele><time>2013-02-16T04:08:22Z</time></trkpt><trkpt lat="23.9036771748" lon="113.3407298662"><ele>849.94</ele><time>2013-02-16T04:08:56Z</time></trkpt><trkpt lat="23.9036744088" lon="113.3407277707"><ele>849.46</ele><time>2013-02-16T04:09:30Z</time></trkpt><trkpt lat="23.9036730677" lon="113.3407255914"><ele>849.94</ele><time>2013-02-16T04:10:04Z</time></trkpt><trkpt lat="23.9036739059" lon="113.3407276031"><ele>849.46</ele><time>2013-02-16T04:10:37Z</time></trkpt><trkpt lat="23.9036752470" lon="113.3407296985"><ele>849.46</ele><time>2013-02-16T04:11:14Z</time></trkpt><trkpt lat="23.9036752470" lon="113.3407296985"><ele>849.46</ele><time>2013-02-16T04:11:51Z</time></trkpt><trkpt lat="23.9036743250" lon="113.3407259267"><ele>849.46</ele><time>2013-02-16T04:12:30Z</time></trkpt><trkpt lat="23.9036729839" lon="113.3407281060"><ele>849.94</ele><time>2013-02-16T04:13:07Z</time></trkpt><trkpt lat="23.9036729839" lon="113.3407281060"><ele>849.94</ele><time>2013-02-16T04:13:31Z</time></trkpt><trkpt lat="23.9036729839" lon="113.3407281060"><ele>849.94</ele><time>2013-02-16T04:13:38Z</time></trkpt><trkpt lat="23.9036609977" lon="113.3407275192"><ele>850.42</ele><time>2013-02-16T04:13:45Z</time></trkpt><trkpt lat="23.9036477543" lon="113.3407364041"><ele>850.90</ele><time>2013-02-16T04:13:50Z</time></trkpt><trkpt lat="23.9036304038" lon="113.3407476358"><ele>851.38</ele><time>2013-02-16T04:13:58Z</time></trkpt><trkpt lat="23.9036242012" lon="113.3407460432"><ele>850.42</ele><time>2013-02-16T04:14:13Z</time></trkpt><trkpt lat="23.9036242012" lon="113.3407460432"><ele>850.90</ele><time>2013-02-16T04:14:15Z</time></trkpt><trkpt lat="23.9036109578" lon="113.3407462109"><ele>850.42</ele><time>2013-02-16T04:14:28Z</time></trkpt><trkpt lat="23.9036054257" lon="113.3407638129"><ele>851.38</ele><time>2013-02-16T04:14:39Z</time></trkpt><trkpt lat="23.9036038332" lon="113.3407628909"><ele>852.35</ele><time>2013-02-16T04:15:00Z</time></trkpt><trkpt lat="23.9036060125" lon="113.3407623041"><ele>851.87</ele><time>2013-02-16T04:15:16Z</time></trkpt><trkpt lat="23.9036060125" lon="113.3407623041"><ele>851.38</ele><time>2013-02-16T04:15:41Z</time></trkpt><trkpt lat="23.9036047552" lon="113.3407685906"><ele>851.87</ele><time>2013-02-16T04:16:01Z</time></trkpt><trkpt lat="23.9036047552" lon="113.3407685906"><ele>852.35</ele><time>2013-02-16T04:16:22Z</time></trkpt><trkpt lat="23.9036047552" lon="113.3407685906"><ele>851.87</ele><time>2013-02-16T04:16:37Z</time></trkpt><trkpt lat="23.9036087785" lon="113.3407643996"><ele>853.31</ele><time>2013-02-16T04:16:48Z</time></trkpt><trkpt lat="23.9036076888" lon="113.3407582808"><ele>850.90</ele><time>2013-02-16T04:17:01Z</time></trkpt><trkpt lat="23.9036109578" lon="113.3407533355"><ele>852.83</ele><time>2013-02-16T04:17:20Z</time></trkpt><trkpt lat="23.9036282245" lon="113.3407390863"><ele>851.87</ele><time>2013-02-16T04:17:32Z</time></trkpt><trkpt lat="23.9036387019" lon="113.3407391701"><ele>851.38</ele><time>2013-02-16T04:17:53Z</time></trkpt><trkpt lat="23.9036467485" lon="113.3407447021"><ele>851.38</ele><time>2013-02-16T04:17:55Z</time></trkpt><trkpt lat="23.9036615845" lon="113.3407277707"><ele>850.90</ele><time>2013-02-16T04:18:10Z</time></trkpt><trkpt lat="23.9036615845" lon="113.3407277707"><ele>851.38</ele><time>2013-02-16T04:18:36Z</time></trkpt><trkpt lat="23.9036605787" lon="113.3407266811"><ele>851.87</ele><time>2013-02-16T04:19:01Z</time></trkpt><trkpt lat="23.9036718104" lon="113.3407284413"><ele>851.38</ele><time>2013-02-16T04:19:24Z</time></trkpt><trkpt lat="23.9036724810" lon="113.3407322969"><ele>851.87</ele><time>2013-02-16T04:19:50Z</time></trkpt><trkpt lat="23.9036514424" lon="113.3407657407"><ele>852.83</ele><time>2013-02-16T04:20:10Z</time></trkpt><trkpt lat="23.9036281407" lon="113.3407413494"><ele>851.87</ele><time>2013-02-16T04:20:13Z</time></trkpt><trkpt lat="23.9035919309" lon="113.3407724462"><ele>852.83</ele><time>2013-02-16T04:20:29Z</time></trkpt><trkpt lat="23.9035919309" lon="113.3407724462"><ele>846.58</ele><time>2013-02-16T04:20:38Z</time></trkpt><trkpt lat="23.9035919309" lon="113.3407724462"><ele>852.83</ele><time>2013-02-16T04:20:39Z</time></trkpt><trkpt lat="23.9035919309" lon="113.3407724462"><ele>852.83</ele><time>2013-02-16T04:20:40Z</time></trkpt><trkpt lat="23.9035919309" lon="113.3407724462"><ele>848.50</ele><time>2013-02-16T04:20:47Z</time></trkpt><trkpt lat="23.9035919309" lon="113.3407724462"><ele>851.87</ele><time>2013-02-16T04:20:48Z</time></trkpt><trkpt lat="23.9036319964" lon="113.3407271001"><ele>852.83</ele><time>2013-02-16T04:21:06Z</time></trkpt><trkpt lat="23.9036319964" lon="113.3407271001"><ele>857.63</ele><time>2013-02-16T04:21:09Z</time></trkpt><trkpt lat="23.9036319964" lon="113.3407271001"><ele>852.35</ele><time>2013-02-16T04:21:10Z</time></trkpt><trkpt lat="23.9036319964" lon="113.3407271001"><ele>854.27</ele><time>2013-02-16T04:21:27Z</time></trkpt><trkpt lat="23.9036140591" lon="113.3407517429"><ele>853.31</ele><time>2013-02-16T04:21:50Z</time></trkpt><trkpt lat="23.9036152326" lon="113.3407648187"><ele>853.79</ele><time>2013-02-16T04:22:06Z</time></trkpt><trkpt lat="23.9036207646" lon="113.3407649025"><ele>854.75</ele><time>2013-02-16T04:22:15Z</time></trkpt><trkpt lat="23.9036214352" lon="113.3407509886"><ele>853.31</ele><time>2013-02-16T04:22:23Z</time></trkpt><trkpt lat="23.9036259614" lon="113.3407450374"><ele>852.83</ele><time>2013-02-16T04:22:25Z</time></trkpt><trkpt lat="23.9037135523" lon="113.3407121804"><ele>852.83</ele><time>2013-02-16T04:22:32Z</time></trkpt><trkpt lat="23.9037082717" lon="113.3407146949"><ele>852.35</ele><time>2013-02-16T04:22:48Z</time></trkpt><trkpt lat="23.9036835451" lon="113.3407226577"><ele>853.31</ele><time>2013-02-16T04:23:01Z</time></trkpt><trkpt lat="23.9036346786" lon="113.3407320455"><ele>852.83</ele><time>2013-02-16T04:23:12Z</time></trkpt><trkpt lat="23.9036259614" lon="113.3407246694"><ele>852.83</ele><time>2013-02-16T04:23:30Z</time></trkpt><trkpt lat="23.9036867302" lon="113.3407604601"><ele>852.35</ele><time>2013-02-16T04:23:46Z</time></trkpt><trkpt lat="23.9036802761" lon="113.3407718595"><ele>853.31</ele><time>2013-02-16T04:23:59Z</time></trkpt><trkpt lat="23.9036665298" lon="113.3407653216"><ele>841.29</ele><time>2013-02-16T04:24:12Z</time></trkpt><trkpt lat="23.9036689606" lon="113.3407646511"><ele>865.32</ele><time>2013-02-16T04:24:13Z</time></trkpt><trkpt lat="23.9036689606" lon="113.3407646511"><ele>854.27</ele><time>2013-02-16T04:24:14Z</time></trkpt><trkpt lat="23.9036689606" lon="113.3407646511"><ele>848.98</ele><time>2013-02-16T04:24:16Z</time></trkpt><trkpt lat="23.9036689606" lon="113.3407646511"><ele>853.79</ele><time>2013-02-16T04:24:17Z</time></trkpt><trkpt lat="23.9036771748" lon="113.3407518268"><ele>839.37</ele><time>2013-02-16T04:24:24Z</time></trkpt><trkpt lat="23.9036771748" lon="113.3407518268"><ele>856.67</ele><time>2013-02-16T04:24:25Z</time></trkpt><trkpt lat="23.9036771748" lon="113.3407518268"><ele>848.50</ele><time>2013-02-16T04:24:26Z</time></trkpt><trkpt lat="23.9036771748" lon="113.3407518268"><ele>853.79</ele><time>2013-02-16T04:24:27Z</time></trkpt><trkpt lat="23.9036771748" lon="113.3407518268"><ele>861.48</ele><time>2013-02-16T04:24:31Z</time></trkpt><trkpt lat="23.9036771748" lon="113.3407518268"><ele>853.31</ele><time>2013-02-16T04:24:32Z</time></trkpt><trkpt lat="23.9036722295" lon="113.3407494798"><ele>852.35</ele><time>2013-02-16T04:24:34Z</time></trkpt><trkpt lat="23.9036354329" lon="113.3407241665"><ele>855.23</ele><time>2013-02-16T04:24:57Z</time></trkpt><trkpt lat="23.9036354329" lon="113.3407241665"><ele>852.35</ele><time>2013-02-16T04:24:58Z</time></trkpt><trkpt lat="23.9036284760" lon="113.3407391701"><ele>852.35</ele><time>2013-02-16T04:25:16Z</time></trkpt><trkpt lat="23.9036283921" lon="113.3407478873"><ele>852.83</ele><time>2013-02-16T04:25:40Z</time></trkpt><trkpt lat="23.9036283921" lon="113.3407477196"><ele>852.35</ele><time>2013-02-16T04:26:12Z</time></trkpt><trkpt lat="23.9036663622" lon="113.3407457080"><ele>852.83</ele><time>2013-02-16T04:26:31Z</time></trkpt><trkpt lat="23.9036561362" lon="113.3407426905"><ele>851.87</ele><time>2013-02-16T04:26:55Z</time></trkpt><trkpt lat="23.9036455750" lon="113.3407410979"><ele>851.87</ele><time>2013-02-16T04:27:13Z</time></trkpt><trkpt lat="23.9036397915" lon="113.3407134376"><ele>852.83</ele><time>2013-02-16T04:27:27Z</time></trkpt><trkpt lat="23.9036579803" lon="113.3407234959"><ele>852.35</ele><time>2013-02-16T04:27:40Z</time></trkpt><trkpt lat="23.9036537055" lon="113.3407352306"><ele>852.35</ele><time>2013-02-16T04:28:00Z</time></trkpt><trkpt lat="23.9036707208" lon="113.3407413494"><ele>852.35</ele><time>2013-02-16T04:28:16Z</time></trkpt><trkpt lat="23.9036713075" lon="113.3407409303"><ele>852.83</ele><time>2013-02-16T04:28:39Z</time></trkpt><trkpt lat="23.9036713075" lon="113.3407409303"><ele>852.35</ele><time>2013-02-16T04:29:00Z</time></trkpt><trkpt lat="23.9036713075" lon="113.3407409303"><ele>852.83</ele><time>2013-02-16T04:29:02Z</time></trkpt><trkpt lat="23.9036715589" lon="113.3407413494"><ele>850.90</ele><time>2013-02-16T04:29:14Z</time></trkpt><trkpt lat="23.9036715589" lon="113.3407413494"><ele>856.19</ele><time>2013-02-16T04:29:15Z</time></trkpt><trkpt lat="23.9036741573" lon="113.3407469653"><ele>852.83</ele><time>2013-02-16T04:29:16Z</time></trkpt><trkpt lat="23.9036978781" lon="113.3408080693"><ele>852.35</ele><time>2013-02-16T04:29:23Z</time></trkpt><trkpt lat="23.9037336688" lon="113.3408850990"><ele>852.83</ele><time>2013-02-16T04:29:35Z</time></trkpt><trkpt lat="23.9037336688" lon="113.3408850990"><ele>852.83</ele><time>2013-02-16T04:29:57Z</time></trkpt><trkpt lat="23.9037332498" lon="113.3408913016"><ele>856.67</ele><time>2013-02-16T04:30:13Z</time></trkpt><trkpt lat="23.9037357643" lon="113.3408974204"><ele>854.27</ele><time>2013-02-16T04:30:14Z</time></trkpt><trkpt lat="23.9037242811" lon="113.3409715164"><ele>855.71</ele><time>2013-02-16T04:30:33Z</time></trkpt><trkpt lat="23.9037210960" lon="113.3409809880"><ele>859.08</ele><time>2013-02-16T04:30:34Z</time></trkpt><trkpt lat="23.9037217665" lon="113.3409872744"><ele>857.63</ele><time>2013-02-16T04:30:35Z</time></trkpt><trkpt lat="23.9037428051" lon="113.3410211373"><ele>862.44</ele><time>2013-02-16T04:30:45Z</time></trkpt><trkpt lat="23.9037428051" lon="113.3410211373"><ele>857.63</ele><time>2013-02-16T04:30:46Z</time></trkpt><trkpt lat="23.9037584793" lon="113.3410606161"><ele>862.44</ele><time>2013-02-16T04:31:11Z</time></trkpt><trkpt lat="23.9037629217" lon="113.3410736080"><ele>858.11</ele><time>2013-02-16T04:31:16Z</time></trkpt><trkpt lat="23.9037629217" lon="113.3410736080"><ele>865.80</ele><time>2013-02-16T04:31:17Z</time></trkpt><trkpt lat="23.9037629217" lon="113.3410736080"><ele>862.44</ele><time>2013-02-16T04:31:18Z</time></trkpt><trkpt lat="23.9037739020" lon="113.3410897013"><ele>863.88</ele><time>2013-02-16T04:31:28Z</time></trkpt><trkpt lat="23.9037714712" lon="113.3410880249"><ele>857.63</ele><time>2013-02-16T04:31:39Z</time></trkpt><trkpt lat="23.9037749078" lon="113.3410891984"><ele>866.29</ele><time>2013-02-16T04:31:40Z</time></trkpt><trkpt lat="23.9037713036" lon="113.3411068842"><ele>861.96</ele><time>2013-02-16T04:31:48Z</time></trkpt><trkpt lat="23.9037713036" lon="113.3411068842"><ele>866.77</ele><time>2013-02-16T04:31:49Z</time></trkpt><trkpt lat="23.9037784282" lon="113.3411167748"><ele>865.80</ele><time>2013-02-16T04:31:50Z</time></trkpt><trkpt lat="23.9038100280" lon="113.3411616180"><ele>870.13</ele><time>2013-02-16T04:32:06Z</time></trkpt><trkpt lat="23.9038351737" lon="113.3411771245"><ele>866.77</ele><time>2013-02-16T04:32:23Z</time></trkpt><trkpt lat="23.9038351737" lon="113.3411771245"><ele>871.09</ele><time>2013-02-16T04:32:24Z</time></trkpt><trkpt lat="23.9038351737" lon="113.3411771245"><ele>867.73</ele><time>2013-02-16T04:32:29Z</time></trkpt><trkpt lat="23.9038330782" lon="113.3411890268"><ele>871.57</ele><time>2013-02-16T04:32:33Z</time></trkpt><trkpt lat="23.9038330782" lon="113.3411890268"><ele>866.29</ele><time>2013-02-16T04:32:40Z</time></trkpt><trkpt lat="23.9038330782" lon="113.3411890268"><ele>874.46</ele><time>2013-02-16T04:32:41Z</time></trkpt><trkpt lat="23.9038343355" lon="113.3411973249"><ele>871.09</ele><time>2013-02-16T04:32:42Z</time></trkpt><trkpt lat="23.9038176555" lon="113.3412207104"><ele>873.98</ele><time>2013-02-16T04:32:54Z</time></trkpt><trkpt lat="23.9038138837" lon="113.3412292600"><ele>874.46</ele><time>2013-02-16T04:32:58Z</time></trkpt><trkpt lat="23.9038138837" lon="113.3412292600"><ele>873.50</ele><time>2013-02-16T04:33:04Z</time></trkpt><trkpt lat="23.9037916716" lon="113.3412609436"><ele>876.86</ele><time>2013-02-16T04:33:11Z</time></trkpt><trkpt lat="23.9037675317" lon="113.3412962314"><ele>881.19</ele><time>2013-02-16T04:33:23Z</time></trkpt><trkpt lat="23.9037677832" lon="113.3412989974"><ele>881.19</ele><time>2013-02-16T04:33:24Z</time></trkpt><trkpt lat="23.9037690405" lon="113.3413088880"><ele>876.86</ele><time>2013-02-16T04:33:26Z</time></trkpt><trkpt lat="23.9037548751" lon="113.3413430862"><ele>881.19</ele><time>2013-02-16T04:33:33Z</time></trkpt><trkpt lat="23.9037982933" lon="113.3413541503"><ele>880.71</ele><time>2013-02-16T04:33:50Z</time></trkpt><trkpt lat="23.9038059209" lon="113.3413531445"><ele>881.19</ele><time>2013-02-16T04:34:03Z</time></trkpt><trkpt lat="23.9038114529" lon="113.3413586766"><ele>881.67</ele><time>2013-02-16T04:34:19Z</time></trkpt><trkpt lat="23.9038157277" lon="113.3413540665"><ele>881.67</ele><time>2013-02-16T04:34:21Z</time></trkpt><trkpt lat="23.9038393646" lon="113.3413663041"><ele>881.67</ele><time>2013-02-16T04:34:31Z</time></trkpt><trkpt lat="23.9038393646" lon="113.3413663041"><ele>881.67</ele><time>2013-02-16T04:34:34Z</time></trkpt><trkpt lat="23.9038567990" lon="113.3413660526"><ele>880.71</ele><time>2013-02-16T04:34:36Z</time></trkpt><trkpt lat="23.9038812742" lon="113.3413567487"><ele>880.22</ele><time>2013-02-16T04:34:38Z</time></trkpt><trkpt lat="23.9039085992" lon="113.3413544018"><ele>880.22</ele><time>2013-02-16T04:34:41Z</time></trkpt><trkpt lat="23.9039920829" lon="113.3413478639"><ele>881.19</ele><time>2013-02-16T04:34:54Z</time></trkpt><trkpt lat="23.9039985370" lon="113.3413484506"><ele>881.19</ele><time>2013-02-16T04:35:07Z</time></trkpt><trkpt lat="23.9040017221" lon="113.3413549885"><ele>881.19</ele><time>2013-02-16T04:35:19Z</time></trkpt><trkpt lat="23.9039924182" lon="113.3413550723"><ele>881.19</ele><time>2013-02-16T04:35:28Z</time></trkpt><trkpt lat="23.9039878920" lon="113.3413598500"><ele>881.19</ele><time>2013-02-16T04:35:40Z</time></trkpt><trkpt lat="23.9039879758" lon="113.3413571678"><ele>881.19</ele><time>2013-02-16T04:35:54Z</time></trkpt><trkpt lat="23.9039925020" lon="113.3413554914"><ele>880.22</ele><time>2013-02-16T04:36:12Z</time></trkpt><trkpt lat="23.9039997943" lon="113.3413554076"><ele>880.22</ele><time>2013-02-16T04:36:29Z</time></trkpt><trkpt lat="23.9039956033" lon="113.3413534798"><ele>879.74</ele><time>2013-02-16T04:36:37Z</time></trkpt><trkpt lat="23.9039968606" lon="113.3413574193"><ele>880.22</ele><time>2013-02-16T04:36:54Z</time></trkpt><trkpt lat="23.9039983694" lon="113.3413559943"><ele>880.22</ele><time>2013-02-16T04:37:24Z</time></trkpt><trkpt lat="23.9039995428" lon="113.3413610235"><ele>880.22</ele><time>2013-02-16T04:37:41Z</time></trkpt><trkpt lat="23.9040008001" lon="113.3413626999"><ele>879.74</ele><time>2013-02-16T04:37:58Z</time></trkpt><trkpt lat="23.9040016383" lon="113.3413637895"><ele>880.22</ele><time>2013-02-16T04:38:31Z</time></trkpt><trkpt lat="23.9040016383" lon="113.3413637895"><ele>875.42</ele><time>2013-02-16T04:38:43Z</time></trkpt><trkpt lat="23.9040046558" lon="113.3413676452"><ele>882.15</ele><time>2013-02-16T04:38:44Z</time></trkpt><trkpt lat="23.9040104393" lon="113.3413721714"><ele>879.26</ele><time>2013-02-16T04:38:46Z</time></trkpt><trkpt lat="23.9040335733" lon="113.3414203674"><ele>877.34</ele><time>2013-02-16T04:39:00Z</time></trkpt><trkpt lat="23.9040615689" lon="113.3414247259"><ele>874.46</ele><time>2013-02-16T04:39:09Z</time></trkpt><trkpt lat="23.9040945936" lon="113.3414714132"><ele>871.57</ele><time>2013-02-16T04:39:24Z</time></trkpt><trkpt lat="23.9041319769" lon="113.3415224589"><ele>870.13</ele><time>2013-02-16T04:39:37Z</time></trkpt><trkpt lat="23.9041400235" lon="113.3415614348"><ele>866.77</ele><time>2013-02-16T04:39:43Z</time></trkpt><trkpt lat="23.9041389339" lon="113.3415690623"><ele>872.05</ele><time>2013-02-16T04:39:44Z</time></trkpt><trkpt lat="23.9041368384" lon="113.3415762708"><ele>865.80</ele><time>2013-02-16T04:39:45Z</time></trkpt><trkpt lat="23.9041354135" lon="113.3415792882"><ele>873.01</ele><time>2013-02-16T04:39:46Z</time></trkpt><trkpt lat="23.9041362517" lon="113.3415932022"><ele>866.29</ele><time>2013-02-16T04:39:51Z</time></trkpt><trkpt lat="23.9041362517" lon="113.3415932022"><ele>873.50</ele><time>2013-02-16T04:39:52Z</time></trkpt><trkpt lat="23.9041362517" lon="113.3415932022"><ele>870.13</ele><time>2013-02-16T04:39:53Z</time></trkpt><trkpt lat="23.9041358326" lon="113.3416234609"><ele>870.13</ele><time>2013-02-16T04:40:04Z</time></trkpt><trkpt lat="23.9041675162" lon="113.3417206071"><ele>871.09</ele><time>2013-02-16T04:40:19Z</time></trkpt><trkpt lat="23.9041818492" lon="113.3417230379"><ele>870.13</ele><time>2013-02-16T04:40:36Z</time></trkpt><trkpt lat="23.9041931648" lon="113.3417778555"><ele>868.69</ele><time>2013-02-16T04:40:51Z</time></trkpt><trkpt lat="23.9041954279" lon="113.3418275602"><ele>867.25</ele><time>2013-02-16T04:41:07Z</time></trkpt><trkpt lat="23.9042044804" lon="113.3418481797"><ele>865.80</ele><time>2013-02-16T04:41:25Z</time></trkpt><trkpt lat="23.9042262733" lon="113.3418864012"><ele>863.40</ele><time>2013-02-16T04:41:42Z</time></trkpt><trkpt lat="23.9042262733" lon="113.3418864012"><ele>861.48</ele><time>2013-02-16T04:42:05Z</time></trkpt><trkpt lat="23.9042262733" lon="113.3418864012"><ele>861.48</ele><time>2013-02-16T04:42:06Z</time></trkpt><trkpt lat="23.9042551909" lon="113.3419151511"><ele>861.00</ele><time>2013-02-16T04:42:23Z</time></trkpt><trkpt lat="23.9042551909" lon="113.3419151511"><ele>859.56</ele><time>2013-02-16T04:42:46Z</time></trkpt><trkpt lat="23.9042793307" lon="113.3419973776"><ele>856.19</ele><time>2013-02-16T04:42:59Z</time></trkpt><trkpt lat="23.9042775705" lon="113.3420029934"><ele>865.80</ele><time>2013-02-16T04:43:00Z</time></trkpt><trkpt lat="23.9042775705" lon="113.3420029934"><ele>842.73</ele><time>2013-02-16T04:43:01Z</time></trkpt><trkpt lat="23.9042775705" lon="113.3420029934"><ele>879.74</ele><time>2013-02-16T04:43:02Z</time></trkpt><trkpt lat="23.9042774029" lon="113.3420153987"><ele>863.40</ele><time>2013-02-16T04:43:03Z</time></trkpt><trkpt lat="23.9042645786" lon="113.3420666959"><ele>858.59</ele><time>2013-02-16T04:43:16Z</time></trkpt><trkpt lat="23.9042616449" lon="113.3420735691"><ele>867.25</ele><time>2013-02-16T04:43:17Z</time></trkpt><trkpt lat="23.9042592980" lon="113.3420801070"><ele>862.44</ele><time>2013-02-16T04:43:18Z</time></trkpt><trkpt lat="23.9042481501" lon="113.3421001397"><ele>865.32</ele><time>2013-02-16T04:43:23Z</time></trkpt><trkpt lat="23.9042248484" lon="113.3421422169"><ele>866.77</ele><time>2013-02-16T04:43:37Z</time></trkpt><trkpt lat="23.9042165503" lon="113.3421636745"><ele>870.13</ele><time>2013-02-16T04:43:42Z</time></trkpt><trkpt lat="23.9042183943" lon="113.3421672788"><ele>870.13</ele><time>2013-02-16T04:43:43Z</time></trkpt><trkpt lat="23.9042378403" lon="113.3422476612"><ele>873.01</ele><time>2013-02-16T04:43:58Z</time></trkpt><trkpt lat="23.9042378403" lon="113.3422476612"><ele>870.13</ele><time>2013-02-16T04:43:59Z</time></trkpt><trkpt lat="23.9042378403" lon="113.3422476612"><ele>874.94</ele><time>2013-02-16T04:44:00Z</time></trkpt><trkpt lat="23.9042370021" lon="113.3422688674"><ele>868.21</ele><time>2013-02-16T04:44:20Z</time></trkpt><trkpt lat="23.9042370021" lon="113.3422688674"><ele>876.86</ele><time>2013-02-16T04:44:21Z</time></trkpt><trkpt lat="23.9042349905" lon="113.3422733936"><ele>873.01</ele><time>2013-02-16T04:44:22Z</time></trkpt><trkpt lat="23.9042349905" lon="113.3422733936"><ele>872.53</ele><time>2013-02-16T04:44:24Z</time></trkpt><trkpt lat="23.9042404387" lon="113.3422780875"><ele>871.57</ele><time>2013-02-16T04:44:52Z</time></trkpt><trkpt lat="23.9042464737" lon="113.3422820270"><ele>864.36</ele><time>2013-02-16T04:45:07Z</time></trkpt><trkpt lat="23.9042464737" lon="113.3422820270"><ele>874.46</ele><time>2013-02-16T04:45:08Z</time></trkpt><trkpt lat="23.9042464737" lon="113.3422820270"><ele>863.88</ele><time>2013-02-16T04:45:10Z</time></trkpt><trkpt lat="23.9042490721" lon="113.3422831167"><ele>874.94</ele><time>2013-02-16T04:45:11Z</time></trkpt><trkpt lat="23.9042490721" lon="113.3422831167"><ele>870.13</ele><time>2013-02-16T04:45:12Z</time></trkpt><trkpt lat="23.9042456355" lon="113.3422894869"><ele>866.77</ele><time>2013-02-16T04:45:32Z</time></trkpt><trkpt lat="23.9042007923" lon="113.3423245233"><ele>867.73</ele><time>2013-02-16T04:45:50Z</time></trkpt><trkpt lat="23.9042002894" lon="113.3423278760"><ele>867.25</ele><time>2013-02-16T04:46:11Z</time></trkpt><trkpt lat="23.9042002894" lon="113.3423278760"><ele>865.80</ele><time>2013-02-16T04:46:13Z</time></trkpt><trkpt lat="23.9042002894" lon="113.3423278760"><ele>865.32</ele><time>2013-02-16T04:46:34Z</time></trkpt><trkpt lat="23.9042002894" lon="113.3423278760"><ele>861.96</ele><time>2013-02-16T04:46:39Z</time></trkpt><trkpt lat="23.9042002894" lon="113.3423278760"><ele>865.80</ele><time>2013-02-16T04:46:40Z</time></trkpt><trkpt lat="23.9042002894" lon="113.3423278760"><ele>863.88</ele><time>2013-02-16T04:46:41Z</time></trkpt><trkpt lat="23.9042096771" lon="113.3423669357"><ele>862.92</ele><time>2013-02-16T04:46:59Z</time></trkpt><trkpt lat="23.9042115211" lon="113.3423754852"><ele>864.36</ele><time>2013-02-16T04:47:22Z</time></trkpt><trkpt lat="23.9042984415" lon="113.3425353281"><ele>868.69</ele><time>2013-02-16T04:47:40Z</time></trkpt><trkpt lat="23.9043000340" lon="113.3425387647"><ele>866.29</ele><time>2013-02-16T04:47:41Z</time></trkpt><trkpt lat="23.9043016266" lon="113.3425400220"><ele>871.57</ele><time>2013-02-16T04:47:45Z</time></trkpt><trkpt lat="23.9043016266" lon="113.3425400220"><ele>865.32</ele><time>2013-02-16T04:47:46Z</time></trkpt><trkpt lat="23.9043016266" lon="113.3425400220"><ele>868.69</ele><time>2013-02-16T04:47:47Z</time></trkpt><trkpt lat="23.9043048956" lon="113.3425471466"><ele>865.32</ele><time>2013-02-16T04:47:52Z</time></trkpt><trkpt lat="23.9043048956" lon="113.3425471466"><ele>868.69</ele><time>2013-02-16T04:47:54Z</time></trkpt><trkpt lat="23.9043048956" lon="113.3425471466"><ele>861.96</ele><time>2013-02-16T04:47:57Z</time></trkpt><trkpt lat="23.9043048956" lon="113.3425471466"><ele>870.13</ele><time>2013-02-16T04:47:58Z</time></trkpt><trkpt lat="23.9043048956" lon="113.3425471466"><ele>866.29</ele><time>2013-02-16T04:47:59Z</time></trkpt><trkpt lat="23.9043048956" lon="113.3425471466"><ele>869.65</ele><time>2013-02-16T04:48:00Z</time></trkpt><trkpt lat="23.9043048956" lon="113.3425471466"><ele>869.17</ele><time>2013-02-16T04:48:15Z</time></trkpt><trkpt lat="23.9043005370" lon="113.3425445482"><ele>868.21</ele><time>2013-02-16T04:48:17Z</time></trkpt><trkpt lat="23.9043015428" lon="113.3425495774"><ele>870.13</ele><time>2013-02-16T04:48:20Z</time></trkpt><trkpt lat="23.9043015428" lon="113.3425495774"><ele>874.46</ele><time>2013-02-16T04:48:28Z</time></trkpt><trkpt lat="23.9043015428" lon="113.3425495774"><ele>870.61</ele><time>2013-02-16T04:48:29Z</time></trkpt><trkpt lat="23.9043015428" lon="113.3425495774"><ele>867.73</ele><time>2013-02-16T04:48:36Z</time></trkpt><trkpt lat="23.9043015428" lon="113.3425495774"><ele>873.01</ele><time>2013-02-16T04:48:37Z</time></trkpt><trkpt lat="23.9043015428" lon="113.3425495774"><ele>870.13</ele><time>2013-02-16T04:48:38Z</time></trkpt><trkpt lat="23.9043015428" lon="113.3425495774"><ele>868.69</ele><time>2013-02-16T04:48:42Z</time></trkpt><trkpt lat="23.9043015428" lon="113.3425495774"><ele>873.98</ele><time>2013-02-16T04:48:43Z</time></trkpt><trkpt lat="23.9043015428" lon="113.3425495774"><ele>872.53</ele><time>2013-02-16T04:48:44Z</time></trkpt><trkpt lat="23.9043015428" lon="113.3425495774"><ele>866.77</ele><time>2013-02-16T04:48:51Z</time></trkpt><trkpt lat="23.9043015428" lon="113.3425495774"><ele>877.34</ele><time>2013-02-16T04:48:52Z</time></trkpt><trkpt lat="23.9043015428" lon="113.3425495774"><ele>873.01</ele><time>2013-02-16T04:48:53Z</time></trkpt><trkpt lat="23.9042775705" lon="113.3425982762"><ele>876.38</ele><time>2013-02-16T04:48:58Z</time></trkpt><trkpt lat="23.9042598009" lon="113.3426166326"><ele>867.25</ele><time>2013-02-16T04:49:01Z</time></trkpt><trkpt lat="23.9042535145" lon="113.3426202368"><ele>881.67</ele><time>2013-02-16T04:49:02Z</time></trkpt><trkpt lat="23.9042494912" lon="113.3426224161"><ele>872.05</ele><time>2013-02-16T04:49:03Z</time></trkpt><trkpt lat="23.9042447973" lon="113.3426271100"><ele>877.82</ele><time>2013-02-16T04:49:04Z</time></trkpt><trkpt lat="23.9042242616" lon="113.3426333126"><ele>873.98</ele><time>2013-02-16T04:49:13Z</time></trkpt><trkpt lat="23.9042161312" lon="113.3426349889"><ele>877.34</ele><time>2013-02-16T04:49:14Z</time></trkpt><trkpt lat="23.9042113535" lon="113.3426374197"><ele>878.30</ele><time>2013-02-16T04:49:16Z</time></trkpt><trkpt lat="23.9041615650" lon="113.3426630683"><ele>877.82</ele><time>2013-02-16T04:49:30Z</time></trkpt><trkpt lat="23.9041353296" lon="113.3426665049"><ele>879.26</ele><time>2013-02-16T04:49:49Z</time></trkpt><trkpt lat="23.9041085914" lon="113.3426573686"><ele>880.22</ele><time>2013-02-16T04:50:01Z</time></trkpt><trkpt lat="23.9041085914" lon="113.3426573686"><ele>876.86</ele><time>2013-02-16T04:50:03Z</time></trkpt><trkpt lat="23.9041085914" lon="113.3426573686"><ele>881.19</ele><time>2013-02-16T04:50:04Z</time></trkpt><trkpt lat="23.9040906541" lon="113.3426520880"><ele>879.26</ele><time>2013-02-16T04:50:16Z</time></trkpt><trkpt lat="23.9040560368" lon="113.3426408563"><ele>879.74</ele><time>2013-02-16T04:50:28Z</time></trkpt><trkpt lat="23.9040339086" lon="113.3426235057"><ele>876.38</ele><time>2013-02-16T04:50:37Z</time></trkpt><trkpt lat="23.9040339086" lon="113.3426235057"><ele>877.82</ele><time>2013-02-16T04:50:41Z</time></trkpt><trkpt lat="23.9040350821" lon="113.3426221646"><ele>877.34</ele><time>2013-02-16T04:50:55Z</time></trkpt><trkpt lat="23.9040350821" lon="113.3426221646"><ele>874.94</ele><time>2013-02-16T04:50:58Z</time></trkpt><trkpt lat="23.9040359203" lon="113.3426219970"><ele>875.42</ele><time>2013-02-16T04:51:18Z</time></trkpt><trkpt lat="23.9040241018" lon="113.3426381741"><ele>875.42</ele><time>2013-02-16T04:51:32Z</time></trkpt><trkpt lat="23.9039935078" lon="113.3426580392"><ele>875.42</ele><time>2013-02-16T04:51:51Z</time></trkpt><trkpt lat="23.9039558731" lon="113.3426686004"><ele>874.46</ele><time>2013-02-16T04:52:14Z</time></trkpt><trkpt lat="23.9038900752" lon="113.3427021280"><ele>878.78</ele><time>2013-02-16T04:52:21Z</time></trkpt><trkpt lat="23.9038868900" lon="113.3427021280"><ele>875.42</ele><time>2013-02-16T04:52:23Z</time></trkpt><trkpt lat="23.9038832858" lon="113.3427058998"><ele>875.42</ele><time>2013-02-16T04:52:24Z</time></trkpt><trkpt lat="23.9038759097" lon="113.3427090012"><ele>878.78</ele><time>2013-02-16T04:52:35Z</time></trkpt><trkpt lat="23.9038640074" lon="113.3427153714"><ele>878.30</ele><time>2013-02-16T04:52:55Z</time></trkpt><trkpt lat="23.9038640074" lon="113.3427153714"><ele>875.42</ele><time>2013-02-16T04:53:07Z</time></trkpt><trkpt lat="23.9038640074" lon="113.3427153714"><ele>880.71</ele><time>2013-02-16T04:53:08Z</time></trkpt><trkpt lat="23.9038640074" lon="113.3427153714"><ele>876.86</ele><time>2013-02-16T04:53:13Z</time></trkpt><trkpt lat="23.9038640074" lon="113.3427153714"><ele>882.63</ele><time>2013-02-16T04:53:14Z</time></trkpt><trkpt lat="23.9038556255" lon="113.3427141141"><ele>879.26</ele><time>2013-02-16T04:53:15Z</time></trkpt><trkpt lat="23.9038042445" lon="113.3426981885"><ele>880.22</ele><time>2013-02-16T04:53:35Z</time></trkpt><trkpt lat="23.9037975390" lon="113.3426916506"><ele>876.38</ele><time>2013-02-16T04:53:39Z</time></trkpt><trkpt lat="23.9037975390" lon="113.3426916506"><ele>881.67</ele><time>2013-02-16T04:53:40Z</time></trkpt><trkpt lat="23.9037900791" lon="113.3426917344"><ele>878.30</ele><time>2013-02-16T04:53:42Z</time></trkpt><trkpt lat="23.9037698787" lon="113.3426812571"><ele>877.34</ele><time>2013-02-16T04:54:02Z</time></trkpt><trkpt lat="23.9037660230" lon="113.3426651638"><ele>876.38</ele><time>2013-02-16T04:54:18Z</time></trkpt><trkpt lat="23.9037660230" lon="113.3426651638"><ele>875.90</ele><time>2013-02-16T04:54:30Z</time></trkpt><trkpt lat="23.9037660230" lon="113.3426651638"><ele>873.98</ele><time>2013-02-16T04:54:33Z</time></trkpt><trkpt lat="23.9037676156" lon="113.3426639065"><ele>877.34</ele><time>2013-02-16T04:54:39Z</time></trkpt><trkpt lat="23.9037647657" lon="113.3426645771"><ele>872.53</ele><time>2013-02-16T04:54:40Z</time></trkpt><trkpt lat="23.9037609100" lon="113.3426649962"><ele>875.42</ele><time>2013-02-16T04:54:41Z</time></trkpt><trkpt lat="23.9037609100" lon="113.3426649962"><ele>875.90</ele><time>2013-02-16T04:54:43Z</time></trkpt><trkpt lat="23.9037540369" lon="113.3426696062"><ele>874.46</ele><time>2013-02-16T04:54:46Z</time></trkpt><trkpt lat="23.9037540369" lon="113.3426696062"><ele>871.57</ele><time>2013-02-16T04:54:50Z</time></trkpt><trkpt lat="23.9037540369" lon="113.3426696062"><ele>876.86</ele><time>2013-02-16T04:54:51Z</time></trkpt><trkpt lat="23.9037540369" lon="113.3426696062"><ele>878.78</ele><time>2013-02-16T04:54:53Z</time></trkpt><trkpt lat="23.9037540369" lon="113.3426696062"><ele>873.50</ele><time>2013-02-16T04:54:54Z</time></trkpt><trkpt lat="23.9037540369" lon="113.3426696062"><ele>873.50</ele><time>2013-02-16T04:54:55Z</time></trkpt><trkpt lat="23.9037164859" lon="113.3426752221"><ele>870.61</ele><time>2013-02-16T04:55:08Z</time></trkpt><trkpt lat="23.9036793541" lon="113.3427591249"><ele>872.05</ele><time>2013-02-16T04:55:25Z</time></trkpt><trkpt lat="23.9036793541" lon="113.3427591249"><ele>870.13</ele><time>2013-02-16T04:55:27Z</time></trkpt><trkpt lat="23.9036608301" lon="113.3427838515"><ele>871.09</ele><time>2013-02-16T04:55:42Z</time></trkpt><trkpt lat="23.9036284760" lon="113.3427852765"><ele>871.57</ele><time>2013-02-16T04:55:58Z</time></trkpt><trkpt lat="23.9036284760" lon="113.3427852765"><ele>876.38</ele><time>2013-02-16T04:56:03Z</time></trkpt><trkpt lat="23.9036284760" lon="113.3427852765"><ele>873.98</ele><time>2013-02-16T04:56:04Z</time></trkpt><trkpt lat="23.9036284760" lon="113.3427852765"><ele>873.01</ele><time>2013-02-16T04:56:06Z</time></trkpt><trkpt lat="23.9036284760" lon="113.3427852765"><ele>874.46</ele><time>2013-02-16T04:56:08Z</time></trkpt><trkpt lat="23.9036284760" lon="113.3427852765"><ele>873.98</ele><time>2013-02-16T04:56:33Z</time></trkpt><trkpt lat="23.9036287274" lon="113.3427856117"><ele>872.05</ele><time>2013-02-16T04:57:01Z</time></trkpt><trkpt lat="23.9036287274" lon="113.3427856117"><ele>875.90</ele><time>2013-02-16T04:57:04Z</time></trkpt><trkpt lat="23.9036287274" lon="113.3427856117"><ele>873.01</ele><time>2013-02-16T04:57:10Z</time></trkpt><trkpt lat="23.9036287274" lon="113.3427856117"><ele>877.34</ele><time>2013-02-16T04:57:11Z</time></trkpt><trkpt lat="23.9036287274" lon="113.3427856117"><ele>873.50</ele><time>2013-02-16T04:57:12Z</time></trkpt><trkpt lat="23.9036287274" lon="113.3427856117"><ele>877.34</ele><time>2013-02-16T04:57:14Z</time></trkpt><trkpt lat="23.9036100358" lon="113.3427848574"><ele>876.86</ele><time>2013-02-16T04:57:40Z</time></trkpt><trkpt lat="23.9036100358" lon="113.3427848574"><ele>877.82</ele><time>2013-02-16T04:57:47Z</time></trkpt><trkpt lat="23.9036100358" lon="113.3427848574"><ele>872.05</ele><time>2013-02-16T04:57:59Z</time></trkpt><trkpt lat="23.9036100358" lon="113.3427848574"><ele>875.42</ele><time>2013-02-16T04:58:01Z</time></trkpt><trkpt lat="23.9036100358" lon="113.3427848574"><ele>876.86</ele><time>2013-02-16T04:58:03Z</time></trkpt><trkpt lat="23.9036100358" lon="113.3427848574"><ele>889.84</ele><time>2013-02-16T04:58:06Z</time></trkpt><trkpt lat="23.9036100358" lon="113.3427848574"><ele>884.55</ele><time>2013-02-16T04:58:07Z</time></trkpt><trkpt lat="23.9035966247" lon="113.3427799121"><ele>878.78</ele><time>2013-02-16T04:58:08Z</time></trkpt><trkpt lat="23.9035960380" lon="113.3428018726"><ele>871.09</ele><time>2013-02-16T04:58:18Z</time></trkpt><trkpt lat="23.9035960380" lon="113.3428018726"><ele>876.86</ele><time>2013-02-16T04:58:19Z</time></trkpt><trkpt lat="23.9035960380" lon="113.3428018726"><ele>873.50</ele><time>2013-02-16T04:58:30Z</time></trkpt><trkpt lat="23.9035960380" lon="113.3428018726"><ele>877.82</ele><time>2013-02-16T04:58:31Z</time></trkpt><trkpt lat="23.9035974629" lon="113.3428025432"><ele>875.90</ele><time>2013-02-16T04:59:03Z</time></trkpt><trkpt lat="23.9035974629" lon="113.3428025432"><ele>864.84</ele><time>2013-02-16T04:59:05Z</time></trkpt><trkpt lat="23.9035974629" lon="113.3428025432"><ele>884.55</ele><time>2013-02-16T04:59:06Z</time></trkpt><trkpt lat="23.9035974629" lon="113.3428025432"><ele>875.42</ele><time>2013-02-16T04:59:07Z</time></trkpt><trkpt lat="23.9035974629" lon="113.3428025432"><ele>869.17</ele><time>2013-02-16T04:59:09Z</time></trkpt><trkpt lat="23.9036091976" lon="113.3428033814"><ele>864.84</ele><time>2013-02-16T04:59:10Z</time></trkpt><trkpt lat="23.9036388695" lon="113.3428076562"><ele>871.09</ele><time>2013-02-16T04:59:12Z</time></trkpt><trkpt lat="23.9036596566" lon="113.3428072371"><ele>875.42</ele><time>2013-02-16T04:59:14Z</time></trkpt><trkpt lat="23.9036687091" lon="113.3428110089"><ele>869.65</ele><time>2013-02-16T04:59:15Z</time></trkpt><trkpt lat="23.9036760852" lon="113.3428159542"><ele>878.30</ele><time>2013-02-16T04:59:16Z</time></trkpt><trkpt lat="23.9036808629" lon="113.3428193908"><ele>873.01</ele><time>2013-02-16T04:59:17Z</time></trkpt><trkpt lat="23.9036980458" lon="113.3428280242"><ele>877.34</ele><time>2013-02-16T04:59:26Z</time></trkpt><trkpt lat="23.9036972914" lon="113.3428261802"><ele>873.01</ele><time>2013-02-16T04:59:27Z</time></trkpt><trkpt lat="23.9036972914" lon="113.3428261802"><ele>869.65</ele><time>2013-02-16T04:59:47Z</time></trkpt><trkpt lat="23.9036972914" lon="113.3428261802"><ele>873.98</ele><time>2013-02-16T04:59:48Z</time></trkpt><trkpt lat="23.9036894962" lon="113.3428322151"><ele>867.73</ele><time>2013-02-16T04:59:51Z</time></trkpt><trkpt lat="23.9036894962" lon="113.3428322151"><ele>879.26</ele><time>2013-02-16T04:59:52Z</time></trkpt><trkpt lat="23.9036894962" lon="113.3428322151"><ele>875.90</ele><time>2013-02-16T04:59:53Z</time></trkpt><trkpt lat="23.9036371931" lon="113.3428221568"><ele>874.46</ele><time>2013-02-16T05:00:10Z</time></trkpt><trkpt lat="23.9036388695" lon="113.3428294491"><ele>873.01</ele><time>2013-02-16T05:00:31Z</time></trkpt><trkpt lat="23.9036388695" lon="113.3428294491"><ele>875.42</ele><time>2013-02-16T05:00:34Z</time></trkpt><trkpt lat="23.9036388695" lon="113.3428294491"><ele>876.38</ele><time>2013-02-16T05:00:40Z</time></trkpt><trkpt lat="23.9036800247" lon="113.3428058121"><ele>871.09</ele><time>2013-02-16T05:00:47Z</time></trkpt><trkpt lat="23.9036800247" lon="113.3428058121"><ele>878.78</ele><time>2013-02-16T05:00:48Z</time></trkpt><trkpt lat="23.9036800247" lon="113.3428058121"><ele>876.38</ele><time>2013-02-16T05:00:49Z</time></trkpt><trkpt lat="23.9036852214" lon="113.3428056445"><ele>870.61</ele><time>2013-02-16T05:00:55Z</time></trkpt><trkpt lat="23.9036852214" lon="113.3428056445"><ele>862.44</ele><time>2013-02-16T05:00:57Z</time></trkpt><trkpt lat="23.9036852214" lon="113.3428056445"><ele>882.63</ele><time>2013-02-16T05:00:58Z</time></trkpt><trkpt lat="23.9036793541" lon="113.3428085782"><ele>875.42</ele><time>2013-02-16T05:01:00Z</time></trkpt><trkpt lat="23.9036793541" lon="113.3428085782"><ele>870.61</ele><time>2013-02-16T05:01:01Z</time></trkpt><trkpt lat="23.9036793541" lon="113.3428085782"><ele>874.46</ele><time>2013-02-16T05:01:02Z</time></trkpt><trkpt lat="23.9036772586" lon="113.3427995257"><ele>877.82</ele><time>2013-02-16T05:01:05Z</time></trkpt><trkpt lat="23.9036769234" lon="113.3427902218"><ele>877.82</ele><time>2013-02-16T05:01:06Z</time></trkpt><trkpt lat="23.9036514424" lon="113.3427530900"><ele>874.46</ele><time>2013-02-16T05:01:10Z</time></trkpt><trkpt lat="23.9036480896" lon="113.3427575324"><ele>874.46</ele><time>2013-02-16T05:01:11Z</time></trkpt><trkpt lat="23.9036340918" lon="113.3427768946"><ele>866.77</ele><time>2013-02-16T05:01:15Z</time></trkpt><trkpt lat="23.9036286436" lon="113.3427811693"><ele>878.78</ele><time>2013-02-16T05:01:16Z</time></trkpt><trkpt lat="23.9036278054" lon="113.3427837677"><ele>875.42</ele><time>2013-02-16T05:01:17Z</time></trkpt><trkpt lat="23.9036231115" lon="113.3427885454"><ele>866.77</ele><time>2013-02-16T05:01:19Z</time></trkpt><trkpt lat="23.9036205970" lon="113.3427900542"><ele>870.13</ele><time>2013-02-16T05:01:20Z</time></trkpt><trkpt lat="23.9036205970" lon="113.3427900542"><ele>880.22</ele><time>2013-02-16T05:01:21Z</time></trkpt><trkpt lat="23.9036205970" lon="113.3427900542"><ele>875.42</ele><time>2013-02-16T05:01:22Z</time></trkpt><trkpt lat="23.9036205970" lon="113.3427900542"><ele>872.05</ele><time>2013-02-16T05:01:23Z</time></trkpt><trkpt lat="23.9036205970" lon="113.3427900542"><ele>880.71</ele><time>2013-02-16T05:01:24Z</time></trkpt><trkpt lat="23.9036205970" lon="113.3427900542"><ele>879.74</ele><time>2013-02-16T05:01:25Z</time></trkpt><trkpt lat="23.9036205970" lon="113.3427900542"><ele>876.38</ele><time>2013-02-16T05:01:26Z</time></trkpt><trkpt lat="23.9036205970" lon="113.3427900542"><ele>876.38</ele><time>2013-02-16T05:01:27Z</time></trkpt><trkpt lat="23.9036205970" lon="113.3427900542"><ele>872.53</ele><time>2013-02-16T05:01:30Z</time></trkpt><trkpt lat="23.9036205970" lon="113.3427900542"><ele>878.78</ele><time>2013-02-16T05:01:31Z</time></trkpt><trkpt lat="23.9036102034" lon="113.3427904733"><ele>878.30</ele><time>2013-02-16T05:01:32Z</time></trkpt><trkpt lat="23.9035982173" lon="113.3427939937"><ele>876.86</ele><time>2013-02-16T05:01:34Z</time></trkpt><trkpt lat="23.9035924338" lon="113.3427964244"><ele>877.82</ele><time>2013-02-16T05:01:38Z</time></trkpt><trkpt lat="23.9035924338" lon="113.3427964244"><ele>875.90</ele><time>2013-02-16T05:01:40Z</time></trkpt><trkpt lat="23.9035962895" lon="113.3427937422"><ele>879.26</ele><time>2013-02-16T05:01:41Z</time></trkpt><trkpt lat="23.9035962895" lon="113.3427937422"><ele>867.25</ele><time>2013-02-16T05:01:42Z</time></trkpt><trkpt lat="23.9036002290" lon="113.3427934069"><ele>879.26</ele><time>2013-02-16T05:01:43Z</time></trkpt><trkpt lat="23.9036055934" lon="113.3427937422"><ele>885.51</ele><time>2013-02-16T05:01:44Z</time></trkpt><trkpt lat="23.9036078565" lon="113.3427948318"><ele>877.34</ele><time>2013-02-16T05:01:45Z</time></trkpt><trkpt lat="23.9036083594" lon="113.3427957539"><ele>878.30</ele><time>2013-02-16T05:01:55Z</time></trkpt><trkpt lat="23.9036083594" lon="113.3427957539"><ele>880.71</ele><time>2013-02-16T05:02:18Z</time></trkpt><trkpt lat="23.9036083594" lon="113.3427957539"><ele>876.38</ele><time>2013-02-16T05:02:20Z</time></trkpt><trkpt lat="23.9036083594" lon="113.3427957539"><ele>881.19</ele><time>2013-02-16T05:02:21Z</time></trkpt><trkpt lat="23.9036076888" lon="113.3427835163"><ele>879.74</ele><time>2013-02-16T05:02:38Z</time></trkpt><trkpt lat="23.9035983849" lon="113.3427832648"><ele>874.94</ele><time>2013-02-16T05:02:41Z</time></trkpt><trkpt lat="23.9035909250" lon="113.3427851088"><ele>877.82</ele><time>2013-02-16T05:02:42Z</time></trkpt><trkpt lat="23.9035810344" lon="113.3427913953"><ele>879.74</ele><time>2013-02-16T05:02:44Z</time></trkpt><trkpt lat="23.9035457466" lon="113.3427996095"><ele>876.86</ele><time>2013-02-16T05:02:50Z</time></trkpt><trkpt lat="23.9035436511" lon="113.3427997772"><ele>881.19</ele><time>2013-02-16T05:02:51Z</time></trkpt><trkpt lat="23.9035436511" lon="113.3427997772"><ele>880.22</ele><time>2013-02-16T05:02:52Z</time></trkpt><trkpt lat="23.9035436511" lon="113.3427997772"><ele>878.78</ele><time>2013-02-16T05:02:54Z</time></trkpt><trkpt lat="23.9035611693" lon="113.3427885454"><ele>883.11</ele><time>2013-02-16T05:03:09Z</time></trkpt><trkpt lat="23.9035520330" lon="113.3427849412"><ele>883.11</ele><time>2013-02-16T05:03:10Z</time></trkpt><trkpt lat="23.9035452437" lon="113.3427690994"><ele>880.22</ele><time>2013-02-16T05:03:13Z</time></trkpt><trkpt lat="23.9035682101" lon="113.3427580353"><ele>876.38</ele><time>2013-02-16T05:03:25Z</time></trkpt><trkpt lat="23.9035682101" lon="113.3427580353"><ele>881.19</ele><time>2013-02-16T05:03:26Z</time></trkpt><trkpt lat="23.9035694674" lon="113.3427854441"><ele>878.78</ele><time>2013-02-16T05:03:40Z</time></trkpt><trkpt lat="23.9035728201" lon="113.3428039681"><ele>871.09</ele><time>2013-02-16T05:04:02Z</time></trkpt><trkpt lat="23.9035728201" lon="113.3428039681"><ele>885.51</ele><time>2013-02-16T05:04:03Z</time></trkpt><trkpt lat="23.9035728201" lon="113.3428039681"><ele>881.67</ele><time>2013-02-16T05:04:04Z</time></trkpt><trkpt lat="23.9035768434" lon="113.3428217378"><ele>879.26</ele><time>2013-02-16T05:04:25Z</time></trkpt><trkpt lat="23.9035447408" lon="113.3428659104"><ele>879.26</ele><time>2013-02-16T05:04:51Z</time></trkpt><trkpt lat="23.9035990555" lon="113.3428966720"><ele>879.26</ele><time>2013-02-16T05:05:14Z</time></trkpt><trkpt lat="23.9035972115" lon="113.3428820036"><ele>887.43</ele><time>2013-02-16T05:05:30Z</time></trkpt><trkpt lat="23.9035972115" lon="113.3428820036"><ele>879.74</ele><time>2013-02-16T05:05:31Z</time></trkpt><trkpt lat="23.9035137277" lon="113.3427865338"><ele>879.26</ele><time>2013-02-16T05:05:39Z</time></trkpt><trkpt lat="23.9034788590" lon="113.3427737933"><ele>876.86</ele><time>2013-02-16T05:05:50Z</time></trkpt><trkpt lat="23.9034788590" lon="113.3427737933"><ele>881.19</ele><time>2013-02-16T05:05:51Z</time></trkpt><trkpt lat="23.9036041684" lon="113.3427710272"><ele>879.26</ele><time>2013-02-16T05:06:11Z</time></trkpt><trkpt lat="23.9035896678" lon="113.3428012021"><ele>874.94</ele><time>2013-02-16T05:06:25Z</time></trkpt><trkpt lat="23.9035896678" lon="113.3428012021"><ele>874.94</ele><time>2013-02-16T05:06:26Z</time></trkpt><trkpt lat="23.9035894163" lon="113.3427998610"><ele>881.67</ele><time>2013-02-16T05:06:27Z</time></trkpt><trkpt lat="23.9035853092" lon="113.3427989390"><ele>878.78</ele><time>2013-02-16T05:06:28Z</time></trkpt><trkpt lat="23.9035796933" lon="113.3427956700"><ele>881.67</ele><time>2013-02-16T05:06:30Z</time></trkpt><trkpt lat="23.9035825431" lon="113.3427872881"><ele>878.30</ele><time>2013-02-16T05:06:31Z</time></trkpt><trkpt lat="23.9035812858" lon="113.3427752182"><ele>873.01</ele><time>2013-02-16T05:06:37Z</time></trkpt><trkpt lat="23.9035812858" lon="113.3427752182"><ele>877.82</ele><time>2013-02-16T05:06:38Z</time></trkpt><trkpt lat="23.9035812858" lon="113.3427752182"><ele>880.22</ele><time>2013-02-16T05:06:41Z</time></trkpt><trkpt lat="23.9035491832" lon="113.3427693509"><ele>888.88</ele><time>2013-02-16T05:06:45Z</time></trkpt><trkpt lat="23.9035456628" lon="113.3427703567"><ele>880.71</ele><time>2013-02-16T05:06:46Z</time></trkpt><trkpt lat="23.9035313297" lon="113.3427719492"><ele>878.78</ele><time>2013-02-16T05:06:51Z</time></trkpt><trkpt lat="23.9035313297" lon="113.3427719492"><ele>882.63</ele><time>2013-02-16T05:06:52Z</time></trkpt><trkpt lat="23.9035248756" lon="113.3427659981"><ele>880.71</ele><time>2013-02-16T05:06:53Z</time></trkpt><trkpt lat="23.9035247080" lon="113.3427571971"><ele>879.26</ele><time>2013-02-16T05:06:56Z</time></trkpt><trkpt lat="23.9035247080" lon="113.3427571971"><ele>884.55</ele><time>2013-02-16T05:06:57Z</time></trkpt><trkpt lat="23.9035247080" lon="113.3427571971"><ele>881.19</ele><time>2013-02-16T05:06:58Z</time></trkpt><trkpt lat="23.9035312459" lon="113.3427505754"><ele>876.38</ele><time>2013-02-16T05:07:14Z</time></trkpt><trkpt lat="23.9035312459" lon="113.3427505754"><ele>885.03</ele><time>2013-02-16T05:07:15Z</time></trkpt><trkpt lat="23.9035312459" lon="113.3427505754"><ele>884.07</ele><time>2013-02-16T05:07:19Z</time></trkpt><trkpt lat="23.9035312459" lon="113.3427505754"><ele>885.99</ele><time>2013-02-16T05:07:37Z</time></trkpt><trkpt lat="23.9035305753" lon="113.3427505754"><ele>885.51</ele><time>2013-02-16T05:08:02Z</time></trkpt><trkpt lat="23.9035305753" lon="113.3427505754"><ele>881.67</ele><time>2013-02-16T05:08:09Z</time></trkpt><trkpt lat="23.9035305753" lon="113.3427505754"><ele>890.80</ele><time>2013-02-16T05:08:10Z</time></trkpt><trkpt lat="23.9035305753" lon="113.3427505754"><ele>887.91</ele><time>2013-02-16T05:08:11Z</time></trkpt><trkpt lat="23.9035061840" lon="113.3427472226"><ele>886.47</ele><time>2013-02-16T05:08:19Z</time></trkpt><trkpt lat="23.9035061840" lon="113.3427472226"><ele>891.28</ele><time>2013-02-16T05:08:21Z</time></trkpt><trkpt lat="23.9035061840" lon="113.3427472226"><ele>887.43</ele><time>2013-02-16T05:08:22Z</time></trkpt><trkpt lat="23.9035061840" lon="113.3427472226"><ele>882.63</ele><time>2013-02-16T05:08:23Z</time></trkpt><trkpt lat="23.9035061840" lon="113.3427472226"><ele>894.16</ele><time>2013-02-16T05:08:24Z</time></trkpt><trkpt lat="23.9035061840" lon="113.3427472226"><ele>890.32</ele><time>2013-02-16T05:08:25Z</time></trkpt><trkpt lat="23.9035061840" lon="113.3427472226"><ele>889.36</ele><time>2013-02-16T05:08:27Z</time></trkpt><trkpt lat="23.9034936111" lon="113.3427411877"><ele>891.28</ele><time>2013-02-16T05:08:42Z</time></trkpt><trkpt lat="23.9034910966" lon="113.3427400980"><ele>889.84</ele><time>2013-02-16T05:08:55Z</time></trkpt><trkpt lat="23.9034883305" lon="113.3427409362"><ele>886.47</ele><time>2013-02-16T05:09:07Z</time></trkpt><trkpt lat="23.9034883305" lon="113.3427409362"><ele>892.24</ele><time>2013-02-16T05:09:08Z</time></trkpt><trkpt lat="23.9034883305" lon="113.3427409362"><ele>888.88</ele><time>2013-02-16T05:09:10Z</time></trkpt><trkpt lat="23.9034883305" lon="113.3427409362"><ele>889.84</ele><time>2013-02-16T05:09:11Z</time></trkpt><trkpt lat="23.9034439065" lon="113.3427429479"><ele>891.76</ele><time>2013-02-16T05:09:26Z</time></trkpt><trkpt lat="23.9033925254" lon="113.3427317161"><ele>887.91</ele><time>2013-02-16T05:09:33Z</time></trkpt><trkpt lat="23.9033866581" lon="113.3427276928"><ele>892.72</ele><time>2013-02-16T05:09:34Z</time></trkpt><trkpt lat="23.9033867419" lon="113.3427250944"><ele>889.84</ele><time>2013-02-16T05:09:36Z</time></trkpt><trkpt lat="23.9033790305" lon="113.3427088335"><ele>890.32</ele><time>2013-02-16T05:09:42Z</time></trkpt><trkpt lat="23.9033755939" lon="113.3427024633"><ele>893.68</ele><time>2013-02-16T05:09:43Z</time></trkpt><trkpt lat="23.9033755939" lon="113.3427024633"><ele>892.24</ele><time>2013-02-16T05:09:44Z</time></trkpt><trkpt lat="23.9033476822" lon="113.3426870406"><ele>895.61</ele><time>2013-02-16T05:09:58Z</time></trkpt><trkpt lat="23.9033185970" lon="113.3426654153"><ele>893.68</ele><time>2013-02-16T05:10:14Z</time></trkpt><trkpt lat="23.9033181779" lon="113.3426626492"><ele>894.64</ele><time>2013-02-16T05:10:29Z</time></trkpt><trkpt lat="23.9033196028" lon="113.3426644094"><ele>891.28</ele><time>2013-02-16T05:10:36Z</time></trkpt><trkpt lat="23.9033222850" lon="113.3426656667"><ele>897.05</ele><time>2013-02-16T05:10:37Z</time></trkpt><trkpt lat="23.9033222850" lon="113.3426656667"><ele>894.16</ele><time>2013-02-16T05:10:38Z</time></trkpt><trkpt lat="23.9033308346" lon="113.3426619787"><ele>893.20</ele><time>2013-02-16T05:10:52Z</time></trkpt><trkpt lat="23.9033302478" lon="113.3426598832"><ele>893.68</ele><time>2013-02-16T05:11:09Z</time></trkpt><trkpt lat="23.9033253025" lon="113.3426577877"><ele>893.20</ele><time>2013-02-16T05:11:22Z</time></trkpt><trkpt lat="23.9033307508" lon="113.3426642418"><ele>893.20</ele><time>2013-02-16T05:11:50Z</time></trkpt><trkpt lat="23.9033315051" lon="113.3426629845"><ele>893.68</ele><time>2013-02-16T05:12:07Z</time></trkpt><trkpt lat="23.9033335168" lon="113.3426620625"><ele>892.72</ele><time>2013-02-16T05:12:26Z</time></trkpt><trkpt lat="23.9033085387" lon="113.3426675946"><ele>894.16</ele><time>2013-02-16T05:12:37Z</time></trkpt><trkpt lat="23.9033085387" lon="113.3426675946"><ele>893.20</ele><time>2013-02-16T05:13:00Z</time></trkpt><trkpt lat="23.9033085387" lon="113.3426675946"><ele>894.16</ele><time>2013-02-16T05:13:28Z</time></trkpt><trkpt lat="23.9033082873" lon="113.3426722884"><ele>894.16</ele><time>2013-02-16T05:13:44Z</time></trkpt><trkpt lat="23.9033082873" lon="113.3426722884"><ele>894.64</ele><time>2013-02-16T05:14:08Z</time></trkpt><trkpt lat="23.9033085387" lon="113.3426746354"><ele>894.64</ele><time>2013-02-16T05:14:29Z</time></trkpt><trkpt lat="23.9033145737" lon="113.3426743001"><ele>894.16</ele><time>2013-02-16T05:14:50Z</time></trkpt><trkpt lat="23.9033145737" lon="113.3426743001"><ele>893.68</ele><time>2013-02-16T05:15:16Z</time></trkpt><trkpt lat="23.9033027552" lon="113.3426717855"><ele>893.68</ele><time>2013-02-16T05:15:24Z</time></trkpt><trkpt lat="23.9033013303" lon="113.3426784072"><ele>893.68</ele><time>2013-02-16T05:15:53Z</time></trkpt><trkpt lat="23.9033013303" lon="113.3426784072"><ele>894.16</ele><time>2013-02-16T05:16:14Z</time></trkpt><trkpt lat="23.9033013303" lon="113.3426794130"><ele>893.20</ele><time>2013-02-16T05:16:30Z</time></trkpt><trkpt lat="23.9033013303" lon="113.3426794130"><ele>895.12</ele><time>2013-02-16T05:16:46Z</time></trkpt><trkpt lat="23.9033008274" lon="113.3426797483"><ele>894.64</ele><time>2013-02-16T05:17:13Z</time></trkpt><trkpt lat="23.9033008274" lon="113.3426797483"><ele>894.16</ele><time>2013-02-16T05:17:40Z</time></trkpt><trkpt lat="23.9033025037" lon="113.3426781558"><ele>895.61</ele><time>2013-02-16T05:17:59Z</time></trkpt><trkpt lat="23.9033018332" lon="113.3426762279"><ele>895.12</ele><time>2013-02-16T05:18:15Z</time></trkpt><trkpt lat="23.9033018332" lon="113.3426762279"><ele>895.61</ele><time>2013-02-16T05:18:31Z</time></trkpt><trkpt lat="23.9033005759" lon="113.3426754735"><ele>894.64</ele><time>2013-02-16T05:18:50Z</time></trkpt><trkpt lat="23.9033005759" lon="113.3426754735"><ele>894.16</ele><time>2013-02-16T05:19:08Z</time></trkpt><trkpt lat="23.9033014979" lon="113.3426737133"><ele>894.64</ele><time>2013-02-16T05:19:36Z</time></trkpt><trkpt lat="23.9033014979" lon="113.3426737133"><ele>894.16</ele><time>2013-02-16T05:20:02Z</time></trkpt><trkpt lat="23.9033023361" lon="113.3426737972"><ele>894.16</ele><time>2013-02-16T05:20:31Z</time></trkpt><trkpt lat="23.9033025037" lon="113.3426742163"><ele>894.64</ele><time>2013-02-16T05:21:04Z</time></trkpt><trkpt lat="23.9033000730" lon="113.3426736295"><ele>894.64</ele><time>2013-02-16T05:21:28Z</time></trkpt><trkpt lat="23.9033043478" lon="113.3426701929"><ele>895.61</ele><time>2013-02-16T05:21:51Z</time></trkpt><trkpt lat="23.9033043478" lon="113.3426701929"><ele>894.64</ele><time>2013-02-16T05:22:11Z</time></trkpt><trkpt lat="23.9033090416" lon="113.3426763117"><ele>895.12</ele><time>2013-02-16T05:22:29Z</time></trkpt><trkpt lat="23.9033166692" lon="113.3426702768"><ele>894.64</ele><time>2013-02-16T05:22:41Z</time></trkpt><trkpt lat="23.9033023361" lon="113.3426822629"><ele>890.80</ele><time>2013-02-16T05:22:50Z</time></trkpt><trkpt lat="23.9033090416" lon="113.3426850289"><ele>897.05</ele><time>2013-02-16T05:22:51Z</time></trkpt><trkpt lat="23.9033141546" lon="113.3426831849"><ele>894.64</ele><time>2013-02-16T05:22:52Z</time></trkpt><trkpt lat="23.9033198543" lon="113.3426820114"><ele>893.68</ele><time>2013-02-16T05:22:54Z</time></trkpt><trkpt lat="23.9033339359" lon="113.3427002840"><ele>893.20</ele><time>2013-02-16T05:23:09Z</time></trkpt><trkpt lat="23.9033341035" lon="113.3427022118"><ele>892.24</ele><time>2013-02-16T05:23:26Z</time></trkpt><trkpt lat="23.9033544715" lon="113.3427204005"><ele>891.28</ele><time>2013-02-16T05:23:41Z</time></trkpt><trkpt lat="23.9033827186" lon="113.3427437861"><ele>891.28</ele><time>2013-02-16T05:23:53Z</time></trkpt><trkpt lat="23.9034020808" lon="113.3427611366"><ele>891.76</ele><time>2013-02-16T05:24:08Z</time></trkpt><trkpt lat="23.9034021646" lon="113.3428007830"><ele>891.28</ele><time>2013-02-16T05:24:23Z</time></trkpt><trkpt lat="23.9034237061" lon="113.3428414352"><ele>891.28</ele><time>2013-02-16T05:24:38Z</time></trkpt><trkpt lat="23.9034270588" lon="113.3428843506"><ele>891.28</ele><time>2013-02-16T05:24:54Z</time></trkpt><trkpt lat="23.9034286514" lon="113.3428933192"><ele>889.36</ele><time>2013-02-16T05:25:10Z</time></trkpt><trkpt lat="23.9034286514" lon="113.3428933192"><ele>887.43</ele><time>2013-02-16T05:25:24Z</time></trkpt><trkpt lat="23.9034286514" lon="113.3428933192"><ele>885.03</ele><time>2013-02-16T05:25:36Z</time></trkpt><trkpt lat="23.9034382068" lon="113.3429025393"><ele>885.51</ele><time>2013-02-16T05:25:47Z</time></trkpt><trkpt lat="23.9034374524" lon="113.3429441974"><ele>883.59</ele><time>2013-02-16T05:25:58Z</time></trkpt><trkpt lat="23.9034562279" lon="113.3429683372"><ele>882.63</ele><time>2013-02-16T05:26:12Z</time></trkpt><trkpt lat="23.9034627657" lon="113.3429674152"><ele>881.19</ele><time>2013-02-16T05:26:24Z</time></trkpt><trkpt lat="23.9034957066" lon="113.3429706842"><ele>879.74</ele><time>2013-02-16T05:26:38Z</time></trkpt><trkpt lat="23.9035434835" lon="113.3429841790"><ele>877.34</ele><time>2013-02-16T05:26:52Z</time></trkpt><trkpt lat="23.9035573136" lon="113.3429718576"><ele>875.42</ele><time>2013-02-16T05:27:04Z</time></trkpt><trkpt lat="23.9035785198" lon="113.3429768030"><ele>872.53</ele><time>2013-02-16T05:27:17Z</time></trkpt><trkpt lat="23.9036237821" lon="113.3429697622"><ele>871.09</ele><time>2013-02-16T05:27:29Z</time></trkpt><trkpt lat="23.9036469162" lon="113.3429718576"><ele>867.73</ele><time>2013-02-16T05:27:42Z</time></trkpt><trkpt lat="23.9036691282" lon="113.3429462928"><ele>862.44</ele><time>2013-02-16T05:27:56Z</time></trkpt><trkpt lat="23.9036691282" lon="113.3429462928"><ele>870.13</ele><time>2013-02-16T05:27:57Z</time></trkpt><trkpt lat="23.9036691282" lon="113.3429462928"><ele>867.25</ele><time>2013-02-16T05:27:58Z</time></trkpt><trkpt lat="23.9036691282" lon="113.3429462928"><ele>868.21</ele><time>2013-02-16T05:28:05Z</time></trkpt><trkpt lat="23.9036691282" lon="113.3429462928"><ele>864.84</ele><time>2013-02-16T05:28:28Z</time></trkpt><trkpt lat="23.9036764205" lon="113.3429450355"><ele>873.01</ele><time>2013-02-16T05:28:29Z</time></trkpt><trkpt lat="23.9036801923" lon="113.3429469634"><ele>864.84</ele><time>2013-02-16T05:28:30Z</time></trkpt><trkpt lat="23.9036832098" lon="113.3429469634"><ele>871.57</ele><time>2013-02-16T05:28:32Z</time></trkpt><trkpt lat="23.9036832098" lon="113.3429469634"><ele>867.25</ele><time>2013-02-16T05:28:33Z</time></trkpt><trkpt lat="23.9036555495" lon="113.3429511543"><ele>866.77</ele><time>2013-02-16T05:28:49Z</time></trkpt><trkpt lat="23.9037466608" lon="113.3429418504"><ele>864.84</ele><time>2013-02-16T05:29:13Z</time></trkpt><trkpt lat="23.9038579725" lon="113.3429571893"><ele>861.96</ele><time>2013-02-16T05:29:28Z</time></trkpt><trkpt lat="23.9039307274" lon="113.3429631405"><ele>859.56</ele><time>2013-02-16T05:29:39Z</time></trkpt><trkpt lat="23.9039369300" lon="113.3429601230"><ele>861.96</ele><time>2013-02-16T05:29:40Z</time></trkpt><trkpt lat="23.9039422944" lon="113.3429569378"><ele>860.52</ele><time>2013-02-16T05:29:41Z</time></trkpt><trkpt lat="23.9040436316" lon="113.3429865260"><ele>858.59</ele><time>2013-02-16T05:29:57Z</time></trkpt><trkpt lat="23.9040479064" lon="113.3429873642"><ele>859.56</ele><time>2013-02-16T05:30:06Z</time></trkpt><trkpt lat="23.9040732197" lon="113.3429703489"><ele>857.63</ele><time>2013-02-16T05:30:23Z</time></trkpt><trkpt lat="23.9041142073" lon="113.3429595362"><ele>855.23</ele><time>2013-02-16T05:30:33Z</time></trkpt><trkpt lat="23.9041189849" lon="113.3429588657"><ele>853.31</ele><time>2013-02-16T05:30:34Z</time></trkpt><trkpt lat="23.9041214157" lon="113.3429586142"><ele>862.92</ele><time>2013-02-16T05:30:35Z</time></trkpt><trkpt lat="23.9041262772" lon="113.3429568540"><ele>858.11</ele><time>2013-02-16T05:30:36Z</time></trkpt><trkpt lat="23.9041829389" lon="113.3429690916"><ele>856.67</ele><time>2013-02-16T05:30:54Z</time></trkpt><trkpt lat="23.9043119363" lon="113.3429819997"><ele>856.19</ele><time>2013-02-16T05:31:11Z</time></trkpt><trkpt lat="23.9043631498" lon="113.3429779764"><ele>854.75</ele><time>2013-02-16T05:31:18Z</time></trkpt><trkpt lat="23.9043677598" lon="113.3429798204"><ele>857.15</ele><time>2013-02-16T05:31:19Z</time></trkpt><trkpt lat="23.9044234995" lon="113.3430419303"><ele>854.27</ele><time>2013-02-16T05:31:30Z</time></trkpt><trkpt lat="23.9044281933" lon="113.3430503961"><ele>854.27</ele><time>2013-02-16T05:31:31Z</time></trkpt><trkpt lat="23.9044991881" lon="113.3429962490"><ele>853.79</ele><time>2013-02-16T05:31:47Z</time></trkpt><trkpt lat="23.9045404270" lon="113.3429594524"><ele>852.35</ele><time>2013-02-16T05:32:01Z</time></trkpt><trkpt lat="23.9045460429" lon="113.3429590333"><ele>854.75</ele><time>2013-02-16T05:32:02Z</time></trkpt><trkpt lat="23.9046562649" lon="113.3429493941"><ele>853.79</ele><time>2013-02-16T05:32:10Z</time></trkpt><trkpt lat="23.9046198875" lon="113.3429444488"><ele>854.75</ele><time>2013-02-16T05:32:23Z</time></trkpt><trkpt lat="23.9046104159" lon="113.3429483045"><ele>855.71</ele><time>2013-02-16T05:32:29Z</time></trkpt><trkpt lat="23.9046112541" lon="113.3429131005"><ele>855.71</ele><time>2013-02-16T05:32:35Z</time></trkpt><trkpt lat="23.9045965020" lon="113.3428348973"><ele>857.15</ele><time>2013-02-16T05:32:46Z</time></trkpt><trkpt lat="23.9046027046" lon="113.3428241685"><ele>858.59</ele><time>2013-02-16T05:32:54Z</time></trkpt><trkpt lat="23.9046044648" lon="113.3428167924"><ele>852.83</ele><time>2013-02-16T05:32:58Z</time></trkpt><trkpt lat="23.9046023693" lon="113.3428106736"><ele>862.92</ele><time>2013-02-16T05:32:59Z</time></trkpt><trkpt lat="23.9046008606" lon="113.3428078238"><ele>858.11</ele><time>2013-02-16T05:33:00Z</time></trkpt><trkpt lat="23.9045811631" lon="113.3427300397"><ele>859.08</ele><time>2013-02-16T05:33:14Z</time></trkpt><trkpt lat="23.9045402594" lon="113.3426401019"><ele>859.56</ele><time>2013-02-16T05:33:27Z</time></trkpt><trkpt lat="23.9045352302" lon="113.3425729629"><ele>862.44</ele><time>2013-02-16T05:33:43Z</time></trkpt><trkpt lat="23.9045310393" lon="113.3425654192"><ele>861.48</ele><time>2013-02-16T05:33:44Z</time></trkpt><trkpt lat="23.9045140240" lon="113.3425362501"><ele>860.04</ele><time>2013-02-16T05:33:47Z</time></trkpt><trkpt lat="23.9045072347" lon="113.3425152954"><ele>862.92</ele><time>2013-02-16T05:33:49Z</time></trkpt><trkpt lat="23.9044581167" lon="113.3424413670"><ele>867.25</ele><time>2013-02-16T05:33:57Z</time></trkpt><trkpt lat="23.9044303726" lon="113.3424083423"><ele>865.32</ele><time>2013-02-16T05:34:10Z</time></trkpt><trkpt lat="23.9044200629" lon="113.3423907403"><ele>864.84</ele><time>2013-02-16T05:34:15Z</time></trkpt><trkpt lat="23.9044250920" lon="113.3423049096"><ele>865.32</ele><time>2013-02-16T05:34:25Z</time></trkpt><trkpt lat="23.9044778980" lon="113.3422537800"><ele>863.40</ele><time>2013-02-16T05:34:35Z</time></trkpt><trkpt lat="23.9044934884" lon="113.3422075119"><ele>863.40</ele><time>2013-02-16T05:34:40Z</time></trkpt><trkpt lat="23.9045410138" lon="113.3421552088"><ele>863.88</ele><time>2013-02-16T05:34:49Z</time></trkpt><trkpt lat="23.9045561012" lon="113.3421334159"><ele>861.00</ele><time>2013-02-16T05:34:52Z</time></trkpt><trkpt lat="23.9045529161" lon="113.3421399537"><ele>866.77</ele><time>2013-02-16T05:34:53Z</time></trkpt><trkpt lat="23.9045529161" lon="113.3421399537"><ele>861.96</ele><time>2013-02-16T05:34:57Z</time></trkpt><trkpt lat="23.9045495633" lon="113.3421451505"><ele>867.73</ele><time>2013-02-16T05:34:58Z</time></trkpt><trkpt lat="23.9045513235" lon="113.3421495929"><ele>863.88</ele><time>2013-02-16T05:34:59Z</time></trkpt><trkpt lat="23.9045784809" lon="113.3421812765"><ele>862.92</ele><time>2013-02-16T05:35:16Z</time></trkpt><trkpt lat="23.9046707656" lon="113.3422628324"><ele>861.48</ele><time>2013-02-16T05:35:32Z</time></trkpt><trkpt lat="23.9046793152" lon="113.3422684483"><ele>864.84</ele><time>2013-02-16T05:35:33Z</time></trkpt><trkpt lat="23.9046859369" lon="113.3422728069"><ele>861.48</ele><time>2013-02-16T05:35:34Z</time></trkpt><trkpt lat="23.9046964142" lon="113.3422769140"><ele>866.29</ele><time>2013-02-16T05:35:35Z</time></trkpt><trkpt lat="23.9047042932" lon="113.3422777522"><ele>862.44</ele><time>2013-02-16T05:35:36Z</time></trkpt><trkpt lat="23.9047312830" lon="113.3422655985"><ele>865.80</ele><time>2013-02-16T05:35:43Z</time></trkpt><trkpt lat="23.9047617093" lon="113.3422379382"><ele>864.36</ele><time>2013-02-16T05:36:02Z</time></trkpt><trkpt lat="23.9047617093" lon="113.3422379382"><ele>864.36</ele><time>2013-02-16T05:36:25Z</time></trkpt><trkpt lat="23.9047610387" lon="113.3422372676"><ele>864.36</ele><time>2013-02-16T05:36:54Z</time></trkpt><trkpt lat="23.9047587756" lon="113.3422367647"><ele>863.88</ele><time>2013-02-16T05:37:21Z</time></trkpt><trkpt lat="23.9047587756" lon="113.3422367647"><ele>865.32</ele><time>2013-02-16T05:37:46Z</time></trkpt><trkpt lat="23.9047771320" lon="113.3422259521"><ele>863.88</ele><time>2013-02-16T05:38:07Z</time></trkpt><trkpt lat="23.9047986735" lon="113.3422172349"><ele>860.52</ele><time>2013-02-16T05:38:22Z</time></trkpt><trkpt lat="23.9048054628" lon="113.3422069252"><ele>860.04</ele><time>2013-02-16T05:38:37Z</time></trkpt><trkpt lat="23.9048053790" lon="113.3422124572"><ele>856.19</ele><time>2013-02-16T05:38:45Z</time></trkpt><trkpt lat="23.9048053790" lon="113.3422124572"><ele>861.48</ele><time>2013-02-16T05:38:46Z</time></trkpt><trkpt lat="23.9048053790" lon="113.3422124572"><ele>858.11</ele><time>2013-02-16T05:38:47Z</time></trkpt><trkpt lat="23.9048106596" lon="113.3422081824"><ele>857.15</ele><time>2013-02-16T05:39:04Z</time></trkpt><trkpt lat="23.9048106596" lon="113.3422081824"><ele>856.19</ele><time>2013-02-16T05:39:21Z</time></trkpt><trkpt lat="23.9048117492" lon="113.3422078472"><ele>854.75</ele><time>2013-02-16T05:39:41Z</time></trkpt><trkpt lat="23.9048117492" lon="113.3422078472"><ele>854.75</ele><time>2013-02-16T05:40:02Z</time></trkpt><trkpt lat="23.9048230648" lon="113.3422256168"><ele>847.54</ele><time>2013-02-16T05:40:14Z</time></trkpt><trkpt lat="23.9048259985" lon="113.3422325738"><ele>854.75</ele><time>2013-02-16T05:40:15Z</time></trkpt><trkpt lat="23.9048375655" lon="113.3422329929"><ele>853.31</ele><time>2013-02-16T05:40:18Z</time></trkpt><trkpt lat="23.9048961550" lon="113.3421731461"><ele>851.87</ele><time>2013-02-16T05:40:34Z</time></trkpt><trkpt lat="23.9048961550" lon="113.3421731461"><ele>848.02</ele><time>2013-02-16T05:40:35Z</time></trkpt><trkpt lat="23.9048961550" lon="113.3421731461"><ele>854.27</ele><time>2013-02-16T05:40:36Z</time></trkpt><trkpt lat="23.9048961550" lon="113.3421731461"><ele>854.27</ele><time>2013-02-16T05:40:37Z</time></trkpt><trkpt lat="23.9048961550" lon="113.3421731461"><ele>850.90</ele><time>2013-02-16T05:40:38Z</time></trkpt><trkpt lat="23.9049663115" lon="113.3421667758"><ele>848.98</ele><time>2013-02-16T05:40:54Z</time></trkpt><trkpt lat="23.9049801417" lon="113.3421491738"><ele>851.87</ele><time>2013-02-16T05:41:02Z</time></trkpt><trkpt lat="23.9049801417" lon="113.3421491738"><ele>851.87</ele><time>2013-02-16T05:41:03Z</time></trkpt><trkpt lat="23.9049801417" lon="113.3421491738"><ele>848.98</ele><time>2013-02-16T05:41:05Z</time></trkpt><trkpt lat="23.9049705025" lon="113.3421430551"><ele>848.98</ele><time>2013-02-16T05:41:06Z</time></trkpt><trkpt lat="23.9049732685" lon="113.3421366848"><ele>848.02</ele><time>2013-02-16T05:41:20Z</time></trkpt><trkpt lat="23.9050178602" lon="113.3420863096"><ele>846.58</ele><time>2013-02-16T05:41:37Z</time></trkpt><trkpt lat="23.9050456043" lon="113.3420746587"><ele>843.69</ele><time>2013-02-16T05:41:56Z</time></trkpt><trkpt lat="23.9050509688" lon="113.3420764189"><ele>847.06</ele><time>2013-02-16T05:42:01Z</time></trkpt><trkpt lat="23.9050539024" lon="113.3420791849"><ele>844.18</ele><time>2013-02-16T05:42:02Z</time></trkpt><trkpt lat="23.9050598536" lon="113.3420853876"><ele>840.81</ele><time>2013-02-16T05:42:04Z</time></trkpt><trkpt lat="23.9050659724" lon="113.3420877345"><ele>846.58</ele><time>2013-02-16T05:42:05Z</time></trkpt><trkpt lat="23.9050744381" lon="113.3420885727"><ele>843.21</ele><time>2013-02-16T05:42:06Z</time></trkpt><trkpt lat="23.9051148389" lon="113.3420935180"><ele>842.25</ele><time>2013-02-16T05:42:21Z</time></trkpt><trkpt lat="23.9051387273" lon="113.3420706354"><ele>840.81</ele><time>2013-02-16T05:42:34Z</time></trkpt><trkpt lat="23.9051576704" lon="113.3420501836"><ele>839.85</ele><time>2013-02-16T05:42:51Z</time></trkpt><trkpt lat="23.9051746018" lon="113.3420325816"><ele>837.93</ele><time>2013-02-16T05:43:08Z</time></trkpt><trkpt lat="23.9051746018" lon="113.3420325816"><ele>837.93</ele><time>2013-02-16T05:43:21Z</time></trkpt><trkpt lat="23.9051746018" lon="113.3420325816"><ele>836.48</ele><time>2013-02-16T05:43:23Z</time></trkpt><trkpt lat="23.9051965624" lon="113.3420405444"><ele>835.52</ele><time>2013-02-16T05:43:42Z</time></trkpt><trkpt lat="23.9052034356" lon="113.3420428075"><ele>832.16</ele><time>2013-02-16T05:43:44Z</time></trkpt><trkpt lat="23.9052166790" lon="113.3420459088"><ele>837.45</ele><time>2013-02-16T05:43:45Z</time></trkpt><trkpt lat="23.9052271564" lon="113.3420432266"><ele>834.56</ele><time>2013-02-16T05:43:47Z</time></trkpt><trkpt lat="23.9052290842" lon="113.3420226909"><ele>834.56</ele><time>2013-02-16T05:44:03Z</time></trkpt><trkpt lat="23.9052378852" lon="113.3420148119"><ele>831.20</ele><time>2013-02-16T05:44:13Z</time></trkpt><trkpt lat="23.9052378852" lon="113.3420148119"><ele>832.16</ele><time>2013-02-16T05:44:17Z</time></trkpt><trkpt lat="23.9052378852" lon="113.3420148119"><ele>828.31</ele><time>2013-02-16T05:44:33Z</time></trkpt><trkpt lat="23.9052378852" lon="113.3420148119"><ele>834.56</ele><time>2013-02-16T05:44:34Z</time></trkpt><trkpt lat="23.9052378852" lon="113.3420148119"><ele>833.12</ele><time>2013-02-16T05:44:35Z</time></trkpt><trkpt lat="23.9052378852" lon="113.3420148119"><ele>831.20</ele><time>2013-02-16T05:44:38Z</time></trkpt><trkpt lat="23.9052378852" lon="113.3420148119"><ele>826.87</ele><time>2013-02-16T05:44:45Z</time></trkpt><trkpt lat="23.9052378852" lon="113.3420148119"><ele>835.52</ele><time>2013-02-16T05:44:46Z</time></trkpt><trkpt lat="23.9052378852" lon="113.3420148119"><ele>835.52</ele><time>2013-02-16T05:44:47Z</time></trkpt><trkpt lat="23.9052378852" lon="113.3420148119"><ele>829.76</ele><time>2013-02-16T05:44:48Z</time></trkpt><trkpt lat="23.9052404836" lon="113.3420122135"><ele>833.60</ele><time>2013-02-16T05:44:49Z</time></trkpt><trkpt lat="23.9052496199" lon="113.3420012332"><ele>831.68</ele><time>2013-02-16T05:45:09Z</time></trkpt><trkpt lat="23.9052758552" lon="113.3419925161"><ele>830.72</ele><time>2013-02-16T05:45:27Z</time></trkpt><trkpt lat="23.9052758552" lon="113.3419925161"><ele>829.27</ele><time>2013-02-16T05:45:34Z</time></trkpt><trkpt lat="23.9053171780" lon="113.3419552166"><ele>825.91</ele><time>2013-02-16T05:45:39Z</time></trkpt><trkpt lat="23.9053171780" lon="113.3419552166"><ele>833.60</ele><time>2013-02-16T05:45:40Z</time></trkpt><trkpt lat="23.9053171780" lon="113.3419552166"><ele>829.76</ele><time>2013-02-16T05:45:41Z</time></trkpt><trkpt lat="23.9053171780" lon="113.3419552166"><ele>823.51</ele><time>2013-02-16T05:45:43Z</time></trkpt><trkpt lat="23.9053207822" lon="113.3419438172"><ele>834.08</ele><time>2013-02-16T05:45:44Z</time></trkpt><trkpt lat="23.9053207822" lon="113.3419373631"><ele>832.16</ele><time>2013-02-16T05:45:45Z</time></trkpt><trkpt lat="23.9053207822" lon="113.3419373631"><ele>829.76</ele><time>2013-02-16T05:45:47Z</time></trkpt><trkpt lat="23.9053247217" lon="113.3419237006"><ele>827.35</ele><time>2013-02-16T05:46:05Z</time></trkpt><trkpt lat="23.9053556509" lon="113.3419298194"><ele>827.83</ele><time>2013-02-16T05:46:28Z</time></trkpt><trkpt lat="23.9053692296" lon="113.3419268019"><ele>822.55</ele><time>2013-02-16T05:46:39Z</time></trkpt><trkpt lat="23.9053692296" lon="113.3419268019"><ele>826.87</ele><time>2013-02-16T05:46:40Z</time></trkpt><trkpt lat="23.9053692296" lon="113.3419268019"><ele>824.47</ele><time>2013-02-16T05:46:43Z</time></trkpt><trkpt lat="23.9054258913" lon="113.3418667875"><ele>824.47</ele><time>2013-02-16T05:47:04Z</time></trkpt><trkpt lat="23.9054432418" lon="113.3418825455"><ele>824.95</ele><time>2013-02-16T05:47:27Z</time></trkpt><trkpt lat="23.9054658730" lon="113.3418502752"><ele>824.47</ele><time>2013-02-16T05:47:42Z</time></trkpt><trkpt lat="23.9054742549" lon="113.3418537956"><ele>819.66</ele><time>2013-02-16T05:47:49Z</time></trkpt><trkpt lat="23.9054742549" lon="113.3418537956"><ele>823.99</ele><time>2013-02-16T05:47:50Z</time></trkpt><trkpt lat="23.9054810442" lon="113.3418396302"><ele>821.58</ele><time>2013-02-16T05:48:09Z</time></trkpt><trkpt lat="23.9054341894" lon="113.3418215252"><ele>820.62</ele><time>2013-02-16T05:48:30Z</time></trkpt><trkpt lat="23.9054916892" lon="113.3417939488"><ele>818.22</ele><time>2013-02-16T05:48:50Z</time></trkpt><trkpt lat="23.9054916892" lon="113.3417939488"><ele>814.85</ele><time>2013-02-16T05:48:51Z</time></trkpt><trkpt lat="23.9054916892" lon="113.3417939488"><ele>818.70</ele><time>2013-02-16T05:48:52Z</time></trkpt><trkpt lat="23.9054916892" lon="113.3417939488"><ele>814.85</ele><time>2013-02-16T05:48:54Z</time></trkpt><trkpt lat="23.9054916892" lon="113.3417939488"><ele>814.85</ele><time>2013-02-16T05:48:55Z</time></trkpt><trkpt lat="23.9054916892" lon="113.3417939488"><ele>819.66</ele><time>2013-02-16T05:48:56Z</time></trkpt><trkpt lat="23.9054916892" lon="113.3417939488"><ele>818.70</ele><time>2013-02-16T05:48:57Z</time></trkpt><trkpt lat="23.9054912701" lon="113.3417935297"><ele>817.74</ele><time>2013-02-16T05:48:59Z</time></trkpt><trkpt lat="23.9055051841" lon="113.3418041747"><ele>816.30</ele><time>2013-02-16T05:49:18Z</time></trkpt><trkpt lat="23.9055051841" lon="113.3418041747"><ele>806.68</ele><time>2013-02-16T05:49:24Z</time></trkpt><trkpt lat="23.9055051841" lon="113.3418041747"><ele>821.10</ele><time>2013-02-16T05:49:25Z</time></trkpt><trkpt lat="23.9055051841" lon="113.3418041747"><ele>818.70</ele><time>2013-02-16T05:49:26Z</time></trkpt><trkpt lat="23.9055125602" lon="113.3417906798"><ele>815.34</ele><time>2013-02-16T05:49:27Z</time></trkpt><trkpt lat="23.9055125602" lon="113.3417906798"><ele>816.30</ele><time>2013-02-16T05:49:28Z</time></trkpt><trkpt lat="23.9055196848" lon="113.3417876624"><ele>809.09</ele><time>2013-02-16T05:49:36Z</time></trkpt><trkpt lat="23.9055194333" lon="113.3417798672"><ele>817.74</ele><time>2013-02-16T05:49:37Z</time></trkpt><trkpt lat="23.9055194333" lon="113.3417798672"><ele>814.85</ele><time>2013-02-16T05:49:38Z</time></trkpt><trkpt lat="23.9055260550" lon="113.3417765144"><ele>811.01</ele><time>2013-02-16T05:49:52Z</time></trkpt><trkpt lat="23.9055237081" lon="113.3417636063"><ele>792.26</ele><time>2013-02-16T05:50:10Z</time></trkpt><trkpt lat="23.9055237081" lon="113.3417636063"><ele>828.31</ele><time>2013-02-16T05:50:11Z</time></trkpt><trkpt lat="23.9055237081" lon="113.3417636063"><ele>811.97</ele><time>2013-02-16T05:50:12Z</time></trkpt><trkpt lat="23.9055237081" lon="113.3417636063"><ele>810.53</ele><time>2013-02-16T05:50:14Z</time></trkpt><trkpt lat="23.9055955410" lon="113.3417270612"><ele>792.74</ele><time>2013-02-16T05:50:28Z</time></trkpt><trkpt lat="23.9055936132" lon="113.3417179249"><ele>821.10</ele><time>2013-02-16T05:50:29Z</time></trkpt><trkpt lat="23.9055936132" lon="113.3417179249"><ele>809.09</ele><time>2013-02-16T05:50:30Z</time></trkpt><trkpt lat="23.9055936132" lon="113.3417179249"><ele>808.13</ele><time>2013-02-16T05:50:32Z</time></trkpt><trkpt lat="23.9055895898" lon="113.3417289052"><ele>811.49</ele><time>2013-02-16T05:50:44Z</time></trkpt><trkpt lat="23.9055892546" lon="113.3417299110"><ele>811.49</ele><time>2013-02-16T05:50:45Z</time></trkpt><trkpt lat="23.9055936132" lon="113.3417179249"><ele>808.61</ele><time>2013-02-16T05:50:46Z</time></trkpt><trkpt lat="23.9055987261" lon="113.3417256363"><ele>807.64</ele><time>2013-02-16T05:51:03Z</time></trkpt><trkpt lat="23.9055987261" lon="113.3417256363"><ele>798.03</ele><time>2013-02-16T05:51:07Z</time></trkpt><trkpt lat="23.9055987261" lon="113.3417256363"><ele>811.01</ele><time>2013-02-16T05:51:08Z</time></trkpt><trkpt lat="23.9055987261" lon="113.3417256363"><ele>807.64</ele><time>2013-02-16T05:51:09Z</time></trkpt><trkpt lat="23.9055822976" lon="113.3417382929"><ele>806.68</ele><time>2013-02-16T05:51:14Z</time></trkpt><trkpt lat="23.9056568127" lon="113.3417051006"><ele>804.28</ele><time>2013-02-16T05:51:33Z</time></trkpt><trkpt lat="23.9056568127" lon="113.3417051006"><ele>802.36</ele><time>2013-02-16T05:51:36Z</time></trkpt><trkpt lat="23.9056568127" lon="113.3417051006"><ele>805.24</ele><time>2013-02-16T05:51:37Z</time></trkpt><trkpt lat="23.9056568127" lon="113.3417051006"><ele>801.88</ele><time>2013-02-16T05:51:42Z</time></trkpt><trkpt lat="23.9056609198" lon="113.3417007420"><ele>801.88</ele><time>2013-02-16T05:52:03Z</time></trkpt><trkpt lat="23.9056802820" lon="113.3417103812"><ele>793.22</ele><time>2013-02-16T05:52:08Z</time></trkpt><trkpt lat="23.9056840539" lon="113.3417087048"><ele>799.95</ele><time>2013-02-16T05:52:09Z</time></trkpt><trkpt lat="23.9056853950" lon="113.3417068608"><ele>806.20</ele><time>2013-02-16T05:52:10Z</time></trkpt><trkpt lat="23.9056848083" lon="113.3417080343"><ele>806.20</ele><time>2013-02-16T05:52:11Z</time></trkpt><trkpt lat="23.9056848083" lon="113.3417080343"><ele>800.44</ele><time>2013-02-16T05:52:12Z</time></trkpt><trkpt lat="23.9056848083" lon="113.3417080343"><ele>799.95</ele><time>2013-02-16T05:52:14Z</time></trkpt><trkpt lat="23.9056879934" lon="113.3416648675"><ele>796.11</ele><time>2013-02-16T05:52:24Z</time></trkpt><trkpt lat="23.9056879934" lon="113.3416648675"><ele>803.32</ele><time>2013-02-16T05:52:27Z</time></trkpt><trkpt lat="23.9056879934" lon="113.3416648675"><ele>798.03</ele><time>2013-02-16T05:52:28Z</time></trkpt><trkpt lat="23.9056879934" lon="113.3416648675"><ele>793.71</ele><time>2013-02-16T05:52:34Z</time></trkpt><trkpt lat="23.9056879934" lon="113.3416648675"><ele>798.99</ele><time>2013-02-16T05:52:35Z</time></trkpt><trkpt lat="23.9057031646" lon="113.3416748419"><ele>796.11</ele><time>2013-02-16T05:52:44Z</time></trkpt><trkpt lat="23.9057222754" lon="113.3416596707"><ele>794.67</ele><time>2013-02-16T05:52:57Z</time></trkpt><trkpt lat="23.9057271369" lon="113.3416660409"><ele>793.71</ele><time>2013-02-16T05:53:18Z</time></trkpt><trkpt lat="23.9057590719" lon="113.3417274803"><ele>793.71</ele><time>2013-02-16T05:53:30Z</time></trkpt><trkpt lat="23.9057467505" lon="113.3417424839"><ele>793.22</ele><time>2013-02-16T05:53:51Z</time></trkpt><trkpt lat="23.9057460800" lon="113.3417509496"><ele>785.53</ele><time>2013-02-16T05:53:57Z</time></trkpt><trkpt lat="23.9057460800" lon="113.3417509496"><ele>795.63</ele><time>2013-02-16T05:53:58Z</time></trkpt><trkpt lat="23.9057460800" lon="113.3417509496"><ele>794.19</ele><time>2013-02-16T05:53:59Z</time></trkpt><trkpt lat="23.9057464991" lon="113.3417568170"><ele>790.82</ele><time>2013-02-16T05:54:01Z</time></trkpt><trkpt lat="23.9057532046" lon="113.3417657856"><ele>791.30</ele><time>2013-02-16T05:54:21Z</time></trkpt><trkpt lat="23.9057532046" lon="113.3417657856"><ele>788.90</ele><time>2013-02-16T05:54:43Z</time></trkpt><trkpt lat="23.9057532046" lon="113.3417657856"><ele>792.26</ele><time>2013-02-16T05:54:45Z</time></trkpt><trkpt lat="23.9057532046" lon="113.3417657856"><ele>789.86</ele><time>2013-02-16T05:54:47Z</time></trkpt><trkpt lat="23.9057967905" lon="113.3417970501"><ele>790.34</ele><time>2013-02-16T05:55:10Z</time></trkpt><trkpt lat="23.9057967905" lon="113.3417970501"><ele>788.90</ele><time>2013-02-16T05:55:30Z</time></trkpt><trkpt lat="23.9057967905" lon="113.3417970501"><ele>792.26</ele><time>2013-02-16T05:55:31Z</time></trkpt><trkpt lat="23.9057967905" lon="113.3417970501"><ele>790.34</ele><time>2013-02-16T05:55:32Z</time></trkpt><trkpt lat="23.9058081899" lon="113.3417990617"><ele>790.34</ele><time>2013-02-16T05:55:57Z</time></trkpt><trkpt lat="23.9058174938" lon="113.3418044262"><ele>790.82</ele><time>2013-02-16T05:56:25Z</time></trkpt><trkpt lat="23.9058178291" lon="113.3418055158"><ele>791.30</ele><time>2013-02-16T05:57:00Z</time></trkpt><trkpt lat="23.9058188349" lon="113.3418070246"><ele>788.90</ele><time>2013-02-16T05:57:30Z</time></trkpt><trkpt lat="23.9058074355" lon="113.3417818788"><ele>787.94</ele><time>2013-02-16T05:57:50Z</time></trkpt><trkpt lat="23.9058110397" lon="113.3417437412"><ele>784.57</ele><time>2013-02-16T05:58:03Z</time></trkpt><trkpt lat="23.9058078546" lon="113.3417431545"><ele>787.94</ele><time>2013-02-16T05:58:04Z</time></trkpt><trkpt lat="23.9057753328" lon="113.3417053521"><ele>786.50</ele><time>2013-02-16T05:58:22Z</time></trkpt><trkpt lat="23.9057638496" lon="113.3416634426"><ele>785.05</ele><time>2013-02-16T05:58:42Z</time></trkpt><trkpt lat="23.9057638496" lon="113.3416634426"><ele>784.09</ele><time>2013-02-16T05:58:49Z</time></trkpt><trkpt lat="23.9057638496" lon="113.3416634426"><ele>783.61</ele><time>2013-02-16T05:59:01Z</time></trkpt><trkpt lat="23.9057638496" lon="113.3416634426"><ele>785.05</ele><time>2013-02-16T05:59:02Z</time></trkpt><trkpt lat="23.9056733251" lon="113.3417075314"><ele>784.57</ele><time>2013-02-16T05:59:21Z</time></trkpt><trkpt lat="23.9056930225" lon="113.3416191861"><ele>783.61</ele><time>2013-02-16T05:59:38Z</time></trkpt><trkpt lat="23.9056931064" lon="113.3416097146"><ele>781.21</ele><time>2013-02-16T05:59:40Z</time></trkpt><trkpt lat="23.9056953695" lon="113.3416073676"><ele>785.05</ele><time>2013-02-16T05:59:41Z</time></trkpt><trkpt lat="23.9056953695" lon="113.3416073676"><ele>783.13</ele><time>2013-02-16T05:59:42Z</time></trkpt><trkpt lat="23.9056905918" lon="113.3415968064"><ele>783.13</ele><time>2013-02-16T05:59:59Z</time></trkpt><trkpt lat="23.9057301544" lon="113.3415558189"><ele>780.73</ele><time>2013-02-16T06:00:20Z</time></trkpt><trkpt lat="23.9057505224" lon="113.3415527176"><ele>782.65</ele><time>2013-02-16T06:00:21Z</time></trkpt><trkpt lat="23.9058708865" lon="113.3414565772"><ele>780.25</ele><time>2013-02-16T06:00:46Z</time></trkpt><trkpt lat="23.9058536198" lon="113.3414373826"><ele>779.29</ele><time>2013-02-16T06:01:03Z</time></trkpt><trkpt lat="23.9058056753" lon="113.3414395619"><ele>778.81</ele><time>2013-02-16T06:01:23Z</time></trkpt><trkpt lat="23.9057834633" lon="113.3413974009"><ele>775.44</ele><time>2013-02-16T06:01:43Z</time></trkpt><trkpt lat="23.9057018235" lon="113.3413564134"><ele>774.96</ele><time>2013-02-16T06:02:02Z</time></trkpt><trkpt lat="23.9056880772" lon="113.3413457684"><ele>774.96</ele><time>2013-02-16T06:02:21Z</time></trkpt><trkpt lat="23.9057124685" lon="113.3412998356"><ele>776.40</ele><time>2013-02-16T06:02:30Z</time></trkpt><trkpt lat="23.9057332557" lon="113.3412684035"><ele>773.52</ele><time>2013-02-16T06:02:39Z</time></trkpt><trkpt lat="23.9057186712" lon="113.3412585128"><ele>774.00</ele><time>2013-02-16T06:02:46Z</time></trkpt><trkpt lat="23.9057376143" lon="113.3412326127"><ele>773.04</ele><time>2013-02-16T06:03:05Z</time></trkpt><trkpt lat="23.9057602454" lon="113.3412325289"><ele>773.04</ele><time>2013-02-16T06:03:25Z</time></trkpt><trkpt lat="23.9057388715" lon="113.3412070479"><ele>772.56</ele><time>2013-02-16T06:03:42Z</time></trkpt><trkpt lat="23.9057294000" lon="113.3411806449"><ele>767.75</ele><time>2013-02-16T06:03:55Z</time></trkpt><trkpt lat="23.9057287294" lon="113.3411786333"><ele>774.00</ele><time>2013-02-16T06:03:56Z</time></trkpt><trkpt lat="23.9057264663" lon="113.3411724307"><ele>771.11</ele><time>2013-02-16T06:03:59Z</time></trkpt><trkpt lat="23.9056919329" lon="113.3411355503"><ele>770.63</ele><time>2013-02-16T06:04:20Z</time></trkpt><trkpt lat="23.9056862332" lon="113.3411314432"><ele>768.71</ele><time>2013-02-16T06:04:42Z</time></trkpt><trkpt lat="23.9057919290" lon="113.3410347160"><ele>768.23</ele><time>2013-02-16T06:05:05Z</time></trkpt><trkpt lat="23.9058667794" lon="113.3409240749"><ele>767.75</ele><time>2013-02-16T06:05:22Z</time></trkpt><trkpt lat="23.9058703836" lon="113.3409225661"><ele>764.87</ele><time>2013-02-16T06:05:23Z</time></trkpt><trkpt lat="23.9058734849" lon="113.3409216441"><ele>770.15</ele><time>2013-02-16T06:05:24Z</time></trkpt><trkpt lat="23.9058756642" lon="113.3409196325"><ele>770.15</ele><time>2013-02-16T06:05:25Z</time></trkpt><trkpt lat="23.9058771729" lon="113.3408626355"><ele>766.31</ele><time>2013-02-16T06:05:39Z</time></trkpt><trkpt lat="23.9058855549" lon="113.3408524934"><ele>767.27</ele><time>2013-02-16T06:05:59Z</time></trkpt><trkpt lat="23.9058734849" lon="113.3408607915"><ele>766.31</ele><time>2013-02-16T06:06:09Z</time></trkpt><trkpt lat="23.9057802781" lon="113.3408373222"><ele>764.87</ele><time>2013-02-16T06:06:27Z</time></trkpt><trkpt lat="23.9057884924" lon="113.3408088237"><ele>764.87</ele><time>2013-02-16T06:06:47Z</time></trkpt><trkpt lat="23.9058166556" lon="113.3407613821"><ele>764.39</ele><time>2013-02-16T06:07:07Z</time></trkpt><trkpt lat="23.9058085252" lon="113.3407525811"><ele>763.90</ele><time>2013-02-16T06:07:26Z</time></trkpt><trkpt lat="23.9057802781" lon="113.3407074027"><ele>761.98</ele><time>2013-02-16T06:07:48Z</time></trkpt><trkpt lat="23.9058160689" lon="113.3407643158"><ele>761.98</ele><time>2013-02-16T06:08:08Z</time></trkpt><trkpt lat="23.9058094472" lon="113.3407634776"><ele>750.45</ele><time>2013-02-16T06:08:12Z</time></trkpt><trkpt lat="23.9058094472" lon="113.3407634776"><ele>765.83</ele><time>2013-02-16T06:08:13Z</time></trkpt><trkpt lat="23.9058094472" lon="113.3407634776"><ele>760.54</ele><time>2013-02-16T06:08:14Z</time></trkpt><trkpt lat="23.9058094472" lon="113.3407634776"><ele>764.39</ele><time>2013-02-16T06:08:15Z</time></trkpt><trkpt lat="23.9058108721" lon="113.3407492284"><ele>760.54</ele><time>2013-02-16T06:08:21Z</time></trkpt><trkpt lat="23.9058132190" lon="113.3407415170"><ele>751.89</ele><time>2013-02-16T06:08:22Z</time></trkpt><trkpt lat="23.9058154821" lon="113.3407322131"><ele>765.83</ele><time>2013-02-16T06:08:23Z</time></trkpt><trkpt lat="23.9058196731" lon="113.3407152817"><ele>766.31</ele><time>2013-02-16T06:08:24Z</time></trkpt><trkpt lat="23.9058230259" lon="113.3407026250"><ele>761.50</ele><time>2013-02-16T06:08:25Z</time></trkpt><trkpt lat="23.9058434777" lon="113.3406567760"><ele>761.98</ele><time>2013-02-16T06:08:30Z</time></trkpt><trkpt lat="23.9058625046" lon="113.3406362403"><ele>760.06</ele><time>2013-02-16T06:08:33Z</time></trkpt><trkpt lat="23.9058835432" lon="113.3406053949"><ele>755.73</ele><time>2013-02-16T06:08:39Z</time></trkpt><trkpt lat="23.9058815315" lon="113.3406059816"><ele>762.46</ele><time>2013-02-16T06:08:40Z</time></trkpt><trkpt lat="23.9058792684" lon="113.3406065684"><ele>759.58</ele><time>2013-02-16T06:08:41Z</time></trkpt><trkpt lat="23.9058670308" lon="113.3405908942"><ele>760.06</ele><time>2013-02-16T06:08:46Z</time></trkpt><trkpt lat="23.9058501832" lon="113.3405760583"><ele>758.62</ele><time>2013-02-16T06:08:49Z</time></trkpt><trkpt lat="23.9058445673" lon="113.3405711129"><ele>757.18</ele><time>2013-02-16T06:08:50Z</time></trkpt><trkpt lat="23.9058389515" lon="113.3405661676"><ele>758.62</ele><time>2013-02-16T06:08:51Z</time></trkpt><trkpt lat="23.9058164041" lon="113.3405464701"><ele>759.58</ele><time>2013-02-16T06:08:55Z</time></trkpt><trkpt lat="23.9057843015" lon="113.3405183069"><ele>756.21</ele><time>2013-02-16T06:09:01Z</time></trkpt><trkpt lat="23.9057786856" lon="113.3405133616"><ele>741.79</ele><time>2013-02-16T06:09:02Z</time></trkpt><trkpt lat="23.9058288932" lon="113.3404746372"><ele>771.11</ele><time>2013-02-16T06:09:03Z</time></trkpt><trkpt lat="23.9058327489" lon="113.3404763136"><ele>762.46</ele><time>2013-02-16T06:09:04Z</time></trkpt><trkpt lat="23.9058382809" lon="113.3404753078"><ele>758.14</ele><time>2013-02-16T06:09:05Z</time></trkpt><trkpt lat="23.9058558829" lon="113.3404720388"><ele>758.62</ele><time>2013-02-16T06:09:08Z</time></trkpt><trkpt lat="23.9059214294" lon="113.3404598013"><ele>757.18</ele><time>2013-02-16T06:09:20Z</time></trkpt><trkpt lat="23.9059269615" lon="113.3404587954"><ele>758.62</ele><time>2013-02-16T06:09:21Z</time></trkpt><trkpt lat="23.9059324935" lon="113.3404577896"><ele>757.18</ele><time>2013-02-16T06:09:22Z</time></trkpt><trkpt lat="23.9059380256" lon="113.3404567000"><ele>758.62</ele><time>2013-02-16T06:09:23Z</time></trkpt><trkpt lat="23.9059710503" lon="113.3404505812"><ele>756.21</ele><time>2013-02-16T06:09:29Z</time></trkpt><trkpt lat="23.9059764985" lon="113.3404494915"><ele>758.62</ele><time>2013-02-16T06:09:30Z</time></trkpt><trkpt lat="23.9059877302" lon="113.3404474799"><ele>756.69</ele><time>2013-02-16T06:09:32Z</time></trkpt><trkpt lat="23.9062393550" lon="113.3403044008"><ele>756.69</ele><time>2013-02-16T06:11:15Z</time></trkpt><trkpt lat="23.9060040750" lon="113.3403701149"><ele>752.85</ele><time>2013-02-16T06:11:40Z</time></trkpt><trkpt lat="23.9060067572" lon="113.3403705340"><ele>763.42</ele><time>2013-02-16T06:11:42Z</time></trkpt><trkpt lat="23.9060060028" lon="113.3403733838"><ele>756.69</ele><time>2013-02-16T06:11:43Z</time></trkpt><trkpt lat="23.9059976209" lon="113.3403667621"><ele>754.77</ele><time>2013-02-16T06:12:06Z</time></trkpt><trkpt lat="23.9059642609" lon="113.3403546922"><ele>758.14</ele><time>2013-02-16T06:12:12Z</time></trkpt><trkpt lat="23.9059210941" lon="113.3403766528"><ele>752.85</ele><time>2013-02-16T06:12:19Z</time></trkpt><trkpt lat="23.9059226029" lon="113.3403764013"><ele>758.14</ele><time>2013-02-16T06:12:20Z</time></trkpt><trkpt lat="23.9058833756" lon="113.3403838612"><ele>754.77</ele><time>2013-02-16T06:12:34Z</time></trkpt><trkpt lat="23.9059011452" lon="113.3403870463"><ele>756.21</ele><time>2013-02-16T06:12:51Z</time></trkpt><trkpt lat="23.9058330003" lon="113.3403847832"><ele>755.73</ele><time>2013-02-16T06:13:13Z</time></trkpt><trkpt lat="23.9058200084" lon="113.3403712045"><ele>755.73</ele><time>2013-02-16T06:13:31Z</time></trkpt><trkpt lat="23.9058287255" lon="113.3403424546"><ele>755.73</ele><time>2013-02-16T06:13:52Z</time></trkpt><trkpt lat="23.9058117941" lon="113.3403753955"><ele>755.73</ele><time>2013-02-16T06:14:13Z</time></trkpt><trkpt lat="23.9058043342" lon="113.3403883874"><ele>744.68</ele><time>2013-02-16T06:14:20Z</time></trkpt><trkpt lat="23.9058004785" lon="113.3403872978"><ele>757.18</ele><time>2013-02-16T06:14:21Z</time></trkpt><trkpt lat="23.9058053400" lon="113.3403757308"><ele>753.81</ele><time>2013-02-16T06:14:24Z</time></trkpt><trkpt lat="23.9058252890" lon="113.3403427061"><ele>754.77</ele><time>2013-02-16T06:14:29Z</time></trkpt><trkpt lat="23.9058278035" lon="113.3403422870"><ele>750.93</ele><time>2013-02-16T06:14:31Z</time></trkpt><trkpt lat="23.9058278035" lon="113.3403422870"><ele>754.77</ele><time>2013-02-16T06:14:32Z</time></trkpt><trkpt lat="23.9058247861" lon="113.3403369226"><ele>753.81</ele><time>2013-02-16T06:14:53Z</time></trkpt><trkpt lat="23.9057504386" lon="113.3403204940"><ele>747.56</ele><time>2013-02-16T06:15:15Z</time></trkpt><trkpt lat="23.9057504386" lon="113.3403204940"><ele>755.73</ele><time>2013-02-16T06:15:16Z</time></trkpt><trkpt lat="23.9057504386" lon="113.3403204940"><ele>753.81</ele><time>2013-02-16T06:15:17Z</time></trkpt><trkpt lat="23.9057737403" lon="113.3402844518"><ele>751.89</ele><time>2013-02-16T06:15:35Z</time></trkpt><trkpt lat="23.9057739079" lon="113.3402666822"><ele>751.41</ele><time>2013-02-16T06:15:54Z</time></trkpt><trkpt lat="23.9057853911" lon="113.3402424585"><ele>748.52</ele><time>2013-02-16T06:16:05Z</time></trkpt><trkpt lat="23.9057946112" lon="113.3402215037"><ele>752.85</ele><time>2013-02-16T06:16:06Z</time></trkpt><trkpt lat="23.9057919290" lon="113.3402032312"><ele>750.45</ele><time>2013-02-16T06:16:26Z</time></trkpt><trkpt lat="23.9058047533" lon="113.3401865512"><ele>749.49</ele><time>2013-02-16T06:16:45Z</time></trkpt><trkpt lat="23.9057936054" lon="113.3401619084"><ele>749.00</ele><time>2013-02-16T06:16:59Z</time></trkpt><trkpt lat="23.9058062620" lon="113.3401203342"><ele>748.52</ele><time>2013-02-16T06:17:12Z</time></trkpt><trkpt lat="23.9058062620" lon="113.3401203342"><ele>745.16</ele><time>2013-02-16T06:17:27Z</time></trkpt><trkpt lat="23.9058040828" lon="113.3401174005"><ele>749.97</ele><time>2013-02-16T06:17:28Z</time></trkpt><trkpt lat="23.9058030769" lon="113.3401127905"><ele>748.52</ele><time>2013-02-16T06:17:30Z</time></trkpt><trkpt lat="23.9058020711" lon="113.3400947694"><ele>742.76</ele><time>2013-02-16T06:17:38Z</time></trkpt><trkpt lat="23.9058020711" lon="113.3400947694"><ele>746.12</ele><time>2013-02-16T06:17:39Z</time></trkpt><trkpt lat="23.9058020711" lon="113.3400947694"><ele>743.72</ele><time>2013-02-16T06:17:47Z</time></trkpt><trkpt lat="23.9058020711" lon="113.3400947694"><ele>748.52</ele><time>2013-02-16T06:17:48Z</time></trkpt><trkpt lat="23.9058020711" lon="113.3400947694"><ele>745.64</ele><time>2013-02-16T06:17:49Z</time></trkpt><trkpt lat="23.9057970420" lon="113.3400937635"><ele>745.64</ele><time>2013-02-16T06:17:55Z</time></trkpt><trkpt lat="23.9057734050" lon="113.3400862198"><ele>742.76</ele><time>2013-02-16T06:18:03Z</time></trkpt><trkpt lat="23.9057734050" lon="113.3400862198"><ele>746.60</ele><time>2013-02-16T06:18:04Z</time></trkpt><trkpt lat="23.9057734050" lon="113.3400862198"><ele>743.24</ele><time>2013-02-16T06:18:15Z</time></trkpt><trkpt lat="23.9057734050" lon="113.3400862198"><ele>747.08</ele><time>2013-02-16T06:18:16Z</time></trkpt><trkpt lat="23.9057790209" lon="113.3400832862"><ele>741.79</ele><time>2013-02-16T06:18:39Z</time></trkpt><trkpt lat="23.9057790209" lon="113.3400832862"><ele>743.24</ele><time>2013-02-16T06:18:40Z</time></trkpt><trkpt lat="23.9057812840" lon="113.3400762454"><ele>746.60</ele><time>2013-02-16T06:18:42Z</time></trkpt><trkpt lat="23.9057837147" lon="113.3400588110"><ele>742.76</ele><time>2013-02-16T06:18:54Z</time></trkpt><trkpt lat="23.9057845529" lon="113.3400576375"><ele>738.43</ele><time>2013-02-16T06:18:55Z</time></trkpt><trkpt lat="23.9057841338" lon="113.3400548715"><ele>741.79</ele><time>2013-02-16T06:18:56Z</time></trkpt><trkpt lat="23.9057843015" lon="113.3400514349"><ele>751.89</ele><time>2013-02-16T06:18:57Z</time></trkpt><trkpt lat="23.9057826251" lon="113.3400477469"><ele>744.20</ele><time>2013-02-16T06:18:58Z</time></trkpt><trkpt lat="23.9057784341" lon="113.3400441427"><ele>741.31</ele><time>2013-02-16T06:19:01Z</time></trkpt><trkpt lat="23.9057806972" lon="113.3400448970"><ele>745.64</ele><time>2013-02-16T06:19:02Z</time></trkpt><trkpt lat="23.9057801943" lon="113.3400459029"><ele>744.20</ele><time>2013-02-16T06:19:04Z</time></trkpt><trkpt lat="23.9057802781" lon="113.3400538657"><ele>741.79</ele><time>2013-02-16T06:19:09Z</time></trkpt><trkpt lat="23.9057802781" lon="113.3400542010"><ele>745.16</ele><time>2013-02-16T06:19:10Z</time></trkpt><trkpt lat="23.9057802781" lon="113.3400538657"><ele>745.16</ele><time>2013-02-16T06:19:11Z</time></trkpt><trkpt lat="23.9057802781" lon="113.3400538657"><ele>742.76</ele><time>2013-02-16T06:19:13Z</time></trkpt><trkpt lat="23.9058163203" lon="113.3400360961"><ele>742.76</ele><time>2013-02-16T06:19:31Z</time></trkpt><trkpt lat="23.9058153983" lon="113.3400241099"><ele>741.31</ele><time>2013-02-16T06:19:45Z</time></trkpt><trkpt lat="23.9058154821" lon="113.3400179911"><ele>743.24</ele><time>2013-02-16T06:19:46Z</time></trkpt><trkpt lat="23.9058128837" lon="113.3399919234"><ele>742.28</ele><time>2013-02-16T06:19:58Z</time></trkpt><trkpt lat="23.9057978801" lon="113.3399494272"><ele>740.35</ele><time>2013-02-16T06:20:15Z</time></trkpt><trkpt lat="23.9057978801" lon="113.3399494272"><ele>742.76</ele><time>2013-02-16T06:20:17Z</time></trkpt><trkpt lat="23.9058162365" lon="113.3399509359"><ele>739.87</ele><time>2013-02-16T06:20:30Z</time></trkpt><trkpt lat="23.9058162365" lon="113.3399509359"><ele>741.31</ele><time>2013-02-16T06:20:32Z</time></trkpt><trkpt lat="23.9058149792" lon="113.3399511036"><ele>735.07</ele><time>2013-02-16T06:20:36Z</time></trkpt><trkpt lat="23.9058155660" lon="113.3399483375"><ele>747.56</ele><time>2013-02-16T06:20:37Z</time></trkpt><trkpt lat="23.9058143925" lon="113.3399383631"><ele>741.79</ele><time>2013-02-16T06:20:38Z</time></trkpt><trkpt lat="23.9058156498" lon="113.3399386983"><ele>738.91</ele><time>2013-02-16T06:20:40Z</time></trkpt><trkpt lat="23.9058156498" lon="113.3399386983"><ele>741.31</ele><time>2013-02-16T06:20:41Z</time></trkpt><trkpt lat="23.9058209304" lon="113.3399152290"><ele>739.87</ele><time>2013-02-16T06:21:01Z</time></trkpt><trkpt lat="23.9058269653" lon="113.3399061766"><ele>740.35</ele><time>2013-02-16T06:21:03Z</time></trkpt><trkpt lat="23.9058875665" lon="113.3398459107"><ele>737.47</ele><time>2013-02-16T06:21:15Z</time></trkpt><trkpt lat="23.9058858901" lon="113.3398470003"><ele>737.47</ele><time>2013-02-16T06:21:16Z</time></trkpt><trkpt lat="23.9058832917" lon="113.3398487605"><ele>741.31</ele><time>2013-02-16T06:21:17Z</time></trkpt><trkpt lat="23.9058816992" lon="113.3398516942"><ele>738.91</ele><time>2013-02-16T06:21:18Z</time></trkpt><trkpt lat="23.9058728144" lon="113.3398716431"><ele>737.95</ele><time>2013-02-16T06:21:21Z</time></trkpt><trkpt lat="23.9058148116" lon="113.3399138879"><ele>735.55</ele><time>2013-02-16T06:21:41Z</time></trkpt><trkpt lat="23.9058148116" lon="113.3399138879"><ele>737.47</ele><time>2013-02-16T06:21:42Z</time></trkpt><trkpt lat="23.9058148116" lon="113.3399138879"><ele>736.03</ele><time>2013-02-16T06:21:43Z</time></trkpt><trkpt lat="23.9058139734" lon="113.3399125468"><ele>740.35</ele><time>2013-02-16T06:21:45Z</time></trkpt><trkpt lat="23.9058148954" lon="113.3399124630"><ele>734.10</ele><time>2013-02-16T06:21:46Z</time></trkpt><trkpt lat="23.9058157336" lon="113.3399122953"><ele>739.87</ele><time>2013-02-16T06:21:47Z</time></trkpt><trkpt lat="23.9058195055" lon="113.3398724813"><ele>736.99</ele><time>2013-02-16T06:21:48Z</time></trkpt><trkpt lat="23.9058929309" lon="113.3397438191"><ele>736.51</ele><time>2013-02-16T06:22:06Z</time></trkpt><trkpt lat="23.9059176575" lon="113.3396900911"><ele>735.07</ele><time>2013-02-16T06:22:23Z</time></trkpt><trkpt lat="23.9059334155" lon="113.3396530431"><ele>728.82</ele><time>2013-02-16T06:22:34Z</time></trkpt><trkpt lat="23.9059334155" lon="113.3396530431"><ele>735.07</ele><time>2013-02-16T06:22:35Z</time></trkpt><trkpt lat="23.9059334155" lon="113.3396530431"><ele>739.87</ele><time>2013-02-16T06:22:39Z</time></trkpt><trkpt lat="23.9059334155" lon="113.3396530431"><ele>735.07</ele><time>2013-02-16T06:22:40Z</time></trkpt><trkpt lat="23.9059334155" lon="113.3396530431"><ele>734.10</ele><time>2013-02-16T06:22:42Z</time></trkpt><trkpt lat="23.9059334155" lon="113.3396530431"><ele>732.18</ele><time>2013-02-16T06:22:46Z</time></trkpt><trkpt lat="23.9059334155" lon="113.3396530431"><ele>733.62</ele><time>2013-02-16T06:22:48Z</time></trkpt><trkpt lat="23.9059334155" lon="113.3396530431"><ele>729.78</ele><time>2013-02-16T06:22:51Z</time></trkpt><trkpt lat="23.9059334155" lon="113.3396530431"><ele>736.99</ele><time>2013-02-16T06:22:52Z</time></trkpt><trkpt lat="23.9059334155" lon="113.3396530431"><ele>733.14</ele><time>2013-02-16T06:22:54Z</time></trkpt><trkpt lat="23.9059334155" lon="113.3396530431"><ele>733.14</ele><time>2013-02-16T06:22:55Z</time></trkpt><trkpt lat="23.9059380256" lon="113.3396344353"><ele>722.57</ele><time>2013-02-16T06:23:08Z</time></trkpt><trkpt lat="23.9059380256" lon="113.3396344353"><ele>742.76</ele><time>2013-02-16T06:23:09Z</time></trkpt><trkpt lat="23.9059380256" lon="113.3396344353"><ele>734.58</ele><time>2013-02-16T06:23:10Z</time></trkpt><trkpt lat="23.9059380256" lon="113.3396344353"><ele>733.14</ele><time>2013-02-16T06:23:13Z</time></trkpt><trkpt lat="23.9059432223" lon="113.3396215271"><ele>732.66</ele><time>2013-02-16T06:23:33Z</time></trkpt><trkpt lat="23.9059415460" lon="113.3396116365"><ele>732.66</ele><time>2013-02-16T06:24:02Z</time></trkpt><trkpt lat="23.9059332479" lon="113.3395421505"><ele>733.14</ele><time>2013-02-16T06:24:25Z</time></trkpt><trkpt lat="23.9059332479" lon="113.3395421505"><ele>729.78</ele><time>2013-02-16T06:24:37Z</time></trkpt><trkpt lat="23.9059332479" lon="113.3395421505"><ele>734.58</ele><time>2013-02-16T06:24:38Z</time></trkpt><trkpt lat="23.9059318230" lon="113.3395382110"><ele>730.26</ele><time>2013-02-16T06:24:46Z</time></trkpt><trkpt lat="23.9059318230" lon="113.3395382110"><ele>733.62</ele><time>2013-02-16T06:24:48Z</time></trkpt><trkpt lat="23.9059318230" lon="113.3395382110"><ele>733.62</ele><time>2013-02-16T06:24:49Z</time></trkpt><trkpt lat="23.9059318230" lon="113.3395382110"><ele>729.78</ele><time>2013-02-16T06:24:57Z</time></trkpt><trkpt lat="23.9059258718" lon="113.3395115566"><ele>730.74</ele><time>2013-02-16T06:25:17Z</time></trkpt><trkpt lat="23.9059256203" lon="113.3395120595"><ele>729.30</ele><time>2013-02-16T06:25:40Z</time></trkpt><trkpt lat="23.9059230220" lon="113.3394487761"><ele>727.86</ele><time>2013-02-16T06:25:56Z</time></trkpt><trkpt lat="23.9059297275" lon="113.3394029271"><ele>724.97</ele><time>2013-02-16T06:26:20Z</time></trkpt><trkpt lat="23.9059437253" lon="113.3393955510"><ele>724.97</ele><time>2013-02-16T06:26:21Z</time></trkpt><trkpt lat="23.9059463236" lon="113.3393905219"><ele>729.78</ele><time>2013-02-16T06:26:22Z</time></trkpt><trkpt lat="23.9059463236" lon="113.3393905219"><ele>726.89</ele><time>2013-02-16T06:26:23Z</time></trkpt><trkpt lat="23.9059463236" lon="113.3393905219"><ele>726.41</ele><time>2013-02-16T06:26:25Z</time></trkpt><trkpt lat="23.9059588965" lon="113.3393462654"><ele>726.41</ele><time>2013-02-16T06:26:43Z</time></trkpt><trkpt lat="23.9059242792" lon="113.3393218741"><ele>725.45</ele><time>2013-02-16T06:27:03Z</time></trkpt><trkpt lat="23.9059169870" lon="113.3392374683"><ele>724.49</ele><time>2013-02-16T06:27:18Z</time></trkpt><trkpt lat="23.9059171546" lon="113.3392304275"><ele>723.53</ele><time>2013-02-16T06:27:37Z</time></trkpt><trkpt lat="23.9059027378" lon="113.3391901106"><ele>723.05</ele><time>2013-02-16T06:27:53Z</time></trkpt><trkpt lat="23.9059167355" lon="113.3391737659"><ele>722.57</ele><time>2013-02-16T06:27:57Z</time></trkpt><trkpt lat="23.9059491735" lon="113.3391185291"><ele>718.72</ele><time>2013-02-16T06:28:11Z</time></trkpt><trkpt lat="23.9059455693" lon="113.3391191158"><ele>713.92</ele><time>2013-02-16T06:28:12Z</time></trkpt><trkpt lat="23.9059408754" lon="113.3391194511"><ele>713.92</ele><time>2013-02-16T06:28:13Z</time></trkpt><trkpt lat="23.9059357625" lon="113.3391197864"><ele>730.26</ele><time>2013-02-16T06:28:14Z</time></trkpt><trkpt lat="23.9059309009" lon="113.3391202055"><ele>722.57</ele><time>2013-02-16T06:28:15Z</time></trkpt><trkpt lat="23.9059169032" lon="113.3391166013"><ele>719.20</ele><time>2013-02-16T06:28:19Z</time></trkpt><trkpt lat="23.9059431385" lon="113.3390009310"><ele>720.16</ele><time>2013-02-16T06:28:33Z</time></trkpt><trkpt lat="23.9059568848" lon="113.3389758691"><ele>718.72</ele><time>2013-02-16T06:28:46Z</time></trkpt><trkpt lat="23.9059536997" lon="113.3389770426"><ele>718.72</ele><time>2013-02-16T06:29:09Z</time></trkpt><trkpt lat="23.9059536997" lon="113.3389770426"><ele>719.20</ele><time>2013-02-16T06:29:34Z</time></trkpt><trkpt lat="23.9059584774" lon="113.3389710076"><ele>718.72</ele><time>2013-02-16T06:29:56Z</time></trkpt><trkpt lat="23.9059233572" lon="113.3389819879"><ele>719.20</ele><time>2013-02-16T06:30:14Z</time></trkpt><trkpt lat="23.9059050009" lon="113.3390010148"><ele>719.20</ele><time>2013-02-16T06:30:36Z</time></trkpt><trkpt lat="23.9058525302" lon="113.3390128333"><ele>718.72</ele><time>2013-02-16T06:30:47Z</time></trkpt><trkpt lat="23.9057817031" lon="113.3389481250"><ele>716.80</ele><time>2013-02-16T06:31:02Z</time></trkpt><trkpt lat="23.9057799429" lon="113.3389479574"><ele>719.68</ele><time>2013-02-16T06:31:03Z</time></trkpt><trkpt lat="23.9057850558" lon="113.3389486279"><ele>718.24</ele><time>2013-02-16T06:31:05Z</time></trkpt><trkpt lat="23.9057850558" lon="113.3389486279"><ele>718.24</ele><time>2013-02-16T06:31:07Z</time></trkpt><trkpt lat="23.9058069326" lon="113.3389239851"><ele>716.80</ele><time>2013-02-16T06:31:28Z</time></trkpt><trkpt lat="23.9058069326" lon="113.3389239851"><ele>713.44</ele><time>2013-02-16T06:31:32Z</time></trkpt><trkpt lat="23.9058069326" lon="113.3389239851"><ele>719.20</ele><time>2013-02-16T06:31:33Z</time></trkpt><trkpt lat="23.9058069326" lon="113.3389239851"><ele>715.84</ele><time>2013-02-16T06:31:36Z</time></trkpt><trkpt lat="23.9058069326" lon="113.3389239851"><ele>715.84</ele><time>2013-02-16T06:31:37Z</time></trkpt><trkpt lat="23.9059092756" lon="113.3388094045"><ele>714.88</ele><time>2013-02-16T06:31:54Z</time></trkpt><trkpt lat="23.9059108682" lon="113.3387975860"><ele>711.51</ele><time>2013-02-16T06:32:06Z</time></trkpt><trkpt lat="23.9059100300" lon="113.3387917187"><ele>715.84</ele><time>2013-02-16T06:32:07Z</time></trkpt><trkpt lat="23.9059256203" lon="113.3387756255"><ele>711.03</ele><time>2013-02-16T06:32:15Z</time></trkpt><trkpt lat="23.9059280511" lon="113.3387695905"><ele>717.76</ele><time>2013-02-16T06:32:16Z</time></trkpt><trkpt lat="23.9059280511" lon="113.3387695905"><ele>714.40</ele><time>2013-02-16T06:32:17Z</time></trkpt><trkpt lat="23.9059450664" lon="113.3387348894"><ele>710.07</ele><time>2013-02-16T06:32:36Z</time></trkpt><trkpt lat="23.9059485868" lon="113.3387306985"><ele>714.88</ele><time>2013-02-16T06:32:37Z</time></trkpt><trkpt lat="23.9059518557" lon="113.3387273457"><ele>712.47</ele><time>2013-02-16T06:32:46Z</time></trkpt><trkpt lat="23.9059496764" lon="113.3387159463"><ele>711.99</ele><time>2013-02-16T06:33:07Z</time></trkpt><trkpt lat="23.9059496764" lon="113.3387159463"><ele>707.19</ele><time>2013-02-16T06:33:17Z</time></trkpt><trkpt lat="23.9059496764" lon="113.3387159463"><ele>697.57</ele><time>2013-02-16T06:33:18Z</time></trkpt><trkpt lat="23.9059496764" lon="113.3387159463"><ele>724.49</ele><time>2013-02-16T06:33:19Z</time></trkpt><trkpt lat="23.9059496764" lon="113.3387159463"><ele>711.99</ele><time>2013-02-16T06:33:20Z</time></trkpt><trkpt lat="23.9059496764" lon="113.3387159463"><ele>711.03</ele><time>2013-02-16T06:33:22Z</time></trkpt><trkpt lat="23.9059574716" lon="113.3386830054"><ele>709.59</ele><time>2013-02-16T06:33:33Z</time></trkpt><trkpt lat="23.9059328288" lon="113.3386531658"><ele>709.59</ele><time>2013-02-16T06:33:54Z</time></trkpt><trkpt lat="23.9059194177" lon="113.3386106696"><ele>703.82</ele><time>2013-02-16T06:34:14Z</time></trkpt><trkpt lat="23.9059194177" lon="113.3386106696"><ele>712.47</ele><time>2013-02-16T06:34:15Z</time></trkpt><trkpt lat="23.9059194177" lon="113.3386106696"><ele>710.55</ele><time>2013-02-16T06:34:16Z</time></trkpt><trkpt lat="23.9059194177" lon="113.3386106696"><ele>707.19</ele><time>2013-02-16T06:34:17Z</time></trkpt><trkpt lat="23.9059194177" lon="113.3386106696"><ele>709.59</ele><time>2013-02-16T06:34:18Z</time></trkpt><trkpt lat="23.9059194177" lon="113.3386106696"><ele>706.23</ele><time>2013-02-16T06:34:19Z</time></trkpt><trkpt lat="23.9059194177" lon="113.3386106696"><ele>710.55</ele><time>2013-02-16T06:34:21Z</time></trkpt><trkpt lat="23.9059215970" lon="113.3386144415"><ele>706.71</ele><time>2013-02-16T06:34:22Z</time></trkpt><trkpt lat="23.9059175737" lon="113.3386544231"><ele>707.67</ele><time>2013-02-16T06:34:44Z</time></trkpt><trkpt lat="23.9059175737" lon="113.3386544231"><ele>708.15</ele><time>2013-02-16T06:35:10Z</time></trkpt><trkpt lat="23.9059285540" lon="113.3385804947"><ele>707.67</ele><time>2013-02-16T06:35:21Z</time></trkpt><trkpt lat="23.9059724752" lon="113.3384022117"><ele>705.75</ele><time>2013-02-16T06:35:41Z</time></trkpt><trkpt lat="23.9059790969" lon="113.3383727912"><ele>704.78</ele><time>2013-02-16T06:35:57Z</time></trkpt><trkpt lat="23.9059804380" lon="113.3383546025"><ele>685.08</ele><time>2013-02-16T06:36:08Z</time></trkpt><trkpt lat="23.9059779234" lon="113.3383505791"><ele>721.13</ele><time>2013-02-16T06:36:09Z</time></trkpt><trkpt lat="23.9059743192" lon="113.3383480646"><ele>705.75</ele><time>2013-02-16T06:36:10Z</time></trkpt><trkpt lat="23.9059423003" lon="113.3383625653"><ele>703.34</ele><time>2013-02-16T06:36:26Z</time></trkpt><trkpt lat="23.9059645962" lon="113.3383267745"><ele>702.86</ele><time>2013-02-16T06:36:42Z</time></trkpt><trkpt lat="23.9060139656" lon="113.3382754773"><ele>702.86</ele><time>2013-02-16T06:37:00Z</time></trkpt><trkpt lat="23.9060889836" lon="113.3382588811"><ele>699.50</ele><time>2013-02-16T06:37:15Z</time></trkpt><trkpt lat="23.9060928393" lon="113.3382561151"><ele>704.78</ele><time>2013-02-16T06:37:16Z</time></trkpt><trkpt lat="23.9060960244" lon="113.3382533491"><ele>701.42</ele><time>2013-02-16T06:37:18Z</time></trkpt><trkpt lat="23.9061028138" lon="113.3382069971"><ele>701.42</ele><time>2013-02-16T06:37:38Z</time></trkpt><trkpt lat="23.9060950186" lon="113.3381800074"><ele>701.90</ele><time>2013-02-16T06:37:59Z</time></trkpt><trkpt lat="23.9060950186" lon="113.3381800074"><ele>700.94</ele><time>2013-02-16T06:38:11Z</time></trkpt><trkpt lat="23.9061353356" lon="113.3381505869"><ele>699.50</ele><time>2013-02-16T06:38:27Z</time></trkpt><trkpt lat="23.9061401971" lon="113.3381411154"><ele>698.53</ele><time>2013-02-16T06:38:31Z</time></trkpt><trkpt lat="23.9061401971" lon="113.3381411154"><ele>699.50</ele><time>2013-02-16T06:38:33Z</time></trkpt><trkpt lat="23.9061309770" lon="113.3381635789"><ele>699.98</ele><time>2013-02-16T06:38:53Z</time></trkpt><trkpt lat="23.9061194099" lon="113.3382696938"><ele>699.50</ele><time>2013-02-16T06:39:12Z</time></trkpt><trkpt lat="23.9061374310" lon="113.3382451348"><ele>697.09</ele><time>2013-02-16T06:39:18Z</time></trkpt><trkpt lat="23.9061445557" lon="113.3382308856"><ele>700.46</ele><time>2013-02-16T06:39:20Z</time></trkpt><trkpt lat="23.9061515965" lon="113.3382216655"><ele>700.46</ele><time>2013-02-16T06:39:21Z</time></trkpt><trkpt lat="23.9061693661" lon="113.3382054884"><ele>699.02</ele><time>2013-02-16T06:39:23Z</time></trkpt><trkpt lat="23.9062728826" lon="113.3381502517"><ele>697.09</ele><time>2013-02-16T06:39:42Z</time></trkpt><trkpt lat="23.9063100982" lon="113.3380979486"><ele>696.61</ele><time>2013-02-16T06:40:00Z</time></trkpt><trkpt lat="23.9063324779" lon="113.3380517643"><ele>697.57</ele><time>2013-02-16T06:40:14Z</time></trkpt><trkpt lat="23.9063810930" lon="113.3380370960"><ele>694.69</ele><time>2013-02-16T06:40:31Z</time></trkpt><trkpt lat="23.9063810930" lon="113.3380370960"><ele>694.69</ele><time>2013-02-16T06:40:32Z</time></trkpt><trkpt lat="23.9064177219" lon="113.3379367646"><ele>694.69</ele><time>2013-02-16T06:40:48Z</time></trkpt><trkpt lat="23.9064156264" lon="113.3379272930"><ele>689.40</ele><time>2013-02-16T06:40:53Z</time></trkpt><trkpt lat="23.9064107649" lon="113.3379204199"><ele>698.05</ele><time>2013-02-16T06:40:54Z</time></trkpt><trkpt lat="23.9064090047" lon="113.3379127085"><ele>695.17</ele><time>2013-02-16T06:40:55Z</time></trkpt><trkpt lat="23.9064065740" lon="113.3379070088"><ele>690.84</ele><time>2013-02-16T06:40:56Z</time></trkpt><trkpt lat="23.9064065740" lon="113.3379070088"><ele>695.17</ele><time>2013-02-16T06:40:57Z</time></trkpt><trkpt lat="23.9064065740" lon="113.3379070088"><ele>698.53</ele><time>2013-02-16T06:40:59Z</time></trkpt><trkpt lat="23.9063980244" lon="113.3379015606"><ele>698.53</ele><time>2013-02-16T06:41:00Z</time></trkpt><trkpt lat="23.9063836914" lon="113.3378936816"><ele>694.69</ele><time>2013-02-16T06:41:02Z</time></trkpt><trkpt lat="23.9063815121" lon="113.3378928434"><ele>694.69</ele><time>2013-02-16T06:41:03Z</time></trkpt><trkpt lat="23.9063740522" lon="113.3378942683"><ele>696.13</ele><time>2013-02-16T06:41:20Z</time></trkpt><trkpt lat="23.9063583780" lon="113.3378899097"><ele>695.65</ele><time>2013-02-16T06:41:37Z</time></trkpt><trkpt lat="23.9063583780" lon="113.3378899097"><ele>695.65</ele><time>2013-02-16T06:41:49Z</time></trkpt><trkpt lat="23.9063576236" lon="113.3378900774"><ele>696.13</ele><time>2013-02-16T06:42:19Z</time></trkpt><trkpt lat="23.9063576236" lon="113.3378900774"><ele>693.25</ele><time>2013-02-16T06:42:24Z</time></trkpt><trkpt lat="23.9063576236" lon="113.3378900774"><ele>696.13</ele><time>2013-02-16T06:42:25Z</time></trkpt><trkpt lat="23.9063576236" lon="113.3378900774"><ele>700.46</ele><time>2013-02-16T06:42:27Z</time></trkpt><trkpt lat="23.9063576236" lon="113.3378900774"><ele>696.61</ele><time>2013-02-16T06:42:28Z</time></trkpt><trkpt lat="23.9063582104" lon="113.3378738165"><ele>697.57</ele><time>2013-02-16T06:42:41Z</time></trkpt><trkpt lat="23.9063756447" lon="113.3378696255"><ele>697.09</ele><time>2013-02-16T06:43:00Z</time></trkpt><trkpt lat="23.9063791651" lon="113.3378689550"><ele>697.09</ele><time>2013-02-16T06:43:24Z</time></trkpt><trkpt lat="23.9064426161" lon="113.3378130477"><ele>695.17</ele><time>2013-02-16T06:43:40Z</time></trkpt><trkpt lat="23.9064859506" lon="113.3377428912"><ele>693.73</ele><time>2013-02-16T06:43:54Z</time></trkpt><trkpt lat="23.9065671712" lon="113.3376896661"><ele>693.25</ele><time>2013-02-16T06:44:06Z</time></trkpt><trkpt lat="23.9065933228" lon="113.3376748301"><ele>692.77</ele><time>2013-02-16T06:44:23Z</time></trkpt><trkpt lat="23.9066435304" lon="113.3376499359"><ele>689.40</ele><time>2013-02-16T06:44:39Z</time></trkpt><trkpt lat="23.9067006949" lon="113.3376131393"><ele>687.96</ele><time>2013-02-16T06:44:56Z</time></trkpt><trkpt lat="23.9067470469" lon="113.3375777677"><ele>685.56</ele><time>2013-02-16T06:45:13Z</time></trkpt><trkpt lat="23.9067860227" lon="113.3375286497"><ele>685.08</ele><time>2013-02-16T06:45:29Z</time></trkpt><trkpt lat="23.9068220649" lon="113.3374957088"><ele>678.83</ele><time>2013-02-16T06:45:37Z</time></trkpt><trkpt lat="23.9068220649" lon="113.3374957088"><ele>685.56</ele><time>2013-02-16T06:45:38Z</time></trkpt><trkpt lat="23.9068198856" lon="113.3374850638"><ele>682.19</ele><time>2013-02-16T06:45:40Z</time></trkpt><trkpt lat="23.9068316203" lon="113.3374070283"><ele>683.63</ele><time>2013-02-16T06:45:55Z</time></trkpt><trkpt lat="23.9068640582" lon="113.3373768535"><ele>683.15</ele><time>2013-02-16T06:46:11Z</time></trkpt><trkpt lat="23.9068979211" lon="113.3373586647"><ele>682.19</ele><time>2013-02-16T06:46:24Z</time></trkpt><trkpt lat="23.9069728553" lon="113.3373164199"><ele>679.79</ele><time>2013-02-16T06:46:37Z</time></trkpt><trkpt lat="23.9069763757" lon="113.3373042662"><ele>678.83</ele><time>2013-02-16T06:46:55Z</time></trkpt><trkpt lat="23.9070535731" lon="113.3372526336"><ele>676.42</ele><time>2013-02-16T06:47:10Z</time></trkpt><trkpt lat="23.9070786349" lon="113.3372149151"><ele>673.06</ele><time>2013-02-16T06:47:20Z</time></trkpt><trkpt lat="23.9070801437" lon="113.3372084610"><ele>677.39</ele><time>2013-02-16T06:47:21Z</time></trkpt><trkpt lat="23.9070820715" lon="113.3371938765"><ele>672.10</ele><time>2013-02-16T06:47:25Z</time></trkpt><trkpt lat="23.9070871845" lon="113.3371959720"><ele>675.46</ele><time>2013-02-16T06:47:26Z</time></trkpt><trkpt lat="23.9071698301" lon="113.3372101374"><ele>673.54</ele><time>2013-02-16T06:47:45Z</time></trkpt><trkpt lat="23.9072126616" lon="113.3371925354"><ele>672.58</ele><time>2013-02-16T06:48:00Z</time></trkpt><trkpt lat="23.9072483685" lon="113.3372182678"><ele>671.62</ele><time>2013-02-16T06:48:06Z</time></trkpt><trkpt lat="23.9073005877" lon="113.3372217044"><ele>670.18</ele><time>2013-02-16T06:48:19Z</time></trkpt><trkpt lat="23.9073262364" lon="113.3371583372"><ele>668.25</ele><time>2013-02-16T06:48:35Z</time></trkpt><trkpt lat="23.9073248114" lon="113.3371033520"><ele>667.29</ele><time>2013-02-16T06:48:50Z</time></trkpt><trkpt lat="23.9072737657" lon="113.3370774519"><ele>662.49</ele><time>2013-02-16T06:49:01Z</time></trkpt><trkpt lat="23.9072704967" lon="113.3370792959"><ele>668.25</ele><time>2013-02-16T06:49:02Z</time></trkpt><trkpt lat="23.9072692394" lon="113.3370850794"><ele>664.89</ele><time>2013-02-16T06:49:08Z</time></trkpt><trkpt lat="23.9073476102" lon="113.3370620292"><ele>662.49</ele><time>2013-02-16T06:49:27Z</time></trkpt><trkpt lat="23.9074216224" lon="113.3370717522"><ele>661.52</ele><time>2013-02-16T06:49:40Z</time></trkpt><trkpt lat="23.9074216224" lon="113.3370717522"><ele>660.56</ele><time>2013-02-16T06:50:01Z</time></trkpt><trkpt lat="23.9075117279" lon="113.3370011766"><ele>659.60</ele><time>2013-02-16T06:50:54Z</time></trkpt><trkpt lat="23.9075229596" lon="113.3370093070"><ele>659.60</ele><time>2013-02-16T06:50:55Z</time></trkpt><trkpt lat="23.9075688086" lon="113.3369699121"><ele>659.60</ele><time>2013-02-16T06:51:08Z</time></trkpt><trkpt lat="23.9075503685" lon="113.3369427547"><ele>658.64</ele><time>2013-02-16T06:51:27Z</time></trkpt><trkpt lat="23.9075740892" lon="113.3368988335"><ele>657.20</ele><time>2013-02-16T06:51:43Z</time></trkpt><trkpt lat="23.9076067787" lon="113.3368685748"><ele>655.76</ele><time>2013-02-16T06:51:56Z</time></trkpt><trkpt lat="23.9076595008" lon="113.3368503023"><ele>655.76</ele><time>2013-02-16T06:52:14Z</time></trkpt><trkpt lat="23.9076991472" lon="113.3368254080"><ele>656.24</ele><time>2013-02-16T06:52:28Z</time></trkpt><trkpt lat="23.9077054337" lon="113.3368206304"><ele>654.80</ele><time>2013-02-16T06:52:29Z</time></trkpt><trkpt lat="23.9077377040" lon="113.3368036151"><ele>653.83</ele><time>2013-02-16T06:52:34Z</time></trkpt><trkpt lat="23.9077366982" lon="113.3368012682"><ele>654.80</ele><time>2013-02-16T06:52:36Z</time></trkpt><trkpt lat="23.9077661186" lon="113.3367746137"><ele>653.83</ele><time>2013-02-16T06:52:51Z</time></trkpt><trkpt lat="23.9077661186" lon="113.3367746137"><ele>652.39</ele><time>2013-02-16T06:52:59Z</time></trkpt><trkpt lat="23.9077582397" lon="113.3367726859"><ele>658.64</ele><time>2013-02-16T06:53:02Z</time></trkpt><trkpt lat="23.9077582397" lon="113.3367726859"><ele>652.87</ele><time>2013-02-16T06:53:03Z</time></trkpt><trkpt lat="23.9077582397" lon="113.3367726859"><ele>645.18</ele><time>2013-02-16T06:53:09Z</time></trkpt><trkpt lat="23.9077582397" lon="113.3367726859"><ele>661.04</ele><time>2013-02-16T06:53:10Z</time></trkpt><trkpt lat="23.9077582397" lon="113.3367726859"><ele>654.31</ele><time>2013-02-16T06:53:11Z</time></trkpt><trkpt lat="23.9077719860" lon="113.3367742784"><ele>652.87</ele><time>2013-02-16T06:53:28Z</time></trkpt><trkpt lat="23.9077776019" lon="113.3367532399"><ele>651.43</ele><time>2013-02-16T06:53:40Z</time></trkpt><trkpt lat="23.9077713992" lon="113.3367022779"><ele>651.91</ele><time>2013-02-16T06:53:57Z</time></trkpt><trkpt lat="23.9078282285" lon="113.3367046248"><ele>651.91</ele><time>2013-02-16T06:54:10Z</time></trkpt><trkpt lat="23.9078340121" lon="113.3367079776"><ele>651.91</ele><time>2013-02-16T06:54:18Z</time></trkpt><trkpt lat="23.9078450762" lon="113.3367028646"><ele>653.83</ele><time>2013-02-16T06:54:20Z</time></trkpt><trkpt lat="23.9078641031" lon="113.3367086481"><ele>648.55</ele><time>2013-02-16T06:54:27Z</time></trkpt><trkpt lat="23.9078641031" lon="113.3367086481"><ele>649.03</ele><time>2013-02-16T06:54:28Z</time></trkpt><trkpt lat="23.9078749996" lon="113.3367045410"><ele>655.76</ele><time>2013-02-16T06:54:29Z</time></trkpt><trkpt lat="23.9078749996" lon="113.3367045410"><ele>652.39</ele><time>2013-02-16T06:54:30Z</time></trkpt><trkpt lat="23.9078749996" lon="113.3367045410"><ele>651.43</ele><time>2013-02-16T06:54:32Z</time></trkpt><trkpt lat="23.9078769274" lon="113.3367045410"><ele>648.07</ele><time>2013-02-16T06:54:34Z</time></trkpt><trkpt lat="23.9078769274" lon="113.3367045410"><ele>653.83</ele><time>2013-02-16T06:54:35Z</time></trkpt><trkpt lat="23.9078769274" lon="113.3367045410"><ele>652.87</ele><time>2013-02-16T06:54:36Z</time></trkpt><trkpt lat="23.9078769274" lon="113.3367045410"><ele>650.47</ele><time>2013-02-16T06:54:39Z</time></trkpt><trkpt lat="23.9078727365" lon="113.3367033675"><ele>649.51</ele><time>2013-02-16T06:54:54Z</time></trkpt><trkpt lat="23.9078614209" lon="113.3366876096"><ele>649.03</ele><time>2013-02-16T06:55:11Z</time></trkpt><trkpt lat="23.9078614209" lon="113.3366876096"><ele>650.95</ele><time>2013-02-16T06:55:25Z</time></trkpt><trkpt lat="23.9079205133" lon="113.3366653975"><ele>649.51</ele><time>2013-02-16T06:55:36Z</time></trkpt><trkpt lat="23.9079464972" lon="113.3366485499"><ele>648.55</ele><time>2013-02-16T06:55:51Z</time></trkpt><trkpt lat="23.9079506882" lon="113.3366378210"><ele>647.10</ele><time>2013-02-16T06:56:03Z</time></trkpt><trkpt lat="23.9079330862" lon="113.3366150223"><ele>648.55</ele><time>2013-02-16T06:56:15Z</time></trkpt><trkpt lat="23.9079330862" lon="113.3366150223"><ele>646.62</ele><time>2013-02-16T06:56:17Z</time></trkpt><trkpt lat="23.9079330862" lon="113.3366150223"><ele>641.82</ele><time>2013-02-16T06:56:25Z</time></trkpt><trkpt lat="23.9079330862" lon="113.3366150223"><ele>648.55</ele><time>2013-02-16T06:56:26Z</time></trkpt><trkpt lat="23.9079330862" lon="113.3366150223"><ele>645.18</ele><time>2013-02-16T06:56:27Z</time></trkpt><trkpt lat="23.9079747442" lon="113.3364925627"><ele>642.30</ele><time>2013-02-16T06:56:44Z</time></trkpt><trkpt lat="23.9079233631" lon="113.3364323806"><ele>639.41</ele><time>2013-02-16T06:57:03Z</time></trkpt><trkpt lat="23.9079470839" lon="113.3363922313"><ele>637.97</ele><time>2013-02-16T06:57:18Z</time></trkpt><trkpt lat="23.9079616684" lon="113.3363395929"><ele>637.01</ele><time>2013-02-16T06:57:35Z</time></trkpt><trkpt lat="23.9079479221" lon="113.3362687659"><ele>636.53</ele><time>2013-02-16T06:57:47Z</time></trkpt><trkpt lat="23.9079179987" lon="113.3362329751"><ele>637.01</ele><time>2013-02-16T06:58:02Z</time></trkpt><trkpt lat="23.9079135563" lon="113.3362062369"><ele>635.57</ele><time>2013-02-16T06:58:19Z</time></trkpt><trkpt lat="23.9078791067" lon="113.3361416124"><ele>633.65</ele><time>2013-02-16T06:58:34Z</time></trkpt><trkpt lat="23.9078639355" lon="113.3361107670"><ele>633.65</ele><time>2013-02-16T06:58:51Z</time></trkpt><trkpt lat="23.9078579005" lon="113.3360930812"><ele>629.80</ele><time>2013-02-16T06:59:07Z</time></trkpt><trkpt lat="23.9078579005" lon="113.3360930812"><ele>633.17</ele><time>2013-02-16T06:59:08Z</time></trkpt><trkpt lat="23.9078579005" lon="113.3360930812"><ele>634.61</ele><time>2013-02-16T06:59:10Z</time></trkpt><trkpt lat="23.9078416396" lon="113.3360598888"><ele>630.76</ele><time>2013-02-16T06:59:17Z</time></trkpt><trkpt lat="23.9078416396" lon="113.3360598888"><ele>634.13</ele><time>2013-02-16T06:59:18Z</time></trkpt><trkpt lat="23.9078496024" lon="113.3360322285"><ele>629.80</ele><time>2013-02-16T06:59:23Z</time></trkpt><trkpt lat="23.9078496024" lon="113.3360322285"><ele>635.57</ele><time>2013-02-16T06:59:24Z</time></trkpt><trkpt lat="23.9078481775" lon="113.3360285405"><ele>629.32</ele><time>2013-02-16T06:59:25Z</time></trkpt><trkpt lat="23.9078481775" lon="113.3360285405"><ele>635.57</ele><time>2013-02-16T06:59:26Z</time></trkpt><trkpt lat="23.9078461658" lon="113.3360233437"><ele>629.80</ele><time>2013-02-16T06:59:28Z</time></trkpt><trkpt lat="23.9078424778" lon="113.3360191528"><ele>635.09</ele><time>2013-02-16T06:59:29Z</time></trkpt><trkpt lat="23.9078233670" lon="113.3360031433"><ele>631.24</ele><time>2013-02-16T06:59:41Z</time></trkpt><trkpt lat="23.9078233670" lon="113.3360031433"><ele>631.24</ele><time>2013-02-16T06:59:42Z</time></trkpt><trkpt lat="23.9078233670" lon="113.3360031433"><ele>635.57</ele><time>2013-02-16T06:59:43Z</time></trkpt><trkpt lat="23.9078166615" lon="113.3359994553"><ele>633.65</ele><time>2013-02-16T06:59:44Z</time></trkpt><trkpt lat="23.9078193437" lon="113.3359614853"><ele>632.68</ele><time>2013-02-16T06:59:58Z</time></trkpt><trkpt lat="23.9078007359" lon="113.3359303046"><ele>632.68</ele><time>2013-02-16T07:00:16Z</time></trkpt><trkpt lat="23.9077661186" lon="113.3358847070"><ele>631.72</ele><time>2013-02-16T07:00:30Z</time></trkpt><trkpt lat="23.9077753387" lon="113.3358536102"><ele>629.80</ele><time>2013-02-16T07:00:45Z</time></trkpt><trkpt lat="23.9078688808" lon="113.3358300570"><ele>625.96</ele><time>2013-02-16T07:01:02Z</time></trkpt><trkpt lat="23.9078756701" lon="113.3358324040"><ele>629.32</ele><time>2013-02-16T07:01:03Z</time></trkpt><trkpt lat="23.9079584833" lon="113.3357991278"><ele>625.96</ele><time>2013-02-16T07:01:16Z</time></trkpt><trkpt lat="23.9079689607" lon="113.3357400354"><ele>624.51</ele><time>2013-02-16T07:01:32Z</time></trkpt><trkpt lat="23.9079747442" lon="113.3357319888"><ele>621.15</ele><time>2013-02-16T07:01:37Z</time></trkpt><trkpt lat="23.9079791028" lon="113.3357247803"><ele>627.40</ele><time>2013-02-16T07:01:38Z</time></trkpt><trkpt lat="23.9079822879" lon="113.3357187454"><ele>627.40</ele><time>2013-02-16T07:01:39Z</time></trkpt><trkpt lat="23.9079784323" lon="113.3357134648"><ele>623.55</ele><time>2013-02-16T07:01:41Z</time></trkpt><trkpt lat="23.9079802763" lon="113.3357088547"><ele>620.67</ele><time>2013-02-16T07:01:58Z</time></trkpt><trkpt lat="23.9080061764" lon="113.3356788475"><ele>621.63</ele><time>2013-02-16T07:02:19Z</time></trkpt><trkpt lat="23.9080075175" lon="113.3356726449"><ele>621.15</ele><time>2013-02-16T07:02:42Z</time></trkpt><trkpt lat="23.9080075175" lon="113.3356726449"><ele>616.34</ele><time>2013-02-16T07:02:47Z</time></trkpt><trkpt lat="23.9080075175" lon="113.3356726449"><ele>624.99</ele><time>2013-02-16T07:02:48Z</time></trkpt><trkpt lat="23.9080075175" lon="113.3356726449"><ele>621.63</ele><time>2013-02-16T07:02:53Z</time></trkpt><trkpt lat="23.9079679549" lon="113.3356704656"><ele>625.47</ele><time>2013-02-16T07:02:59Z</time></trkpt><trkpt lat="23.9079585671" lon="113.3356667776"><ele>622.11</ele><time>2013-02-16T07:03:00Z</time></trkpt><trkpt lat="23.9079418033" lon="113.3356506843"><ele>620.67</ele><time>2013-02-16T07:03:02Z</time></trkpt><trkpt lat="23.9079482574" lon="113.3355993032"><ele>617.78</ele><time>2013-02-16T07:03:18Z</time></trkpt><trkpt lat="23.9079263806" lon="113.3355602436"><ele>615.86</ele><time>2013-02-16T07:03:35Z</time></trkpt><trkpt lat="23.9079146460" lon="113.3355430607"><ele>608.65</ele><time>2013-02-16T07:03:50Z</time></trkpt><trkpt lat="23.9079146460" lon="113.3355430607"><ele>615.38</ele><time>2013-02-16T07:03:51Z</time></trkpt><trkpt lat="23.9079133049" lon="113.3355386183"><ele>612.50</ele><time>2013-02-16T07:03:56Z</time></trkpt><trkpt lat="23.9078883268" lon="113.3354933560"><ele>612.02</ele><time>2013-02-16T07:04:12Z</time></trkpt><trkpt lat="23.9078791067" lon="113.3354564756"><ele>611.06</ele><time>2013-02-16T07:04:30Z</time></trkpt><trkpt lat="23.9078386221" lon="113.3354095370"><ele>608.65</ele><time>2013-02-16T07:04:49Z</time></trkpt><trkpt lat="23.9077821281" lon="113.3353451639"><ele>606.73</ele><time>2013-02-16T07:05:06Z</time></trkpt><trkpt lat="23.9077751711" lon="113.3353444096"><ele>606.25</ele><time>2013-02-16T07:05:24Z</time></trkpt><trkpt lat="23.9077541325" lon="113.3353223652"><ele>603.85</ele><time>2013-02-16T07:05:45Z</time></trkpt><trkpt lat="23.9077165816" lon="113.3352894243"><ele>603.36</ele><time>2013-02-16T07:06:08Z</time></trkpt><trkpt lat="23.9076793659" lon="113.3352589142"><ele>602.40</ele><time>2013-02-16T07:06:28Z</time></trkpt><trkpt lat="23.9076612610" lon="113.3351893444"><ele>602.88</ele><time>2013-02-16T07:06:46Z</time></trkpt><trkpt lat="23.9076798689" lon="113.3351693954"><ele>602.40</ele><time>2013-02-16T07:07:05Z</time></trkpt><trkpt lat="23.9076945372" lon="113.3350994065"><ele>601.92</ele><time>2013-02-16T07:07:23Z</time></trkpt><trkpt lat="23.9076733310" lon="113.3350983169"><ele>601.92</ele><time>2013-02-16T07:07:45Z</time></trkpt><trkpt lat="23.9076587465" lon="113.3350595087"><ele>601.44</ele><time>2013-02-16T07:08:03Z</time></trkpt><trkpt lat="23.9076035935" lon="113.3350277413"><ele>600.00</ele><time>2013-02-16T07:08:25Z</time></trkpt><trkpt lat="23.9075577445" lon="113.3349999133"><ele>599.04</ele><time>2013-02-16T07:08:46Z</time></trkpt><trkpt lat="23.9075872488" lon="113.3349864185"><ele>598.08</ele><time>2013-02-16T07:09:06Z</time></trkpt><trkpt lat="23.9075872488" lon="113.3349864185"><ele>596.64</ele><time>2013-02-16T07:09:29Z</time></trkpt><trkpt lat="23.9075590856" lon="113.3349595964"><ele>595.67</ele><time>2013-02-16T07:09:50Z</time></trkpt><trkpt lat="23.9075854048" lon="113.3349367138"><ele>594.71</ele><time>2013-02-16T07:10:10Z</time></trkpt><trkpt lat="23.9076242968" lon="113.3349512145"><ele>591.35</ele><time>2013-02-16T07:10:29Z</time></trkpt><trkpt lat="23.9076236263" lon="113.3349572495"><ele>588.46</ele><time>2013-02-16T07:10:35Z</time></trkpt><trkpt lat="23.9076236263" lon="113.3349572495"><ele>593.75</ele><time>2013-02-16T07:10:36Z</time></trkpt><trkpt lat="23.9076330978" lon="113.3349498734"><ele>590.87</ele><time>2013-02-16T07:10:39Z</time></trkpt><trkpt lat="23.9076660387" lon="113.3349547349"><ele>587.98</ele><time>2013-02-16T07:11:01Z</time></trkpt><trkpt lat="23.9076394681" lon="113.3349452633"><ele>586.54</ele><time>2013-02-16T07:11:17Z</time></trkpt><trkpt lat="23.9075835608" lon="113.3349199500"><ele>583.18</ele><time>2013-02-16T07:11:26Z</time></trkpt><trkpt lat="23.9075852372" lon="113.3349192794"><ele>588.46</ele><time>2013-02-16T07:11:27Z</time></trkpt><trkpt lat="23.9075990673" lon="113.3349123225"><ele>585.58</ele><time>2013-02-16T07:11:29Z</time></trkpt><trkpt lat="23.9076089580" lon="113.3349108137"><ele>579.33</ele><time>2013-02-16T07:11:43Z</time></trkpt><trkpt lat="23.9076143224" lon="113.3349112328"><ele>585.58</ele><time>2013-02-16T07:11:44Z</time></trkpt><trkpt lat="23.9076338522" lon="113.3349144179"><ele>582.22</ele><time>2013-02-16T07:12:06Z</time></trkpt><trkpt lat="23.9076400548" lon="113.3348893560"><ele>580.77</ele><time>2013-02-16T07:12:17Z</time></trkpt><trkpt lat="23.9076429047" lon="113.3348808065"><ele>582.22</ele><time>2013-02-16T07:12:18Z</time></trkpt><trkpt lat="23.9076480176" lon="113.3348661382"><ele>583.18</ele><time>2013-02-16T07:12:21Z</time></trkpt><trkpt lat="23.9076488558" lon="113.3348644618"><ele>578.37</ele><time>2013-02-16T07:12:22Z</time></trkpt><trkpt lat="23.9076496940" lon="113.3348627854"><ele>583.66</ele><time>2013-02-16T07:12:23Z</time></trkpt><trkpt lat="23.9076525439" lon="113.3348571695"><ele>580.29</ele><time>2013-02-16T07:12:26Z</time></trkpt><trkpt lat="23.9076491911" lon="113.3348676469"><ele>581.73</ele><time>2013-02-16T07:12:28Z</time></trkpt><trkpt lat="23.9076817967" lon="113.3348425850"><ele>578.85</ele><time>2013-02-16T07:12:48Z</time></trkpt><trkpt lat="23.9076866582" lon="113.3347989153"><ele>575.97</ele><time>2013-02-16T07:13:05Z</time></trkpt><trkpt lat="23.9077802841" lon="113.3347844984"><ele>573.56</ele><time>2013-02-16T07:13:24Z</time></trkpt><trkpt lat="23.9077620953" lon="113.3347953111"><ele>571.16</ele><time>2013-02-16T07:13:48Z</time></trkpt><trkpt lat="23.9077629335" lon="113.3347947244"><ele>575.49</ele><time>2013-02-16T07:13:50Z</time></trkpt><trkpt lat="23.9077620953" lon="113.3347953111"><ele>573.56</ele><time>2013-02-16T07:13:51Z</time></trkpt><trkpt lat="23.9077667054" lon="113.3347907849"><ele>571.16</ele><time>2013-02-16T07:13:53Z</time></trkpt><trkpt lat="23.9077756740" lon="113.3347829897"><ele>573.08</ele><time>2013-02-16T07:13:54Z</time></trkpt><trkpt lat="23.9077793621" lon="113.3347749431"><ele>570.68</ele><time>2013-02-16T07:13:55Z</time></trkpt><trkpt lat="23.9077797811" lon="113.3347699977"><ele>573.56</ele><time>2013-02-16T07:13:56Z</time></trkpt><trkpt lat="23.9077794459" lon="113.3347671479"><ele>571.16</ele><time>2013-02-16T07:13:57Z</time></trkpt><trkpt lat="23.9078328386" lon="113.3346695825"><ele>567.80</ele><time>2013-02-16T07:14:09Z</time></trkpt><trkpt lat="23.9078337606" lon="113.3346656431"><ele>567.80</ele><time>2013-02-16T07:14:10Z</time></trkpt><trkpt lat="23.9078345988" lon="113.3346630447"><ele>574.04</ele><time>2013-02-16T07:14:11Z</time></trkpt><trkpt lat="23.9078345988" lon="113.3346630447"><ele>572.60</ele><time>2013-02-16T07:14:12Z</time></trkpt><trkpt lat="23.9078343473" lon="113.3346637152"><ele>567.32</ele><time>2013-02-16T07:14:13Z</time></trkpt><trkpt lat="23.9078341797" lon="113.3346640505"><ele>575.01</ele><time>2013-02-16T07:14:14Z</time></trkpt><trkpt lat="23.9078345988" lon="113.3346630447"><ele>573.08</ele><time>2013-02-16T07:14:15Z</time></trkpt><trkpt lat="23.9078298211" lon="113.3345917147"><ele>572.60</ele><time>2013-02-16T07:14:30Z</time></trkpt><trkpt lat="23.9078047592" lon="113.3345286828"><ele>571.16</ele><time>2013-02-16T07:14:47Z</time></trkpt><trkpt lat="23.9077468403" lon="113.3344842587"><ele>569.72</ele><time>2013-02-16T07:15:06Z</time></trkpt><trkpt lat="23.9077211916" lon="113.3344485518"><ele>567.80</ele><time>2013-02-16T07:15:22Z</time></trkpt><trkpt lat="23.9077006560" lon="113.3343958296"><ele>565.39</ele><time>2013-02-16T07:15:38Z</time></trkpt><trkpt lat="23.9076619316" lon="113.3343334682"><ele>563.95</ele><time>2013-02-16T07:15:57Z</time></trkpt><trkpt lat="23.9076449163" lon="113.3343068138"><ele>563.95</ele><time>2013-02-16T07:16:07Z</time></trkpt><trkpt lat="23.9074172638" lon="113.3341079112"><ele>553.38</ele><time>2013-02-16T07:21:45Z</time></trkpt><trkpt lat="23.9074017573" lon="113.3341207355"><ele>554.82</ele><time>2013-02-16T07:21:58Z</time></trkpt><trkpt lat="23.9073883463" lon="113.3341323864"><ele>552.41</ele><time>2013-02-16T07:22:14Z</time></trkpt><trkpt lat="23.9073882625" lon="113.3341317158"><ele>556.26</ele><time>2013-02-16T07:22:15Z</time></trkpt><trkpt lat="23.9073853288" lon="113.3341037203"><ele>551.93</ele><time>2013-02-16T07:22:27Z</time></trkpt><trkpt lat="23.9073901903" lon="113.3340968471"><ele>557.22</ele><time>2013-02-16T07:22:29Z</time></trkpt><trkpt lat="23.9073917829" lon="113.3340916503"><ele>554.82</ele><time>2013-02-16T07:22:30Z</time></trkpt><trkpt lat="23.9073788747" lon="113.3340634033"><ele>553.38</ele><time>2013-02-16T07:22:55Z</time></trkpt><trkpt lat="23.9073613565" lon="113.3340400178"><ele>552.90</ele><time>2013-02-16T07:23:00Z</time></trkpt><trkpt lat="23.9073592611" lon="113.3340359945"><ele>551.45</ele><time>2013-02-16T07:23:01Z</time></trkpt><trkpt lat="23.9073574170" lon="113.3340326417"><ele>544.24</ele><time>2013-02-16T07:23:02Z</time></trkpt><trkpt lat="23.9073560759" lon="113.3340297919"><ele>563.95</ele><time>2013-02-16T07:23:03Z</time></trkpt><trkpt lat="23.9073548187" lon="113.3340259362"><ele>552.90</ele><time>2013-02-16T07:23:04Z</time></trkpt><trkpt lat="23.9073507115" lon="113.3340212423"><ele>551.93</ele><time>2013-02-16T07:23:06Z</time></trkpt><trkpt lat="23.9073581714" lon="113.3340122737"><ele>548.57</ele><time>2013-02-16T07:23:22Z</time></trkpt><trkpt lat="23.9073735941" lon="113.3339681011"><ele>546.17</ele><time>2013-02-16T07:23:31Z</time></trkpt><trkpt lat="23.9073839039" lon="113.3339428715"><ele>541.84</ele><time>2013-02-16T07:23:43Z</time></trkpt><trkpt lat="23.9073839039" lon="113.3339428715"><ele>545.20</ele><time>2013-02-16T07:23:44Z</time></trkpt><trkpt lat="23.9073839039" lon="113.3339428715"><ele>541.84</ele><time>2013-02-16T07:23:52Z</time></trkpt><trkpt lat="23.9073863346" lon="113.3339401055"><ele>538.96</ele><time>2013-02-16T07:24:06Z</time></trkpt><trkpt lat="23.9073863346" lon="113.3339401055"><ele>535.59</ele><time>2013-02-16T07:24:11Z</time></trkpt><trkpt lat="23.9073863346" lon="113.3339401055"><ele>539.92</ele><time>2013-02-16T07:24:12Z</time></trkpt><trkpt lat="23.9073863346" lon="113.3339401055"><ele>536.55</ele><time>2013-02-16T07:24:17Z</time></trkpt><trkpt lat="23.9074062835" lon="113.3338940889"><ele>533.67</ele><time>2013-02-16T07:24:42Z</time></trkpt><trkpt lat="23.9074062835" lon="113.3338940889"><ele>532.23</ele><time>2013-02-16T07:25:06Z</time></trkpt><trkpt lat="23.9074101392" lon="113.3338940889"><ele>530.30</ele><time>2013-02-16T07:25:27Z</time></trkpt><trkpt lat="23.9074357878" lon="113.3338709548"><ele>528.86</ele><time>2013-02-16T07:25:47Z</time></trkpt><trkpt lat="23.9074357878" lon="113.3338709548"><ele>525.50</ele><time>2013-02-16T07:25:53Z</time></trkpt><trkpt lat="23.9074357878" lon="113.3338709548"><ele>530.79</ele><time>2013-02-16T07:25:54Z</time></trkpt><trkpt lat="23.9074357878" lon="113.3338709548"><ele>526.94</ele><time>2013-02-16T07:26:10Z</time></trkpt><trkpt lat="23.9075259771" lon="113.3338106889"><ele>525.50</ele><time>2013-02-16T07:26:17Z</time></trkpt><trkpt lat="23.9075259771" lon="113.3338106889"><ele>522.13</ele><time>2013-02-16T07:26:25Z</time></trkpt><trkpt lat="23.9075259771" lon="113.3338106889"><ele>518.77</ele><time>2013-02-16T07:26:32Z</time></trkpt><trkpt lat="23.9076123945" lon="113.3337931708"><ele>518.29</ele><time>2013-02-16T07:26:38Z</time></trkpt><trkpt lat="23.9076465927" lon="113.3337692823"><ele>516.85</ele><time>2013-02-16T07:26:43Z</time></trkpt><trkpt lat="23.9076465927" lon="113.3337692823"><ele>514.92</ele><time>2013-02-16T07:26:48Z</time></trkpt><trkpt lat="23.9076465927" lon="113.3337692823"><ele>512.04</ele><time>2013-02-16T07:26:59Z</time></trkpt><trkpt lat="23.9076579083" lon="113.3337717131"><ele>508.67</ele><time>2013-02-16T07:27:14Z</time></trkpt><trkpt lat="23.9076644462" lon="113.3337504230"><ele>505.31</ele><time>2013-02-16T07:27:33Z</time></trkpt><trkpt lat="23.9076753426" lon="113.3337182365"><ele>503.87</ele><time>2013-02-16T07:27:55Z</time></trkpt><trkpt lat="23.9077167492" lon="113.3336928394"><ele>500.02</ele><time>2013-02-16T07:28:14Z</time></trkpt><trkpt lat="23.9077167492" lon="113.3336928394"><ele>502.91</ele><time>2013-02-16T07:28:16Z</time></trkpt><trkpt lat="23.9077179227" lon="113.3336667717"><ele>500.98</ele><time>2013-02-16T07:28:37Z</time></trkpt><trkpt lat="23.9077301603" lon="113.3336452302"><ele>499.06</ele><time>2013-02-16T07:29:01Z</time></trkpt><trkpt lat="23.9077515341" lon="113.3336351719"><ele>495.70</ele><time>2013-02-16T07:29:18Z</time></trkpt><trkpt lat="23.9077697229" lon="113.3336419612"><ele>492.81</ele><time>2013-02-16T07:29:40Z</time></trkpt><trkpt lat="23.9078315813" lon="113.3335909992"><ele>490.89</ele><time>2013-02-16T07:29:59Z</time></trkpt><trkpt lat="23.9078527875" lon="113.3335769176"><ele>488.01</ele><time>2013-02-16T07:30:16Z</time></trkpt><trkpt lat="23.9078728203" lon="113.3335292246"><ele>485.60</ele><time>2013-02-16T07:30:35Z</time></trkpt><trkpt lat="23.9079362713" lon="113.3334802743"><ele>483.68</ele><time>2013-02-16T07:30:55Z</time></trkpt><trkpt lat="23.9079871494" lon="113.3334946074"><ele>484.16</ele><time>2013-02-16T07:31:22Z</time></trkpt><trkpt lat="23.9079671167" lon="113.3334765024"><ele>481.76</ele><time>2013-02-16T07:31:45Z</time></trkpt><trkpt lat="23.9079731517" lon="113.3334394544"><ele>479.35</ele><time>2013-02-16T07:32:05Z</time></trkpt><trkpt lat="23.9080122113" lon="113.3334104531"><ele>476.47</ele><time>2013-02-16T07:32:23Z</time></trkpt><trkpt lat="23.9080223534" lon="113.3334075194"><ele>473.11</ele><time>2013-02-16T07:32:40Z</time></trkpt><trkpt lat="23.9081061725" lon="113.3333520312"><ele>470.22</ele><time>2013-02-16T07:32:55Z</time></trkpt><trkpt lat="23.9081515186" lon="113.3333290648"><ele>466.86</ele><time>2013-02-16T07:33:06Z</time></trkpt><trkpt lat="23.9082568791" lon="113.3332619257"><ele>463.49</ele><time>2013-02-16T07:33:22Z</time></trkpt><trkpt lat="23.9082703739" lon="113.3332451619"><ele>461.57</ele><time>2013-02-16T07:33:41Z</time></trkpt><trkpt lat="23.9083210006" lon="113.3331360295"><ele>459.17</ele><time>2013-02-16T07:33:59Z</time></trkpt><trkpt lat="23.9083677717" lon="113.3331227861"><ele>455.80</ele><time>2013-02-16T07:34:19Z</time></trkpt><trkpt lat="23.9083854575" lon="113.3329795394"><ele>454.36</ele><time>2013-02-16T07:34:36Z</time></trkpt><trkpt lat="23.9083882235" lon="113.3329781983"><ele>453.88</ele><time>2013-02-16T07:34:55Z</time></trkpt><trkpt lat="23.9083728846" lon="113.3329404797"><ele>453.88</ele><time>2013-02-16T07:35:11Z</time></trkpt><trkpt lat="23.9083650894" lon="113.3328219596"><ele>453.40</ele><time>2013-02-16T07:35:30Z</time></trkpt><trkpt lat="23.9083526842" lon="113.3327303454"><ele>451.96</ele><time>2013-02-16T07:35:50Z</time></trkpt><trkpt lat="23.9083179832" lon="113.3326555789"><ele>453.40</ele><time>2013-02-16T07:36:08Z</time></trkpt><trkpt lat="23.9082479943" lon="113.3325668983"><ele>450.03</ele><time>2013-02-16T07:36:28Z</time></trkpt><trkpt lat="23.9082479943" lon="113.3325668983"><ele>454.84</ele><time>2013-02-16T07:36:29Z</time></trkpt><trkpt lat="23.9082479943" lon="113.3325668983"><ele>451.00</ele><time>2013-02-16T07:36:33Z</time></trkpt><trkpt lat="23.9082479943" lon="113.3325668983"><ele>451.00</ele><time>2013-02-16T07:36:34Z</time></trkpt><trkpt lat="23.9082706254" lon="113.3325278386"><ele>450.52</ele><time>2013-02-16T07:36:55Z</time></trkpt><trkpt lat="23.9082721341" lon="113.3325230610"><ele>449.55</ele><time>2013-02-16T07:37:13Z</time></trkpt><trkpt lat="23.9082721341" lon="113.3325230610"><ele>445.71</ele><time>2013-02-16T07:37:24Z</time></trkpt><trkpt lat="23.9082721341" lon="113.3325230610"><ele>450.52</ele><time>2013-02-16T07:37:25Z</time></trkpt><trkpt lat="23.9082721341" lon="113.3325230610"><ele>446.67</ele><time>2013-02-16T07:37:26Z</time></trkpt><trkpt lat="23.9082721341" lon="113.3325230610"><ele>446.19</ele><time>2013-02-16T07:37:30Z</time></trkpt><trkpt lat="23.9082721341" lon="113.3325230610"><ele>450.52</ele><time>2013-02-16T07:37:31Z</time></trkpt><trkpt lat="23.9082708769" lon="113.3325129189"><ele>449.55</ele><time>2013-02-16T07:37:32Z</time></trkpt><trkpt lat="23.9082708769" lon="113.3325129189"><ele>448.11</ele><time>2013-02-16T07:37:34Z</time></trkpt><trkpt lat="23.9083098527" lon="113.3324322011"><ele>445.23</ele><time>2013-02-16T07:37:54Z</time></trkpt><trkpt lat="23.9083355013" lon="113.3323923033"><ele>443.31</ele><time>2013-02-16T07:38:16Z</time></trkpt><trkpt lat="23.9084725454" lon="113.3324306086"><ele>443.31</ele><time>2013-02-16T07:38:34Z</time></trkpt><trkpt lat="23.9084749762" lon="113.3323991764"><ele>441.86</ele><time>2013-02-16T07:38:53Z</time></trkpt><trkpt lat="23.9086271916" lon="113.3324470371"><ele>440.90</ele><time>2013-02-16T07:39:12Z</time></trkpt><trkpt lat="23.9085964300" lon="113.3324053790"><ele>431.29</ele><time>2013-02-16T07:39:28Z</time></trkpt><trkpt lat="23.9085964300" lon="113.3324053790"><ele>445.71</ele><time>2013-02-16T07:39:29Z</time></trkpt><trkpt lat="23.9085964300" lon="113.3324053790"><ele>437.54</ele><time>2013-02-16T07:39:30Z</time></trkpt><trkpt lat="23.9085964300" lon="113.3324053790"><ele>443.31</ele><time>2013-02-16T07:39:31Z</time></trkpt><trkpt lat="23.9085406065" lon="113.3323498070"><ele>439.94</ele><time>2013-02-16T07:39:33Z</time></trkpt><trkpt lat="23.9084003773" lon="113.3322120924"><ele>436.58</ele><time>2013-02-16T07:39:49Z</time></trkpt><trkpt lat="23.9084003773" lon="113.3322120924"><ele>436.58</ele><time>2013-02-16T07:39:50Z</time></trkpt><trkpt lat="23.9084003773" lon="113.3322120924"><ele>439.94</ele><time>2013-02-16T07:39:51Z</time></trkpt><trkpt lat="23.9084003773" lon="113.3322120924"><ele>437.54</ele><time>2013-02-16T07:39:52Z</time></trkpt><trkpt lat="23.9084055740" lon="113.3321405109"><ele>436.58</ele><time>2013-02-16T07:40:10Z</time></trkpt><trkpt lat="23.9083716273" lon="113.3320670854"><ele>435.61</ele><time>2013-02-16T07:40:27Z</time></trkpt><trkpt lat="23.9083262812" lon="113.3320312947"><ele>434.17</ele><time>2013-02-16T07:40:48Z</time></trkpt><trkpt lat="23.9083067514" lon="113.3320126869"><ele>435.13</ele><time>2013-02-16T07:41:04Z</time></trkpt><trkpt lat="23.9083067514" lon="113.3320126869"><ele>431.77</ele><time>2013-02-16T07:41:06Z</time></trkpt><trkpt lat="23.9083067514" lon="113.3320126869"><ele>431.77</ele><time>2013-02-16T07:41:07Z</time></trkpt><trkpt lat="23.9083067514" lon="113.3320126869"><ele>435.13</ele><time>2013-02-16T07:41:08Z</time></trkpt><trkpt lat="23.9083067514" lon="113.3320126869"><ele>435.61</ele><time>2013-02-16T07:41:09Z</time></trkpt><trkpt lat="23.9083067514" lon="113.3320126869"><ele>433.69</ele><time>2013-02-16T07:41:11Z</time></trkpt><trkpt lat="23.9083067514" lon="113.3320126869"><ele>437.06</ele><time>2013-02-16T07:41:12Z</time></trkpt><trkpt lat="23.9083071705" lon="113.3320086636"><ele>436.58</ele><time>2013-02-16T07:41:13Z</time></trkpt><trkpt lat="23.9082864672" lon="113.3319209889"><ele>437.54</ele><time>2013-02-16T07:41:32Z</time></trkpt><trkpt lat="23.9082787558" lon="113.3319121040"><ele>437.54</ele><time>2013-02-16T07:41:54Z</time></trkpt><trkpt lat="23.9082060009" lon="113.3318542689"><ele>437.54</ele><time>2013-02-16T07:42:15Z</time></trkpt><trkpt lat="23.9080356807" lon="113.3316852897"><ele>437.06</ele><time>2013-02-16T07:42:37Z</time></trkpt><trkpt lat="23.9079874847" lon="113.3314946853"><ele>436.58</ele><time>2013-02-16T07:42:58Z</time></trkpt><trkpt lat="23.9079402108" lon="113.3312845509"><ele>434.65</ele><time>2013-02-16T07:43:19Z</time></trkpt><trkpt lat="23.9079273865" lon="113.3311897516"><ele>432.73</ele><time>2013-02-16T07:43:36Z</time></trkpt><trkpt lat="23.9078619238" lon="113.3311174158"><ele>429.85</ele><time>2013-02-16T07:43:53Z</time></trkpt><trkpt lat="23.9078174159" lon="113.3310444932"><ele>426.96</ele><time>2013-02-16T07:44:06Z</time></trkpt><trkpt lat="23.9077730756" lon="113.3309284877"><ele>425.52</ele><time>2013-02-16T07:44:20Z</time></trkpt><trkpt lat="23.9076387975" lon="113.3308325149"><ele>422.16</ele><time>2013-02-16T07:44:40Z</time></trkpt><trkpt lat="23.9075149130" lon="113.3307198621"><ele>419.75</ele><time>2013-02-16T07:44:55Z</time></trkpt><trkpt lat="23.9073931240" lon="113.3306566626"><ele>416.87</ele><time>2013-02-16T07:45:10Z</time></trkpt><trkpt lat="23.9073340315" lon="113.3306050301"><ele>413.50</ele><time>2013-02-16T07:45:25Z</time></trkpt><trkpt lat="23.9073202014" lon="113.3304862585"><ele>411.10</ele><time>2013-02-16T07:45:42Z</time></trkpt><trkpt lat="23.9073422458" lon="113.3304107375"><ele>408.22</ele><time>2013-02-16T07:46:00Z</time></trkpt><trkpt lat="23.9073452633" lon="113.3304000925"><ele>409.18</ele><time>2013-02-16T07:46:02Z</time></trkpt><trkpt lat="23.9073721692" lon="113.3303003479"><ele>409.66</ele><time>2013-02-16T07:46:17Z</time></trkpt><trkpt lat="23.9073691517" lon="113.3302685805"><ele>408.70</ele><time>2013-02-16T07:46:32Z</time></trkpt><trkpt lat="23.9074028470" lon="113.3301797323"><ele>408.22</ele><time>2013-02-16T07:46:51Z</time></trkpt><trkpt lat="23.9074174315" lon="113.3300602902"><ele>406.77</ele><time>2013-02-16T07:47:00Z</time></trkpt><trkpt lat="23.9073531423" lon="113.3299044706"><ele>404.37</ele><time>2013-02-16T07:47:15Z</time></trkpt><trkpt lat="23.9073506277" lon="113.3297739644"><ele>402.93</ele><time>2013-02-16T07:47:31Z</time></trkpt><trkpt lat="23.9072574209" lon="113.3296446316"><ele>400.53</ele><time>2013-02-16T07:47:49Z</time></trkpt><trkpt lat="23.9072043635" lon="113.3295674343"><ele>400.05</ele><time>2013-02-16T07:48:10Z</time></trkpt><trkpt lat="23.9072019327" lon="113.3295190707"><ele>395.72</ele><time>2013-02-16T07:48:22Z</time></trkpt><trkpt lat="23.9072021842" lon="113.3295139577"><ele>399.57</ele><time>2013-02-16T07:48:23Z</time></trkpt><trkpt lat="23.9072082192" lon="113.3294910751"><ele>400.05</ele><time>2013-02-16T07:48:45Z</time></trkpt><trkpt lat="23.9071957301" lon="113.3295050729"><ele>399.08</ele><time>2013-02-16T07:49:06Z</time></trkpt><trkpt lat="23.9071896113" lon="113.3294987865"><ele>398.60</ele><time>2013-02-16T07:49:32Z</time></trkpt><trkpt lat="23.9071896113" lon="113.3294987865"><ele>398.60</ele><time>2013-02-16T07:49:56Z</time></trkpt><trkpt lat="23.9071892761" lon="113.3295114432"><ele>399.08</ele><time>2013-02-16T07:50:10Z</time></trkpt><trkpt lat="23.9071892761" lon="113.3295114432"><ele>399.08</ele><time>2013-02-16T07:50:32Z</time></trkpt><trkpt lat="23.9071883541" lon="113.3295071684"><ele>398.60</ele><time>2013-02-16T07:50:59Z</time></trkpt><trkpt lat="23.9071883541" lon="113.3295071684"><ele>397.16</ele><time>2013-02-16T07:51:22Z</time></trkpt><trkpt lat="23.9071896952" lon="113.3295049891"><ele>398.60</ele><time>2013-02-16T07:51:40Z</time></trkpt><trkpt lat="23.9071939699" lon="113.3294950146"><ele>398.60</ele><time>2013-02-16T07:52:05Z</time></trkpt><trkpt lat="23.9071822353" lon="113.3294784185"><ele>398.60</ele><time>2013-02-16T07:52:12Z</time></trkpt><trkpt lat="23.9071167726" lon="113.3293350879"><ele>398.12</ele><time>2013-02-16T07:52:31Z</time></trkpt><trkpt lat="23.9071347937" lon="113.3293500077"><ele>399.08</ele><time>2013-02-16T07:52:53Z</time></trkpt><trkpt lat="23.9071361348" lon="113.3293457329"><ele>399.57</ele><time>2013-02-16T07:52:56Z</time></trkpt><trkpt lat="23.9071361348" lon="113.3293457329"><ele>397.64</ele><time>2013-02-16T07:53:01Z</time></trkpt><trkpt lat="23.9071308542" lon="113.3293382730"><ele>396.20</ele><time>2013-02-16T07:53:11Z</time></trkpt><trkpt lat="23.9071308542" lon="113.3293382730"><ele>399.08</ele><time>2013-02-16T07:53:12Z</time></trkpt><trkpt lat="23.9071324468" lon="113.3293408714"><ele>396.68</ele><time>2013-02-16T07:53:13Z</time></trkpt><trkpt lat="23.9071351290" lon="113.3293451462"><ele>390.91</ele><time>2013-02-16T07:53:14Z</time></trkpt><trkpt lat="23.9071360510" lon="113.3293465711"><ele>390.91</ele><time>2013-02-16T07:53:15Z</time></trkpt><trkpt lat="23.9071347937" lon="113.3293468226"><ele>407.74</ele><time>2013-02-16T07:53:16Z</time></trkpt><trkpt lat="23.9071336202" lon="113.3293490019"><ele>403.89</ele><time>2013-02-16T07:53:17Z</time></trkpt><trkpt lat="23.9071336202" lon="113.3293490019"><ele>395.72</ele><time>2013-02-16T07:53:18Z</time></trkpt><trkpt lat="23.9071336202" lon="113.3293520194"><ele>395.72</ele><time>2013-02-16T07:53:19Z</time></trkpt><trkpt lat="23.9071336202" lon="113.3293520194"><ele>402.45</ele><time>2013-02-16T07:53:20Z</time></trkpt><trkpt lat="23.9071336202" lon="113.3293520194"><ele>397.16</ele><time>2013-02-16T07:53:21Z</time></trkpt><trkpt lat="23.9071336202" lon="113.3293520194"><ele>400.53</ele><time>2013-02-16T07:53:23Z</time></trkpt><trkpt lat="23.9071336202" lon="113.3293520194"><ele>400.05</ele><time>2013-02-16T07:53:24Z</time></trkpt><trkpt lat="23.9072109014" lon="113.3294703718"><ele>398.12</ele><time>2013-02-16T07:53:32Z</time></trkpt><trkpt lat="23.9072091412" lon="113.3294729702"><ele>400.05</ele><time>2013-02-16T07:53:37Z</time></trkpt><trkpt lat="23.9072091412" lon="113.3294729702"><ele>398.60</ele><time>2013-02-16T07:53:39Z</time></trkpt><trkpt lat="23.9071994182" lon="113.3294701204"><ele>399.08</ele><time>2013-02-16T07:54:02Z</time></trkpt><trkpt lat="23.9071953110" lon="113.3294616546"><ele>399.08</ele><time>2013-02-16T07:54:15Z</time></trkpt><trkpt lat="23.9071765356" lon="113.3294677734"><ele>400.53</ele><time>2013-02-16T07:54:33Z</time></trkpt><trkpt lat="23.9071765356" lon="113.3294677734"><ele>389.47</ele><time>2013-02-16T07:54:54Z</time></trkpt><trkpt lat="23.9071765356" lon="113.3294677734"><ele>409.66</ele><time>2013-02-16T07:54:55Z</time></trkpt><trkpt lat="23.9071765356" lon="113.3294677734"><ele>400.05</ele><time>2013-02-16T07:54:56Z</time></trkpt><trkpt lat="23.9071762841" lon="113.3294641692"><ele>399.57</ele><time>2013-02-16T07:54:58Z</time></trkpt><trkpt lat="23.9071886055" lon="113.3294333238"><ele>400.53</ele><time>2013-02-16T07:55:19Z</time></trkpt><trkpt lat="23.9072191156" lon="113.3293246944"><ele>400.53</ele><time>2013-02-16T07:55:37Z</time></trkpt><trkpt lat="23.9071503840" lon="113.3291754127"><ele>399.57</ele><time>2013-02-16T07:55:52Z</time></trkpt><trkpt lat="23.9070907887" lon="113.3291099500"><ele>398.12</ele><time>2013-02-16T07:56:10Z</time></trkpt><trkpt lat="23.9070758689" lon="113.3290858101"><ele>398.60</ele><time>2013-02-16T07:56:13Z</time></trkpt><trkpt lat="23.9070430119" lon="113.3290223591"><ele>398.12</ele><time>2013-02-16T07:56:17Z</time></trkpt><trkpt lat="23.9069970790" lon="113.3288770169"><ele>396.68</ele><time>2013-02-16T07:56:35Z</time></trkpt><trkpt lat="23.9070013538" lon="113.3287201915"><ele>395.24</ele><time>2013-02-16T07:56:50Z</time></trkpt><trkpt lat="23.9069662336" lon="113.3285812195"><ele>394.76</ele><time>2013-02-16T07:57:03Z</time></trkpt><trkpt lat="23.9069989230" lon="113.3284690697"><ele>394.28</ele><time>2013-02-16T07:57:14Z</time></trkpt><trkpt lat="23.9069565944" lon="113.3283108193"><ele>393.32</ele><time>2013-02-16T07:57:28Z</time></trkpt><trkpt lat="23.9069534931" lon="113.3282921277"><ele>393.80</ele><time>2013-02-16T07:57:32Z</time></trkpt><trkpt lat="23.9070347138" lon="113.3280714322"><ele>390.91</ele><time>2013-02-16T07:57:52Z</time></trkpt><trkpt lat="23.9070417546" lon="113.3279944025"><ele>390.43</ele><time>2013-02-16T07:58:09Z</time></trkpt><trkpt lat="23.9071470313" lon="113.3278678358"><ele>389.47</ele><time>2013-02-16T07:58:24Z</time></trkpt><trkpt lat="23.9072616957" lon="113.3277530875"><ele>387.55</ele><time>2013-02-16T07:58:42Z</time></trkpt><trkpt lat="23.9073131606" lon="113.3276443742"><ele>386.59</ele><time>2013-02-16T07:58:58Z</time></trkpt><trkpt lat="23.9073381387" lon="113.3275628183"><ele>386.11</ele><time>2013-02-16T07:59:11Z</time></trkpt><trkpt lat="23.9073403180" lon="113.3275425341"><ele>385.63</ele><time>2013-02-16T07:59:17Z</time></trkpt><trkpt lat="23.9073585067" lon="113.3275427017"><ele>386.59</ele><time>2013-02-16T07:59:19Z</time></trkpt><trkpt lat="23.9073769469" lon="113.3275364991"><ele>383.22</ele><time>2013-02-16T07:59:22Z</time></trkpt><trkpt lat="23.9073847421" lon="113.3275368344"><ele>388.51</ele><time>2013-02-16T07:59:23Z</time></trkpt><trkpt lat="23.9073928725" lon="113.3275385946"><ele>384.66</ele><time>2013-02-16T07:59:29Z</time></trkpt><trkpt lat="23.9074036013" lon="113.3274625707"><ele>385.63</ele><time>2013-02-16T07:59:45Z</time></trkpt><trkpt lat="23.9073740132" lon="113.3274624031"><ele>379.38</ele><time>2013-02-16T07:59:55Z</time></trkpt><trkpt lat="23.9073740132" lon="113.3274624031"><ele>390.91</ele><time>2013-02-16T07:59:56Z</time></trkpt><trkpt lat="23.9073664695" lon="113.3274473157"><ele>387.55</ele><time>2013-02-16T07:59:57Z</time></trkpt><trkpt lat="23.9073656313" lon="113.3274314739"><ele>386.11</ele><time>2013-02-16T07:59:59Z</time></trkpt><trkpt lat="23.9073729236" lon="113.3274049871"><ele>386.11</ele><time>2013-02-16T08:00:02Z</time></trkpt><trkpt lat="23.9074296691" lon="113.3272888977"><ele>385.63</ele><time>2013-02-16T08:00:19Z</time></trkpt><trkpt lat="23.9074397273" lon="113.3271837048"><ele>385.63</ele><time>2013-02-16T08:00:36Z</time></trkpt><trkpt lat="23.9075145777" lon="113.3271023165"><ele>383.70</ele><time>2013-02-16T08:00:52Z</time></trkpt><trkpt lat="23.9075303357" lon="113.3270642627"><ele>383.70</ele><time>2013-02-16T08:00:56Z</time></trkpt><trkpt lat="23.9075903501" lon="113.3269870654"><ele>383.70</ele><time>2013-02-16T08:01:13Z</time></trkpt><trkpt lat="23.9076736663" lon="113.3269063476"><ele>383.70</ele><time>2013-02-16T08:01:30Z</time></trkpt><trkpt lat="23.9077201858" lon="113.3268392924"><ele>383.22</ele><time>2013-02-16T08:01:46Z</time></trkpt><trkpt lat="23.9077309147" lon="113.3267892525"><ele>383.22</ele><time>2013-02-16T08:01:57Z</time></trkpt><trkpt lat="23.9077807870" lon="113.3267252985"><ele>383.22</ele><time>2013-02-16T08:02:14Z</time></trkpt><trkpt lat="23.9077807032" lon="113.3267142344"><ele>383.22</ele><time>2013-02-16T08:02:21Z</time></trkpt><trkpt lat="23.9078234509" lon="113.3266708162"><ele>382.26</ele><time>2013-02-16T08:02:40Z</time></trkpt><trkpt lat="23.9078211877" lon="113.3265985642"><ele>382.26</ele><time>2013-02-16T08:02:54Z</time></trkpt><trkpt lat="23.9078245405" lon="113.3265841473"><ele>382.26</ele><time>2013-02-16T08:02:56Z</time></trkpt><trkpt lat="23.9078320004" lon="113.3265580796"><ele>382.26</ele><time>2013-02-16T08:02:58Z</time></trkpt><trkpt lat="23.9078530390" lon="113.3264215384"><ele>381.78</ele><time>2013-02-16T08:03:11Z</time></trkpt><trkpt lat="23.9079181664" lon="113.3262602706"><ele>381.30</ele><time>2013-02-16T08:03:27Z</time></trkpt><trkpt lat="23.9079257101" lon="113.3262143377"><ele>381.78</ele><time>2013-02-16T08:03:32Z</time></trkpt><trkpt lat="23.9079473354" lon="113.3260484599"><ele>380.82</ele><time>2013-02-16T08:03:49Z</time></trkpt><trkpt lat="23.9079650212" lon="113.3259906247"><ele>380.82</ele><time>2013-02-16T08:03:55Z</time></trkpt><trkpt lat="23.9080060925" lon="113.3259384055"><ele>381.30</ele><time>2013-02-16T08:04:00Z</time></trkpt><trkpt lat="23.9080353454" lon="113.3258467913"><ele>380.82</ele><time>2013-02-16T08:04:09Z</time></trkpt><trkpt lat="23.9080396201" lon="113.3258193824"><ele>380.34</ele><time>2013-02-16T08:04:12Z</time></trkpt><trkpt lat="23.9081160631" lon="113.3257141896"><ele>378.90</ele><time>2013-02-16T08:04:29Z</time></trkpt><trkpt lat="23.9081710484" lon="113.3256915584"><ele>378.42</ele><time>2013-02-16T08:04:47Z</time></trkpt><trkpt lat="23.9082090184" lon="113.3256344777"><ele>378.90</ele><time>2013-02-16T08:05:00Z</time></trkpt><trkpt lat="23.9082265366" lon="113.3256100863"><ele>378.42</ele><time>2013-02-16T08:05:05Z</time></trkpt><trkpt lat="23.9082795102" lon="113.3255406003"><ele>378.42</ele><time>2013-02-16T08:05:18Z</time></trkpt><trkpt lat="23.9083267841" lon="113.3254691865"><ele>378.42</ele><time>2013-02-16T08:05:36Z</time></trkpt><trkpt lat="23.9083528519" lon="113.3253861219"><ele>378.42</ele><time>2013-02-16T08:05:48Z</time></trkpt><trkpt lat="23.9083599765" lon="113.3253804222"><ele>378.90</ele><time>2013-02-16T08:05:49Z</time></trkpt><trkpt lat="23.9083810151" lon="113.3252520952"><ele>377.94</ele><time>2013-02-16T08:06:02Z</time></trkpt><trkpt lat="23.9084050711" lon="113.3251353353"><ele>377.45</ele><time>2013-02-16T08:06:14Z</time></trkpt><trkpt lat="23.9084439632" lon="113.3249369357"><ele>377.45</ele><time>2013-02-16T08:06:32Z</time></trkpt><trkpt lat="23.9084731322" lon="113.3249066770"><ele>376.49</ele><time>2013-02-16T08:06:49Z</time></trkpt><trkpt lat="23.9084756467" lon="113.3248980436"><ele>370.73</ele><time>2013-02-16T08:06:50Z</time></trkpt><trkpt lat="23.9084736351" lon="113.3248818666"><ele>377.94</ele><time>2013-02-16T08:06:51Z</time></trkpt><trkpt lat="23.9084730484" lon="113.3248703834"><ele>377.45</ele><time>2013-02-16T08:06:52Z</time></trkpt><trkpt lat="23.9084764849" lon="113.3248648513"><ele>374.57</ele><time>2013-02-16T08:06:53Z</time></trkpt><trkpt lat="23.9084776584" lon="113.3248559665"><ele>375.53</ele><time>2013-02-16T08:06:54Z</time></trkpt><trkpt lat="23.9085302968" lon="113.3247787692"><ele>376.01</ele><time>2013-02-16T08:07:09Z</time></trkpt><trkpt lat="23.9085755590" lon="113.3247519471"><ele>375.53</ele><time>2013-02-16T08:07:15Z</time></trkpt><trkpt lat="23.9086953364" lon="113.3247257955"><ele>374.09</ele><time>2013-02-16T08:07:32Z</time></trkpt><trkpt lat="23.9086953364" lon="113.3247257955"><ele>376.01</ele><time>2013-02-16T08:07:38Z</time></trkpt><trkpt lat="23.9086953364" lon="113.3247257955"><ele>374.09</ele><time>2013-02-16T08:07:40Z</time></trkpt><trkpt lat="23.9087104239" lon="113.3246970456"><ele>373.13</ele><time>2013-02-16T08:07:55Z</time></trkpt><trkpt lat="23.9087192249" lon="113.3246555552"><ele>374.09</ele><time>2013-02-16T08:08:02Z</time></trkpt><trkpt lat="23.9087885432" lon="113.3245201036"><ele>373.13</ele><time>2013-02-16T08:08:16Z</time></trkpt><trkpt lat="23.9087882917" lon="113.3245052677"><ele>373.13</ele><time>2013-02-16T08:08:17Z</time></trkpt><trkpt lat="23.9089067280" lon="113.3244009130"><ele>372.65</ele><time>2013-02-16T08:08:33Z</time></trkpt><trkpt lat="23.9090036228" lon="113.3243377972"><ele>373.13</ele><time>2013-02-16T08:08:47Z</time></trkpt><trkpt lat="23.9090741985" lon="113.3243108075"><ele>373.13</ele><time>2013-02-16T08:08:54Z</time></trkpt><trkpt lat="23.9091893658" lon="113.3242308442"><ele>372.65</ele><time>2013-02-16T08:09:10Z</time></trkpt><trkpt lat="23.9093289245" lon="113.3241645433"><ele>372.17</ele><time>2013-02-16T08:09:25Z</time></trkpt><trkpt lat="23.9093672298" lon="113.3241451811"><ele>372.17</ele><time>2013-02-16T08:09:30Z</time></trkpt><trkpt lat="23.9094608556" lon="113.3241472766"><ele>372.65</ele><time>2013-02-16T08:09:38Z</time></trkpt><trkpt lat="23.9095623605" lon="113.3241330273"><ele>371.69</ele><time>2013-02-16T08:09:49Z</time></trkpt><trkpt lat="23.9098468423" lon="113.3240997512"><ele>370.24</ele><time>2013-02-16T08:10:09Z</time></trkpt><trkpt lat="23.9099807851" lon="113.3240380604"><ele>371.69</ele><time>2013-02-16T08:10:28Z</time></trkpt><trkpt lat="23.9100969583" lon="113.3240462746"><ele>372.65</ele><time>2013-02-16T08:10:44Z</time></trkpt><trkpt lat="23.9101475850" lon="113.3240283374"><ele>372.17</ele><time>2013-02-16T08:10:51Z</time></trkpt><trkpt lat="23.9102004748" lon="113.3239180315"><ele>371.21</ele><time>2013-02-16T08:11:01Z</time></trkpt><trkpt lat="23.9102300629" lon="113.3238776308"><ele>371.21</ele><time>2013-02-16T08:11:06Z</time></trkpt><trkpt lat="23.9102656860" lon="113.3238509763"><ele>370.73</ele><time>2013-02-16T08:11:11Z</time></trkpt><trkpt lat="23.9104042388" lon="113.3237294387"><ele>370.24</ele><time>2013-02-16T08:11:30Z</time></trkpt><trkpt lat="23.9105141256" lon="113.3236400876"><ele>368.80</ele><time>2013-02-16T08:11:46Z</time></trkpt><trkpt lat="23.9105677698" lon="113.3236227371"><ele>368.80</ele><time>2013-02-16T08:12:01Z</time></trkpt><trkpt lat="23.9105647523" lon="113.3236261737"><ele>367.84</ele><time>2013-02-16T08:12:14Z</time></trkpt><trkpt lat="23.9105608966" lon="113.3236302808"><ele>369.76</ele><time>2013-02-16T08:12:15Z</time></trkpt><trkpt lat="23.9105453063" lon="113.3236329630"><ele>369.28</ele><time>2013-02-16T08:12:30Z</time></trkpt><trkpt lat="23.9105526824" lon="113.3236286882"><ele>369.28</ele><time>2013-02-16T08:12:33Z</time></trkpt><trkpt lat="23.9106963482" lon="113.3236084040"><ele>368.32</ele><time>2013-02-16T08:12:49Z</time></trkpt><trkpt lat="23.9107634872" lon="113.3235753793"><ele>367.84</ele><time>2013-02-16T08:13:08Z</time></trkpt><trkpt lat="23.9107888844" lon="113.3235737029"><ele>367.84</ele><time>2013-02-16T08:13:26Z</time></trkpt><trkpt lat="23.9108243398" lon="113.3235472161"><ele>367.84</ele><time>2013-02-16T08:13:51Z</time></trkpt><trkpt lat="23.9108511619" lon="113.3235603757"><ele>367.36</ele><time>2013-02-16T08:14:07Z</time></trkpt><trkpt lat="23.9108701888" lon="113.3235814143"><ele>367.36</ele><time>2013-02-16T08:14:21Z</time></trkpt><trkpt lat="23.9108768106" lon="113.3236431051"><ele>365.92</ele><time>2013-02-16T08:14:30Z</time></trkpt><trkpt lat="23.9108892996" lon="113.3236987609"><ele>366.88</ele><time>2013-02-16T08:14:36Z</time></trkpt><trkpt lat="23.9108905569" lon="113.3237062208"><ele>368.80</ele><time>2013-02-16T08:14:37Z</time></trkpt><trkpt lat="23.9108858630" lon="113.3237285167"><ele>368.32</ele><time>2013-02-16T08:14:40Z</time></trkpt><trkpt lat="23.9108837675" lon="113.3236681670"><ele>361.11</ele><time>2013-02-16T08:14:54Z</time></trkpt><trkpt lat="23.9108887129" lon="113.3236666583"><ele>367.84</ele><time>2013-02-16T08:14:55Z</time></trkpt><trkpt lat="23.9109047223" lon="113.3236637246"><ele>369.28</ele><time>2013-02-16T08:14:58Z</time></trkpt><trkpt lat="23.9109131042" lon="113.3236628026"><ele>372.65</ele><time>2013-02-16T08:15:04Z</time></trkpt><trkpt lat="23.9109131042" lon="113.3236628026"><ele>369.28</ele><time>2013-02-16T08:15:06Z</time></trkpt><trkpt lat="23.9109131042" lon="113.3236628026"><ele>368.80</ele><time>2013-02-16T08:15:08Z</time></trkpt><trkpt lat="23.9108992741" lon="113.3236588631"><ele>367.84</ele><time>2013-02-16T08:15:13Z</time></trkpt><trkpt lat="23.9108429477" lon="113.3236419316"><ele>368.32</ele><time>2013-02-16T08:15:29Z</time></trkpt><trkpt lat="23.9107556920" lon="113.3236085717"><ele>367.84</ele><time>2013-02-16T08:15:44Z</time></trkpt><trkpt lat="23.9107491542" lon="113.3236052189"><ele>363.52</ele><time>2013-02-16T08:15:45Z</time></trkpt><trkpt lat="23.9107428677" lon="113.3236013632"><ele>368.80</ele><time>2013-02-16T08:15:46Z</time></trkpt><trkpt lat="23.9107302111" lon="113.3235930651"><ele>366.40</ele><time>2013-02-16T08:15:48Z</time></trkpt><trkpt lat="23.9107237570" lon="113.3235888742"><ele>368.32</ele><time>2013-02-16T08:15:49Z</time></trkpt><trkpt lat="23.9107173029" lon="113.3235845994"><ele>370.24</ele><time>2013-02-16T08:15:50Z</time></trkpt><trkpt lat="23.9107043948" lon="113.3235762175"><ele>371.21</ele><time>2013-02-16T08:15:52Z</time></trkpt><trkpt lat="23.9107125252" lon="113.3235517424"><ele>368.80</ele><time>2013-02-16T08:15:53Z</time></trkpt><trkpt lat="23.9108342305" lon="113.3235790674"><ele>366.88</ele><time>2013-02-16T08:16:06Z</time></trkpt><trkpt lat="23.9108342305" lon="113.3235776424"><ele>368.32</ele><time>2013-02-16T08:16:26Z</time></trkpt><trkpt lat="23.9108365774" lon="113.3235786483"><ele>369.28</ele><time>2013-02-16T08:16:52Z</time></trkpt><trkpt lat="23.9108365774" lon="113.3235786483"><ele>368.80</ele><time>2013-02-16T08:17:16Z</time></trkpt><trkpt lat="23.9108146168" lon="113.3235645667"><ele>368.80</ele><time>2013-02-16T08:17:36Z</time></trkpt><trkpt lat="23.9108682610" lon="113.3235708531"><ele>368.32</ele><time>2013-02-16T08:17:52Z</time></trkpt><trkpt lat="23.9109149482" lon="113.3235713560"><ele>369.28</ele><time>2013-02-16T08:18:06Z</time></trkpt><trkpt lat="23.9109193906" lon="113.3235674165"><ele>368.32</ele><time>2013-02-16T08:18:23Z</time></trkpt><trkpt lat="23.9109193906" lon="113.3235674165"><ele>364.48</ele><time>2013-02-16T08:18:28Z</time></trkpt><trkpt lat="23.9109193906" lon="113.3235674165"><ele>371.69</ele><time>2013-02-16T08:18:29Z</time></trkpt><trkpt lat="23.9109146968" lon="113.3235680033"><ele>368.80</ele><time>2013-02-16T08:18:31Z</time></trkpt><trkpt lat="23.9108618908" lon="113.3235579450"><ele>368.32</ele><time>2013-02-16T08:18:49Z</time></trkpt><trkpt lat="23.9108618908" lon="113.3235579450"><ele>368.80</ele><time>2013-02-16T08:19:14Z</time></trkpt><trkpt lat="23.9108478930" lon="113.3235581126"><ele>368.80</ele><time>2013-02-16T08:19:37Z</time></trkpt><trkpt lat="23.9108458813" lon="113.3235559333"><ele>369.76</ele><time>2013-02-16T08:19:49Z</time></trkpt><trkpt lat="23.9108846057" lon="113.3235443663"><ele>367.84</ele><time>2013-02-16T08:20:05Z</time></trkpt><trkpt lat="23.9109982643" lon="113.3235424384"><ele>368.32</ele><time>2013-02-16T08:20:16Z</time></trkpt><trkpt lat="23.9111050498" lon="113.3234900516"><ele>367.84</ele><time>2013-02-16T08:20:30Z</time></trkpt><trkpt lat="23.9111873601" lon="113.3235041331"><ele>367.36</ele><time>2013-02-16T08:20:43Z</time></trkpt><trkpt lat="23.9112171158" lon="113.3234969247"><ele>366.40</ele><time>2013-02-16T08:21:02Z</time></trkpt><trkpt lat="23.9112765435" lon="113.3235044684"><ele>367.84</ele><time>2013-02-16T08:21:11Z</time></trkpt><trkpt lat="23.9113109093" lon="113.3235051390"><ele>368.80</ele><time>2013-02-16T08:21:14Z</time></trkpt><trkpt lat="23.9113953151" lon="113.3235303685"><ele>367.84</ele><time>2013-02-16T08:21:23Z</time></trkpt><trkpt lat="23.9115522243" lon="113.3235373255"><ele>367.36</ele><time>2013-02-16T08:21:39Z</time></trkpt><trkpt lat="23.9116166811" lon="113.3235393371"><ele>366.88</ele><time>2013-02-16T08:21:47Z</time></trkpt><trkpt lat="23.9117710758" lon="113.3235137723"><ele>366.88</ele><time>2013-02-16T08:22:04Z</time></trkpt><trkpt lat="23.9117961377" lon="113.3235033788"><ele>366.88</ele><time>2013-02-16T08:22:17Z</time></trkpt><trkpt lat="23.9118636120" lon="113.3234742098"><ele>365.92</ele><time>2013-02-16T08:22:30Z</time></trkpt><trkpt lat="23.9119294100" lon="113.3234576136"><ele>366.40</ele><time>2013-02-16T08:22:50Z</time></trkpt><trkpt lat="23.9119532146" lon="113.3234407660"><ele>365.92</ele><time>2013-02-16T08:22:55Z</time></trkpt><trkpt lat="23.9120166656" lon="113.3233385906"><ele>366.40</ele><time>2013-02-16T08:23:06Z</time></trkpt><trkpt lat="23.9120449126" lon="113.3232564479"><ele>365.92</ele><time>2013-02-16T08:23:13Z</time></trkpt><trkpt lat="23.9121607505" lon="113.3232188970"><ele>364.48</ele><time>2013-02-16T08:23:27Z</time></trkpt><trkpt lat="23.9121887460" lon="113.3232268598"><ele>364.48</ele><time>2013-02-16T08:23:36Z</time></trkpt><trkpt lat="23.9122565556" lon="113.3232095931"><ele>365.44</ele><time>2013-02-16T08:23:44Z</time></trkpt><trkpt lat="23.9123289753" lon="113.3231779933"><ele>365.44</ele><time>2013-02-16T08:23:51Z</time></trkpt><trkpt lat="23.9123625867" lon="113.3230458107"><ele>364.96</ele><time>2013-02-16T08:24:01Z</time></trkpt><trkpt lat="23.9123803563" lon="113.3229880594"><ele>364.48</ele><time>2013-02-16T08:24:07Z</time></trkpt><trkpt lat="23.9124552067" lon="113.3228416275"><ele>364.48</ele><time>2013-02-16T08:24:23Z</time></trkpt><trkpt lat="23.9125267882" lon="113.3226995543"><ele>364.48</ele><time>2013-02-16T08:24:36Z</time></trkpt><trkpt lat="23.9125414565" lon="113.3226779290"><ele>364.48</ele><time>2013-02-16T08:24:38Z</time></trkpt><trkpt lat="23.9125812706" lon="113.3226230275"><ele>364.00</ele><time>2013-02-16T08:24:43Z</time></trkpt><trkpt lat="23.9126666822" lon="113.3224886656"><ele>364.00</ele><time>2013-02-16T08:24:57Z</time></trkpt><trkpt lat="23.9126922470" lon="113.3223439101"><ele>363.52</ele><time>2013-02-16T08:25:08Z</time></trkpt><trkpt lat="23.9126892295" lon="113.3222328499"><ele>363.04</ele><time>2013-02-16T08:25:18Z</time></trkpt><trkpt lat="23.9126881398" lon="113.3221599273"><ele>362.07</ele><time>2013-02-16T08:25:26Z</time></trkpt><trkpt lat="23.9126798417" lon="113.3220789582"><ele>363.04</ele><time>2013-02-16T08:25:34Z</time></trkpt><trkpt lat="23.9125885628" lon="113.3219651319"><ele>363.52</ele><time>2013-02-16T08:25:50Z</time></trkpt><trkpt lat="23.9125629142" lon="113.3219634555"><ele>359.67</ele><time>2013-02-16T08:25:53Z</time></trkpt><trkpt lat="23.9125598129" lon="113.3219652995"><ele>368.32</ele><time>2013-02-16T08:25:54Z</time></trkpt><trkpt lat="23.9125573821" lon="113.3219635393"><ele>364.96</ele><time>2013-02-16T08:25:55Z</time></trkpt><trkpt lat="23.9125384390" lon="113.3218031097"><ele>367.36</ele><time>2013-02-16T08:26:14Z</time></trkpt><trkpt lat="23.9125528559" lon="113.3216846734"><ele>368.80</ele><time>2013-02-16T08:26:29Z</time></trkpt><trkpt lat="23.9125660155" lon="113.3215463720"><ele>367.84</ele><time>2013-02-16T08:26:45Z</time></trkpt><trkpt lat="23.9125296380" lon="113.3214250859"><ele>364.96</ele><time>2013-02-16T08:26:58Z</time></trkpt><trkpt lat="23.9124630019" lon="113.3212772291"><ele>363.52</ele><time>2013-02-16T08:27:12Z</time></trkpt><trkpt lat="23.9124648459" lon="113.3212556038"><ele>363.04</ele><time>2013-02-16T08:27:14Z</time></trkpt><trkpt lat="23.9124619123" lon="113.3212029655"><ele>363.04</ele><time>2013-02-16T08:27:18Z</time></trkpt><trkpt lat="23.9124492556" lon="113.3210883010"><ele>362.07</ele><time>2013-02-16T08:27:30Z</time></trkpt><trkpt lat="23.9124469925" lon="113.3210686035"><ele>361.59</ele><time>2013-02-16T08:27:33Z</time></trkpt><trkpt lat="23.9124659356" lon="113.3210229222"><ele>359.67</ele><time>2013-02-16T08:27:38Z</time></trkpt><trkpt lat="23.9124522731" lon="113.3209246863"><ele>359.67</ele><time>2013-02-16T08:27:52Z</time></trkpt><trkpt lat="23.9124474116" lon="113.3209179807"><ele>359.19</ele><time>2013-02-16T08:27:53Z</time></trkpt><trkpt lat="23.9124167338" lon="113.3208679408"><ele>357.75</ele><time>2013-02-16T08:27:59Z</time></trkpt><trkpt lat="23.9123722259" lon="113.3208394423"><ele>358.23</ele><time>2013-02-16T08:28:03Z</time></trkpt><trkpt lat="23.9122703020" lon="113.3207585569"><ele>356.79</ele><time>2013-02-16T08:28:16Z</time></trkpt><trkpt lat="23.9122154005" lon="113.3206283022"><ele>355.34</ele><time>2013-02-16T08:28:29Z</time></trkpt><trkpt lat="23.9121708088" lon="113.3205055911"><ele>353.42</ele><time>2013-02-16T08:28:45Z</time></trkpt><trkpt lat="23.9120867383" lon="113.3204089478"><ele>351.50</ele><time>2013-02-16T08:28:59Z</time></trkpt><trkpt lat="23.9120506123" lon="113.3203268889"><ele>349.10</ele><time>2013-02-16T08:29:16Z</time></trkpt><trkpt lat="23.9120361954" lon="113.3202390466"><ele>347.65</ele><time>2013-02-16T08:29:24Z</time></trkpt><trkpt lat="23.9120420627" lon="113.3200926986"><ele>345.25</ele><time>2013-02-16T08:29:38Z</time></trkpt><trkpt lat="23.9120256342" lon="113.3200782817"><ele>345.73</ele><time>2013-02-16T08:29:40Z</time></trkpt><trkpt lat="23.9119362831" lon="113.3200441673"><ele>344.29</ele><time>2013-02-16T08:29:48Z</time></trkpt><trkpt lat="23.9118374605" lon="113.3200094663"><ele>342.85</ele><time>2013-02-16T08:30:01Z</time></trkpt><trkpt lat="23.9117540605" lon="113.3199419081"><ele>339.96</ele><time>2013-02-16T08:30:15Z</time></trkpt><trkpt lat="23.9117079601" lon="113.3198331110"><ele>337.56</ele><time>2013-02-16T08:30:29Z</time></trkpt><trkpt lat="23.9117127378" lon="113.3197181113"><ele>337.56</ele><time>2013-02-16T08:30:40Z</time></trkpt><trkpt lat="23.9117116481" lon="113.3196639642"><ele>338.04</ele><time>2013-02-16T08:30:45Z</time></trkpt><trkpt lat="23.9117111452" lon="113.3196078055"><ele>337.56</ele><time>2013-02-16T08:30:50Z</time></trkpt><trkpt lat="23.9116497897" lon="113.3194767125"><ele>337.08</ele><time>2013-02-16T08:31:03Z</time></trkpt><trkpt lat="23.9115632884" lon="113.3194264211"><ele>336.12</ele><time>2013-02-16T08:31:11Z</time></trkpt><trkpt lat="23.9114575926" lon="113.3193769678"><ele>334.68</ele><time>2013-02-16T08:31:26Z</time></trkpt><trkpt lat="23.9114575926" lon="113.3193769678"><ele>329.39</ele><time>2013-02-16T08:31:27Z</time></trkpt><trkpt lat="23.9114575926" lon="113.3193769678"><ele>322.18</ele><time>2013-02-16T08:31:28Z</time></trkpt><trkpt lat="23.9114575926" lon="113.3193769678"><ele>335.16</ele><time>2013-02-16T08:31:29Z</time></trkpt><trkpt lat="23.9114575926" lon="113.3193769678"><ele>334.20</ele><time>2013-02-16T08:31:32Z</time></trkpt><trkpt lat="23.9114575926" lon="113.3193769678"><ele>337.08</ele><time>2013-02-16T08:31:35Z</time></trkpt><trkpt lat="23.9114575926" lon="113.3193769678"><ele>332.27</ele><time>2013-02-16T08:31:37Z</time></trkpt><trkpt lat="23.9114578441" lon="113.3193804882"><ele>335.16</ele><time>2013-02-16T08:31:38Z</time></trkpt><trkpt lat="23.9114565868" lon="113.3193867747"><ele>324.58</ele><time>2013-02-16T08:31:41Z</time></trkpt><trkpt lat="23.9114565868" lon="113.3193867747"><ele>340.44</ele><time>2013-02-16T08:31:42Z</time></trkpt><trkpt lat="23.9114565868" lon="113.3193867747"><ele>336.60</ele><time>2013-02-16T08:31:43Z</time></trkpt><trkpt lat="23.9114551619" lon="113.3193927258"><ele>334.20</ele><time>2013-02-16T08:31:47Z</time></trkpt><trkpt lat="23.9114551619" lon="113.3193927258"><ele>338.52</ele><time>2013-02-16T08:31:52Z</time></trkpt><trkpt lat="23.9114522282" lon="113.3193928096"><ele>343.33</ele><time>2013-02-16T08:31:54Z</time></trkpt><trkpt lat="23.9114422537" lon="113.3193559293"><ele>335.64</ele><time>2013-02-16T08:31:55Z</time></trkpt><trkpt lat="23.9114537369" lon="113.3193921391"><ele>335.16</ele><time>2013-02-16T08:32:04Z</time></trkpt><trkpt lat="23.9114608616" lon="113.3194049634"><ele>335.64</ele><time>2013-02-16T08:32:19Z</time></trkpt><trkpt lat="23.9114671480" lon="113.3194050472"><ele>334.68</ele><time>2013-02-16T08:32:37Z</time></trkpt><trkpt lat="23.9113908727" lon="113.3193549234"><ele>334.20</ele><time>2013-02-16T08:32:51Z</time></trkpt><trkpt lat="23.9113517292" lon="113.3193364833"><ele>333.71</ele><time>2013-02-16T08:32:56Z</time></trkpt><trkpt lat="23.9113171957" lon="113.3193161152"><ele>333.23</ele><time>2013-02-16T08:33:10Z</time></trkpt><trkpt lat="23.9113171957" lon="113.3193161152"><ele>333.23</ele><time>2013-02-16T08:33:11Z</time></trkpt><trkpt lat="23.9112963248" lon="113.3192832582"><ele>333.71</ele><time>2013-02-16T08:33:15Z</time></trkpt><trkpt lat="23.9112302754" lon="113.3192533348"><ele>333.71</ele><time>2013-02-16T08:33:21Z</time></trkpt><trkpt lat="23.9111466240" lon="113.3192239981"><ele>331.79</ele><time>2013-02-16T08:33:35Z</time></trkpt><trkpt lat="23.9111278486" lon="113.3190709446"><ele>331.31</ele><time>2013-02-16T08:33:52Z</time></trkpt><trkpt lat="23.9111236576" lon="113.3189822640"><ele>331.79</ele><time>2013-02-16T08:34:05Z</time></trkpt><trkpt lat="23.9111019485" lon="113.3188679349"><ele>332.27</ele><time>2013-02-16T08:34:16Z</time></trkpt><trkpt lat="23.9111038763" lon="113.3186767437"><ele>332.27</ele><time>2013-02-16T08:34:32Z</time></trkpt><trkpt lat="23.9111118391" lon="113.3186688647"><ele>332.27</ele><time>2013-02-16T08:34:33Z</time></trkpt><trkpt lat="23.9111673273" lon="113.3185423817"><ele>331.31</ele><time>2013-02-16T08:34:45Z</time></trkpt><trkpt lat="23.9111532457" lon="113.3184000570"><ele>330.83</ele><time>2013-02-16T08:35:01Z</time></trkpt><trkpt lat="23.9112659823" lon="113.3182357717"><ele>331.79</ele><time>2013-02-16T08:35:16Z</time></trkpt><trkpt lat="23.9113274217" lon="113.3181827981"><ele>331.79</ele><time>2013-02-16T08:35:25Z</time></trkpt><trkpt lat="23.9113061316" lon="113.3180512022"><ele>331.79</ele><time>2013-02-16T08:35:38Z</time></trkpt><trkpt lat="23.9112954028" lon="113.3180396352"><ele>331.79</ele><time>2013-02-16T08:35:54Z</time></trkpt><trkpt lat="23.9112962410" lon="113.3179440815"><ele>331.31</ele><time>2013-02-16T08:36:08Z</time></trkpt><trkpt lat="23.9113167766" lon="113.3178586699"><ele>331.31</ele><time>2013-02-16T08:36:16Z</time></trkpt><trkpt lat="23.9113198780" lon="113.3178299200"><ele>331.79</ele><time>2013-02-16T08:36:19Z</time></trkpt><trkpt lat="23.9112896193" lon="113.3177031018"><ele>331.79</ele><time>2013-02-16T08:36:34Z</time></trkpt><trkpt lat="23.9112795610" lon="113.3176975697"><ele>331.31</ele><time>2013-02-16T08:36:35Z</time></trkpt><trkpt lat="23.9112439379" lon="113.3175968193"><ele>331.79</ele><time>2013-02-16T08:36:46Z</time></trkpt><trkpt lat="23.9111907966" lon="113.3174829930"><ele>331.31</ele><time>2013-02-16T08:36:58Z</time></trkpt><trkpt lat="23.9110855199" lon="113.3174081426"><ele>330.35</ele><time>2013-02-16T08:37:10Z</time></trkpt><trkpt lat="23.9110469632" lon="113.3173741959"><ele>330.35</ele><time>2013-02-16T08:37:14Z</time></trkpt><trkpt lat="23.9109825902" lon="113.3173726033"><ele>330.35</ele><time>2013-02-16T08:37:19Z</time></trkpt><trkpt lat="23.9108705241" lon="113.3173889481"><ele>329.87</ele><time>2013-02-16T08:37:32Z</time></trkpt><trkpt lat="23.9108707756" lon="113.3173660655"><ele>329.87</ele><time>2013-02-16T08:37:56Z</time></trkpt><trkpt lat="23.9108707756" lon="113.3173660655"><ele>329.39</ele><time>2013-02-16T08:37:58Z</time></trkpt><trkpt lat="23.9108948316" lon="113.3172811568"><ele>329.87</ele><time>2013-02-16T08:38:06Z</time></trkpt><trkpt lat="23.9109181333" lon="113.3172151912"><ele>329.87</ele><time>2013-02-16T08:38:11Z</time></trkpt><trkpt lat="23.9109151997" lon="113.3171401732"><ele>329.39</ele><time>2013-02-16T08:38:17Z</time></trkpt><trkpt lat="23.9108963404" lon="113.3170908038"><ele>329.39</ele><time>2013-02-16T08:38:21Z</time></trkpt><trkpt lat="23.9108760562" lon="113.3169763908"><ele>328.43</ele><time>2013-02-16T08:38:36Z</time></trkpt><trkpt lat="23.9109303709" lon="113.3169109281"><ele>328.91</ele><time>2013-02-16T08:38:50Z</time></trkpt><trkpt lat="23.9109256770" lon="113.3168206550"><ele>329.39</ele><time>2013-02-16T08:38:57Z</time></trkpt><trkpt lat="23.9108421095" lon="113.3166701160"><ele>328.91</ele><time>2013-02-16T08:39:11Z</time></trkpt><trkpt lat="23.9108144492" lon="113.3165340777"><ele>329.39</ele><time>2013-02-16T08:39:24Z</time></trkpt><trkpt lat="23.9107530098" lon="113.3163931780"><ele>329.39</ele><time>2013-02-16T08:39:39Z</time></trkpt><trkpt lat="23.9107143693" lon="113.3162236959"><ele>329.39</ele><time>2013-02-16T08:39:57Z</time></trkpt><trkpt lat="23.9106564503" lon="113.3160626795"><ele>329.39</ele><time>2013-02-16T08:40:14Z</time></trkpt><trkpt lat="23.9106261916" lon="113.3160244580"><ele>331.31</ele><time>2013-02-16T08:40:24Z</time></trkpt><trkpt lat="23.9106401056" lon="113.3160068560"><ele>331.31</ele><time>2013-02-16T08:40:27Z</time></trkpt><trkpt lat="23.9106439613" lon="113.3159618452"><ele>331.31</ele><time>2013-02-16T08:40:32Z</time></trkpt><trkpt lat="23.9106432907" lon="113.3159134816"><ele>331.79</ele><time>2013-02-16T08:40:37Z</time></trkpt><trkpt lat="23.9106530137" lon="113.3158871625"><ele>331.31</ele><time>2013-02-16T08:40:55Z</time></trkpt><trkpt lat="23.9106667601" lon="113.3158648666"><ele>331.79</ele><time>2013-02-16T08:40:57Z</time></trkpt><trkpt lat="23.9106753934" lon="113.3156970609"><ele>331.31</ele><time>2013-02-16T08:41:12Z</time></trkpt><trkpt lat="23.9107461367" lon="113.3155849949"><ele>331.31</ele><time>2013-02-16T08:41:23Z</time></trkpt><trkpt lat="23.9108385053" lon="113.3154238109"><ele>330.83</ele><time>2013-02-16T08:41:39Z</time></trkpt><trkpt lat="23.9109369926" lon="113.3152816538"><ele>330.35</ele><time>2013-02-16T08:41:54Z</time></trkpt><trkpt lat="23.9110600390" lon="113.3152418397"><ele>330.35</ele><time>2013-02-16T08:42:07Z</time></trkpt><trkpt lat="23.9110485557" lon="113.3151821606"><ele>329.87</ele><time>2013-02-16T08:42:15Z</time></trkpt><trkpt lat="23.9110228233" lon="113.3151355572"><ele>330.83</ele><time>2013-02-16T08:42:20Z</time></trkpt><trkpt lat="23.9110187162" lon="113.3150774706"><ele>330.35</ele><time>2013-02-16T08:42:27Z</time></trkpt><trkpt lat="23.9109898824" lon="113.3149877843"><ele>330.83</ele><time>2013-02-16T08:42:34Z</time></trkpt><trkpt lat="23.9109623060" lon="113.3148228284"><ele>332.75</ele><time>2013-02-16T08:42:50Z</time></trkpt><trkpt lat="23.9109607134" lon="113.3147827629"><ele>332.75</ele><time>2013-02-16T08:42:54Z</time></trkpt><trkpt lat="23.9109822549" lon="113.3145846985"><ele>332.75</ele><time>2013-02-16T08:43:11Z</time></trkpt><trkpt lat="23.9109640662" lon="113.3145469800"><ele>331.79</ele><time>2013-02-16T08:43:16Z</time></trkpt><trkpt lat="23.9109850209" lon="113.3144543599"><ele>331.31</ele><time>2013-02-16T08:43:28Z</time></trkpt><trkpt lat="23.9109695144" lon="113.3143955190"><ele>331.31</ele><time>2013-02-16T08:43:48Z</time></trkpt><trkpt lat="23.9109695144" lon="113.3143955190"><ele>329.87</ele><time>2013-02-16T08:44:07Z</time></trkpt><trkpt lat="23.9109695144" lon="113.3143955190"><ele>332.27</ele><time>2013-02-16T08:44:09Z</time></trkpt><trkpt lat="23.9109695144" lon="113.3143955190"><ele>330.35</ele><time>2013-02-16T08:44:13Z</time></trkpt><trkpt lat="23.9109667484" lon="113.3143991232"><ele>328.91</ele><time>2013-02-16T08:44:36Z</time></trkpt><trkpt lat="23.9109667484" lon="113.3143991232"><ele>333.71</ele><time>2013-02-16T08:44:38Z</time></trkpt><trkpt lat="23.9109667484" lon="113.3143991232"><ele>326.99</ele><time>2013-02-16T08:44:39Z</time></trkpt><trkpt lat="23.9109667484" lon="113.3143991232"><ele>336.60</ele><time>2013-02-16T08:44:40Z</time></trkpt><trkpt lat="23.9109667484" lon="113.3143991232"><ele>330.83</ele><time>2013-02-16T08:44:41Z</time></trkpt><trkpt lat="23.9109667484" lon="113.3143991232"><ele>331.79</ele><time>2013-02-16T08:45:01Z</time></trkpt><trkpt lat="23.9109570254" lon="113.3143735584"><ele>331.79</ele><time>2013-02-16T08:45:24Z</time></trkpt><trkpt lat="23.9109473024" lon="113.3143603150"><ele>333.23</ele><time>2013-02-16T08:45:27Z</time></trkpt><trkpt lat="23.9108716138" lon="113.3143028151"><ele>333.71</ele><time>2013-02-16T08:45:40Z</time></trkpt><trkpt lat="23.9108238369" lon="113.3142943494"><ele>334.68</ele><time>2013-02-16T08:45:55Z</time></trkpt><trkpt lat="23.9108102582" lon="113.3142899908"><ele>336.12</ele><time>2013-02-16T08:46:12Z</time></trkpt><trkpt lat="23.9108027983" lon="113.3142874762"><ele>335.64</ele><time>2013-02-16T08:46:23Z</time></trkpt><trkpt lat="23.9107505791" lon="113.3142147213"><ele>338.04</ele><time>2013-02-16T08:46:36Z</time></trkpt><trkpt lat="23.9107212424" lon="113.3141610771"><ele>336.60</ele><time>2013-02-16T08:46:51Z</time></trkpt><trkpt lat="23.9106727950" lon="113.3141032420"><ele>337.56</ele><time>2013-02-16T08:47:03Z</time></trkpt><trkpt lat="23.9106591325" lon="113.3140822034"><ele>337.08</ele><time>2013-02-16T08:47:08Z</time></trkpt><trkpt lat="23.9106199052" lon="113.3140213508"><ele>335.16</ele><time>2013-02-16T08:47:20Z</time></trkpt><trkpt lat="23.9105880540" lon="113.3139303233"><ele>334.20</ele><time>2013-02-16T08:47:32Z</time></trkpt><trkpt lat="23.9105556160" lon="113.3138325065"><ele>330.83</ele><time>2013-02-16T08:47:47Z</time></trkpt><trkpt lat="23.9105626568" lon="113.3138198499"><ele>330.83</ele><time>2013-02-16T08:47:50Z</time></trkpt><trkpt lat="23.9105886407" lon="113.3138137311"><ele>330.35</ele><time>2013-02-16T08:47:54Z</time></trkpt><trkpt lat="23.9107394312" lon="113.3138180897"><ele>329.39</ele><time>2013-02-16T08:48:12Z</time></trkpt><trkpt lat="23.9108626451" lon="113.3138504438"><ele>329.39</ele><time>2013-02-16T08:48:28Z</time></trkpt><trkpt lat="23.9108694345" lon="113.3138511144"><ele>327.47</ele><time>2013-02-16T08:48:36Z</time></trkpt><trkpt lat="23.9109395072" lon="113.3138632681"><ele>327.47</ele><time>2013-02-16T08:48:45Z</time></trkpt><trkpt lat="23.9110524114" lon="113.3138408046"><ele>326.02</ele><time>2013-02-16T08:49:03Z</time></trkpt><trkpt lat="23.9110691752" lon="113.3136949595"><ele>327.47</ele><time>2013-02-16T08:49:24Z</time></trkpt><trkpt lat="23.9110203926" lon="113.3134929556"><ele>329.39</ele><time>2013-02-16T08:49:48Z</time></trkpt><trkpt lat="23.9110364020" lon="113.3134747669"><ele>328.91</ele><time>2013-02-16T08:49:50Z</time></trkpt><trkpt lat="23.9110969193" lon="113.3133268263"><ele>326.99</ele><time>2013-02-16T08:50:05Z</time></trkpt><trkpt lat="23.9110985957" lon="113.3132231422"><ele>326.50</ele><time>2013-02-16T08:50:20Z</time></trkpt><trkpt lat="23.9110902138" lon="113.3131348807"><ele>325.54</ele><time>2013-02-16T08:50:36Z</time></trkpt><trkpt lat="23.9110944886" lon="113.3131064661"><ele>324.58</ele><time>2013-02-16T08:50:39Z</time></trkpt><trkpt lat="23.9110847656" lon="113.3130627126"><ele>322.66</ele><time>2013-02-16T08:50:56Z</time></trkpt><trkpt lat="23.9110482205" lon="113.3129954897"><ele>319.30</ele><time>2013-02-16T08:51:10Z</time></trkpt><trkpt lat="23.9110555127" lon="113.3129499760"><ele>316.41</ele><time>2013-02-16T08:51:23Z</time></trkpt><trkpt lat="23.9110455383" lon="113.3129260037"><ele>314.49</ele><time>2013-02-16T08:51:37Z</time></trkpt><trkpt lat="23.9110804070" lon="113.3128955774"><ele>312.09</ele><time>2013-02-16T08:51:54Z</time></trkpt><trkpt lat="23.9111152757" lon="113.3128778916"><ele>309.20</ele><time>2013-02-16T08:52:04Z</time></trkpt><trkpt lat="23.9111576881" lon="113.3128674142"><ele>308.24</ele><time>2013-02-16T08:52:10Z</time></trkpt><trkpt lat="23.9112723526" lon="113.3128385805"><ele>305.36</ele><time>2013-02-16T08:52:24Z</time></trkpt><trkpt lat="23.9112824108" lon="113.3128259238"><ele>305.36</ele><time>2013-02-16T08:52:26Z</time></trkpt><trkpt lat="23.9113141783" lon="113.3127893787"><ele>301.99</ele><time>2013-02-16T08:52:39Z</time></trkpt><trkpt lat="23.9113737736" lon="113.3127575275"><ele>298.63</ele><time>2013-02-16T08:52:55Z</time></trkpt><trkpt lat="23.9113769587" lon="113.3127549291"><ele>298.63</ele><time>2013-02-16T08:52:56Z</time></trkpt><trkpt lat="23.9113606140" lon="113.3126914781"><ele>296.70</ele><time>2013-02-16T08:53:10Z</time></trkpt><trkpt lat="23.9113472030" lon="113.3126454614"><ele>294.78</ele><time>2013-02-16T08:53:24Z</time></trkpt><trkpt lat="23.9113307744" lon="113.3125862852"><ele>291.90</ele><time>2013-02-16T08:53:37Z</time></trkpt><trkpt lat="23.9112995937" lon="113.3125737961"><ele>290.94</ele><time>2013-02-16T08:53:43Z</time></trkpt><trkpt lat="23.9112969115" lon="113.3125494886"><ele>289.01</ele><time>2013-02-16T08:53:58Z</time></trkpt><trkpt lat="23.9112865180" lon="113.3125342336"><ele>287.57</ele><time>2013-02-16T08:54:12Z</time></trkpt><trkpt lat="23.9113129210" lon="113.3125145361"><ele>286.13</ele><time>2013-02-16T08:54:16Z</time></trkpt><trkpt lat="23.9113166928" lon="113.3125095069"><ele>290.46</ele><time>2013-02-16T08:54:17Z</time></trkpt><trkpt lat="23.9113298524" lon="113.3124920726"><ele>287.09</ele><time>2013-02-16T08:54:21Z</time></trkpt><trkpt lat="23.9113456104" lon="113.3124738839"><ele>289.01</ele><time>2013-02-16T08:54:25Z</time></trkpt><trkpt lat="23.9113430958" lon="113.3124263585"><ele>290.94</ele><time>2013-02-16T08:54:36Z</time></trkpt><trkpt lat="23.9113319479" lon="113.3123764861"><ele>294.30</ele><time>2013-02-16T08:54:48Z</time></trkpt><trkpt lat="23.9113259967" lon="113.3123713732"><ele>293.34</ele><time>2013-02-16T08:54:52Z</time></trkpt><trkpt lat="23.9112896193" lon="113.3123335708"><ele>295.74</ele><time>2013-02-16T08:55:03Z</time></trkpt><trkpt lat="23.9113316964" lon="113.3122712094"><ele>299.11</ele><time>2013-02-16T08:55:16Z</time></trkpt><trkpt lat="23.9113220572" lon="113.3122505061"><ele>298.15</ele><time>2013-02-16T08:55:18Z</time></trkpt><trkpt lat="23.9112811536" lon="113.3121863846"><ele>297.67</ele><time>2013-02-16T08:55:26Z</time></trkpt><trkpt lat="23.9112367295" lon="113.3120783418"><ele>297.18</ele><time>2013-02-16T08:55:36Z</time></trkpt><trkpt lat="23.9112143498" lon="113.3120132983"><ele>297.18</ele><time>2013-02-16T08:55:43Z</time></trkpt><trkpt lat="23.9111969154" lon="113.3118900843"><ele>298.63</ele><time>2013-02-16T08:55:57Z</time></trkpt><trkpt lat="23.9111790620" lon="113.3118076902"><ele>297.18</ele><time>2013-02-16T08:56:08Z</time></trkpt><trkpt lat="23.9111520723" lon="113.3117404673"><ele>296.70</ele><time>2013-02-16T08:56:14Z</time></trkpt><trkpt lat="23.9111429360" lon="113.3116606716"><ele>296.70</ele><time>2013-02-16T08:56:22Z</time></trkpt><trkpt lat="23.9111274295" lon="113.3116278145"><ele>296.70</ele><time>2013-02-16T08:56:25Z</time></trkpt><trkpt lat="23.9111787267" lon="113.3115858212"><ele>297.67</ele><time>2013-02-16T08:56:38Z</time></trkpt><trkpt lat="23.9111920539" lon="113.3115789481"><ele>297.18</ele><time>2013-02-16T08:56:40Z</time></trkpt><trkpt lat="23.9112856798" lon="113.3115495276"><ele>296.70</ele><time>2013-02-16T08:56:52Z</time></trkpt><trkpt lat="23.9112908766" lon="113.3115419839"><ele>293.34</ele><time>2013-02-16T08:56:55Z</time></trkpt><trkpt lat="23.9112958219" lon="113.3115341049"><ele>298.15</ele><time>2013-02-16T08:56:56Z</time></trkpt><trkpt lat="23.9113480411" lon="113.3114639483"><ele>296.22</ele><time>2013-02-16T08:57:12Z</time></trkpt><trkpt lat="23.9113656431" lon="113.3114513755"><ele>295.74</ele><time>2013-02-16T08:57:29Z</time></trkpt><trkpt lat="23.9114035293" lon="113.3114479389"><ele>295.74</ele><time>2013-02-16T08:57:34Z</time></trkpt><trkpt lat="23.9114414994" lon="113.3114334382"><ele>289.97</ele><time>2013-02-16T08:57:41Z</time></trkpt><trkpt lat="23.9114414994" lon="113.3114334382"><ele>298.15</ele><time>2013-02-16T08:57:42Z</time></trkpt><trkpt lat="23.9114457741" lon="113.3114319295"><ele>294.78</ele><time>2013-02-16T08:57:43Z</time></trkpt><trkpt lat="23.9114760328" lon="113.3113980666"><ele>292.86</ele><time>2013-02-16T08:57:54Z</time></trkpt><trkpt lat="23.9114956465" lon="113.3113903552"><ele>291.90</ele><time>2013-02-16T08:58:06Z</time></trkpt><trkpt lat="23.9115290064" lon="113.3113646228"><ele>287.09</ele><time>2013-02-16T08:58:16Z</time></trkpt><trkpt lat="23.9115290064" lon="113.3113646228"><ele>290.46</ele><time>2013-02-16T08:58:18Z</time></trkpt><trkpt lat="23.9115290064" lon="113.3113646228"><ele>290.46</ele><time>2013-02-16T08:58:19Z</time></trkpt><trkpt lat="23.9115378913" lon="113.3113698196"><ele>287.09</ele><time>2013-02-16T08:58:27Z</time></trkpt><trkpt lat="23.9115378913" lon="113.3113698196"><ele>287.09</ele><time>2013-02-16T08:58:30Z</time></trkpt><trkpt lat="23.9115787949" lon="113.3113705739"><ele>286.13</ele><time>2013-02-16T08:58:44Z</time></trkpt><trkpt lat="23.9115989953" lon="113.3113618568"><ele>284.69</ele><time>2013-02-16T08:58:49Z</time></trkpt><trkpt lat="23.9116374683" lon="113.3113258984"><ele>282.77</ele><time>2013-02-16T08:59:02Z</time></trkpt><trkpt lat="23.9116762765" lon="113.3112976514"><ele>280.36</ele><time>2013-02-16T08:59:09Z</time></trkpt><trkpt lat="23.9116998296" lon="113.3112647943"><ele>280.36</ele><time>2013-02-16T08:59:13Z</time></trkpt><trkpt lat="23.9117387217" lon="113.3112466894"><ele>279.88</ele><time>2013-02-16T08:59:17Z</time></trkpt><trkpt lat="23.9117972273" lon="113.3112518024"><ele>279.40</ele><time>2013-02-16T08:59:25Z</time></trkpt><trkpt lat="23.9118454233" lon="113.3112466056"><ele>278.92</ele><time>2013-02-16T08:59:30Z</time></trkpt><trkpt lat="23.9118688926" lon="113.3112488687"><ele>277.96</ele><time>2013-02-16T08:59:32Z</time></trkpt><trkpt lat="23.9119588304" lon="113.3112389781"><ele>277.48</ele><time>2013-02-16T08:59:41Z</time></trkpt><trkpt lat="23.9120452479" lon="113.3112527244"><ele>274.59</ele><time>2013-02-16T08:59:55Z</time></trkpt><trkpt lat="23.9120625146" lon="113.3112171013"><ele>273.63</ele><time>2013-02-16T09:00:10Z</time></trkpt><trkpt lat="23.9120806195" lon="113.3112149220"><ele>271.23</ele><time>2013-02-16T09:00:24Z</time></trkpt><trkpt lat="23.9120993949" lon="113.3112186100"><ele>270.27</ele><time>2013-02-16T09:00:30Z</time></trkpt><trkpt lat="23.9120989759" lon="113.3111528121"><ele>269.31</ele><time>2013-02-16T09:00:42Z</time></trkpt><trkpt lat="23.9121340122" lon="113.3111085556"><ele>266.42</ele><time>2013-02-16T09:00:54Z</time></trkpt><trkpt lat="23.9121265523" lon="113.3110514749"><ele>263.06</ele><time>2013-02-16T09:01:04Z</time></trkpt><trkpt lat="23.9121470880" lon="113.3110342920"><ele>262.10</ele><time>2013-02-16T09:01:18Z</time></trkpt><trkpt lat="23.9121613372" lon="113.3110217191"><ele>260.17</ele><time>2013-02-16T09:01:29Z</time></trkpt><trkpt lat="23.9122015703" lon="113.3110082243"><ele>257.77</ele><time>2013-02-16T09:01:40Z</time></trkpt><trkpt lat="23.9122055098" lon="113.3110109903"><ele>257.29</ele><time>2013-02-16T09:01:42Z</time></trkpt><trkpt lat="23.9122428093" lon="113.3110324480"><ele>254.41</ele><time>2013-02-16T09:01:55Z</time></trkpt><trkpt lat="23.9122521970" lon="113.3109585196"><ele>252.48</ele><time>2013-02-16T09:02:09Z</time></trkpt><trkpt lat="23.9122364391" lon="113.3109046239"><ele>250.56</ele><time>2013-02-16T09:02:22Z</time></trkpt><trkpt lat="23.9122110419" lon="113.3108789753"><ele>248.64</ele><time>2013-02-16T09:02:25Z</time></trkpt><trkpt lat="23.9122000616" lon="113.3107890375"><ele>248.64</ele><time>2013-02-16T09:02:36Z</time></trkpt><trkpt lat="23.9121974632" lon="113.3107535820"><ele>252.00</ele><time>2013-02-16T09:02:47Z</time></trkpt><trkpt lat="23.9121961221" lon="113.3107452001"><ele>249.12</ele><time>2013-02-16T09:02:48Z</time></trkpt><trkpt lat="23.9121806994" lon="113.3106725290"><ele>246.72</ele><time>2013-02-16T09:03:01Z</time></trkpt><trkpt lat="23.9121757541" lon="113.3106338885"><ele>245.27</ele><time>2013-02-16T09:03:10Z</time></trkpt><trkpt lat="23.9121575654" lon="113.3106146101"><ele>241.43</ele><time>2013-02-16T09:03:13Z</time></trkpt><trkpt lat="23.9121529553" lon="113.3106108382"><ele>247.68</ele><time>2013-02-16T09:03:14Z</time></trkpt><trkpt lat="23.9121406339" lon="113.3106076531"><ele>244.79</ele><time>2013-02-16T09:03:16Z</time></trkpt><trkpt lat="23.9121060167" lon="113.3106079046"><ele>244.31</ele><time>2013-02-16T09:03:20Z</time></trkpt><trkpt lat="23.9120561443" lon="113.3105706889"><ele>243.83</ele><time>2013-02-16T09:03:34Z</time></trkpt><trkpt lat="23.9120591618" lon="113.3105530869"><ele>241.43</ele><time>2013-02-16T09:03:46Z</time></trkpt><trkpt lat="23.9120651130" lon="113.3105301205"><ele>239.51</ele><time>2013-02-16T09:03:59Z</time></trkpt><trkpt lat="23.9121017419" lon="113.3105135243"><ele>238.06</ele><time>2013-02-16T09:04:11Z</time></trkpt><trkpt lat="23.9121166617" lon="113.3104860317"><ele>235.66</ele><time>2013-02-16T09:04:24Z</time></trkpt><trkpt lat="23.9121348504" lon="113.3104786556"><ele>233.26</ele><time>2013-02-16T09:04:40Z</time></trkpt><trkpt lat="23.9121858124" lon="113.3104209881"><ele>230.85</ele><time>2013-02-16T09:04:55Z</time></trkpt><trkpt lat="23.9122047555" lon="113.3103633206"><ele>227.97</ele><time>2013-02-16T09:05:09Z</time></trkpt><trkpt lat="23.9121997263" lon="113.3102972712"><ele>225.09</ele><time>2013-02-16T09:05:22Z</time></trkpt><trkpt lat="23.9122027438" lon="113.3102608938"><ele>222.68</ele><time>2013-02-16T09:05:35Z</time></trkpt><trkpt lat="23.9122274704" lon="113.3102177270"><ele>219.32</ele><time>2013-02-16T09:05:46Z</time></trkpt><trkpt lat="23.9122507721" lon="113.3101687767"><ele>217.40</ele><time>2013-02-16T09:06:03Z</time></trkpt><trkpt lat="23.9122632612" lon="113.3101129532"><ele>214.51</ele><time>2013-02-16T09:06:19Z</time></trkpt><trkpt lat="23.9122964535" lon="113.3100541960"><ele>212.11</ele><time>2013-02-16T09:06:32Z</time></trkpt><trkpt lat="23.9123211801" lon="113.3099966962"><ele>209.70</ele><time>2013-02-16T09:06:47Z</time></trkpt><trkpt lat="23.9123630058" lon="113.3099220134"><ele>206.34</ele><time>2013-02-16T09:07:03Z</time></trkpt><trkpt lat="23.9124308992" lon="113.3098143898"><ele>203.94</ele><time>2013-02-16T09:07:21Z</time></trkpt><trkpt lat="23.9124646783" lon="113.3097360190"><ele>201.53</ele><time>2013-02-16T09:07:36Z</time></trkpt><trkpt lat="23.9124940149" lon="113.3097094484"><ele>198.17</ele><time>2013-02-16T09:07:45Z</time></trkpt><trkpt lat="23.9124940149" lon="113.3097094484"><ele>202.01</ele><time>2013-02-16T09:07:48Z</time></trkpt><trkpt lat="23.9124883991" lon="113.3096957020"><ele>198.65</ele><time>2013-02-16T09:07:56Z</time></trkpt><trkpt lat="23.9124956075" lon="113.3096522838"><ele>196.73</ele><time>2013-02-16T09:08:09Z</time></trkpt><trkpt lat="23.9125255309" lon="113.3096011542"><ele>193.84</ele><time>2013-02-16T09:08:23Z</time></trkpt><trkpt lat="23.9124513511" lon="113.3095814567"><ele>191.44</ele><time>2013-02-16T09:08:38Z</time></trkpt><trkpt lat="23.9123816974" lon="113.3095853962"><ele>188.08</ele><time>2013-02-16T09:08:50Z</time></trkpt><trkpt lat="23.9123816974" lon="113.3095853962"><ele>192.40</ele><time>2013-02-16T09:08:51Z</time></trkpt><trkpt lat="23.9123626705" lon="113.3095816243"><ele>189.04</ele><time>2013-02-16T09:08:58Z</time></trkpt><trkpt lat="23.9123445656" lon="113.3095805347"><ele>189.52</ele><time>2013-02-16T09:09:06Z</time></trkpt><trkpt lat="23.9123376086" lon="113.3095542155"><ele>187.11</ele><time>2013-02-16T09:09:21Z</time></trkpt><trkpt lat="23.9123169053" lon="113.3095362782"><ele>185.19</ele><time>2013-02-16T09:09:37Z</time></trkpt><trkpt lat="23.9122805279" lon="113.3094843104"><ele>183.75</ele><time>2013-02-16T09:09:54Z</time></trkpt><trkpt lat="23.9123090263" lon="113.3094594162"><ele>183.75</ele><time>2013-02-16T09:10:13Z</time></trkpt><trkpt lat="23.9123127982" lon="113.3094295766"><ele>182.31</ele><time>2013-02-16T09:10:30Z</time></trkpt><trkpt lat="23.9123171568" lon="113.3094080351"><ele>181.83</ele><time>2013-02-16T09:10:47Z</time></trkpt><trkpt lat="23.9123360161" lon="113.3093692269"><ele>180.38</ele><time>2013-02-16T09:11:04Z</time></trkpt><trkpt lat="23.9123951923" lon="113.3092909399"><ele>179.42</ele><time>2013-02-16T09:11:15Z</time></trkpt><trkpt lat="23.9124262054" lon="113.3092523832"><ele>178.94</ele><time>2013-02-16T09:11:25Z</time></trkpt><trkpt lat="23.9124418795" lon="113.3091526385"><ele>177.98</ele><time>2013-02-16T09:11:40Z</time></trkpt><trkpt lat="23.9124911651" lon="113.3090851642"><ele>176.06</ele><time>2013-02-16T09:11:52Z</time></trkpt><trkpt lat="23.9125216752" lon="113.3090667240"><ele>175.58</ele><time>2013-02-16T09:11:56Z</time></trkpt><trkpt lat="23.9125781693" lon="113.3089885209"><ele>175.10</ele><time>2013-02-16T09:12:07Z</time></trkpt><trkpt lat="23.9125945978" lon="113.3089067973"><ele>173.17</ele><time>2013-02-16T09:12:15Z</time></trkpt><trkpt lat="23.9125626627" lon="113.3088419214"><ele>172.69</ele><time>2013-02-16T09:12:23Z</time></trkpt><trkpt lat="23.9125467371" lon="113.3087390754"><ele>170.77</ele><time>2013-02-16T09:12:34Z</time></trkpt><trkpt lat="23.9126123674" lon="113.3086538315"><ele>167.89</ele><time>2013-02-16T09:12:47Z</time></trkpt><trkpt lat="23.9126198273" lon="113.3085804898"><ele>165.00</ele><time>2013-02-16T09:12:58Z</time></trkpt><trkpt lat="23.9126192406" lon="113.3085224032"><ele>161.64</ele><time>2013-02-16T09:13:11Z</time></trkpt><trkpt lat="23.9126192406" lon="113.3085224032"><ele>165.00</ele><time>2013-02-16T09:13:12Z</time></trkpt><trkpt lat="23.9126360882" lon="113.3085047174"><ele>161.64</ele><time>2013-02-16T09:13:17Z</time></trkpt><trkpt lat="23.9126744773" lon="113.3084253408"><ele>159.24</ele><time>2013-02-16T09:13:30Z</time></trkpt><trkpt lat="23.9126894809" lon="113.3083781507"><ele>157.79</ele><time>2013-02-16T09:13:37Z</time></trkpt><trkpt lat="23.9126732200" lon="113.3083141129"><ele>156.35</ele><time>2013-02-16T09:13:46Z</time></trkpt><trkpt lat="23.9126284607" lon="113.3082412742"><ele>152.99</ele><time>2013-02-16T09:13:57Z</time></trkpt><trkpt lat="23.9126282092" lon="113.3082348201"><ele>152.99</ele><time>2013-02-16T09:13:58Z</time></trkpt><trkpt lat="23.9126282092" lon="113.3082348201"><ele>156.35</ele><time>2013-02-16T09:13:59Z</time></trkpt><trkpt lat="23.9126207493" lon="113.3082186431"><ele>153.47</ele><time>2013-02-16T09:14:02Z</time></trkpt><trkpt lat="23.9126215037" lon="113.3082153741"><ele>142.89</ele><time>2013-02-16T09:14:06Z</time></trkpt><trkpt lat="23.9126188215" lon="113.3082024660"><ele>154.43</ele><time>2013-02-16T09:14:08Z</time></trkpt><trkpt lat="23.9126207493" lon="113.3081837744"><ele>151.54</ele><time>2013-02-16T09:14:14Z</time></trkpt><trkpt lat="23.9126308914" lon="113.3081322256"><ele>149.62</ele><time>2013-02-16T09:14:25Z</time></trkpt><trkpt lat="23.9126090985" lon="113.3080579620"><ele>147.22</ele><time>2013-02-16T09:14:36Z</time></trkpt><trkpt lat="23.9125987887" lon="113.3080406114"><ele>146.26</ele><time>2013-02-16T09:14:42Z</time></trkpt><trkpt lat="23.9125219267" lon="113.3079463989"><ele>143.37</ele><time>2013-02-16T09:14:56Z</time></trkpt><trkpt lat="23.9125186577" lon="113.3079367597"><ele>142.41</ele><time>2013-02-16T09:14:59Z</time></trkpt><trkpt lat="23.9125365112" lon="113.3078881446"><ele>140.01</ele><time>2013-02-16T09:15:11Z</time></trkpt><trkpt lat="23.9125573821" lon="113.3078555390"><ele>138.57</ele><time>2013-02-16T09:15:28Z</time></trkpt><trkpt lat="23.9125607349" lon="113.3078106958"><ele>136.64</ele><time>2013-02-16T09:15:35Z</time></trkpt><trkpt lat="23.9125065040" lon="113.3077574708"><ele>134.72</ele><time>2013-02-16T09:15:46Z</time></trkpt><trkpt lat="23.9124407899" lon="113.3077159803"><ele>132.80</ele><time>2013-02-16T09:15:57Z</time></trkpt><trkpt lat="23.9124378562" lon="113.3076507691"><ele>129.92</ele><time>2013-02-16T09:16:09Z</time></trkpt><trkpt lat="23.9124395326" lon="113.3076234441"><ele>129.43</ele><time>2013-02-16T09:16:12Z</time></trkpt><trkpt lat="23.9123991318" lon="113.3075356018"><ele>127.51</ele><time>2013-02-16T09:16:23Z</time></trkpt><trkpt lat="23.9124102797" lon="113.3074976318"><ele>128.47</ele><time>2013-02-16T09:16:28Z</time></trkpt><trkpt lat="23.9124215953" lon="113.3074674569"><ele>127.99</ele><time>2013-02-16T09:16:31Z</time></trkpt><trkpt lat="23.9124889020" lon="113.3073962107"><ele>127.03</ele><time>2013-02-16T09:16:42Z</time></trkpt><trkpt lat="23.9125390258" lon="113.3073980547"><ele>125.59</ele><time>2013-02-16T09:16:49Z</time></trkpt><trkpt lat="23.9126215875" lon="113.3073739149"><ele>124.63</ele><time>2013-02-16T09:16:59Z</time></trkpt><trkpt lat="23.9126957674" lon="113.3073935285"><ele>121.74</ele><time>2013-02-16T09:17:13Z</time></trkpt><trkpt lat="23.9126957674" lon="113.3073935285"><ele>121.74</ele><time>2013-02-16T09:17:41Z</time></trkpt><trkpt lat="23.9127520937" lon="113.3074257988"><ele>119.34</ele><time>2013-02-16T09:17:55Z</time></trkpt><trkpt lat="23.9127875492" lon="113.3074539620"><ele>117.90</ele><time>2013-02-16T09:18:07Z</time></trkpt><trkpt lat="23.9128157124" lon="113.3075079415"><ele>116.46</ele><time>2013-02-16T09:18:19Z</time></trkpt><trkpt lat="23.9128617290" lon="113.3075185865"><ele>115.01</ele><time>2013-02-16T09:18:32Z</time></trkpt><trkpt lat="23.9129215758" lon="113.3075801935"><ele>113.57</ele><time>2013-02-16T09:18:46Z</time></trkpt><trkpt lat="23.9129887149" lon="113.3076377772"><ele>109.73</ele><time>2013-02-16T09:19:01Z</time></trkpt><trkpt lat="23.9129919000" lon="113.3076381963"><ele>113.09</ele><time>2013-02-16T09:19:02Z</time></trkpt><trkpt lat="23.9129969291" lon="113.3076512720"><ele>110.69</ele><time>2013-02-16T09:19:05Z</time></trkpt><trkpt lat="23.9130111784" lon="113.3076837938"><ele>110.69</ele><time>2013-02-16T09:19:12Z</time></trkpt><trkpt lat="23.9130106755" lon="113.3076890744"><ele>110.69</ele><time>2013-02-16T09:19:13Z</time></trkpt><trkpt lat="23.9130595420" lon="113.3077354264"><ele>109.25</ele><time>2013-02-16T09:19:23Z</time></trkpt><trkpt lat="23.9131022897" lon="113.3077865560"><ele>106.84</ele><time>2013-02-16T09:19:33Z</time></trkpt><trkpt lat="23.9131447859" lon="113.3078453969"><ele>106.36</ele><time>2013-02-16T09:19:44Z</time></trkpt><trkpt lat="23.9131681714" lon="113.3078511804"><ele>106.36</ele><time>2013-02-16T09:19:58Z</time></trkpt><trkpt lat="23.9131681714" lon="113.3078511804"><ele>104.92</ele><time>2013-02-16T09:19:59Z</time></trkpt><trkpt lat="23.9132070635" lon="113.3078497555"><ele>105.40</ele><time>2013-02-16T09:20:04Z</time></trkpt><trkpt lat="23.9132628869" lon="113.3078849595"><ele>102.04</ele><time>2013-02-16T09:20:15Z</time></trkpt><trkpt lat="23.9132651500" lon="113.3078854624"><ele>105.40</ele><time>2013-02-16T09:20:16Z</time></trkpt><trkpt lat="23.9132994320" lon="113.3079033159"><ele>100.60</ele><time>2013-02-16T09:20:29Z</time></trkpt><trkpt lat="23.9133467060" lon="113.3078754880"><ele>103.00</ele><time>2013-02-16T09:20:39Z</time></trkpt><trkpt lat="23.9133583568" lon="113.3078719676"><ele>101.08</ele><time>2013-02-16T09:20:41Z</time></trkpt><trkpt lat="23.9134072233" lon="113.3078475762"><ele>99.15</ele><time>2013-02-16T09:20:51Z</time></trkpt><trkpt lat="23.9134580176" lon="113.3078593947"><ele>97.23</ele><time>2013-02-16T09:21:01Z</time></trkpt><trkpt lat="23.9134946465" lon="113.3078712132"><ele>95.79</ele><time>2013-02-16T09:21:13Z</time></trkpt><trkpt lat="23.9135407470" lon="113.3079215046"><ele>93.87</ele><time>2013-02-16T09:21:25Z</time></trkpt><trkpt lat="23.9136138372" lon="113.3080285415"><ele>91.46</ele><time>2013-02-16T09:21:40Z</time></trkpt><trkpt lat="23.9136967342" lon="113.3080842812"><ele>89.06</ele><time>2013-02-16T09:21:53Z</time></trkpt><trkpt lat="23.9137459360" lon="113.3081186470"><ele>87.62</ele><time>2013-02-16T09:22:00Z</time></trkpt><trkpt lat="23.9138258155" lon="113.3081602212"><ele>85.21</ele><time>2013-02-16T09:22:10Z</time></trkpt><trkpt lat="23.9138915297" lon="113.3081510011"><ele>83.77</ele><time>2013-02-16T09:22:17Z</time></trkpt><trkpt lat="23.9139275718" lon="113.3081479836"><ele>83.29</ele><time>2013-02-16T09:22:21Z</time></trkpt><trkpt lat="23.9140427392" lon="113.3081578743"><ele>79.93</ele><time>2013-02-16T09:22:36Z</time></trkpt><trkpt lat="23.9141202718" lon="113.3081780747"><ele>77.52</ele><time>2013-02-16T09:22:48Z</time></trkpt><trkpt lat="23.9141594153" lon="113.3082145359"><ele>74.64</ele><time>2013-02-16T09:23:02Z</time></trkpt><trkpt lat="23.9142048452" lon="113.3082374185"><ele>76.08</ele><time>2013-02-16T09:23:09Z</time></trkpt><trkpt lat="23.9142833836" lon="113.3082732093"><ele>71.27</ele><time>2013-02-16T09:23:18Z</time></trkpt><trkpt lat="23.9142878260" lon="113.3082734607"><ele>78.00</ele><time>2013-02-16T09:23:19Z</time></trkpt><trkpt lat="23.9142914303" lon="113.3082742989"><ele>75.12</ele><time>2013-02-16T09:23:21Z</time></trkpt><trkpt lat="23.9143143129" lon="113.3083022106"><ele>74.64</ele><time>2013-02-16T09:23:25Z</time></trkpt><trkpt lat="23.9143293165" lon="113.3082873747"><ele>75.12</ele><time>2013-02-16T09:23:31Z</time></trkpt><trkpt lat="23.9143462479" lon="113.3082911465"><ele>75.60</ele><time>2013-02-16T09:23:33Z</time></trkpt><trkpt lat="23.9143725671" lon="113.3082625642"><ele>73.68</ele><time>2013-02-16T09:23:37Z</time></trkpt><trkpt lat="23.9144343417" lon="113.3082188945"><ele>73.68</ele><time>2013-02-16T09:23:49Z</time></trkpt><trkpt lat="23.9144454896" lon="113.3082245942"><ele>74.64</ele><time>2013-02-16T09:23:52Z</time></trkpt><trkpt lat="23.9144620858" lon="113.3082232531"><ele>73.68</ele><time>2013-02-16T09:23:54Z</time></trkpt><trkpt lat="23.9145171549" lon="113.3081476483"><ele>73.20</ele><time>2013-02-16T09:24:08Z</time></trkpt><trkpt lat="23.9146076795" lon="113.3080925792"><ele>71.27</ele><time>2013-02-16T09:24:20Z</time></trkpt><trkpt lat="23.9146160614" lon="113.3080876339"><ele>71.76</ele><time>2013-02-16T09:24:21Z</time></trkpt><trkpt lat="23.9146381896" lon="113.3080722112"><ele>71.27</ele><time>2013-02-16T09:24:24Z</time></trkpt><trkpt lat="23.9146475773" lon="113.3080634940"><ele>70.31</ele><time>2013-02-16T09:24:26Z</time></trkpt><trkpt lat="23.9146721363" lon="113.3080370072"><ele>70.31</ele><time>2013-02-16T09:24:30Z</time></trkpt><trkpt lat="23.9147640020" lon="113.3079779986"><ele>69.35</ele><time>2013-02-16T09:24:45Z</time></trkpt><trkpt lat="23.9147640020" lon="113.3079779986"><ele>65.99</ele><time>2013-02-16T09:24:47Z</time></trkpt><trkpt lat="23.9147640020" lon="113.3079779986"><ele>65.99</ele><time>2013-02-16T09:24:48Z</time></trkpt><trkpt lat="23.9147640020" lon="113.3079779986"><ele>70.31</ele><time>2013-02-16T09:24:49Z</time></trkpt><trkpt lat="23.9147644211" lon="113.3079815190"><ele>70.31</ele><time>2013-02-16T09:24:50Z</time></trkpt><trkpt lat="23.9147663489" lon="113.3079849556"><ele>65.03</ele><time>2013-02-16T09:24:52Z</time></trkpt><trkpt lat="23.9147663489" lon="113.3079849556"><ele>68.39</ele><time>2013-02-16T09:24:53Z</time></trkpt><trkpt lat="23.9147598110" lon="113.3079165593"><ele>68.39</ele><time>2013-02-16T09:25:16Z</time></trkpt><trkpt lat="23.9147507586" lon="113.3079282939"><ele>67.91</ele><time>2013-02-16T09:25:41Z</time></trkpt><trkpt lat="23.9147361740" lon="113.3080108557"><ele>68.87</ele><time>2013-02-16T09:26:06Z</time></trkpt><trkpt lat="23.9147526026" lon="113.3080183156"><ele>68.87</ele><time>2013-02-16T09:26:28Z</time></trkpt><trkpt lat="23.9147403650" lon="113.3079968579"><ele>67.43</ele><time>2013-02-16T09:26:42Z</time></trkpt><trkpt lat="23.9147372637" lon="113.3079919964"><ele>68.39</ele><time>2013-02-16T09:27:05Z</time></trkpt><trkpt lat="23.9147372637" lon="113.3079919964"><ele>64.55</ele><time>2013-02-16T09:27:20Z</time></trkpt><trkpt lat="23.9147386048" lon="113.3079912420"><ele>62.14</ele><time>2013-02-16T09:27:21Z</time></trkpt><trkpt lat="23.9147432987" lon="113.3079935890"><ele>69.83</ele><time>2013-02-16T09:27:23Z</time></trkpt><trkpt lat="23.9147766586" lon="113.3079617377"><ele>68.87</ele><time>2013-02-16T09:27:26Z</time></trkpt><trkpt lat="23.9148339909" lon="113.3079672698"><ele>68.39</ele><time>2013-02-16T09:27:31Z</time></trkpt><trkpt lat="23.9149018843" lon="113.3079339098"><ele>68.39</ele><time>2013-02-16T09:27:40Z</time></trkpt><trkpt lat="23.9149306342" lon="113.3079054952"><ele>67.43</ele><time>2013-02-16T09:27:45Z</time></trkpt><trkpt lat="23.9149527624" lon="113.3078961913"><ele>67.91</ele><time>2013-02-16T09:27:48Z</time></trkpt><trkpt lat="23.9149883855" lon="113.3078403678"><ele>67.43</ele><time>2013-02-16T09:28:02Z</time></trkpt><trkpt lat="23.9149883017" lon="113.3078403678"><ele>65.51</ele><time>2013-02-16T09:28:10Z</time></trkpt></trkseg></trk></gpx>